# Wetter Temperatur Luftdruck Luftfeuchtigkeit Sichtweite Windgeschwindigkeit Windrichtung Zeit
1 Clouds 9 1020 79 10000 9.26 270 15:23 01.02.2023
2 Rain 9 1020 77 10000 11.32 270 13:20 01.02.2023
3 Rain 9 1020 77 10000 10.8 270 12:59 01.02.2023
4 Rain 9 1020 74 10000 8.75 270 11:56 01.02.2023
5 Rain 8 1019 73 10000 9.77 260 08:56 01.02.2023
6 Clouds 7 1020 82 10000 8.75 260 03:18 01.02.2023
7 Clouds 7 1021 70 10000 7.72 270 21:38 31.01.2023
8 Clouds 7 1021 70 10000 6.69 260 19:57 31.01.2023
9 Clouds 7 1022 70 10000 7.72 260 18:50 31.01.2023
10 Clouds 8 1021 67 10000 9.26 270 15:37 31.01.2023
11 Clouds 8 1022 66 10000 10.29 270 15:18 31.01.2023
12 Clouds 9 1022 67 10000 9.26 280 14:52 31.01.2023
13 Clouds 9 1021 74 10000 8.23 270 12:19 31.01.2023
14 Clouds 8 1021 79 10000 7.72 270 11:19 31.01.2023
15 Clouds 8 1020 85 10000 7.2 270 09:52 31.01.2023
16 Clouds 8 1019 89 7000 4.63 240 08:59 31.01.2023
17 Clouds 8 1019 89 7000 4.63 240 08:35 31.01.2023
18 Clouds 8 1019 86 3500 4.12 220 05:36 31.01.2023
19 Clouds 6 1023 83 10000 3.09 200 23:55 30.01.2023
20 Clouds 6 1024 85 10000 2.06 190 22:50 30.01.2023
21 Clouds 6 1024 85 10000 0.45 107 22:22 30.01.2023
22 Clouds 6 1025 85 10000 3.09 240 20:47 30.01.2023
23 Clouds 7 1025 84 10000 3.09 250 19:49 30.01.2023
24 Clouds 8 1025 76 10000 5.66 270 17:30 30.01.2023
25 Clouds 8 1024 73 10000 5.14 280 16:26 30.01.2023
26 Clouds 8 1024 71 10000 6.69 270 14:27 30.01.2023
27 Clouds 8 1025 79 10000 5.66 300 12:26 30.01.2023
28 Clouds 6 1023 80 10000 3.6 300 10:43 30.01.2023
29 Clouds 6 1022 77 10000 4.12 270 09:54 30.01.2023
30 Clouds 6 1022 79 10000 6.69 290 08:41 30.01.2023
31 Clouds 6 1019 77 10000 6.17 270 06:23 30.01.2023
32 Clouds 7 1018 72 10000 8.23 290 01:35 30.01.2023
33 Clouds 8 1017 86 8000 8.75 260 23:34 29.01.2023
34 Clouds 9 1017 84 10000 7.2 240 22:37 29.01.2023
35 Clouds 8 1018 84 10000 4.12 210 21:20 29.01.2023
36 Clouds 7 1018 88 10000 3.09 210 20:36 29.01.2023
37 Clouds 7 1018 85 10000 4.12 210 19:33 29.01.2023
38 Clouds 7 1019 86 10000 6.17 230 18:35 29.01.2023
39 Clouds 8 1019 81 10000 2.06 220 16:53 29.01.2023
40 Clouds 8 1020 80 10000 2.06 230 16:20 29.01.2023
41 Clouds 8 1020 80 10000 2.06 230 16:20 29.01.2023
42 Clouds 7 1022 86 10000 4.63 250 14:20 29.01.2023
43 Clouds 7 1023 85 10000 4.63 260 13:25 29.01.2023
44 Clouds 6 1024 83 10000 5.14 260 12:39 29.01.2023
45 Clouds 6 1024 85 10000 4.12 240 12:20 29.01.2023
46 Clouds 6 1024 84 10000 3.6 220 11:38 29.01.2023
47 Clouds 6 1024 88 10000 3.6 230 10:53 29.01.2023
48 Clouds 5 1025 89 10000 2.57 230 08:54 29.01.2023
49 Clouds 6 1026 91 10000 2.57 210 04:49 29.01.2023
50 Mist 6 1029 91 2300 2.06 230 23:51 28.01.2023
51 Mist 6 1030 91 2000 2.06 270 21:28 28.01.2023
52 Clouds 6 1029 91 6000 1.03 0 19:58 28.01.2023
53 Mist 6 1030 90 5000 2.57 250 19:24 28.01.2023
54 Clouds 7 1030 92 7000 2.57 270 17:46 28.01.2023
55 Mist 7 1030 89 4900 3.09 280 16:57 28.01.2023
56 Clouds 7 1030 89 3500 3.09 280 16:19 28.01.2023
57 Haze 7 1030 88 3500 1.03 280 15:37 28.01.2023
58 Clouds 7 1030 85 6000 1.03 0 13:50 28.01.2023
59 Clouds 6 1031 85 10000 1.54 290 12:45 28.01.2023
60 Clouds 5 1031 88 10000 1.03 0 10:35 28.01.2023
61 Clouds 4 1030 88 10000 1.03 0 09:54 28.01.2023
62 Clouds 4 1030 85 10000 1.03 200 05:50 28.01.2023
63 Clouds 3 1032 91 10000 1.03 150 01:31 28.01.2023
64 Clouds 4 1031 86 10000 1.54 190 00:19 28.01.2023
65 Clouds 4 1031 80 10000 2.06 290 20:25 27.01.2023
66 Clouds 6 1031 78 10000 1.54 290 17:58 27.01.2023
67 Clouds 6 1031 78 10000 1.54 290 17:21 27.01.2023
68 Clouds 6 1032 80 10000 2.06 290 16:58 27.01.2023
69 Clouds 6 1031 76 10000 1.03 0 15:49 27.01.2023
70 Clouds 6 1031 77 10000 1.54 30 14:28 27.01.2023
71 Clouds 6 1031 81 10000 1.03 0 13:39 27.01.2023
72 Clouds 4 1033 89 10000 1.54 260 10:28 27.01.2023
73 Clouds 3 1031 91 10000 2.06 260 08:35 27.01.2023
74 Clouds 4 1033 79 10000 2.06 330 00:40 27.01.2023
75 Clouds 4 1033 78 10000 1.54 340 22:45 26.01.2023
76 Clouds 5 1033 77 10000 2.06 320 20:57 26.01.2023
77 Clouds 5 1033 78 10000 2.06 310 20:30 26.01.2023
78 Clouds 6 1033 75 10000 4.12 350 18:20 26.01.2023
79 Clouds 7 1033 70 10000 4.63 340 16:57 26.01.2023
80 Clouds 7 1033 70 10000 4.12 350 16:24 26.01.2023
81 Clouds 7 1034 72 10000 5.66 360 15:43 26.01.2023
82 Clouds 8 1033 68 10000 5.66 360 15:25 26.01.2023
83 Clouds 7 1033 82 10000 2.57 330 13:54 26.01.2023
84 Clouds 6 1034 84 10000 2.57 330 12:33 26.01.2023
85 Clouds 4 1033 88 10000 3.6 320 10:56 26.01.2023
86 Clouds 3 1033 88 10000 3.09 320 10:26 26.01.2023
87 Clouds 3 1033 88 10000 4.12 320 09:42 26.01.2023
88 Clouds 3 1032 89 10000 2.06 310 08:25 26.01.2023
89 Clear 3 1030 90 10000 1.54 150 23:58 25.01.2023
90 Clear 3 1030 90 10000 1.54 150 23:36 25.01.2023
91 Clear 4 1030 84 10000 2.57 310 21:54 25.01.2023
92 Clear 5 1030 85 10000 2.57 340 21:20 25.01.2023
93 Clouds 7 1029 85 10000 4.63 310 18:31 25.01.2023
94 Clouds 8 1029 86 10000 5.14 300 17:22 25.01.2023
95 Clouds 9 1028 90 3500 5.66 280 15:37 25.01.2023
96 Clouds 8 1031 89 10000 1.03 0 12:48 25.01.2023
97 Mist 6 1032 91 2400 2.06 180 09:56 25.01.2023
98 Mist 6 1032 91 1500 2.57 170 09:30 25.01.2023
99 Mist 6 1033 92 3600 1.03 150 06:54 25.01.2023
100 Clouds 6 1035 92 7000 1.03 0 01:24 25.01.2023
101 Clouds 6 1036 89 7000 1.54 180 22:49 24.01.2023
102 Clouds 6 1036 89 8000 1.54 210 21:30 24.01.2023
103 Clouds 6 1037 88 10000 1.54 190 19:53 24.01.2023
104 Clouds 6 1037 88 9000 1.03 0 18:32 24.01.2023
105 Clouds 6 1037 85 7000 1.03 0 17:20 24.01.2023
106 Clouds 6 1037 85 8000 0.51 0 16:52 24.01.2023
107 Clouds 6 1037 82 8000 1.03 0 15:21 24.01.2023
108 Clouds 5 1038 83 8000 1.54 150 12:56 24.01.2023
109 Clouds 4 1038 85 10000 1.03 0 11:20 24.01.2023
110 Clouds 4 1038 81 10000 0.45 135 08:21 24.01.2023
111 Clouds 4 1038 81 10000 0.53 193 07:51 24.01.2023
112 Clouds 3 1037 86 9000 1.54 120 05:22 24.01.2023
113 Clouds 4 1037 86 10000 0.51 0 00:49 24.01.2023
114 Clouds 3 1037 87 10000 1.54 140 23:48 23.01.2023
115 Clouds 3 1037 87 10000 1.03 130 21:50 23.01.2023
116 Clouds 4 1036 81 10000 1.03 0 19:45 23.01.2023
117 Clouds 5 1036 84 10000 1.54 190 17:59 23.01.2023
118 Clouds 7 1036 77 10000 1.03 0 15:35 23.01.2023
119 Clouds 7 1036 77 10000 1.03 0 14:22 23.01.2023
120 Clouds 6 1036 77 10000 2.06 170 13:23 23.01.2023
121 Clouds 6 1036 78 10000 2.57 170 12:48 23.01.2023
122 Clouds 5 1036 81 10000 2.06 170 11:43 23.01.2023
123 Clouds 4 1034 83 10000 1.03 0 08:27 23.01.2023
124 Clouds 3 1034 86 10000 1.54 190 05:40 23.01.2023
125 Clouds 3 1034 83 10000 1.03 0 23:22 22.01.2023
126 Clouds 3 1034 83 10000 1.03 0 21:33 22.01.2023
127 Clouds 3 1034 80 10000 1.03 0 20:50 22.01.2023
128 Clouds 3 1033 80 10000 1.03 0 19:53 22.01.2023
129 Clouds 3 1032 79 10000 1.03 0 19:19 22.01.2023
130 Clouds 3 1033 83 10000 1.54 160 17:57 22.01.2023
131 Clouds 3 1033 83 10000 1.54 160 17:57 22.01.2023
132 Clouds 4 1033 80 10000 2.06 160 17:26 22.01.2023
133 Clouds 4 1032 82 10000 2.06 160 16:24 22.01.2023
134 Clouds 4 1032 82 10000 2.06 170 14:55 22.01.2023
135 Clouds 3 1033 82 10000 1.54 170 13:48 22.01.2023
136 Clouds 3 1033 82 10000 2.06 170 12:48 22.01.2023
137 Clouds 2 1033 82 10000 2.06 170 11:36 22.01.2023
138 Clouds 1 1033 86 10000 2.06 150 09:36 22.01.2023
139 Clouds 1 1031 83 10000 2.57 170 07:39 22.01.2023
140 Clouds 0 1032 84 10000 2.06 170 02:37 22.01.2023
141 Clouds -1 1032 85 10000 1.03 0 23:33 21.01.2023
142 Clouds -1 1033 85 10000 0.51 0 22:34 21.01.2023
143 Clouds 0 1033 83 10000 1.03 0 20:21 21.01.2023
144 Clear 2 1032 78 10000 1.54 130 17:51 21.01.2023
145 Clear 4 1032 73 10000 2.57 190 14:42 21.01.2023
146 Clouds 3 1033 82 10000 1.54 0 12:58 21.01.2023
147 Clouds 2 1033 85 10000 1.03 0 12:36 21.01.2023
148 Clouds 0 1033 88 10000 1.03 0 11:27 21.01.2023
149 Clouds -2 1031 86 10000 0.51 0 09:35 21.01.2023
150 Clear -2 1029 88 10000 1.54 100 04:41 21.01.2023
151 Clouds 0 1026 85 10000 1.3 39 22:29 20.01.2023
152 Clouds 0 1026 85 10000 1.3 39 22:29 20.01.2023
153 Clouds 0 1025 87 10000 1.54 70 21:40 20.01.2023
154 Clouds 0 1025 86 10000 1.54 130 21:21 20.01.2023
155 Clouds 1 1024 82 10000 3.09 30 19:54 20.01.2023
156 Clouds 5 1022 70 10000 3.6 40 16:51 20.01.2023
157 Clouds 6 1019 67 10000 4.12 10 14:47 20.01.2023
158 Clouds 5 1019 72 10000 2.57 30 13:51 20.01.2023
159 Clouds 2 1017 88 10000 2.06 290 10:25 20.01.2023
160 Clouds 1 1016 88 10000 2.57 280 08:57 20.01.2023
161 Clouds 3 1014 85 10000 0.51 0 05:56 20.01.2023
162 Clouds 4 1012 84 10000 4.12 290 02:30 20.01.2023
163 Clouds 4 1010 81 10000 4.12 290 22:36 19.01.2023
164 Clouds 4 1010 81 10000 4.12 290 22:36 19.01.2023
165 Clouds 4 1009 80 10000 1.54 240 21:20 19.01.2023
166 Clear 3 1009 79 10000 1.54 260 19:29 19.01.2023
167 Clouds 3 1007 74 10000 2.57 290 16:56 19.01.2023
168 Clouds 2 1005 88 10000 1.03 0 13:47 19.01.2023
169 Clouds 0 1004 90 4000 1.54 200 10:18 19.01.2023
170 Clouds 0 1003 88 10000 1.54 160 05:57 19.01.2023
171 Clouds 0 1003 85 10000 2.06 270 22:26 18.01.2023
172 Clouds 2 1001 80 10000 1.54 300 20:20 18.01.2023
173 Clouds 2 1001 80 10000 2.57 300 19:38 18.01.2023
174 Clouds 3 1000 81 10000 1.54 270 19:20 18.01.2023
175 Clouds 5 998 78 10000 4.12 290 15:57 18.01.2023
176 Clouds 4 996 81 10000 3.09 260 13:54 18.01.2023
177 Clouds 2 996 89 10000 2.57 290 11:44 18.01.2023
178 Clouds 0 993 89 10000 1.89 306 09:27 18.01.2023
179 Clouds 1 989 90 10000 2.57 210 02:59 18.01.2023
180 Clouds 1 989 90 10000 3.6 220 00:35 18.01.2023
181 Snow 1 990 91 10000 2.06 220 20:57 17.01.2023
182 Snow 1 989 89 6000 2.06 220 19:36 17.01.2023
183 Snow 1 989 88 10000 1.65 270 18:48 17.01.2023
184 Snow 1 989 88 10000 1.72 272 17:37 17.01.2023
185 Mist 1 988 90 1500 2.57 250 15:26 17.01.2023
186 Mist 1 988 88 1500 1.03 0 14:25 17.01.2023
187 Clouds 1 988 87 10000 3.14 276 13:31 17.01.2023
188 Fog -1 988 91 500 1.54 210 11:45 17.01.2023
189 Fog -1 987 89 600 1.03 0 09:36 17.01.2023
190 Fog -1 987 90 900 0.51 0 08:20 17.01.2023
191 Mist -1 986 89 1200 1.03 0 05:53 17.01.2023
192 Fog -1 986 87 250 1.54 180 00:58 17.01.2023
193 Clouds -2 986 85 10000 1.03 220 23:50 16.01.2023
194 Clear -2 986 82 10000 1.54 180 22:19 16.01.2023
195 Clear -1 987 78 10000 2.06 200 20:49 16.01.2023
196 Clouds -1 987 73 10000 1.54 170 19:42 16.01.2023
197 Clouds 0 987 69 10000 1.54 290 18:55 16.01.2023
198 Clouds 0 987 67 10000 1.03 0 18:22 16.01.2023
199 Clouds 1 987 62 10000 2.57 290 17:55 16.01.2023
200 Clouds 1 988 55 10000 2.57 310 17:19 16.01.2023
201 Clouds 2 988 73 10000 5.14 320 13:40 16.01.2023
202 Clouds 2 987 86 10000 4.63 310 11:58 16.01.2023
203 Clouds 3 987 88 10000 3.09 310 10:21 16.01.2023
204 Clouds 3 986 89 10000 2.57 330 05:22 16.01.2023
205 Clouds 3 991 88 10000 1.03 0 22:28 15.01.2023
206 Clouds 4 992 88 10000 1.03 0 20:48 15.01.2023
207 Clouds 4 992 89 10000 1.03 0 20:23 15.01.2023
208 Clouds 4 994 90 10000 2.06 170 18:26 15.01.2023
209 Clouds 6 994 87 10000 3.6 220 16:38 15.01.2023
210 Clouds 6 994 92 10000 5.66 240 12:51 15.01.2023
211 Clouds 5 993 93 6000 7.2 250 11:38 15.01.2023
212 Clouds 5 993 89 5000 6.17 250 10:41 15.01.2023
213 Clouds 5 992 89 9000 7.72 250 10:21 15.01.2023
214 Clouds 4 992 76 10000 6.69 230 01:53 15.01.2023
215 Clouds 5 993 74 10000 6.69 240 23:21 14.01.2023
216 Clouds 5 993 77 10000 6.17 220 22:31 14.01.2023
217 Clouds 5 993 81 10000 8.23 240 21:36 14.01.2023
218 Clouds 5 992 77 10000 8.75 230 21:18 14.01.2023
219 Rain 5 992 75 10000 6.69 230 20:39 14.01.2023
220 Clouds 5 992 79 10000 7.2 240 18:47 14.01.2023
221 Clouds 5 993 80 10000 9.77 260 17:39 14.01.2023
222 Clouds 7 992 73 10000 8.23 240 15:30 14.01.2023
223 Clouds 7 992 82 10000 7.2 250 14:26 14.01.2023
224 Clouds 7 992 84 10000 6.69 250 13:43 14.01.2023
225 Rain 7 991 86 10000 7.2 290 11:51 14.01.2023
226 Rain 8 990 90 8000 4.12 260 10:47 14.01.2023
227 Clouds 9 989 89 2800 3.09 180 08:19 14.01.2023
228 Clouds 7 1007 80 10000 3.6 190 23:39 13.01.2023
229 Clouds 6 1008 84 10000 2.06 180 22:50 13.01.2023
230 Clouds 6 1008 83 10000 2.06 180 22:31 13.01.2023
231 Clouds 6 1009 78 10000 2.57 180 21:46 13.01.2023
232 Clouds 6 1009 79 10000 3.09 220 19:49 13.01.2023
233 Clouds 7 1009 77 10000 5.14 240 18:23 13.01.2023
234 Clouds 8 1008 76 10000 9.77 260 16:45 13.01.2023
235 Clouds 8 1004 89 8000 11.32 260 13:37 13.01.2023
236 Clouds 7 1003 85 10000 10.8 260 12:20 13.01.2023
237 Clouds 7 1001 83 10000 11.83 260 10:27 13.01.2023
238 Clouds 7 1001 86 10000 11.83 260 09:46 13.01.2023
239 Clouds 8 999 80 10000 10.29 260 08:56 13.01.2023
240 Clouds 8 998 80 10000 10.29 250 08:27 13.01.2023
241 Clouds 8 997 78 10000 10.8 260 06:53 13.01.2023
242 Clouds 8 995 78 10000 10.29 250 05:23 13.01.2023
243 Rain 7 992 75 10000 12.86 230 00:37 13.01.2023
244 Clouds 8 993 66 10000 10.29 230 22:44 12.01.2023
245 Clouds 8 994 68 10000 7.72 230 20:55 12.01.2023
246 Clouds 8 994 69 10000 7.72 220 19:46 12.01.2023
247 Clouds 8 994 73 10000 7.2 230 17:48 12.01.2023
248 Clouds 8 994 78 10000 6.69 230 16:34 12.01.2023
249 Clouds 10 994 75 10000 8.75 240 14:45 12.01.2023
250 Clouds 10 994 74 10000 8.75 240 14:45 12.01.2023
251 Clouds 11 994 73 10000 9.26 250 14:22 12.01.2023
252 Clouds 11 994 87 10000 4.12 200 12:55 12.01.2023
253 Clouds 10 995 87 10000 4.12 200 10:44 12.01.2023
254 Clouds 9 996 89 10000 3.6 210 08:37 12.01.2023
255 Clouds 10 995 89 7000 7.72 270 05:26 12.01.2023
256 Rain 7 997 90 6000 3.6 170 23:59 11.01.2023
257 Rain 7 997 90 6000 3.6 170 23:41 11.01.2023
258 Rain 7 998 91 6000 3.09 180 23:21 11.01.2023
259 Rain 7 1001 82 9000 4.63 220 21:46 11.01.2023
260 Clouds 7 1001 72 10000 4.63 230 20:32 11.01.2023
261 Clouds 7 1000 76 10000 6.17 250 18:39 11.01.2023
262 Rain 8 1000 73 10000 8.75 230 17:23 11.01.2023
263 Clouds 7 999 85 10000 4.63 210 15:20 11.01.2023
264 Clouds 8 1001 78 10000 6.17 210 13:44 11.01.2023
265 Clouds 8 1002 77 10000 3.6 210 11:55 11.01.2023
266 Clouds 7 1002 78 10000 3.6 200 10:32 11.01.2023
267 Clouds 7 1001 77 10000 5.14 220 08:19 11.01.2023
268 Clouds 6 1001 78 10000 6.17 230 07:25 11.01.2023
269 Clouds 9 998 81 10000 7.2 250 00:42 11.01.2023
270 Clouds 10 996 80 10000 5.66 260 22:46 10.01.2023
271 Clouds 10 994 81 10000 9.26 260 21:34 10.01.2023
272 Clouds 11 993 85 10000 7.2 260 20:42 10.01.2023
273 Rain 12 991 88 10000 5.66 200 19:39 10.01.2023
274 Drizzle 12 992 88 3000 5.66 190 18:47 10.01.2023
275 Clouds 12 993 87 10000 5.14 190 17:58 10.01.2023
276 Clouds 12 994 87 10000 5.66 200 16:39 10.01.2023
277 Clouds 12 995 89 10000 4.63 190 15:31 10.01.2023
278 Clouds 11 996 89 10000 4.63 190 14:31 10.01.2023
279 Rain 8 998 86 10000 4.63 190 12:22 10.01.2023
280 Rain 6 1003 87 6000 4.63 160 09:21 10.01.2023
281 Rain 5 1005 86 9000 3.09 150 08:29 10.01.2023
282 Rain 6 1006 85 10000 2.57 170 07:26 10.01.2023
283 Clouds 5 1008 85 10000 2.57 200 04:53 10.01.2023
284 Clouds 7 1008 86 10000 8.23 250 22:59 09.01.2023
285 Clouds 7 1006 86 10000 7.72 250 21:49 09.01.2023
286 Clouds 7 1005 80 10000 6.17 250 20:44 09.01.2023
287 Clouds 7 1005 81 10000 9.77 260 19:21 09.01.2023
288 Clouds 7 1002 86 7000 7.72 250 17:54 09.01.2023
289 Rain 7 1002 80 10000 8.23 250 17:19 09.01.2023
290 Clouds 7 1001 76 10000 6.69 250 16:32 09.01.2023
291 Clouds 7 1000 77 10000 7.72 260 15:23 09.01.2023
292 Clouds 7 999 76 10000 7.72 270 14:43 09.01.2023
293 Clouds 7 997 80 10000 8.75 270 12:56 09.01.2023
294 Clouds 7 997 83 10000 6.17 270 12:35 09.01.2023
295 Clouds 7 996 85 10000 7.72 270 11:21 09.01.2023
296 Clouds 6 992 89 8000 4.63 250 08:42 09.01.2023
297 Clouds 5 989 86 10000 0.45 90 06:34 09.01.2023
298 Rain 5 987 88 10000 3.09 180 02:53 09.01.2023
299 Clouds 4 985 88 10000 3.09 180 22:53 08.01.2023
300 Clouds 5 985 86 10000 2.57 180 21:23 08.01.2023
301 Clouds 5 985 83 10000 2.57 180 20:57 08.01.2023
302 Clouds 5 984 84 10000 2.57 180 19:43 08.01.2023
303 Clouds 6 984 82 10000 3.6 210 17:40 08.01.2023
304 Clouds 6 985 83 10000 4.12 220 17:18 08.01.2023
305 Clouds 6 984 82 10000 5.66 210 15:38 08.01.2023
306 Clouds 6 984 87 10000 5.14 210 14:18 08.01.2023
307 Rain 7 984 84 10000 3.6 160 13:32 08.01.2023
308 Rain 7 985 86 10000 4.12 160 12:59 08.01.2023
309 Clouds 6 987 87 10000 2.57 150 11:23 08.01.2023
310 Clouds 5 988 86 10000 2.57 150 09:37 08.01.2023
311 Clouds 6 989 81 4700 5.66 200 08:27 08.01.2023
312 Rain 7 989 86 10000 3.6 180 02:25 08.01.2023
313 Clouds 7 989 84 10000 4.63 190 22:49 07.01.2023
314 Clouds 7 989 83 10000 4.63 190 22:26 07.01.2023
315 Clouds 7 989 83 10000 5.14 180 21:49 07.01.2023
316 Clouds 7 989 83 10000 4.63 200 20:57 07.01.2023
317 Clear 7 989 83 10000 6.17 200 20:25 07.01.2023
318 Clouds 8 988 81 10000 4.12 200 19:18 07.01.2023
319 Clouds 10 989 75 10000 3.6 200 17:59 07.01.2023
320 Clouds 10 989 75 10000 3.6 200 17:39 07.01.2023
321 Clouds 10 988 75 10000 4.12 190 16:38 07.01.2023
322 Clouds 10 989 74 10000 4.12 200 15:50 07.01.2023
323 Clouds 11 989 72 10000 3.6 200 15:30 07.01.2023
324 Clouds 11 989 76 10000 2.57 180 14:47 07.01.2023
325 Clouds 11 991 80 10000 4.63 210 13:54 07.01.2023
326 Clouds 11 991 80 10000 4.63 210 13:54 07.01.2023
327 Clouds 11 991 81 10000 4.63 210 13:34 07.01.2023
328 Clouds 11 991 87 10000 4.63 200 12:23 07.01.2023
329 Clouds 10 990 89 10000 3.09 180 11:51 07.01.2023
330 Rain 11 991 87 10000 4.63 170 10:25 07.01.2023
331 Rain 11 992 85 7000 5.66 180 08:38 07.01.2023
332 Clouds 12 992 81 10000 5.14 180 07:45 07.01.2023
333 Clouds 12 993 82 10000 5.66 170 07:19 07.01.2023
334 Rain 11 996 87 2400 4.63 200 04:49 07.01.2023
335 Clouds 11 1002 86 10000 3.6 170 22:38 06.01.2023
336 Clouds 10 1003 85 10000 3.6 170 22:19 06.01.2023
337 Clouds 10 1004 85 10000 3.6 160 21:27 06.01.2023
338 Clouds 9 1006 84 10000 3.09 160 19:58 06.01.2023
339 Clouds 9 1005 81 10000 3.09 160 19:40 06.01.2023
340 Clouds 9 1005 81 10000 2.57 160 19:22 06.01.2023
341 Clouds 9 1007 84 10000 2.57 140 18:42 06.01.2023
342 Clouds 9 1007 85 10000 2.06 170 17:21 06.01.2023
343 Clouds 9 1007 84 10000 3.09 180 16:32 06.01.2023
344 Clouds 9 1007 81 10000 4.12 190 15:56 06.01.2023
345 Clouds 9 1007 81 10000 4.12 190 15:38 06.01.2023
346 Clouds 9 1008 80 10000 3.6 200 14:40 06.01.2023
347 Clouds 8 1009 82 10000 4.12 200 12:37 06.01.2023
348 Clouds 7 1009 88 10000 4.12 210 10:58 06.01.2023
349 Clouds 6 1009 84 10000 3.09 180 08:55 06.01.2023
350 Clouds 6 1009 86 10000 3.09 200 06:42 06.01.2023
351 Rain 8 1007 88 10000 5.66 270 00:18 06.01.2023
352 Rain 9 1006 86 10000 5.66 200 22:55 05.01.2023
353 Rain 11 1006 86 10000 4.63 190 21:42 05.01.2023
354 Clouds 11 1009 84 10000 3.6 190 19:19 05.01.2023
355 Clouds 11 1011 86 10000 5.14 200 17:28 05.01.2023
356 Clouds 11 1012 87 10000 3.6 200 15:59 05.01.2023
357 Clouds 11 1011 85 10000 3.6 200 15:40 05.01.2023
358 Rain 12 1012 86 10000 5.14 210 14:34 05.01.2023
359 Clouds 11 1014 88 10000 4.12 200 12:42 05.01.2023
360 Clouds 10 1014 89 10000 3.6 200 11:44 05.01.2023
361 Clouds 9 1014 86 10000 2.57 190 09:50 05.01.2023
362 Clouds 8 1015 85 10000 2.06 190 08:24 05.01.2023
363 Clouds 9 1015 84 10000 3.09 200 07:18 05.01.2023
364 Clouds 10 1015 80 10000 5.14 260 03:34 05.01.2023
365 Clouds 10 1014 82 10000 3.6 210 22:35 04.01.2023
366 Clouds 11 1012 77 10000 3.09 210 21:33 04.01.2023
367 Clouds 10 1012 79 10000 4.63 220 20:26 04.01.2023
368 Clouds 10 1012 80 10000 4.63 220 19:54 04.01.2023
369 Clouds 10 1012 80 10000 5.66 240 19:30 04.01.2023
370 Clouds 10 1010 78 10000 4.12 220 18:19 04.01.2023
371 Clouds 11 1009 80 10000 5.14 230 16:31 04.01.2023
372 Rain 12 1008 74 10000 9.26 240 14:53 04.01.2023
373 Clouds 12 1008 79 10000 9.26 240 13:36 04.01.2023
374 Clouds 11 1007 81 10000 7.2 230 11:40 04.01.2023
375 Clouds 11 1007 81 10000 9.26 240 11:18 04.01.2023
376 Clouds 11 1007 81 10000 8.75 240 10:42 04.01.2023
377 Clouds 11 1006 78 10000 7.72 230 10:21 04.01.2023
378 Clouds 12 1005 85 10000 5.66 230 05:40 04.01.2023
379 Clouds 12 1004 91 10000 4.12 200 01:42 04.01.2023
380 Clouds 12 1004 91 10000 5.66 200 23:45 03.01.2023
381 Clouds 12 1004 91 10000 5.14 200 23:26 03.01.2023
382 Rain 11 1004 90 10000 5.14 190 21:43 03.01.2023
383 Rain 11 1004 89 10000 6.17 190 20:51 03.01.2023
384 Rain 11 1006 88 10000 5.14 180 18:40 03.01.2023
385 Clouds 10 1007 86 10000 4.12 180 16:43 03.01.2023
386 Rain 10 1008 87 10000 3.6 180 15:41 03.01.2023
387 Rain 9 1010 89 9000 3.09 0 13:48 03.01.2023
388 Rain 9 1011 88 8000 3.09 180 13:29 03.01.2023
389 Rain 9 1011 87 10000 3.09 170 12:57 03.01.2023
390 Rain 9 1012 87 10000 3.09 180 12:28 03.01.2023
391 Clouds 7 1013 86 10000 4.63 180 09:51 03.01.2023
392 Clear 3 1017 85 10000 2.06 0 04:29 03.01.2023
393 Clear 2 1017 85 10000 2.57 150 03:53 03.01.2023
394 Clear 2 1017 82 10000 2.57 150 03:33 03.01.2023
395 Clear 2 1019 88 10000 1.03 0 23:20 02.01.2023
396 Clear 2 1019 88 10000 1.54 170 22:40 02.01.2023
397 Clouds 2 1019 88 10000 2.06 170 21:26 02.01.2023
398 Clouds 2 1019 86 10000 1.54 160 20:31 02.01.2023
399 Clear 3 1018 86 10000 1.54 170 18:52 02.01.2023
400 Clouds 5 1017 82 10000 1.54 210 16:53 02.01.2023
401 Rain 6 1016 82 10000 3.09 230 14:26 02.01.2023
402 Clouds 5 1016 90 10000 2.06 210 12:56 02.01.2023
403 Clouds 4 1015 91 10000 2.57 230 11:39 02.01.2023
404 Clouds 4 1011 90 10000 2.57 260 08:55 02.01.2023
405 Clouds 6 1008 91 10000 2.57 280 05:43 02.01.2023
406 Clouds 6 1004 88 10000 2.06 180 23:32 01.01.2023
407 Clouds 6 1004 88 10000 1.03 0 21:55 01.01.2023
408 Clouds 7 1004 88 10000 1.54 210 20:50 01.01.2023
409 Clouds 7 1004 87 10000 1.54 200 20:18 01.01.2023
410 Clouds 7 1004 87 10000 1.54 200 20:18 01.01.2023
411 Clouds 8 1005 83 10000 0.51 0 18:53 01.01.2023
412 Clouds 8 1005 85 10000 2.06 180 17:39 01.01.2023
413 Clouds 8 1004 83 10000 2.57 200 17:19 01.01.2023
414 Clouds 9 1003 80 10000 3.6 190 15:46 01.01.2023
415 Clouds 8 1003 84 10000 4.12 190 13:50 01.01.2023
416 Clouds 8 1002 87 10000 2.57 190 12:59 01.01.2023
417 Clouds 7 1002 88 10000 2.57 180 11:42 01.01.2023
418 Clouds 7 1002 89 10000 2.06 200 11:21 01.01.2023
419 Clouds 7 1001 88 10000 2.06 180 09:35 01.01.2023
420 Rain 7 1001 86 10000 1.54 180 08:25 01.01.2023
421 Rain 7 1000 85 10000 3.09 190 07:57 01.01.2023
422 Rain 7 999 85 10000 2.57 190 06:42 01.01.2023
423 Clouds 8 995 89 10000 2.57 180 23:46 31.12.2022
424 Clouds 8 995 89 10000 2.57 190 23:21 31.12.2022
425 Rain 9 995 90 8000 3.09 210 21:46 31.12.2022
426 Rain 9 995 92 4500 2.57 200 21:23 31.12.2022
427 Rain 10 994 90 10000 2.06 180 20:22 31.12.2022
428 Rain 10 993 89 8000 2.06 170 18:45 31.12.2022
429 Rain 10 994 88 6000 2.06 170 18:20 31.12.2022
430 Rain 10 994 88 10000 1.54 170 17:56 31.12.2022
431 Rain 10 993 86 10000 2.57 170 17:22 31.12.2022
432 Clouds 10 994 89 10000 1.54 170 16:31 31.12.2022
433 Clouds 10 993 89 10000 1.54 170 15:28 31.12.2022
434 Clouds 10 994 92 10000 2.06 170 13:55 31.12.2022
435 Clouds 10 994 92 10000 2.06 170 13:55 31.12.2022
436 Clouds 9 994 91 10000 1.03 0 13:24 31.12.2022
437 Clouds 9 994 91 10000 0.51 0 12:21 31.12.2022
438 Clouds 8 994 90 4600 0 0 11:51 31.12.2022
439 Clouds 8 994 92 10000 1.54 140 10:49 31.12.2022
440 Clouds 7 993 90 10000 1.03 120 09:56 31.12.2022
441 Clouds 7 993 92 10000 1.54 120 09:36 31.12.2022
442 Drizzle 8 992 91 6000 2.06 180 07:58 31.12.2022
443 Clouds 9 993 79 10000 3.09 180 00:59 31.12.2022
444 Clouds 9 993 79 10000 3.09 190 00:24 31.12.2022
445 Clouds 9 992 78 10000 3.6 190 22:52 30.12.2022
446 Clouds 9 991 78 10000 3.6 200 21:54 30.12.2022
447 Clouds 9 991 76 10000 4.63 210 21:31 30.12.2022
448 Clouds 9 989 73 10000 5.66 220 19:52 30.12.2022
449 Clouds 10 988 76 10000 4.12 220 17:53 30.12.2022
450 Clouds 10 987 75 10000 4.12 210 17:33 30.12.2022
451 Clouds 11 984 82 10000 7.2 220 15:58 30.12.2022
452 Clouds 11 983 84 10000 4.63 210 14:54 30.12.2022
453 Clouds 9 984 86 10000 4.63 190 12:50 30.12.2022
454 Clouds 8 990 81 10000 5.14 160 08:22 30.12.2022
455 Clouds 7 996 82 10000 4.12 160 03:44 30.12.2022
456 Clouds 6 997 81 10000 3.09 160 02:24 30.12.2022
457 Clouds 4 1000 85 10000 2.06 180 22:58 29.12.2022
458 Clouds 5 1000 83 10000 2.57 180 21:32 29.12.2022
459 Clouds 5 1000 82 10000 2.57 200 20:54 29.12.2022
460 Clouds 5 1000 83 10000 3.09 200 20:25 29.12.2022
461 Clouds 6 998 77 10000 2.57 190 18:30 29.12.2022
462 Clouds 7 997 75 10000 4.12 210 17:33 29.12.2022
463 Clouds 7 997 76 10000 6.69 230 16:56 29.12.2022
464 Clouds 7 997 75 10000 6.69 230 16:33 29.12.2022
465 Clouds 8 995 70 10000 9.26 230 15:37 29.12.2022
466 Clouds 8 994 73 10000 6.69 230 13:34 29.12.2022
467 Clouds 7 994 79 10000 4.63 210 11:33 29.12.2022
468 Clouds 7 991 88 10000 4.63 220 08:22 29.12.2022
469 Clouds 9 986 83 10000 6.69 210 00:22 29.12.2022
470 Clouds 9 985 78 10000 6.69 200 23:27 28.12.2022
471 Clouds 9 986 81 10000 4.63 200 21:21 28.12.2022
472 Clouds 9 987 83 10000 5.66 200 20:25 28.12.2022
473 Clouds 10 987 82 10000 5.66 200 19:23 28.12.2022
474 Clouds 10 987 87 10000 6.69 220 16:56 28.12.2022
475 Clouds 10 988 87 10000 4.63 170 14:43 28.12.2022
476 Clouds 10 993 88 10000 4.12 160 12:55 28.12.2022
477 Rain 9 995 90 10000 3.09 160 11:55 28.12.2022
478 Rain 7 996 89 10000 2.06 150 10:43 28.12.2022
479 Clouds 6 999 87 10000 1.54 180 08:43 28.12.2022
480 Clouds 6 1002 87 10000 2.57 180 06:50 28.12.2022
481 Clouds 6 1004 87 10000 2.06 210 03:46 28.12.2022
482 Clouds 7 1004 90 10000 3.09 220 23:36 27.12.2022
483 Rain 9 1004 87 7000 5.14 190 19:58 27.12.2022
484 Rain 9 1004 87 4700 5.14 190 19:27 27.12.2022
485 Clouds 9 1006 88 6000 5.14 180 17:20 27.12.2022
486 Clouds 8 1007 88 9000 5.66 180 16:39 27.12.2022
487 Clouds 8 1009 85 10000 5.66 180 15:25 27.12.2022
488 Rain 6 1013 86 10000 3.09 0 12:29 27.12.2022
489 Clouds 5 1015 86 10000 2.57 170 11:28 27.12.2022
490 Clouds 4 1016 87 10000 2.57 170 09:46 27.12.2022
491 Clouds 4 1017 88 10000 2.06 170 09:22 27.12.2022
492 Clouds 3 1017 85 10000 2.06 170 06:49 27.12.2022
493 Clouds 3 1018 86 10000 2.06 200 04:29 27.12.2022
494 Clouds 4 1016 87 10000 2.06 220 22:20 26.12.2022
495 Rain 4 1014 81 10000 6.17 240 20:46 26.12.2022
496 Rain 4 1014 80 10000 7.72 240 20:24 26.12.2022
497 Clouds 5 1015 79 10000 5.14 220 18:43 26.12.2022
498 Clouds 6 1013 72 10000 4.12 230 17:26 26.12.2022
499 Clouds 7 1012 72 10000 4.63 230 15:44 26.12.2022
500 Clouds 5 1012 81 10000 5.14 220 12:59 26.12.2022
501 Clouds 5 1012 81 10000 4.12 210 11:45 26.12.2022
502 Clouds 3 1007 81 10000 0.45 30 05:49 26.12.2022
503 Clouds 8 1001 87 10000 3.6 170 23:44 25.12.2022
504 Clouds 8 1000 85 10000 2.57 160 22:57 25.12.2022
505 Clouds 8 1000 85 10000 3.6 170 22:26 25.12.2022
506 Clouds 8 1001 87 10000 2.57 0 19:58 25.12.2022
507 Clouds 9 1001 85 10000 1.54 160 17:52 25.12.2022
508 Clouds 9 1001 85 10000 1.79 107 17:34 25.12.2022
509 Clouds 9 1001 85 10000 1.54 0 16:47 25.12.2022
510 Clouds 9 1002 89 7000 1.54 160 14:26 25.12.2022
511 Rain 9 1003 85 10000 2.57 180 11:47 25.12.2022
512 Clouds 8 1002 84 10000 2.06 160 04:48 25.12.2022
513 Clouds 9 1003 88 10000 3.09 190 22:55 24.12.2022
514 Clouds 9 1003 84 10000 2.06 0 19:53 24.12.2022
515 Clouds 8 1004 83 10000 2.57 170 17:35 24.12.2022
516 Clouds 9 1005 81 10000 3.09 170 15:38 24.12.2022
517 Clouds 10 1005 78 10000 3.09 190 14:30 24.12.2022
518 Clear 8 1006 84 10000 3.09 190 12:20 24.12.2022
519 Clear 6 1005 91 10000 2.06 180 10:23 24.12.2022
520 Clouds 6 1005 92 10000 2.57 180 09:37 24.12.2022
521 Clear 6 1004 90 10000 2.57 180 08:36 24.12.2022
522 Clouds 8 1001 92 10000 2.57 190 02:51 24.12.2022
523 Clouds 7 1000 91 10000 2.57 190 00:29 24.12.2022
524 Clouds 7 999 90 10000 3.09 190 22:30 23.12.2022
525 Clouds 7 999 90 10000 1.54 160 21:33 23.12.2022
526 Clouds 8 997 90 10000 3.6 200 19:40 23.12.2022
527 Clouds 7 997 91 10000 2.57 170 19:22 23.12.2022
528 Rain 7 997 89 10000 2.57 190 18:53 23.12.2022
529 Clouds 7 997 90 10000 3.6 180 18:21 23.12.2022
530 Rain 7 997 89 5000 2.57 190 17:41 23.12.2022
531 Clouds 7 996 87 5000 2.57 110 15:45 23.12.2022
532 Rain 6 998 90 10000 3.09 110 12:31 23.12.2022
533 Clouds 6 999 89 10000 3.09 100 09:53 23.12.2022
534 Clouds 6 999 89 10000 0.45 36 09:34 23.12.2022
535 Clouds 6 1001 90 10000 2.06 90 07:23 23.12.2022
536 Mist 6 1001 92 3500 1.54 70 06:49 23.12.2022
537 Mist 6 1003 91 2700 1.54 320 23:24 22.12.2022
538 Mist 7 1003 91 2700 1.54 320 22:59 22.12.2022
539 Clouds 7 1002 91 6000 2.06 310 21:49 22.12.2022
540 Mist 7 1001 93 4400 2.57 330 19:46 22.12.2022
541 Mist 7 1001 93 1100 2.06 340 19:18 22.12.2022
542 Mist 7 1000 91 1100 1.03 310 17:33 22.12.2022
543 Clouds 7 1000 92 4800 0.51 0 16:42 22.12.2022
544 Clouds 8 999 90 10000 0.51 0 15:35 22.12.2022
545 Clouds 8 999 90 10000 1.03 0 14:58 22.12.2022
546 Rain 8 999 92 10000 0.51 0 13:54 22.12.2022
547 Drizzle 7 999 92 5000 0.51 0 13:19 22.12.2022
548 Clouds 7 1000 91 10000 1.03 0 11:34 22.12.2022
549 Clouds 6 1000 91 10000 1.03 0 10:31 22.12.2022
550 Clouds 6 1000 91 3000 2.06 180 09:21 22.12.2022
551 Clouds 5 1000 89 10000 1.54 160 08:32 22.12.2022
552 Clouds 5 1000 90 10000 1.54 160 07:22 22.12.2022
553 Clouds 4 1000 88 10000 2.06 180 04:18 22.12.2022
554 Clouds 5 1000 89 10000 3.09 200 00:24 22.12.2022
555 Clouds 5 1000 87 10000 4.12 200 22:24 21.12.2022
556 Clouds 5 1000 87 10000 3.09 190 21:24 21.12.2022
557 Clouds 5 1000 86 10000 1.54 160 20:54 21.12.2022
558 Clear 5 999 85 10000 3.6 200 20:29 21.12.2022
559 Clear 6 999 87 10000 3.09 200 19:44 21.12.2022
560 Clouds 6 999 85 10000 3.09 190 19:24 21.12.2022
561 Clouds 6 1000 84 10000 3.6 200 18:47 21.12.2022
562 Clouds 6 1001 82 10000 2.57 180 17:49 21.12.2022
563 Clouds 9 1000 72 10000 5.14 210 14:59 21.12.2022
564 Clouds 8 1000 72 10000 5.14 200 13:28 21.12.2022
565 Clear 7 1001 78 10000 3.09 190 11:47 21.12.2022
566 Clouds 7 1001 80 10000 3.6 0 11:20 21.12.2022
567 Clear 5 1001 84 10000 3.6 190 09:47 21.12.2022
568 Clouds 6 1001 79 10000 6.17 210 07:38 21.12.2022
569 Clouds 6 1002 88 10000 2.57 170 03:48 21.12.2022
570 Clouds 6 1005 85 10000 2.57 180 22:56 20.12.2022
571 Clouds 6 1004 84 10000 2.57 190 21:22 20.12.2022
572 Clouds 6 1005 86 10000 3.09 190 20:23 20.12.2022
573 Clouds 6 1005 85 10000 3.09 190 19:40 20.12.2022
574 Clouds 7 1003 81 10000 3.6 210 18:30 20.12.2022
575 Clouds 7 1003 80 10000 2.06 190 17:55 20.12.2022
576 Clouds 7 1003 81 10000 2.06 190 17:34 20.12.2022
577 Clouds 8 1003 81 10000 4.63 230 16:35 20.12.2022
578 Clouds 8 1003 82 10000 3.6 210 16:35 20.12.2022
579 Clouds 9 1002 81 10000 4.63 240 15:30 20.12.2022
580 Clouds 9 1002 77 10000 3.6 210 14:47 20.12.2022
581 Rain 9 1002 77 10000 4.12 200 14:28 20.12.2022
582 Clouds 9 1003 81 10000 4.63 200 12:57 20.12.2022
583 Clouds 9 1002 80 10000 4.12 200 12:26 20.12.2022
584 Clouds 8 1002 84 10000 4.63 200 11:32 20.12.2022
585 Clouds 7 1000 87 10000 2.57 190 08:47 20.12.2022
586 Clouds 10 999 91 10000 1.54 210 00:35 20.12.2022
587 Clouds 11 999 87 10000 3.09 210 22:37 19.12.2022
588 Clouds 11 999 84 10000 3.6 220 21:44 19.12.2022
589 Clouds 12 998 81 10000 6.69 220 19:56 19.12.2022
590 Clouds 12 998 81 10000 6.69 220 19:38 19.12.2022
591 Clouds 13 997 79 10000 7.72 210 18:24 19.12.2022
592 Clouds 14 996 80 10000 6.17 200 16:35 19.12.2022
593 Rain 13 996 83 10000 5.14 170 13:27 19.12.2022
594 Clouds 13 997 82 10000 4.12 160 11:56 19.12.2022
595 Clouds 13 997 85 10000 3.09 160 10:34 19.12.2022
596 Clouds 13 998 86 10000 3.09 170 07:40 19.12.2022
597 Clouds 11 998 90 10000 4.63 170 02:48 19.12.2022
598 Clouds 7 1001 88 10000 4.12 150 22:20 18.12.2022
599 Clouds 7 1002 91 10000 4.12 150 21:41 18.12.2022
600 Clouds 6 1002 90 10000 3.6 160 21:20 18.12.2022
601 Clouds 5 1003 88 10000 4.63 160 19:49 18.12.2022
602 Clouds 5 1003 89 10000 4.63 160 19:31 18.12.2022
603 Clouds 4 1005 86 10000 4.63 150 17:53 18.12.2022
604 Rain 3 1006 85 10000 5.66 140 16:27 18.12.2022
605 Rain 3 1007 85 9000 4.12 140 15:39 18.12.2022
606 Rain 3 1007 81 10000 4.63 130 15:18 18.12.2022
607 Rain 3 1009 77 10000 4.12 140 13:36 18.12.2022
608 Clouds 2 1011 77 10000 4.12 130 12:51 18.12.2022
609 Clouds 2 1012 76 10000 4.12 140 12:19 18.12.2022
610 Clouds 1 1014 76 10000 3.09 150 10:20 18.12.2022
611 Clouds 1 1015 77 10000 3.09 150 08:47 18.12.2022
612 Clouds 1 1016 79 10000 2.57 0 07:20 18.12.2022
613 Clouds 1 1016 75 10000 2.57 130 06:20 18.12.2022
614 Clouds 1 1019 78 10000 1.54 140 02:59 18.12.2022
615 Clouds 2 1019 88 10000 2.06 170 23:40 17.12.2022
616 Clouds 3 1019 87 10000 3.09 170 21:47 17.12.2022
617 Clouds 3 1017 89 10000 1.54 170 18:54 17.12.2022
618 Rain 3 1017 89 6000 1.54 0 16:41 17.12.2022
619 Clouds 3 1016 88 10000 2.06 170 14:23 17.12.2022
620 Clouds 3 1016 88 10000 3.09 170 11:36 17.12.2022
621 Clouds 2 1016 88 10000 1.54 170 10:46 17.12.2022
622 Rain 2 1016 86 5000 2.57 180 09:41 17.12.2022
623 Clouds 1 1015 87 10000 2.06 180 07:26 17.12.2022
624 Clouds 1 1016 86 10000 2.57 180 06:45 17.12.2022
625 Clouds 0 1016 84 10000 2.06 170 23:39 16.12.2022
626 Clouds 0 1017 81 10000 2.57 180 20:55 16.12.2022
627 Clouds 0 1017 78 10000 2.06 170 18:46 16.12.2022
628 Clouds 2 1016 82 10000 2.06 180 15:37 16.12.2022
629 Clouds 1 1016 80 10000 1.54 210 14:47 16.12.2022
630 Clouds 1 1016 83 10000 1.54 180 13:44 16.12.2022
631 Clouds -1 1017 86 10000 1.54 190 11:58 16.12.2022
632 Clouds -4 1016 85 10000 1.03 0 09:53 16.12.2022
633 Clouds -4 1016 85 10000 1.54 100 09:24 16.12.2022
634 Clouds -4 1015 85 10000 1.03 0 07:55 16.12.2022
635 Clouds -5 1015 85 9000 1.03 120 07:25 16.12.2022
636 Clouds -4 1015 84 6000 1.54 130 23:24 15.12.2022
637 Haze -4 1014 86 4400 1.54 130 22:20 15.12.2022
638 Clear -4 1014 83 10000 0.51 0 20:30 15.12.2022
639 Clear -4 1013 83 10000 1.03 130 19:35 15.12.2022
640 Clear -2 1012 78 10000 0.51 0 17:28 15.12.2022
641 Clear -1 1012 75 10000 0.51 0 16:39 15.12.2022
642 Clear 0 1012 78 10000 1.54 240 14:57 15.12.2022
643 Clear -1 1012 75 10000 0.51 0 13:18 15.12.2022
644 Clear -2 1013 78 10000 0 0 12:25 15.12.2022
645 Clear -7 1011 81 10000 0.51 0 09:28 15.12.2022
646 Clear -7 1011 81 10000 1.03 140 08:46 15.12.2022
647 Clear -7 1010 84 10000 1.54 130 05:47 15.12.2022
648 Clear -6 1011 84 10000 1.54 130 02:38 15.12.2022
649 Clear -4 1009 78 10000 0 0 21:24 14.12.2022
650 Clear -4 1009 80 10000 0.51 0 20:51 14.12.2022
651 Clear -3 1009 79 10000 0.51 0 20:18 14.12.2022
652 Clear -2 1008 73 10000 2.06 310 17:52 14.12.2022
653 Clear -1 1008 71 10000 3.6 330 16:57 14.12.2022
654 Clear 1 1008 75 10000 1.54 300 15:30 14.12.2022
655 Clear 0 1007 70 10000 2.1 353 13:31 14.12.2022
656 Clear -1 1007 79 10000 1.74 12 11:20 14.12.2022
657 Clear -1 1007 79 10000 1.74 12 11:20 14.12.2022
658 Clear -2 1008 75 10000 1.52 13 10:25 14.12.2022
659 Clear -3 1008 76 10000 1.53 13 08:46 14.12.2022
660 Haze -3 1006 83 5000 2.06 70 22:46 13.12.2022
661 Clouds -3 1006 82 8000 2.57 60 21:46 13.12.2022
662 Clouds -3 1006 82 10000 2.06 50 20:48 13.12.2022
663 Clouds -2 1006 82 9000 1.54 80 19:39 13.12.2022
664 Clouds -1 1006 81 10000 2.06 70 16:42 13.12.2022
665 Clouds 1 1007 79 10000 1.03 50 14:59 13.12.2022
666 Clouds 1 1007 78 10000 1.03 0 13:42 13.12.2022
667 Clouds 0 1009 86 10000 1.03 0 10:55 13.12.2022
668 Clouds 0 1009 86 10000 1.03 0 10:35 13.12.2022
669 Clouds 0 1009 89 8000 1.03 0 08:45 13.12.2022
670 Clouds 0 1008 84 10000 0.51 0 22:42 12.12.2022
671 Clouds 0 1008 84 10000 1.03 0 22:20 12.12.2022
672 Clouds 0 1009 88 10000 1.54 80 20:41 12.12.2022
673 Clouds 0 1009 88 10000 1.54 80 20:41 12.12.2022
674 Mist 0 1008 87 4100 0.51 0 18:31 12.12.2022
675 Mist 0 1007 87 3000 1.03 0 15:41 12.12.2022
676 Fog 1 1008 84 3500 0.51 0 14:26 12.12.2022
677 Mist 1 1008 85 3500 0.51 0 14:26 12.12.2022
678 Mist -2 1008 88 4100 1.03 0 09:56 12.12.2022
679 Mist -2 1008 89 4200 1.54 60 09:18 12.12.2022
680 Fog -3 1008 89 50 0.51 0 04:52 12.12.2022
681 Clear -2 1008 83 10000 0.26 138 01:51 12.12.2022
682 Clouds -1 1007 86 10000 0.5 24 22:18 11.12.2022
683 Fog -1 1007 86 4000 0.51 0 20:40 11.12.2022
684 Fog -1 1007 84 750 0.51 0 19:39 11.12.2022
685 Clear 0 1007 84 10000 1.03 0 18:55 11.12.2022
686 Clouds 0 1007 87 10000 0.51 0 17:55 11.12.2022
687 Clouds 0 1007 86 10000 0.51 0 17:26 11.12.2022
688 Clouds 1 1007 84 10000 0.51 0 16:49 11.12.2022
689 Clouds 2 1007 83 10000 2.57 290 15:45 11.12.2022
690 Clouds 2 1007 81 10000 0.51 0 13:39 11.12.2022
691 Clouds 1 1007 83 10000 0.51 0 12:42 11.12.2022
692 Clouds 1 1007 87 8000 2.57 50 10:44 11.12.2022
693 Mist 1 1007 90 1300 1.03 90 03:39 11.12.2022
694 Mist 1 1007 90 2500 0.51 0 00:28 11.12.2022
695 Mist 1 1007 90 2300 1.03 90 22:42 10.12.2022
696 Mist 1 1007 90 3100 1.03 70 22:19 10.12.2022
697 Mist 1 1007 90 5000 1.03 40 21:18 10.12.2022
698 Snow 1 1007 92 6000 0.51 80 20:20 10.12.2022
699 Clouds 1 1007 91 1900 1.54 60 17:54 10.12.2022
700 Clouds 1 1007 92 1600 0.51 0 16:47 10.12.2022
701 Clouds 2 1007 90 6000 1.03 0 15:52 10.12.2022
702 Clouds 2 1007 90 6000 1.03 0 15:33 10.12.2022
703 Rain 1 1006 90 10000 1.54 180 13:44 10.12.2022
704 Clouds 1 1007 91 10000 1.54 170 12:27 10.12.2022
705 Clouds 1 1006 90 1900 1.54 180 10:57 10.12.2022
706 Snow 1 1006 91 1000 1.54 190 09:46 10.12.2022
707 Clouds 1 1006 91 4300 1.54 170 07:23 10.12.2022
708 Clouds 1 1006 91 2500 1.54 180 06:53 10.12.2022
709 Clouds 1 1007 91 7000 1.54 160 23:43 09.12.2022
710 Mist 1 1007 91 4000 1.54 160 22:42 09.12.2022
711 Mist 1 1007 90 3200 1.03 0 21:34 09.12.2022
712 Clouds 1 1007 90 8000 1.03 0 20:59 09.12.2022
713 Clouds 1 1007 90 10000 1.03 0 19:46 09.12.2022
714 Mist 1 1007 88 4200 1.03 190 17:56 09.12.2022
715 Clouds 0 1007 88 6000 1.54 210 17:18 09.12.2022
716 Clouds 1 1007 88 7000 1.54 200 16:26 09.12.2022
717 Clouds 1 1007 88 10000 1.54 210 15:29 09.12.2022
718 Clouds 1 1007 86 10000 1.54 170 12:41 09.12.2022
719 Clouds -2 1009 93 10000 1.54 170 10:50 09.12.2022
720 Clouds -1 1009 82 10000 0.4 176 10:20 09.12.2022
721 Clouds -2 1010 82 10000 1.31 331 05:38 09.12.2022
722 Clouds -1 1010 78 10000 1.53 335 03:18 09.12.2022
723 Clouds 0 1009 84 10000 1.54 280 22:51 08.12.2022
724 Clouds -1 1009 85 9000 0.51 0 20:55 08.12.2022
725 Clouds 0 1009 85 10000 1.03 0 18:56 08.12.2022
726 Clear 1 1009 80 10000 1.03 230 16:26 08.12.2022
727 Clouds 1 1010 84 10000 1.03 0 14:30 08.12.2022
728 Clouds 0 1012 85 7000 1.54 250 12:25 08.12.2022
729 Mist -2 1012 93 4500 0 0 10:34 08.12.2022
730 Mist -3 1013 93 4000 1.03 180 09:28 08.12.2022
731 Clouds -1 1013 82 10000 1.23 17 06:49 08.12.2022
732 Clear -2 1016 87 10000 1.54 150 22:36 07.12.2022
733 Clear -2 1016 87 10000 1.03 130 22:18 07.12.2022
734 Clear -1 1017 88 10000 1.54 130 21:45 07.12.2022
735 Clear -1 1018 86 10000 0.51 190 19:48 07.12.2022
736 Clear 1 1019 81 10000 2.57 320 17:51 07.12.2022
737 Clear 3 1021 84 10000 1.03 0 14:41 07.12.2022
738 Clear 2 1022 85 10000 1.03 0 13:20 07.12.2022
739 Mist -1 1024 91 5000 1.03 0 10:47 07.12.2022
740 Mist -1 1024 94 3000 0.51 0 09:57 07.12.2022
741 Fog -1 1023 90 8000 0.51 0 08:54 07.12.2022
742 Clouds -1 1024 93 8000 1.03 140 06:49 07.12.2022
743 Haze 0 1023 87 3000 0.51 90 05:23 07.12.2022
744 Clouds 2 1024 86 10000 0.51 0 23:44 06.12.2022
745 Clouds 3 1025 85 10000 2.57 300 21:24 06.12.2022
746 Clouds 4 1024 83 10000 3.09 310 18:28 06.12.2022
747 Clouds 5 1025 84 10000 3.6 310 17:18 06.12.2022
748 Clouds 5 1025 83 10000 2.57 290 16:21 06.12.2022
749 Clouds 5 1025 83 10000 2.57 310 15:35 06.12.2022
750 Clouds 5 1025 83 10000 2.57 270 14:34 06.12.2022
751 Clouds 5 1025 80 10000 1.54 310 13:39 06.12.2022
752 Clouds 4 1026 87 10000 2.06 320 12:40 06.12.2022
753 Clouds 2 1025 89 10000 0.51 0 10:23 06.12.2022
754 Clouds 2 1025 87 10000 2.06 340 06:48 06.12.2022
755 Clouds 3 1027 81 10000 2.57 40 02:22 06.12.2022
756 Clouds 5 1027 87 10000 4.12 30 22:37 05.12.2022
757 Clouds 5 1026 85 10000 3.09 50 21:39 05.12.2022
758 Clouds 6 1026 84 10000 3.09 50 20:39 05.12.2022
759 Clouds 6 1027 84 10000 4.12 40 19:46 05.12.2022
760 Clouds 6 1026 82 10000 3.6 50 18:38 05.12.2022
761 Clouds 7 1025 83 10000 3.09 40 16:49 05.12.2022
762 Clouds 7 1025 82 10000 3.6 60 15:26 05.12.2022
763 Clouds 7 1026 86 10000 4.12 30 13:28 05.12.2022
764 Clouds 7 1025 84 10000 3.09 50 12:56 05.12.2022
765 Clouds 7 1025 85 10000 3.09 50 12:37 05.12.2022
766 Clouds 6 1025 84 10000 3.09 40 10:59 05.12.2022
767 Clouds 5 1023 86 10000 5.14 40 05:22 05.12.2022
768 Clouds 5 1022 88 10000 3.09 50 23:33 04.12.2022
769 Clouds 5 1021 84 10000 3.09 40 22:40 04.12.2022
770 Clouds 5 1022 85 10000 2.57 60 22:18 04.12.2022
771 Clouds 5 1022 84 10000 2.06 60 21:29 04.12.2022
772 Clouds 6 1020 84 10000 2.57 80 19:48 04.12.2022
773 Clouds 6 1020 84 10000 2.06 0 19:22 04.12.2022
774 Clouds 6 1019 83 10000 3.09 60 17:40 04.12.2022
775 Clouds 6 1019 84 10000 3.09 60 17:21 04.12.2022
776 Clouds 6 1019 84 10000 2.57 50 16:36 04.12.2022
777 Clouds 6 1019 84 10000 3.09 40 16:18 04.12.2022
778 Clouds 6 1018 83 10000 2.57 40 14:49 04.12.2022
779 Clouds 6 1018 84 10000 2.57 50 13:38 04.12.2022
780 Clouds 5 1019 87 10000 3.09 20 12:44 04.12.2022
781 Clouds 5 1019 86 10000 4.12 40 11:59 04.12.2022
782 Clouds 4 1018 88 10000 2.57 40 09:40 04.12.2022
783 Rain 4 1018 88 10000 3.09 30 07:33 04.12.2022
784 Clouds 3 1019 86 10000 2.06 60 02:22 04.12.2022
785 Clouds 4 1020 85 10000 3.6 50 23:43 03.12.2022
786 Clouds 5 1020 87 10000 4.12 60 22:23 03.12.2022
787 Clouds 5 1020 85 10000 3.6 50 21:28 03.12.2022
788 Clouds 5 1020 85 10000 3.09 50 20:34 03.12.2022
789 Clouds 5 1021 85 10000 3.09 60 18:40 03.12.2022
790 Clouds 6 1021 81 10000 3.09 60 16:57 03.12.2022
791 Clouds 7 1022 78 10000 5.66 50 14:28 03.12.2022
792 Clouds 6 1025 86 10000 3.6 60 12:55 03.12.2022
793 Clouds 6 1025 86 10000 4.12 50 12:24 03.12.2022
794 Clouds 4 1025 88 10000 2.57 40 10:26 03.12.2022
795 Clouds 4 1025 90 10000 2.06 20 07:58 03.12.2022
796 Clear 4 1027 89 10000 2.57 350 01:31 03.12.2022
797 Clouds 5 1027 89 10000 1.03 0 22:58 02.12.2022
798 Clouds 6 1027 88 10000 3.09 50 20:54 02.12.2022
799 Clouds 6 1027 87 10000 2.06 50 19:28 02.12.2022
800 Clouds 7 1027 83 10000 1.54 340 15:59 02.12.2022
801 Clouds 7 1027 83 10000 1.54 340 15:59 02.12.2022
802 Clouds 6 1026 81 10000 1.03 300 14:44 02.12.2022
803 Clouds 7 1026 83 10000 0.51 0 14:26 02.12.2022
804 Clouds 6 1026 87 10000 0.51 0 13:26 02.12.2022
805 Clouds 4 1027 93 9000 0.51 0 11:41 02.12.2022
806 Mist 3 1026 91 2500 1.03 50 08:48 02.12.2022
807 Mist 3 1026 92 2600 1.03 0 07:24 02.12.2022
808 Mist 4 1028 92 1300 1.03 0 23:54 01.12.2022
809 Mist 5 1027 91 1500 1.54 130 21:59 01.12.2022
810 Mist 5 1027 91 1500 1.54 130 21:37 01.12.2022
811 Mist 5 1027 90 2300 1.54 150 20:18 01.12.2022
812 Haze 6 1028 89 3900 1.54 170 18:23 01.12.2022
813 Haze 7 1027 81 4600 1.03 0 15:59 01.12.2022
814 Haze 6 1029 93 5000 1.54 200 11:55 01.12.2022
815 Clouds 6 1030 87 7000 1.54 160 10:28 01.12.2022
816 Clouds 6 1030 88 6000 1.03 0 09:54 01.12.2022
817 Clouds 6 1030 88 6000 1.03 0 09:36 01.12.2022
818 Clouds 5 1029 94 6000 1.03 0 02:00 01.12.2022
819 Clouds 5 1028 91 8000 1.54 170 22:38 30.11.2022
820 Clouds 5 1027 88 10000 1.03 190 21:19 30.11.2022
821 Clouds 5 1027 86 10000 0.51 0 20:45 30.11.2022
822 Clouds 5 1026 85 10000 0.51 0 20:22 30.11.2022
823 Clouds 5 1025 87 10000 0.51 0 18:33 30.11.2022
824 Clouds 5 1025 85 10000 1.54 210 17:36 30.11.2022
825 Clouds 5 1025 83 10000 2.06 220 16:19 30.11.2022
826 Clouds 5 1025 85 10000 2.57 190 14:27 30.11.2022
827 Clouds 5 1025 85 10000 2.06 170 13:39 30.11.2022
828 Clouds 4 1024 89 10000 1.54 170 10:42 30.11.2022
829 Clouds 3 1023 88 9000 1.54 140 08:39 30.11.2022
830 Clouds 3 1023 88 10000 2.06 160 07:56 30.11.2022
831 Clouds 4 1022 89 10000 1.54 0 23:36 29.11.2022
832 Clouds 4 1021 89 10000 2.06 170 22:49 29.11.2022
833 Clouds 4 1021 91 8000 1.03 0 21:26 29.11.2022
834 Clouds 5 1021 89 9000 1.03 0 20:37 29.11.2022
835 Clouds 5 1020 92 6000 2.06 140 18:58 29.11.2022
836 Haze 6 1020 90 4500 1.54 0 16:59 29.11.2022
837 Haze 6 1019 89 4500 1.54 160 16:24 29.11.2022
838 Clouds 6 1020 90 7000 1.03 0 14:50 29.11.2022
839 Clouds 6 1020 92 6000 1.03 0 12:55 29.11.2022
840 Mist 5 1019 93 1000 2.06 260 11:32 29.11.2022
841 Fog 5 1019 91 2500 3.09 260 10:53 29.11.2022
842 Mist 5 1018 93 4600 0.51 100 09:38 29.11.2022
843 Mist 5 1018 91 4600 1.03 0 08:38 29.11.2022
844 Fog 4 1014 91 750 1.03 0 00:36 29.11.2022
845 Mist 3 1013 90 1700 0.51 0 23:34 28.11.2022
846 Mist 3 1013 92 4000 0.51 0 22:50 28.11.2022
847 Mist 5 1012 89 4400 1.03 110 21:43 28.11.2022
848 Clear 6 1012 88 10000 0.46 62 20:37 28.11.2022
849 Clear 6 1011 87 10000 0.45 61 19:38 28.11.2022
850 Clouds 7 1010 89 10000 1.03 0 18:29 28.11.2022
851 Clouds 6 1009 87 10000 0 0 17:50 28.11.2022
852 Clouds 9 1007 78 10000 2.06 0 15:31 28.11.2022
853 Clouds 9 1007 77 10000 1.54 140 14:24 28.11.2022
854 Clouds 9 1007 84 10000 1.54 0 13:46 28.11.2022
855 Clouds 8 1007 88 10000 2.06 0 12:35 28.11.2022
856 Clouds 6 1004 90 10000 1.54 0 09:27 28.11.2022
857 Clouds 7 1004 89 10000 2.06 150 05:49 28.11.2022
858 Clear 7 1003 85 10000 2.06 170 04:41 28.11.2022
859 Clear 7 1003 87 10000 2.06 180 03:23 28.11.2022
860 Clouds 7 1004 85 10000 2.06 140 00:43 28.11.2022
861 Clouds 8 1005 87 10000 1.54 170 22:28 27.11.2022
862 Clouds 8 1006 88 10000 1.03 0 21:19 27.11.2022
863 Clouds 9 1006 84 10000 1.54 150 18:57 27.11.2022
864 Clouds 10 1008 84 10000 1.54 180 16:44 27.11.2022
865 Clouds 11 1009 82 10000 3.09 190 14:29 27.11.2022
866 Clouds 10 1011 84 10000 2.57 190 12:31 27.11.2022
867 Clouds 9 1011 88 10000 2.06 190 10:39 27.11.2022
868 Clouds 10 1010 81 10000 2.57 200 07:55 27.11.2022
869 Clouds 11 1009 90 2900 4.63 180 23:41 26.11.2022
870 Clouds 11 1009 85 6000 5.14 170 21:44 26.11.2022
871 Clouds 11 1011 84 10000 5.14 180 20:35 26.11.2022
872 Clouds 11 1013 80 10000 5.66 170 18:57 26.11.2022
873 Clouds 11 1015 84 10000 3.6 180 16:49 26.11.2022
874 Clouds 11 1015 80 10000 3.09 160 15:38 26.11.2022
875 Clouds 10 1018 84 10000 4.63 170 12:54 26.11.2022
876 Clouds 9 1018 83 10000 3.09 0 11:23 26.11.2022
877 Clouds 9 1019 82 10000 3.09 160 09:44 26.11.2022
878 Clouds 8 1019 85 10000 2.06 170 08:45 26.11.2022
879 Clouds 8 1019 83 10000 2.57 180 23:22 25.11.2022
880 Clouds 8 1018 85 10000 2.06 170 21:41 25.11.2022
881 Clouds 8 1017 85 10000 3.09 200 20:33 25.11.2022
882 Clouds 9 1017 82 10000 3.6 210 19:24 25.11.2022
883 Clouds 11 1013 74 10000 5.66 230 15:42 25.11.2022
884 Clouds 10 1011 78 10000 4.63 210 12:20 25.11.2022
885 Clouds 6 1007 88 10000 3.09 200 08:53 25.11.2022
886 Clouds 6 1006 88 10000 3.09 190 08:33 25.11.2022
887 Clouds 7 1003 88 10000 4.12 220 06:42 25.11.2022
888 Clouds 8 995 84 10000 4.63 180 01:26 25.11.2022
889 Clouds 8 995 83 10000 4.63 170 23:41 24.11.2022
890 Clouds 8 995 80 10000 3.09 160 22:35 24.11.2022
891 Clouds 7 996 85 10000 3.6 170 21:39 24.11.2022
892 Clouds 7 996 88 10000 3.6 180 19:48 24.11.2022
893 Clouds 8 994 84 10000 3.09 180 17:47 24.11.2022
894 Clouds 8 994 84 10000 2.06 0 17:23 24.11.2022
895 Clouds 8 993 86 10000 3.09 170 16:40 24.11.2022
896 Rain 10 993 81 10000 4.12 150 14:23 24.11.2022
897 Clouds 10 996 82 10000 3.6 160 12:41 24.11.2022
898 Clouds 9 996 81 10000 4.12 170 11:37 24.11.2022
899 Clouds 7 997 82 10000 3.6 180 08:47 24.11.2022
900 Clouds 7 996 85 10000 2.57 180 04:46 24.11.2022
901 Clouds 7 992 85 10000 3.6 190 00:40 24.11.2022
902 Clouds 7 991 81 10000 4.63 190 23:32 23.11.2022
903 Clouds 8 989 78 10000 3.6 200 21:48 23.11.2022
904 Clouds 8 989 84 10000 4.12 190 20:51 23.11.2022
905 Clouds 7 987 84 10000 3.6 180 19:34 23.11.2022
906 Clouds 7 988 87 10000 2.57 180 18:55 23.11.2022
907 Clouds 8 987 84 10000 3.6 190 17:29 23.11.2022
908 Clear 10 984 79 10000 3.09 210 13:42 23.11.2022
909 Clouds 10 984 84 10000 4.12 220 13:23 23.11.2022
910 Clouds 9 983 88 10000 4.12 220 12:23 23.11.2022
911 Clouds 8 983 90 10000 3.09 210 11:45 23.11.2022
912 Clouds 8 983 90 10000 3.09 210 11:45 23.11.2022
913 Rain 8 982 90 10000 2.57 180 10:46 23.11.2022
914 Rain 7 982 91 7000 3.09 140 09:45 23.11.2022
915 Rain 7 982 91 5000 2.57 0 09:27 23.11.2022
916 Rain 7 981 91 5000 4.63 140 08:57 23.11.2022
917 Rain 7 981 89 6000 3.6 150 08:30 23.11.2022
918 Clouds 6 985 88 10000 2.57 140 05:19 23.11.2022
919 Clouds 5 989 91 10000 1.03 0 23:58 22.11.2022
920 Clouds 6 989 91 10000 2.06 190 22:37 22.11.2022
921 Clouds 7 989 89 10000 1.03 0 21:34 22.11.2022
922 Clouds 7 989 88 10000 1.54 180 20:51 22.11.2022
923 Clouds 8 989 88 10000 1.54 190 20:27 22.11.2022
924 Clouds 8 989 88 10000 1.54 180 19:34 22.11.2022
925 Clouds 8 988 83 10000 2.06 250 17:48 22.11.2022
926 Clouds 9 988 83 10000 2.57 310 16:24 22.11.2022
927 Clouds 9 987 84 10000 3.6 300 14:20 22.11.2022
928 Clouds 8 986 87 10000 2.57 290 12:27 22.11.2022
929 Clouds 6 985 91 10000 2.06 260 09:27 22.11.2022
930 Clouds 6 984 92 10000 2.06 280 07:59 22.11.2022
931 Clouds 6 984 92 10000 2.57 300 06:37 22.11.2022
932 Rain 6 984 90 10000 2.06 340 23:42 21.11.2022
933 Rain 6 984 89 7000 1.54 350 22:51 21.11.2022
934 Rain 6 984 89 10000 1.54 30 22:20 21.11.2022
935 Rain 7 984 89 5000 0.51 0 21:23 21.11.2022
936 Rain 7 984 89 10000 2.06 70 19:49 21.11.2022
937 Rain 7 984 88 10000 2.06 80 19:31 21.11.2022
938 Rain 7 984 88 10000 2.06 80 19:31 21.11.2022
939 Rain 7 984 88 7000 3.09 90 18:46 21.11.2022
940 Rain 6 985 88 10000 3.6 80 16:59 21.11.2022
941 Rain 6 986 88 10000 3.6 80 16:40 21.11.2022
942 Rain 6 986 88 10000 3.09 90 15:54 21.11.2022
943 Rain 7 987 87 10000 3.09 90 15:23 21.11.2022
944 Rain 7 989 84 10000 3.6 80 13:52 21.11.2022
945 Clouds 7 992 81 10000 2.57 100 11:41 21.11.2022
946 Clouds 6 995 85 10000 1.54 0 09:29 21.11.2022
947 Clouds 4 997 90 10000 1.54 0 07:43 21.11.2022
948 Clouds 5 1005 92 10000 1.54 210 22:51 20.11.2022
949 Clouds 6 1006 92 10000 2.57 220 21:36 20.11.2022
950 Clouds 6 1005 90 10000 2.57 260 20:34 20.11.2022
951 Clouds 6 1005 90 5000 2.57 260 18:57 20.11.2022
952 Clouds 7 1004 87 10000 7.72 250 16:47 20.11.2022
953 Clouds 9 1004 79 10000 2.06 210 15:32 20.11.2022
954 Clouds 9 1004 79 10000 2.57 230 14:54 20.11.2022
955 Clouds 9 1004 78 10000 3.6 230 13:34 20.11.2022
956 Clouds 9 1004 83 10000 4.12 240 12:51 20.11.2022
957 Clouds 8 1006 91 10000 2.57 200 11:38 20.11.2022
958 Clouds 7 1004 90 10000 1.54 200 10:56 20.11.2022
959 Clouds 7 1004 92 1500 3.6 220 09:42 20.11.2022
960 Clouds 7 1004 92 10000 2.57 210 08:47 20.11.2022
961 Clouds 7 1004 92 10000 1.03 0 07:30 20.11.2022
962 Clouds 7 1003 90 10000 2.57 150 05:23 20.11.2022
963 Clouds 7 1007 83 10000 2.06 160 01:23 20.11.2022
964 Clouds 7 1008 83 10000 2.57 160 00:42 20.11.2022
965 Clouds 6 1008 83 10000 1.54 0 00:24 20.11.2022
966 Clouds 6 1009 85 10000 2.06 0 23:53 19.11.2022
967 Clouds 6 1009 86 10000 2.06 140 23:25 19.11.2022
968 Clouds 6 1009 88 10000 1.03 0 22:41 19.11.2022
969 Clouds 6 1009 87 10000 1.03 0 22:41 19.11.2022
970 Clouds 6 1010 91 10000 1.03 0 21:33 19.11.2022
971 Clouds 7 1010 90 8000 1.03 0 20:57 19.11.2022
972 Clouds 7 1010 89 8000 1.03 0 20:37 19.11.2022
973 Clouds 7 1010 87 10000 0.51 0 19:25 19.11.2022
974 Clouds 8 1011 88 10000 1.03 160 17:41 19.11.2022
975 Clouds 8 1011 86 10000 1.03 150 17:21 19.11.2022
976 Clouds 9 1012 88 10000 1.03 0 16:28 19.11.2022
977 Clouds 10 1011 84 10000 1.54 150 14:40 19.11.2022
978 Clouds 9 1013 90 10000 1.54 250 12:31 19.11.2022
979 Clouds 7 1013 93 10000 1.03 0 10:57 19.11.2022
980 Clouds 6 1012 92 10000 1.03 240 09:25 19.11.2022
981 Clouds 8 1011 91 10000 2.06 270 05:44 19.11.2022
982 Clouds 8 1010 89 10000 2.57 300 03:25 19.11.2022
983 Clouds 9 1008 87 10000 2.57 300 00:18 19.11.2022
984 Clouds 9 1008 86 10000 2.57 290 23:25 18.11.2022
985 Clouds 9 1006 89 10000 2.06 250 21:54 18.11.2022
986 Clouds 9 1006 89 10000 2.57 260 21:33 18.11.2022
987 Clouds 9 1005 89 9000 3.6 260 20:38 18.11.2022
988 Clouds 9 1004 92 10000 4.12 250 19:47 18.11.2022
989 Clouds 9 1003 89 10000 3.6 250 18:49 18.11.2022
990 Clouds 9 1002 88 10000 4.12 250 17:44 18.11.2022
991 Clouds 10 999 86 10000 6.17 260 14:32 18.11.2022
992 Rain 9 996 86 9000 5.14 270 11:31 18.11.2022
993 Clouds 9 993 86 10000 4.63 270 08:46 18.11.2022
994 Clouds 9 992 88 10000 6.69 260 07:51 18.11.2022
995 Clouds 9 990 89 10000 4.63 270 05:24 18.11.2022
996 Clouds 9 987 91 10000 3.6 280 00:51 18.11.2022
997 Clouds 9 986 91 10000 4.63 290 22:20 17.11.2022
998 Clouds 9 984 92 10000 4.63 290 20:46 17.11.2022
999 Clouds 9 984 92 10000 5.66 290 19:51 17.11.2022
1000 Clouds 9 983 92 7000 4.63 280 18:47 17.11.2022
1001 Rain 9 983 92 10000 4.12 280 17:33 17.11.2022
1002 Rain 9 983 92 6000 4.12 290 16:53 17.11.2022
1003 Rain 9 982 91 4600 5.66 290 14:57 17.11.2022
1004 Rain 8 982 90 10000 6.69 300 11:22 17.11.2022
1005 Rain 8 982 90 10000 6.69 300 11:22 17.11.2022
1006 Rain 8 982 90 9000 5.66 300 08:32 17.11.2022
1007 Clouds 9 982 91 8000 4.63 330 05:30 17.11.2022
1008 Clouds 9 983 88 10000 3.6 30 00:22 17.11.2022
1009 Clouds 9 983 88 10000 3.09 70 22:30 16.11.2022
1010 Clouds 9 985 88 10000 2.57 80 20:54 16.11.2022
1011 Clouds 8 985 88 10000 3.6 80 19:54 16.11.2022
1012 Clouds 9 985 83 10000 3.09 80 18:45 16.11.2022
1013 Clouds 9 986 81 10000 2.06 100 17:26 16.11.2022
1014 Clouds 9 989 84 10000 2.06 140 13:59 16.11.2022
1015 Clouds 6 989 92 10000 1.54 0 09:48 16.11.2022
1016 Clouds 7 988 93 10000 1.54 170 05:27 16.11.2022
1017 Clouds 6 988 92 10000 0.51 0 01:25 16.11.2022
1018 Clouds 8 988 91 5000 1.03 190 22:27 15.11.2022
1019 Clouds 8 988 91 10000 1.03 0 20:45 15.11.2022
1020 Clouds 8 988 91 10000 1.54 160 19:34 15.11.2022
1021 Clouds 9 988 91 10000 1.54 170 18:26 15.11.2022
1022 Clouds 9 988 91 10000 1.03 0 17:21 15.11.2022
1023 Clouds 10 988 90 10000 4.63 260 16:19 15.11.2022
1024 Clouds 11 987 93 10000 4.12 270 14:44 15.11.2022
1025 Drizzle 12 988 89 4700 3.09 150 12:59 15.11.2022
1026 Rain 11 989 90 6000 4.12 140 11:43 15.11.2022
1027 Rain 11 989 90 9000 4.12 0 10:55 15.11.2022
1028 Rain 10 992 85 10000 4.12 140 07:40 15.11.2022
1029 Clouds 10 1000 87 10000 2.06 150 00:36 15.11.2022
1030 Clouds 11 1001 90 10000 1.54 170 22:59 14.11.2022
1031 Clouds 12 1002 90 3000 1.54 180 21:30 14.11.2022
1032 Clouds 12 1002 88 7000 1.54 180 20:39 14.11.2022
1033 Clouds 12 1003 85 10000 1.03 0 18:37 14.11.2022
1034 Clouds 13 1004 83 10000 2.06 0 15:45 14.11.2022
1035 Clouds 12 1007 85 10000 2.57 190 12:54 14.11.2022
1036 Clouds 11 1008 90 10000 1.54 180 11:42 14.11.2022
1037 Clouds 10 1008 89 7000 1.03 0 09:25 14.11.2022
1038 Mist 10 1008 90 4000 2.06 150 07:54 14.11.2022
1039 Clouds 11 1008 82 10000 1.59 88 06:19 14.11.2022
1040 Clouds 11 1011 86 10000 0.51 0 00:18 14.11.2022
1041 Clouds 11 1013 81 10000 2.03 77 21:53 13.11.2022
1042 Clear 11 1013 85 10000 0.45 128 21:21 13.11.2022
1043 Clear 11 1014 80 10000 2.14 87 19:27 13.11.2022
1044 Clear 12 1014 77 10000 2.06 0 17:56 13.11.2022
1045 Clear 13 1015 74 10000 0.45 120 17:21 13.11.2022
1046 Haze 15 1016 68 5000 2.06 150 14:58 13.11.2022
1047 Clear 15 1017 68 10000 3.09 140 13:58 13.11.2022
1048 Clear 15 1018 67 10000 2.57 150 12:37 13.11.2022
1049 Clouds 11 1019 88 10000 1.54 0 10:52 13.11.2022
1050 Clouds 11 1019 90 9000 1.03 0 07:39 13.11.2022
1051 Clear 12 1021 85 10000 2.06 140 01:34 13.11.2022
1052 Clear 13 1021 83 10000 2.57 160 22:19 12.11.2022
1053 Clear 13 1021 82 10000 1.54 0 21:24 12.11.2022
1054 Clear 13 1021 85 10000 2.57 140 19:55 12.11.2022
1055 Clouds 11 1022 84 10000 0.51 0 17:56 12.11.2022
1056 Clouds 13 1022 77 10000 1.03 0 16:23 12.11.2022
1057 Clouds 13 1023 75 10000 2.57 190 15:18 12.11.2022
1058 Clouds 12 1024 76 10000 2.06 180 11:59 12.11.2022
1059 Clouds 11 1024 81 9000 2.06 150 08:47 12.11.2022
1060 Clouds 12 1024 84 10000 2.06 180 01:59 12.11.2022
1061 Clouds 15 1023 76 10000 3.6 190 21:46 11.11.2022
1062 Clouds 15 1022 73 10000 3.09 190 20:45 11.11.2022
1063 Clouds 15 1023 78 10000 3.09 200 19:39 11.11.2022
1064 Clouds 15 1022 76 10000 3.6 200 19:19 11.11.2022
1065 Clouds 16 1021 72 10000 3.09 210 17:42 11.11.2022
1066 Clouds 16 1020 72 10000 5.14 210 15:50 11.11.2022
1067 Clouds 16 1020 75 10000 6.69 210 14:20 11.11.2022
1068 Clouds 16 1019 77 10000 3.6 200 13:24 11.11.2022
1069 Clouds 15 1018 78 10000 4.12 190 09:37 11.11.2022
1070 Clouds 15 1017 77 10000 4.63 190 08:27 11.11.2022
1071 Clouds 15 1017 80 10000 5.66 200 04:39 11.11.2022
1072 Clouds 14 1015 79 10000 4.63 200 23:21 10.11.2022
1073 Clouds 14 1016 83 10000 6.17 210 21:55 10.11.2022
1074 Clouds 14 1015 79 10000 6.17 210 21:32 10.11.2022
1075 Clouds 14 1014 76 10000 6.17 200 20:49 10.11.2022
1076 Clouds 14 1014 76 10000 6.69 200 20:20 10.11.2022
1077 Clouds 14 1014 83 10000 6.69 200 18:59 10.11.2022
1078 Clouds 15 1013 76 10000 6.17 190 17:59 10.11.2022
1079 Clouds 15 1013 76 10000 4.63 200 16:25 10.11.2022
1080 Clouds 15 1013 76 10000 3.6 190 13:41 10.11.2022
1081 Clouds 15 1012 79 10000 5.66 200 11:29 10.11.2022
1082 Clouds 13 1010 80 10000 2.57 0 08:21 10.11.2022
1083 Clouds 11 1009 80 10000 3.6 190 01:27 10.11.2022
1084 Clouds 11 1008 81 10000 4.12 200 23:21 09.11.2022
1085 Clouds 10 1008 83 10000 3.09 200 22:28 09.11.2022
1086 Clouds 10 1007 82 10000 2.57 190 20:47 09.11.2022
1087 Clouds 10 1007 82 10000 2.57 190 20:29 09.11.2022
1088 Clouds 10 1007 80 10000 2.57 190 19:30 09.11.2022
1089 Clouds 10 1006 76 10000 2.57 210 18:39 09.11.2022
1090 Clouds 10 1006 76 10000 2.57 210 18:39 09.11.2022
1091 Clouds 12 1003 73 10000 5.14 240 15:53 09.11.2022
1092 Clouds 13 1002 69 10000 7.2 230 14:42 09.11.2022
1093 Clouds 13 1002 70 10000 6.17 230 14:23 09.11.2022
1094 Clouds 12 1001 77 10000 4.63 210 12:58 09.11.2022
1095 Clouds 9 999 88 10000 3.09 190 09:52 09.11.2022
1096 Clouds 9 996 88 10000 3.09 200 07:47 09.11.2022
1097 Clouds 9 996 88 10000 2.06 190 06:55 09.11.2022
1098 Clouds 10 992 84 10000 3.09 180 23:27 08.11.2022
1099 Clouds 10 992 84 10000 3.6 180 21:44 08.11.2022
1100 Clouds 10 991 81 10000 4.12 190 21:22 08.11.2022
1101 Clouds 10 991 83 10000 4.63 190 20:39 08.11.2022
1102 Clouds 10 990 86 10000 4.12 190 19:35 08.11.2022
1103 Clouds 10 990 86 10000 4.63 190 18:20 08.11.2022
1104 Clouds 12 989 73 10000 4.12 190 16:19 08.11.2022
1105 Clouds 12 989 77 10000 5.14 200 14:52 08.11.2022
1106 Clouds 13 989 73 10000 5.14 200 13:36 08.11.2022
1107 Clouds 13 989 76 10000 4.63 190 12:38 08.11.2022
1108 Clouds 9 990 88 10000 3.6 170 08:32 08.11.2022
1109 Clouds 9 990 86 10000 1.03 0 06:53 08.11.2022
1110 Clouds 14 992 79 10000 4.12 170 23:52 07.11.2022
1111 Clouds 13 994 80 10000 4.63 170 22:23 07.11.2022
1112 Clouds 13 994 80 10000 4.63 180 21:20 07.11.2022
1113 Clouds 14 996 83 10000 3.6 180 19:59 07.11.2022
1114 Clouds 13 996 87 10000 3.6 180 17:44 07.11.2022
1115 Clouds 14 997 83 10000 3.6 170 16:26 07.11.2022
1116 Clouds 14 996 81 10000 3.6 170 15:33 07.11.2022
1117 Clouds 14 997 83 10000 4.12 180 14:18 07.11.2022
1118 Clouds 13 998 83 10000 3.09 190 12:33 07.11.2022
1119 Clouds 12 998 87 10000 3.09 180 10:46 07.11.2022
1120 Clouds 11 997 86 10000 4.12 180 09:22 07.11.2022
1121 Clouds 10 998 89 10000 3.09 180 07:21 07.11.2022
1122 Clouds 9 997 84 10000 3.09 190 02:28 07.11.2022
1123 Clouds 8 997 88 10000 3.6 190 00:36 07.11.2022
1124 Clouds 9 996 89 10000 3.6 190 21:52 06.11.2022
1125 Clouds 9 996 90 10000 4.12 190 21:18 06.11.2022
1126 Rain 9 995 89 10000 3.09 190 19:59 06.11.2022
1127 Clouds 9 994 89 10000 3.6 190 19:30 06.11.2022
1128 Clouds 10 994 88 10000 3.6 190 18:21 06.11.2022
1129 Clouds 10 994 90 10000 3.09 190 17:46 06.11.2022
1130 Clouds 10 994 90 10000 2.57 180 17:19 06.11.2022
1131 Clouds 10 994 90 10000 2.06 190 16:20 06.11.2022
1132 Clouds 11 995 88 8000 2.06 180 15:26 06.11.2022
1133 Clouds 10 997 85 10000 2.57 180 12:48 06.11.2022
1134 Clouds 10 998 83 10000 2.57 180 11:41 06.11.2022
1135 Clouds 9 999 87 10000 2.57 0 10:33 06.11.2022
1136 Clear 6 1001 92 9000 2.06 0 07:44 06.11.2022
1137 Mist 7 1006 93 3500 2.06 160 23:25 05.11.2022
1138 Mist 8 1006 93 1600 2.06 170 22:29 05.11.2022
1139 Clouds 10 1005 90 10000 1.54 200 18:42 05.11.2022
1140 Rain 12 1004 90 7000 3.09 180 16:40 05.11.2022
1141 Clouds 12 1005 89 10000 3.09 170 14:43 05.11.2022
1142 Clouds 11 1006 87 10000 3.6 170 13:40 05.11.2022
1143 Clouds 10 1007 86 10000 3.6 180 11:51 05.11.2022
1144 Rain 9 1010 89 10000 2.57 180 08:59 05.11.2022
1145 Clouds 8 1010 89 10000 2.06 170 07:23 05.11.2022
1146 Clouds 8 1011 87 10000 2.57 190 06:54 05.11.2022
1147 Clouds 8 1013 85 10000 2.06 180 00:45 05.11.2022
1148 Clouds 8 1014 86 10000 2.57 190 23:28 04.11.2022
1149 Clouds 9 1013 86 10000 3.09 220 20:56 04.11.2022
1150 Clouds 9 1013 86 10000 5.14 240 19:33 04.11.2022
1151 Clouds 10 1013 82 10000 4.12 270 17:39 04.11.2022
1152 Clouds 11 1012 75 10000 4.12 270 14:25 04.11.2022
1153 Clouds 10 1012 79 10000 2.57 240 13:18 04.11.2022
1154 Clouds 8 1012 91 10000 1.54 230 11:57 04.11.2022
1155 Clear 4 1010 94 10000 1.25 295 09:25 04.11.2022
1156 Fog 3 1009 90 9000 1.54 150 08:19 04.11.2022
1157 Clear 4 1008 88 10000 1.23 321 05:51 04.11.2022
1158 Clouds 5 1001 88 10000 3.09 20 00:39 04.11.2022
1159 Clouds 6 998 85 10000 1.54 110 21:18 03.11.2022
1160 Clouds 6 997 84 10000 1.54 120 20:44 03.11.2022
1161 Clouds 7 997 81 10000 1.54 90 19:41 03.11.2022
1162 Clear 8 996 78 10000 1.54 90 18:18 03.11.2022
1163 Clear 11 996 68 10000 1.03 200 16:54 03.11.2022
1164 Clear 13 997 63 10000 3.09 220 14:56 03.11.2022
1165 Clouds 12 997 72 10000 2.57 210 13:23 03.11.2022
1166 Clouds 11 998 78 10000 2.06 200 12:30 03.11.2022
1167 Clouds 9 998 86 10000 1.03 0 10:21 03.11.2022
1168 Clouds 8 998 83 10000 1.54 180 07:45 03.11.2022
1169 Clouds 11 998 87 8000 5.14 220 21:44 02.11.2022
1170 Clouds 12 998 80 10000 4.12 200 20:51 02.11.2022
1171 Clouds 12 998 81 10000 5.66 210 20:19 02.11.2022
1172 Clouds 13 999 77 10000 5.66 180 17:30 02.11.2022
1173 Rain 13 1001 74 10000 6.69 180 16:22 02.11.2022
1174 Clouds 13 1002 71 10000 5.66 190 15:25 02.11.2022
1175 Clouds 11 1006 80 10000 5.14 170 12:48 02.11.2022
1176 Clouds 10 1008 84 10000 3.6 170 11:55 02.11.2022
1177 Clouds 8 1009 85 10000 3.09 190 09:22 02.11.2022
1178 Clouds 7 1009 92 10000 2.57 180 05:36 02.11.2022
1179 Rain 8 1005 92 10000 4.12 240 00:55 02.11.2022
1180 Clouds 8 1002 91 10000 2.06 180 22:20 01.11.2022
1181 Clouds 8 1001 91 10000 1.54 180 21:42 01.11.2022
1182 Rain 8 1001 90 10000 2.57 250 20:26 01.11.2022
1183 Rain 9 1001 90 10000 1.54 0 19:54 01.11.2022
1184 Rain 9 1001 90 10000 1.54 0 19:35 01.11.2022
1185 Clouds 9 1001 89 10000 0.89 161 17:33 01.11.2022
1186 Rain 10 1001 83 4000 5.14 250 16:22 01.11.2022
1187 Clouds 13 1000 69 10000 3.09 230 14:29 01.11.2022
1188 Clouds 13 1000 79 10000 4.63 220 12:29 01.11.2022
1189 Clouds 12 1000 85 10000 4.63 220 11:24 01.11.2022
1190 Clouds 12 999 87 10000 4.63 200 10:57 01.11.2022
1191 Clouds 10 998 86 10000 3.09 200 08:44 01.11.2022
1192 Clouds 11 997 91 10000 8.23 230 07:30 01.11.2022
1193 Clouds 11 997 91 10000 8.23 230 07:30 01.11.2022
1194 Clouds 11 997 91 10000 8.23 230 07:30 01.11.2022
1195 Clouds 12 996 93 10000 5.14 240 06:47 01.11.2022
1196 Clouds 12 995 92 9000 7.2 250 05:58 01.11.2022
1197 Rain 12 993 92 4200 1.54 180 03:38 01.11.2022
1198 Rain 12 1000 87 10000 4.63 50 21:57 31.10.2022
1199 Clouds 12 1002 89 10000 3.09 90 20:50 31.10.2022
1200 Rain 13 1004 85 6000 2.57 120 19:53 31.10.2022
1201 Clouds 14 1005 78 10000 2.57 140 17:51 31.10.2022
1202 Clouds 14 1006 78 10000 3.6 0 16:42 31.10.2022
1203 Clouds 15 1010 79 10000 2.57 190 13:24 31.10.2022
1204 Clouds 15 1010 77 10000 3.09 170 11:52 31.10.2022
1205 Clouds 12 1010 85 10000 2.57 170 08:38 31.10.2022
1206 Clouds 12 1011 86 10000 2.06 150 04:49 31.10.2022
1207 Clouds 12 1012 88 10000 2.57 180 02:20 31.10.2022
1208 Clouds 12 1012 85 10000 1.54 170 23:18 30.10.2022
1209 Clouds 12 1010 82 10000 3.09 190 20:49 30.10.2022
1210 Clouds 12 1010 81 10000 1.54 170 20:21 30.10.2022
1211 Clouds 13 1009 75 10000 4.12 190 18:29 30.10.2022
1212 Clouds 15 1007 70 10000 5.14 200 15:59 30.10.2022
1213 Clouds 15 1008 83 10000 3.09 180 13:52 30.10.2022
1214 Rain 15 1008 75 10000 4.12 180 12:52 30.10.2022
1215 Clouds 14 1008 81 10000 4.12 180 11:37 30.10.2022
1216 Clouds 13 1008 83 10000 2.06 160 09:37 30.10.2022
1217 Clouds 13 1009 86 10000 3.09 160 08:30 30.10.2022
1218 Clouds 14 1010 87 10000 1.54 170 01:47 30.10.2022
1219 Clouds 14 1009 87 10000 1.03 170 00:27 30.10.2022
1220 Clouds 15 1009 86 10000 1.54 180 23:44 29.10.2022
1221 Clouds 16 1009 81 10000 3.6 180 21:25 29.10.2022
1222 Clouds 17 1007 84 10000 2.57 140 17:51 29.10.2022
1223 Clouds 16 1007 86 10000 1.34 117 17:18 29.10.2022
1224 Clouds 16 1007 86 10000 3.09 0 15:37 29.10.2022
1225 Clouds 15 1008 88 10000 3.09 130 14:47 29.10.2022
1226 Clouds 14 1009 89 10000 3.09 130 12:35 29.10.2022
1227 Clouds 12 1010 89 10000 2.06 80 10:46 29.10.2022
1228 Clouds 12 1012 83 10000 1.03 0 07:37 29.10.2022
1229 Clouds 12 1013 87 10000 1.03 0 05:56 29.10.2022
1230 Clouds 12 1014 87 10000 1.54 170 03:59 29.10.2022
1231 Clouds 12 1016 85 10000 2.57 190 23:42 28.10.2022
1232 Clouds 13 1014 75 10000 1.34 142 20:47 28.10.2022
1233 Clouds 14 1013 75 10000 1.54 170 19:26 28.10.2022
1234 Clouds 15 1013 73 10000 2.06 190 18:31 28.10.2022
1235 Clouds 16 1012 66 10000 4.63 220 15:33 28.10.2022
1236 Clouds 16 1011 67 10000 4.63 230 14:43 28.10.2022
1237 Clouds 15 1010 70 10000 8.23 230 12:57 28.10.2022
1238 Clouds 15 1009 81 10000 7.72 230 11:34 28.10.2022
1239 Clouds 15 1007 87 10000 4.12 210 10:59 28.10.2022
1240 Rain 16 1005 85 8000 6.17 180 09:48 28.10.2022
1241 Rain 16 1005 81 10000 3.09 150 08:28 28.10.2022
1242 Clouds 16 1008 86 10000 3.09 170 03:43 28.10.2022
1243 Clouds 15 1010 85 10000 1.54 150 23:49 27.10.2022
1244 Clouds 16 1010 86 10000 2.57 180 22:40 27.10.2022
1245 Clouds 16 1011 88 10000 2.06 170 21:35 27.10.2022
1246 Clouds 16 1010 86 10000 1.54 160 20:28 27.10.2022
1247 Clouds 17 1009 81 10000 2.06 170 18:22 27.10.2022
1248 Clouds 16 1009 86 10000 2.57 170 14:23 27.10.2022
1249 Clouds 14 1011 92 10000 3.09 170 09:24 27.10.2022
1250 Clouds 13 1012 88 10000 2.06 150 06:24 27.10.2022
1251 Clouds 13 1012 82 10000 2.06 190 23:56 26.10.2022
1252 Clouds 13 1012 80 10000 2.57 180 22:51 26.10.2022
1253 Clouds 14 1011 79 10000 3.6 200 22:22 26.10.2022
1254 Clouds 15 1009 74 10000 4.12 200 19:53 26.10.2022
1255 Clouds 16 1006 69 10000 5.14 200 16:35 26.10.2022
1256 Clouds 16 1005 80 7000 6.69 230 14:52 26.10.2022
1257 Clouds 17 1003 72 10000 5.66 210 12:37 26.10.2022
1258 Clouds 15 1002 84 10000 4.12 180 10:24 26.10.2022
1259 Clouds 15 1001 84 10000 2.06 0 08:54 26.10.2022
1260 Clouds 15 1001 85 10000 3.09 170 08:24 26.10.2022
1261 Rain 14 1004 82 10000 3.09 130 00:46 26.10.2022
1262 Rain 14 1004 81 10000 3.6 140 00:21 26.10.2022
1263 Clouds 14 1005 81 10000 0.89 132 21:52 25.10.2022
1264 Clouds 14 1006 82 10000 2.06 130 21:22 25.10.2022
1265 Clouds 13 1007 81 10000 2.06 130 19:43 25.10.2022
1266 Clouds 15 1008 78 10000 2.06 160 17:52 25.10.2022
1267 Clouds 15 1010 78 10000 3.6 190 14:37 25.10.2022
1268 Clear 12 1009 84 10000 3.6 190 11:38 25.10.2022
1269 Clouds 11 1008 87 10000 2.06 170 10:37 25.10.2022
1270 Clouds 10 1008 90 10000 1.54 170 09:44 25.10.2022
1271 Clouds 10 1007 88 10000 1.54 180 08:18 25.10.2022
1272 Clouds 10 1007 88 10000 2.06 180 07:54 25.10.2022
1273 Clouds 11 1006 86 10000 3.09 180 06:56 25.10.2022
1274 Clouds 11 1005 87 10000 3.09 190 03:43 25.10.2022
1275 Clouds 12 1004 83 10000 3.6 200 00:35 25.10.2022
1276 Clouds 12 1004 88 10000 4.12 200 23:28 24.10.2022
1277 Clouds 12 1002 84 10000 3.6 210 22:24 24.10.2022
1278 Clouds 13 1002 83 10000 2.06 190 21:32 24.10.2022
1279 Clouds 13 1002 84 10000 3.09 210 20:41 24.10.2022
1280 Clouds 14 1000 78 10000 3.09 220 18:52 24.10.2022
1281 Clouds 15 1000 78 10000 7.2 240 17:35 24.10.2022
1282 Clouds 15 999 76 10000 7.2 240 16:32 24.10.2022
1283 Clouds 14 998 83 10000 3.6 200 14:22 24.10.2022
1284 Clouds 14 998 84 10000 3.09 200 13:27 24.10.2022
1285 Clouds 13 998 90 10000 2.57 190 11:32 24.10.2022
1286 Clouds 12 995 93 10000 2.06 210 07:57 24.10.2022
1287 Clouds 12 992 91 7000 0 0 00:49 24.10.2022
1288 Clouds 13 994 87 10000 1.54 70 20:42 23.10.2022
1289 Clouds 14 995 86 10000 0.51 0 19:41 23.10.2022
1290 Clouds 16 996 81 10000 1.54 140 17:30 23.10.2022
1291 Clouds 16 996 80 10000 1.54 130 16:51 23.10.2022
1292 Clouds 15 997 86 10000 1.54 210 15:19 23.10.2022
1293 Rain 14 999 90 4500 2.57 80 12:50 23.10.2022
1294 Rain 14 1001 89 10000 2.06 0 10:58 23.10.2022
1295 Clouds 13 1003 90 10000 1.54 0 06:59 23.10.2022
1296 Clouds 14 1007 87 10000 1.54 0 23:35 22.10.2022
1297 Clouds 13 1007 86 10000 1.03 0 22:31 22.10.2022
1298 Rain 13 1007 85 10000 1.03 0 21:41 22.10.2022
1299 Clouds 14 1007 81 10000 0.51 0 20:30 22.10.2022
1300 Clouds 14 1007 77 10000 2.57 170 19:31 22.10.2022
1301 Clouds 15 1006 74 10000 1.54 170 18:45 22.10.2022
1302 Clouds 16 1006 71 10000 2.57 190 17:27 22.10.2022
1303 Clouds 16 1006 74 10000 4.12 200 15:21 22.10.2022
1304 Clouds 16 1006 75 10000 2.57 190 14:34 22.10.2022
1305 Clouds 13 1006 83 10000 2.57 200 11:40 22.10.2022
1306 Clouds 12 1004 85 10000 2.57 200 09:46 22.10.2022
1307 Clouds 12 1002 83 10000 3.6 190 08:37 22.10.2022
1308 Clouds 14 1001 88 10000 4.12 210 06:27 22.10.2022
1309 Clouds 15 997 89 10000 2.06 180 01:25 22.10.2022
1310 Clouds 15 995 88 10000 1.54 170 22:53 21.10.2022
1311 Clouds 14 995 89 10000 2.57 140 21:34 21.10.2022
1312 Clouds 15 995 84 10000 2.57 0 20:39 21.10.2022
1313 Clouds 15 995 79 10000 3.09 0 18:28 21.10.2022
1314 Clouds 17 996 77 10000 4.12 150 14:47 21.10.2022
1315 Clouds 16 997 81 10000 3.6 140 13:40 21.10.2022
1316 Clouds 15 998 86 10000 3.09 140 11:54 21.10.2022
1317 Clouds 12 998 87 10000 3.6 130 10:24 21.10.2022
1318 Clouds 11 997 88 10000 2.06 130 08:51 21.10.2022
1319 Clouds 11 997 92 10000 0.45 179 08:21 21.10.2022
1320 Clouds 11 1000 94 10000 1.03 0 04:30 21.10.2022
1321 Mist 13 1002 94 2300 1.54 180 23:25 20.10.2022
1322 Mist 13 1002 94 4500 1.54 190 21:21 20.10.2022
1323 Clouds 13 1002 94 6000 1.54 210 19:44 20.10.2022
1324 Clouds 14 1002 94 8000 2.06 210 18:49 20.10.2022
1325 Rain 14 1002 92 4500 1.54 210 17:43 20.10.2022
1326 Rain 13 1004 91 6000 0.51 0 14:38 20.10.2022
1327 Rain 13 1005 91 8000 2.06 40 12:32 20.10.2022
1328 Drizzle 13 1006 90 10000 2.06 50 11:34 20.10.2022
1329 Clouds 13 1006 90 10000 2.06 40 10:52 20.10.2022
1330 Clouds 13 1007 88 10000 1.54 70 09:30 20.10.2022
1331 Clouds 12 1008 88 10000 2.06 80 07:23 20.10.2022
1332 Clouds 13 1011 84 10000 3.6 90 02:22 20.10.2022
1333 Clouds 12 1011 80 10000 4.63 80 23:41 19.10.2022
1334 Clouds 12 1012 76 10000 5.14 70 22:25 19.10.2022
1335 Clouds 12 1013 74 10000 5.66 70 21:27 19.10.2022
1336 Clouds 12 1015 76 10000 5.14 80 19:55 19.10.2022
1337 Clouds 14 1016 70 10000 6.17 80 17:52 19.10.2022
1338 Clouds 14 1018 68 10000 5.66 80 16:24 19.10.2022
1339 Clouds 14 1021 71 10000 3.6 90 14:27 19.10.2022
1340 Clouds 12 1022 77 10000 4.12 100 12:20 19.10.2022
1341 Clouds 10 1023 81 10000 2.06 0 08:49 19.10.2022
1342 Clouds 10 1024 81 10000 3.6 80 07:23 19.10.2022
1343 Clouds 10 1026 81 10000 2.06 70 01:33 19.10.2022
1344 Clouds 10 1028 86 10000 4.63 70 23:25 18.10.2022
1345 Clouds 11 1028 80 10000 4.12 80 21:49 18.10.2022
1346 Clouds 11 1028 80 10000 3.09 70 21:24 18.10.2022
1347 Clouds 11 1028 76 10000 2.06 70 20:26 18.10.2022
1348 Clouds 11 1028 76 10000 2.06 70 20:26 18.10.2022
1349 Clear 13 1027 67 10000 2.06 90 18:58 18.10.2022
1350 Clouds 16 1027 59 10000 2.06 80 16:56 18.10.2022
1351 Clouds 16 1027 64 10000 2.06 40 14:59 18.10.2022
1352 Clouds 14 1029 78 10000 1.54 50 13:38 18.10.2022
1353 Clear 10 1028 92 10000 1.03 0 11:47 18.10.2022
1354 Clear 7 1027 93 10000 1.54 170 10:27 18.10.2022
1355 Fog 6 1026 94 10000 1.03 120 08:40 18.10.2022
1356 Clouds 7 1025 90 10000 1.54 170 05:45 18.10.2022
1357 Clear 10 1021 78 10000 2.06 210 23:25 17.10.2022
1358 Clear 12 1020 69 10000 4.12 230 21:28 17.10.2022
1359 Clear 13 1019 66 10000 4.12 220 20:45 17.10.2022
1360 Clear 13 1019 63 10000 4.63 230 20:27 17.10.2022
1361 Clear 14 1018 65 10000 3.6 210 19:41 17.10.2022
1362 Clear 16 1016 54 10000 5.66 210 17:40 17.10.2022
1363 Clear 17 1014 53 10000 7.2 220 15:54 17.10.2022
1364 Clouds 17 1013 57 10000 7.2 220 14:36 17.10.2022
1365 Clouds 15 1012 66 10000 6.17 210 12:42 17.10.2022
1366 Clouds 13 1007 84 10000 3.09 190 07:34 17.10.2022
1367 Clouds 13 1004 84 10000 4.63 130 00:28 17.10.2022
1368 Clouds 13 1006 74 10000 2.57 0 22:26 16.10.2022
1369 Clouds 12 1007 68 10000 2.06 0 21:20 16.10.2022
1370 Clouds 11 1008 69 10000 2.57 80 19:50 16.10.2022
1371 Clouds 12 1009 66 10000 1.54 0 18:37 16.10.2022
1372 Clouds 13 1009 63 10000 1.54 130 17:43 16.10.2022
1373 Clouds 13 1009 62 10000 1.03 190 16:24 16.10.2022
1374 Clouds 13 1010 63 10000 1.54 190 15:50 16.10.2022
1375 Clouds 11 1010 77 10000 3.09 200 12:25 16.10.2022
1376 Clouds 9 1008 82 10000 2.06 180 10:46 16.10.2022
1377 Clouds 8 1007 84 10000 2.57 170 10:25 16.10.2022
1378 Clouds 10 998 86 10000 5.66 210 03:57 16.10.2022
1379 Clouds 10 998 83 10000 3.6 190 23:42 15.10.2022
1380 Clouds 11 997 79 10000 6.17 210 21:29 15.10.2022
1381 Clouds 11 997 79 10000 6.17 210 21:29 15.10.2022
1382 Clouds 11 997 81 10000 4.12 200 20:57 15.10.2022
1383 Clouds 11 997 83 10000 2.06 180 19:30 15.10.2022
1384 Clouds 11 998 81 10000 2.57 190 16:18 15.10.2022
1385 Rain 12 998 82 10000 2.57 210 15:43 15.10.2022
1386 Clouds 13 999 74 10000 4.63 220 13:18 15.10.2022
1387 Clouds 12 998 85 10000 4.63 210 11:37 15.10.2022
1388 Clouds 10 996 90 10000 3.09 200 09:22 15.10.2022
1389 Clouds 11 998 92 5000 2.57 180 05:46 15.10.2022
1390 Clouds 10 1003 94 10000 1.54 180 00:40 15.10.2022
1391 Fog 10 1005 93 10000 1.03 150 22:25 14.10.2022
1392 Clouds 11 1005 91 10000 1.54 160 21:37 14.10.2022
1393 Clouds 11 1005 90 10000 1.54 190 20:27 14.10.2022
1394 Rain 13 1005 82 10000 3.09 270 17:21 14.10.2022
1395 Clouds 14 1006 83 10000 2.57 190 15:30 14.10.2022
1396 Clouds 15 1008 76 10000 4.12 220 12:45 14.10.2022
1397 Clouds 12 1007 91 10000 1.54 200 10:36 14.10.2022
1398 Clouds 11 1007 90 10000 1.54 190 08:25 14.10.2022
1399 Clouds 12 1008 86 10000 2.57 170 06:18 14.10.2022
1400 Clouds 11 1009 88 10000 2.06 180 05:59 14.10.2022
1401 Clouds 11 1009 88 10000 2.06 180 05:41 14.10.2022
1402 Clouds 11 1012 86 10000 1.54 170 01:30 14.10.2022
1403 Haze 10 1012 84 5000 1.54 170 23:18 13.10.2022
1404 Clear 10 1012 81 10000 1.03 0 21:30 13.10.2022
1405 Clear 11 1012 79 10000 1.54 140 20:19 13.10.2022
1406 Clear 12 1013 74 10000 1.03 150 19:39 13.10.2022
1407 Clear 14 1013 68 10000 2.06 210 18:44 13.10.2022
1408 Clouds 15 1013 63 10000 3.09 220 17:46 13.10.2022
1409 Clouds 15 1013 61 10000 1.54 210 15:48 13.10.2022
1410 Clouds 14 1015 62 10000 1.03 0 14:29 13.10.2022
1411 Fog 12 1016 85 10000 0.51 0 12:56 13.10.2022
1412 Fog 10 1017 91 400 1.03 0 11:40 13.10.2022
1413 Fog 7 1015 91 200 0.51 0 09:48 13.10.2022
1414 Fog 7 1015 94 800 0.51 0 08:33 13.10.2022
1415 Fog 8 1015 95 200 0.51 0 07:36 13.10.2022
1416 Fog 10 1016 93 750 0.51 270 02:00 13.10.2022
1417 Fog 10 1016 93 400 1.03 230 01:29 13.10.2022
1418 Mist 12 1015 92 4900 1.03 270 22:58 12.10.2022
1419 Rain 12 1016 93 7000 1.03 0 22:37 12.10.2022
1420 Clouds 12 1015 94 10000 2.06 240 21:24 12.10.2022
1421 Clouds 13 1015 94 10000 2.57 260 20:53 12.10.2022
1422 Clouds 13 1014 92 2500 4.12 250 20:23 12.10.2022
1423 Drizzle 13 1014 91 2800 3.09 200 18:40 12.10.2022
1424 Rain 13 1014 90 10000 2.57 180 17:50 12.10.2022
1425 Clouds 13 1015 84 10000 3.09 180 15:50 12.10.2022
1426 Clouds 13 1016 83 10000 3.09 180 13:57 12.10.2022
1427 Clouds 13 1016 87 10000 2.57 180 13:29 12.10.2022
1428 Clouds 11 1018 80 10000 3.6 180 09:48 12.10.2022
1429 Clouds 10 1019 79 10000 3.09 180 07:59 12.10.2022
1430 Clouds 10 1019 78 10000 3.09 180 07:41 12.10.2022
1431 Clouds 10 1018 77 10000 2.06 180 06:43 12.10.2022
1432 Clouds 8 1021 78 10000 1.54 170 01:32 12.10.2022
1433 Clouds 10 1022 75 10000 1.54 180 22:39 11.10.2022
1434 Clouds 11 1023 76 10000 2.06 170 20:54 11.10.2022
1435 Clouds 12 1023 69 10000 1.54 180 19:43 11.10.2022
1436 Clear 14 1024 57 10000 3.09 220 17:28 11.10.2022
1437 Clouds 14 1025 60 10000 3.6 260 14:48 11.10.2022
1438 Clouds 13 1027 67 10000 3.09 210 13:23 11.10.2022
1439 Clouds 9 1026 88 10000 2.06 180 10:29 11.10.2022
1440 Clouds 8 1026 88 10000 2.06 170 09:36 11.10.2022
1441 Clouds 8 1025 88 10000 2.06 170 07:53 11.10.2022
1442 Clouds 9 1025 86 10000 2.06 170 02:35 11.10.2022
1443 Clouds 9 1025 84 10000 0.51 0 00:31 11.10.2022
1444 Clouds 9 1023 79 10000 1.54 170 21:37 10.10.2022
1445 Clouds 11 1022 73 10000 0.89 354 19:59 10.10.2022
1446 Clouds 12 1022 65 10000 5.66 280 18:36 10.10.2022
1447 Clouds 13 1020 63 10000 6.69 280 17:21 10.10.2022
1448 Clouds 13 1020 62 10000 5.66 310 15:44 10.10.2022
1449 Clouds 13 1018 77 10000 5.66 280 12:54 10.10.2022
1450 Clear 12 1016 80 10000 5.14 280 11:56 10.10.2022
1451 Clear 7 1013 91 10000 1.54 240 08:59 10.10.2022
1452 Clouds 9 1011 90 10000 2.06 280 05:43 10.10.2022
1453 Clouds 9 1010 89 10000 1.03 0 04:56 10.10.2022
1454 Rain 11 1007 88 5000 2.57 180 00:33 10.10.2022
1455 Rain 12 1008 74 10000 3.6 190 22:51 09.10.2022
1456 Rain 13 1009 73 10000 4.12 180 22:18 09.10.2022
1457 Rain 13 1009 71 10000 3.6 180 21:22 09.10.2022
1458 Rain 14 1008 71 10000 2.57 180 20:20 09.10.2022
1459 Clouds 14 1009 74 10000 2.57 180 19:37 09.10.2022
1460 Clouds 14 1009 73 10000 3.09 180 18:43 09.10.2022
1461 Clouds 15 1010 67 10000 4.63 180 16:56 09.10.2022
1462 Clouds 15 1010 67 10000 4.63 180 16:33 09.10.2022
1463 Clouds 15 1011 66 10000 4.12 190 15:38 09.10.2022
1464 Clouds 15 1013 65 10000 5.66 190 14:31 09.10.2022
1465 Clouds 14 1013 71 10000 6.17 190 13:23 09.10.2022
1466 Clouds 13 1015 77 10000 4.12 180 12:28 09.10.2022
1467 Clouds 10 1015 83 10000 1.54 160 10:48 09.10.2022
1468 Clouds 7 1016 88 10000 1.54 160 08:30 09.10.2022
1469 Clouds 7 1016 88 10000 1.54 160 08:30 09.10.2022
1470 Clouds 7 1016 88 10000 1.54 160 08:30 09.10.2022
1471 Clouds 7 1019 88 10000 1.54 180 03:38 09.10.2022
1472 Clouds 7 1019 89 10000 1.03 0 02:52 09.10.2022
1473 Clouds 8 1021 86 10000 2.06 160 00:38 09.10.2022
1474 Clouds 8 1021 87 10000 2.06 150 22:56 08.10.2022
1475 Clouds 9 1022 84 10000 2.06 160 21:50 08.10.2022
1476 Clouds 10 1021 79 10000 0.51 0 20:27 08.10.2022
1477 Clouds 14 1021 62 10000 2.06 280 18:56 08.10.2022
1478 Clouds 15 1022 60 10000 4.63 260 16:52 08.10.2022
1479 Clouds 15 1022 66 10000 6.17 260 14:55 08.10.2022
1480 Clouds 14 1022 70 10000 3.6 250 13:30 08.10.2022
1481 Clouds 10 1021 92 10000 2.57 200 10:40 08.10.2022
1482 Clouds 9 1020 92 10000 2.06 190 10:21 08.10.2022
1483 Clouds 9 1019 92 10000 2.57 230 08:48 08.10.2022
1484 Clouds 9 1016 91 10000 2.06 180 03:59 08.10.2022
1485 Clouds 9 1015 89 10000 2.57 230 00:43 08.10.2022
1486 Clouds 10 1014 89 10000 2.57 200 23:27 07.10.2022
1487 Clouds 10 1014 88 10000 4.12 230 22:50 07.10.2022
1488 Clouds 10 1013 87 10000 2.57 210 21:38 07.10.2022
1489 Clouds 12 1012 86 10000 4.12 230 19:42 07.10.2022
1490 Clouds 13 1012 80 10000 5.14 250 17:48 07.10.2022
1491 Clouds 13 1012 89 10000 3.6 230 16:41 07.10.2022
1492 Clouds 12 1012 92 10000 3.09 240 15:21 07.10.2022
1493 Rain 13 1012 86 6000 6.17 210 13:26 07.10.2022
1494 Rain 15 1013 79 10000 7.2 210 11:19 07.10.2022
1495 Clouds 14 1013 80 10000 4.12 190 09:25 07.10.2022
1496 Clouds 13 1014 82 10000 6.69 210 08:19 07.10.2022
1497 Clouds 14 1018 80 10000 4.12 210 02:26 07.10.2022
1498 Clouds 15 1020 80 10000 4.63 210 22:52 06.10.2022
1499 Clouds 15 1021 81 10000 5.14 210 21:50 06.10.2022
1500 Clouds 15 1020 79 10000 5.66 210 21:29 06.10.2022
1501 Clouds 15 1020 78 10000 5.14 210 20:36 06.10.2022
1502 Clouds 16 1020 77 10000 5.66 220 18:46 06.10.2022
1503 Clouds 16 1022 79 10000 5.66 220 18:19 06.10.2022
1504 Clouds 17 1021 70 10000 7.2 230 15:33 06.10.2022
1505 Clouds 14 1022 85 10000 4.63 220 12:29 06.10.2022
1506 Clouds 9 1020 85 10000 4.12 190 08:20 06.10.2022
1507 Clouds 9 1019 86 10000 4.12 210 03:39 06.10.2022
1508 Clouds 10 1017 86 10000 5.14 220 00:44 06.10.2022
1509 Clouds 9 1013 87 10000 3.6 230 21:52 05.10.2022
1510 Clouds 11 1009 78 10000 8.75 260 19:31 05.10.2022
1511 Clouds 13 1006 84 10000 7.72 240 17:37 05.10.2022
1512 Clouds 13 1005 90 10000 4.12 210 16:22 05.10.2022
1513 Clouds 12 1004 93 10000 3.6 230 14:52 05.10.2022
1514 Rain 12 1004 94 8000 3.6 240 14:19 05.10.2022
1515 Rain 12 1003 92 3900 4.63 290 12:28 05.10.2022
1516 Rain 13 1001 91 3900 4.63 300 10:36 05.10.2022
1517 Drizzle 16 1000 93 4900 3.6 180 07:57 05.10.2022
1518 Drizzle 16 1003 90 5000 4.63 180 06:22 05.10.2022
1519 Clouds 16 1003 89 10000 4.12 190 04:35 05.10.2022
1520 Clouds 16 1006 90 4900 4.63 190 01:22 05.10.2022
1521 Clouds 16 1007 90 10000 3.6 190 00:27 05.10.2022
1522 Clouds 16 1008 91 10000 4.63 190 22:39 04.10.2022
1523 Clouds 16 1008 90 10000 4.12 190 20:40 04.10.2022
1524 Clouds 16 1008 90 10000 3.09 190 19:47 04.10.2022
1525 Clouds 16 1009 91 10000 3.09 190 18:39 04.10.2022
1526 Rain 16 1009 91 8000 4.12 200 17:50 04.10.2022
1527 Rain 16 1010 90 5000 4.12 200 16:41 04.10.2022
1528 Clouds 17 1010 79 10000 4.63 190 13:19 04.10.2022
1529 Clouds 15 1011 86 10000 3.6 180 09:52 04.10.2022
1530 Clouds 14 1013 88 10000 2.57 190 07:34 04.10.2022
1531 Clouds 13 1016 83 10000 3.09 180 02:32 04.10.2022
1532 Clouds 13 1018 81 10000 2.06 180 23:41 03.10.2022
1533 Clouds 13 1019 80 10000 2.06 190 21:55 03.10.2022
1534 Clouds 14 1019 80 10000 1.54 180 21:23 03.10.2022
1535 Clouds 14 1019 78 10000 1.03 0 20:28 03.10.2022
1536 Clouds 16 1020 70 10000 3.09 190 18:35 03.10.2022
1537 Clouds 16 1021 69 10000 2.57 200 17:28 03.10.2022
1538 Clouds 17 1022 69 10000 3.09 210 15:49 03.10.2022
1539 Clouds 16 1023 66 10000 3.09 190 14:21 03.10.2022
1540 Clouds 14 1025 73 10000 2.06 160 12:31 03.10.2022
1541 Clouds 11 1025 91 10000 1.03 0 10:40 03.10.2022
1542 Clouds 9 1025 94 10000 0.51 0 09:40 03.10.2022
1543 Clouds 8 1025 92 10000 1.03 130 07:27 03.10.2022
1544 Clouds 9 1025 94 10000 1.03 0 03:38 03.10.2022
1545 Clouds 10 1025 86 10000 1.03 210 22:50 02.10.2022
1546 Clear 11 1024 81 10000 1.03 260 21:26 02.10.2022
1547 Clouds 14 1024 71 10000 3.6 280 19:28 02.10.2022
1548 Clouds 15 1022 62 10000 5.14 290 17:54 02.10.2022
1549 Clouds 16 1021 59 10000 5.14 290 16:48 02.10.2022
1550 Clouds 16 1021 62 10000 5.14 290 16:26 02.10.2022
1551 Clouds 16 1020 66 10000 5.66 290 14:53 02.10.2022
1552 Clouds 15 1020 68 10000 4.12 310 13:45 02.10.2022
1553 Clouds 15 1018 77 10000 4.12 280 12:30 02.10.2022
1554 Clouds 14 1018 89 10000 3.09 290 11:41 02.10.2022
1555 Clouds 14 1018 89 10000 1.54 260 11:21 02.10.2022
1556 Clouds 10 1016 92 10000 1.03 240 09:29 02.10.2022
1557 Clouds 10 1015 93 10000 2.57 220 08:23 02.10.2022
1558 Clouds 11 1012 92 10000 1.54 210 03:52 02.10.2022
1559 Clouds 12 1010 91 10000 4.58 270 00:50 02.10.2022
1560 Clouds 12 1010 90 10000 3.6 200 00:31 02.10.2022
1561 Clouds 12 1009 91 10000 0.45 123 22:53 01.10.2022
1562 Clouds 12 1008 88 10000 3.09 240 20:54 01.10.2022
1563 Clouds 15 1006 68 10000 2.57 230 18:51 01.10.2022
1564 Clouds 17 1005 58 10000 8.75 270 16:42 01.10.2022
1565 Clouds 16 1004 64 10000 8.23 260 14:42 01.10.2022
1566 Clouds 16 1004 69 10000 7.72 260 13:32 01.10.2022
1567 Clouds 15 1003 72 10000 8.23 250 12:33 01.10.2022
1568 Clouds 14 1002 82 10000 5.14 230 11:21 01.10.2022
1569 Clouds 13 1001 88 10000 3.6 210 10:32 01.10.2022
1570 Clouds 12 1001 90 10000 3.6 220 09:55 01.10.2022
1571 Clouds 11 1000 92 10000 2.06 200 08:58 01.10.2022
1572 Clouds 11 998 91 10000 1.54 210 05:47 01.10.2022
1573 Clouds 12 996 93 10000 3.6 220 03:34 01.10.2022
1574 Clouds 12 995 94 10000 3.09 210 01:21 01.10.2022
1575 Clouds 12 994 94 10000 3.09 230 22:55 30.09.2022
1576 Clear 13 994 94 10000 2.57 210 21:31 30.09.2022
1577 Clouds 13 994 94 10000 2.57 200 20:44 30.09.2022
1578 Clouds 13 993 92 10000 3.09 220 20:18 30.09.2022
1579 Rain 12 992 91 9000 6.69 190 17:38 30.09.2022
1580 Rain 12 996 93 4900 5.66 180 15:58 30.09.2022
1581 Rain 12 998 87 8000 4.63 180 13:34 30.09.2022
1582 Clouds 12 1001 87 10000 3.6 180 11:58 30.09.2022
1583 Clouds 12 1002 88 10000 3.6 180 11:28 30.09.2022
1584 Clouds 10 1004 94 10000 2.06 170 08:37 30.09.2022
1585 Clouds 8 1007 96 10000 1.03 0 06:27 30.09.2022
1586 Clouds 8 1008 92 10000 0.51 0 02:42 30.09.2022
1587 Clouds 9 1009 90 10000 1.54 70 23:35 29.09.2022
1588 Clouds 12 1008 85 10000 2.06 60 21:29 29.09.2022
1589 Clouds 12 1008 82 10000 1.54 80 20:57 29.09.2022
1590 Clouds 15 1007 79 10000 2.06 60 18:45 29.09.2022
1591 Clouds 16 1006 77 10000 3.09 70 17:32 29.09.2022
1592 Clouds 16 1005 77 10000 2.06 80 16:28 29.09.2022
1593 Clouds 16 1005 76 10000 2.06 90 15:36 29.09.2022
1594 Clouds 15 1005 80 10000 2.06 320 14:31 29.09.2022
1595 Clouds 12 1003 90 10000 2.57 50 10:29 29.09.2022
1596 Clouds 10 1000 91 10000 2.06 310 07:22 29.09.2022
1597 Clouds 10 998 94 10000 1.03 0 02:51 29.09.2022
1598 Rain 10 999 90 6000 3.6 310 23:56 28.09.2022
1599 Clouds 10 999 88 10000 2.06 260 22:44 28.09.2022
1600 Rain 11 999 77 10000 3.09 290 21:29 28.09.2022
1601 Clouds 12 1000 76 10000 4.12 280 20:24 28.09.2022
1602 Clouds 13 1000 69 10000 5.14 300 18:41 28.09.2022
1603 Clouds 14 1000 58 10000 3.6 310 15:26 28.09.2022
1604 Clear 12 1001 75 10000 2.06 290 13:26 28.09.2022
1605 Clear 9 1000 97 10000 0.45 90 10:59 28.09.2022
1606 Clear 5 1000 96 10000 1.38 357 09:18 28.09.2022
1607 Fog 5 999 96 10000 0.51 60 07:19 28.09.2022
1608 Clear 6 999 91 10000 1.54 160 02:36 28.09.2022
1609 Haze 7 999 92 4100 1.03 0 01:33 28.09.2022
1610 Clouds 8 999 89 10000 0.51 0 23:20 27.09.2022
1611 Clouds 9 998 85 10000 3.6 290 21:44 27.09.2022
1612 Clouds 10 998 84 10000 3.09 300 20:38 27.09.2022
1613 Clouds 11 998 81 10000 5.14 300 19:48 27.09.2022
1614 Clouds 11 998 78 10000 5.14 330 18:40 27.09.2022
1615 Clouds 12 998 70 10000 6.17 290 17:44 27.09.2022
1616 Clouds 13 998 62 10000 6.17 290 15:31 27.09.2022
1617 Clouds 13 999 65 10000 6.17 330 14:55 27.09.2022
1618 Clouds 12 999 67 10000 5.66 300 12:50 27.09.2022
1619 Clouds 11 1001 81 10000 3.09 290 11:32 27.09.2022
1620 Clouds 9 1000 92 10000 3.09 240 08:49 27.09.2022
1621 Rain 8 1000 91 10000 2.06 280 06:45 27.09.2022
1622 Clouds 8 1003 84 10000 2.57 300 01:57 27.09.2022
1623 Clouds 9 1003 85 10000 3.09 300 01:28 27.09.2022
1624 Clouds 9 1003 83 10000 3.09 290 23:26 26.09.2022
1625 Clouds 10 1002 84 10000 3.09 290 22:34 26.09.2022
1626 Clouds 10 1003 86 10000 6.17 290 20:45 26.09.2022
1627 Clouds 12 1002 77 8000 8.23 320 19:31 26.09.2022
1628 Clouds 13 1002 67 10000 6.17 310 18:32 26.09.2022
1629 Clouds 14 1002 59 10000 6.69 310 16:34 26.09.2022
1630 Clouds 13 1003 65 10000 6.69 320 14:28 26.09.2022
1631 Clouds 12 1001 76 10000 4.63 310 11:29 26.09.2022
1632 Clouds 11 1000 86 10000 4.12 300 10:38 26.09.2022
1633 Clouds 11 1000 88 10000 5.14 290 10:20 26.09.2022
1634 Clouds 11 1000 89 10000 5.66 290 09:54 26.09.2022
1635 Clouds 11 999 89 10000 6.17 290 09:24 26.09.2022
1636 Clouds 11 999 87 10000 4.63 290 07:37 26.09.2022
1637 Drizzle 12 1003 94 4800 5.14 230 02:51 26.09.2022
1638 Rain 12 1008 85 10000 3.6 210 23:46 25.09.2022
1639 Clouds 12 1011 81 10000 4.12 220 21:54 25.09.2022
1640 Rain 13 1011 76 10000 5.14 240 21:34 25.09.2022
1641 Clouds 13 1012 75 10000 5.66 250 20:45 25.09.2022
1642 Clouds 13 1013 75 10000 6.69 250 19:32 25.09.2022
1643 Clouds 14 1014 71 10000 5.66 250 18:40 25.09.2022
1644 Clouds 14 1015 71 10000 5.66 250 18:20 25.09.2022
1645 Clouds 14 1015 69 10000 4.63 260 16:35 25.09.2022
1646 Clouds 14 1017 68 10000 4.63 270 15:44 25.09.2022
1647 Clouds 14 1018 73 10000 3.6 270 14:22 25.09.2022
1648 Clouds 13 1019 77 10000 2.57 250 12:51 25.09.2022
1649 Clouds 9 1020 93 10000 0.51 0 10:29 25.09.2022
1650 Clouds 5 1020 93 10000 2.06 130 08:24 25.09.2022
1651 Clouds 6 1021 96 10000 2.06 120 05:36 25.09.2022
1652 Clouds 8 1022 87 10000 1.03 160 01:32 25.09.2022
1653 Clouds 11 1022 76 10000 3.09 30 22:35 24.09.2022
1654 Clouds 12 1021 71 10000 2.06 60 20:54 24.09.2022
1655 Clouds 14 1020 65 10000 5.66 40 19:22 24.09.2022
1656 Clouds 16 1019 58 10000 5.14 40 17:19 24.09.2022
1657 Clouds 16 1019 61 10000 6.17 40 16:23 24.09.2022
1658 Clouds 16 1020 66 10000 4.63 50 15:19 24.09.2022
1659 Clouds 15 1019 74 10000 2.06 0 13:23 24.09.2022
1660 Clouds 14 1018 76 10000 1.54 20 12:41 24.09.2022
1661 Clouds 9 1017 93 10000 1.54 270 10:19 24.09.2022
1662 Fog 7 1017 99 10000 1.03 230 09:23 24.09.2022
1663 Fog 7 1017 96 10000 1.54 120 08:43 24.09.2022
1664 Clouds 9 1016 91 10000 0.51 0 06:26 24.09.2022
1665 Clouds 9 1016 92 10000 1.03 240 04:34 24.09.2022
1666 Clouds 10 1016 89 10000 1.02 331 23:48 23.09.2022
1667 Clouds 12 1016 83 10000 0.51 0 22:21 23.09.2022
1668 Clouds 13 1016 80 10000 1.54 320 21:25 23.09.2022
1669 Clouds 13 1016 77 10000 3.09 290 20:54 23.09.2022
1670 Clouds 15 1015 70 10000 5.14 290 19:44 23.09.2022
1671 Clouds 17 1015 62 10000 4.63 300 17:55 23.09.2022
1672 Clouds 17 1017 69 10000 4.12 310 13:41 23.09.2022
1673 Fog 12 1016 93 5000 0.51 160 10:25 23.09.2022
1674 Clear 10 1016 95 10000 1.39 326 08:45 23.09.2022
1675 Fog 13 1015 95 150 1.54 270 03:37 23.09.2022
1676 Mist 14 1015 95 3000 1.03 120 23:30 22.09.2022
1677 Clouds 14 1015 95 6000 0.51 0 22:28 22.09.2022
1678 Clouds 14 1014 95 10000 0.51 0 21:36 22.09.2022
1679 Clouds 14 1014 95 10000 1.54 140 20:25 22.09.2022
1680 Rain 14 1014 94 4000 1.03 0 18:58 22.09.2022
1681 Rain 15 1016 87 4000 2.06 200 15:58 22.09.2022
1682 Clouds 14 1017 78 10000 4.12 190 10:55 22.09.2022
1683 Clouds 14 1017 81 10000 2.57 180 10:19 22.09.2022
1684 Clouds 12 1017 87 10000 3.6 180 08:20 22.09.2022
1685 Clouds 13 1018 85 10000 3.09 180 05:22 22.09.2022
1686 Clouds 13 1021 78 10000 2.57 180 01:19 22.09.2022
1687 Clouds 14 1022 74 10000 2.06 170 22:29 21.09.2022
1688 Clouds 16 1022 69 10000 1.03 0 21:18 21.09.2022
1689 Clouds 17 1021 64 10000 1.54 200 18:50 21.09.2022
1690 Clouds 18 1022 63 10000 4.12 230 17:41 21.09.2022
1691 Clouds 18 1023 62 10000 3.09 200 15:35 21.09.2022
1692 Clouds 18 1024 66 10000 3.6 210 13:42 21.09.2022
1693 Clouds 16 1024 77 10000 2.06 190 11:42 21.09.2022
1694 Clouds 14 1024 83 10000 2.06 210 10:54 21.09.2022
1695 Clouds 12 1024 90 10000 1.54 180 09:39 21.09.2022
1696 Clouds 12 1024 90 10000 1.54 180 09:39 21.09.2022
1697 Clouds 11 1024 90 10000 1.03 0 08:31 21.09.2022
1698 Clouds 13 1025 85 10000 1.03 140 03:51 21.09.2022
1699 Clouds 13 1025 82 10000 1.03 110 02:38 21.09.2022
1700 Clouds 14 1025 82 10000 1.03 0 01:52 21.09.2022
1701 Clouds 14 1025 83 10000 1.03 80 00:19 21.09.2022
1702 Clouds 14 1025 82 10000 1.54 90 21:52 20.09.2022
1703 Clouds 16 1025 74 10000 1.03 0 20:32 20.09.2022
1704 Clouds 18 1025 67 10000 0.51 0 17:54 20.09.2022
1705 Clouds 17 1025 76 10000 0.51 0 15:33 20.09.2022
1706 Clouds 16 1026 78 10000 1.54 260 13:59 20.09.2022
1707 Clouds 14 1025 89 10000 0.51 0 11:28 20.09.2022
1708 Clouds 12 1025 93 10000 1.03 130 08:36 20.09.2022
1709 Clouds 12 1024 94 10000 1.03 190 07:32 20.09.2022
1710 Clouds 12 1025 91 10000 1.03 0 04:33 20.09.2022
1711 Clouds 13 1025 87 10000 1.54 230 01:32 20.09.2022
1712 Clouds 13 1025 82 10000 2.06 290 22:41 19.09.2022
1713 Clear 14 1024 76 10000 2.06 310 21:28 19.09.2022
1714 Clear 15 1025 74 10000 1.54 300 20:39 19.09.2022
1715 Clouds 16 1023 66 10000 2.06 340 18:43 19.09.2022
1716 Clouds 16 1023 66 10000 2.06 340 18:43 19.09.2022
1717 Clouds 17 1024 67 10000 2.57 30 16:37 19.09.2022
1718 Clouds 16 1024 79 10000 1.54 340 13:45 19.09.2022
1719 Clouds 13 1024 93 8000 1.54 200 11:43 19.09.2022
1720 Clouds 12 1023 94 10000 1.03 0 09:35 19.09.2022
1721 Clouds 11 1023 95 10000 1.03 0 08:20 19.09.2022
1722 Clouds 11 1023 94 10000 1.03 190 03:28 19.09.2022
1723 Clouds 12 1022 94 2300 1.03 0 23:39 18.09.2022
1724 Rain 13 1022 88 10000 2.57 290 22:29 18.09.2022
1725 Clouds 14 1021 85 10000 3.09 300 20:41 18.09.2022
1726 Clouds 15 1021 80 10000 4.63 310 19:26 18.09.2022
1727 Clouds 15 1020 77 10000 6.17 300 17:49 18.09.2022
1728 Clouds 16 1020 76 10000 4.12 300 16:43 18.09.2022
1729 Clouds 16 1021 74 10000 6.17 310 14:39 18.09.2022
1730 Clouds 14 1020 83 10000 5.14 310 12:56 18.09.2022
1731 Rain 14 1020 86 10000 2.57 290 11:53 18.09.2022
1732 Clouds 10 1020 85 10000 1.54 260 06:57 18.09.2022
1733 Clouds 12 1021 74 10000 2.57 300 01:37 18.09.2022
1734 Clouds 12 1021 73 10000 2.57 300 01:18 18.09.2022
1735 Clouds 13 1022 73 10000 2.06 290 22:55 17.09.2022
1736 Clouds 12 1022 70 10000 2.57 300 20:50 17.09.2022
1737 Clouds 14 1021 59 10000 4.63 290 19:30 17.09.2022
1738 Clouds 15 1022 54 10000 6.17 280 17:21 17.09.2022
1739 Clouds 15 1023 54 10000 4.12 320 14:18 17.09.2022
1740 Clouds 13 1024 60 10000 2.06 260 12:33 17.09.2022
1741 Clouds 12 1024 70 10000 3.11 351 10:47 17.09.2022
1742 Clear 5 1022 86 10000 1.29 357 06:29 17.09.2022
1743 Clear 6 1022 84 10000 1.03 0 03:34 17.09.2022
1744 Clouds 9 1022 69 10000 2.06 280 23:23 16.09.2022
1745 Clouds 11 1021 62 10000 2.06 290 21:46 16.09.2022
1746 Clouds 12 1021 54 10000 2.57 330 20:41 16.09.2022
1747 Clouds 15 1021 47 10000 6.17 330 18:28 16.09.2022
1748 Clouds 15 1020 46 10000 7.2 320 16:18 16.09.2022
1749 Clouds 15 1019 48 10000 6.17 340 14:40 16.09.2022
1750 Clouds 14 1019 60 10000 4.63 330 12:31 16.09.2022
1751 Clear 10 1017 86 10000 0.51 0 09:37 16.09.2022
1752 Clouds 9 1016 89 10000 1.03 0 07:22 16.09.2022
1753 Clouds 9 1016 88 10000 0.51 0 06:47 16.09.2022
1754 Clouds 9 1016 83 10000 0.51 0 05:19 16.09.2022
1755 Clouds 12 1015 75 10000 2.06 300 23:50 15.09.2022
1756 Clouds 13 1014 70 10000 3.09 300 21:24 15.09.2022
1757 Clouds 14 1014 68 10000 5.14 310 20:28 15.09.2022
1758 Clouds 15 1014 59 10000 4.63 330 18:54 15.09.2022
1759 Clouds 16 1014 58 10000 5.66 320 17:34 15.09.2022
1760 Clouds 16 1014 58 10000 5.66 320 17:34 15.09.2022
1761 Clouds 16 1013 55 10000 4.63 310 16:57 15.09.2022
1762 Clouds 16 1013 54 10000 6.17 300 14:58 15.09.2022
1763 Clouds 16 1013 62 10000 2.57 320 12:49 15.09.2022
1764 Clouds 14 1012 80 10000 2.57 360 10:34 15.09.2022
1765 Clouds 12 1011 90 10000 1.54 310 08:57 15.09.2022
1766 Clouds 13 1010 86 10000 2.57 280 04:24 15.09.2022
1767 Clouds 14 1010 83 10000 2.06 280 02:18 15.09.2022
1768 Clouds 15 1009 83 10000 2.06 280 22:26 14.09.2022
1769 Clouds 15 1008 76 10000 2.57 290 20:19 14.09.2022
1770 Clouds 16 1008 71 10000 4.63 310 19:32 14.09.2022
1771 Clouds 17 1007 67 10000 5.66 300 17:26 14.09.2022
1772 Clouds 18 1007 66 10000 5.66 310 15:58 14.09.2022
1773 Clouds 17 1008 70 10000 4.12 290 14:35 14.09.2022
1774 Clouds 14 1007 84 10000 2.57 290 11:54 14.09.2022
1775 Clouds 13 1008 94 10000 0.51 0 09:48 14.09.2022
1776 Clouds 11 1007 95 10000 0.51 0 07:39 14.09.2022
1777 Clouds 11 1007 95 10000 0.51 0 06:47 14.09.2022
1778 Clouds 10 1008 95 10000 1.03 0 04:51 14.09.2022
1779 Clouds 10 1009 93 10000 0.51 0 01:51 14.09.2022
1780 Clouds 11 1010 93 10000 1.03 150 01:29 14.09.2022
1781 Clouds 11 1010 93 10000 1.03 150 01:29 14.09.2022
1782 Clouds 11 1009 93 10000 0.8 273 00:52 14.09.2022
1783 Clouds 12 1010 89 10000 0.51 0 23:54 13.09.2022
1784 Clouds 12 1010 88 10000 0.51 0 23:36 13.09.2022
1785 Clouds 12 1010 88 10000 0.51 0 23:18 13.09.2022
1786 Clouds 13 1011 86 10000 2.06 290 22:20 13.09.2022
1787 Clouds 17 1010 69 10000 2.06 280 19:52 13.09.2022
1788 Clouds 19 1010 63 10000 2.06 270 18:18 13.09.2022
1789 Clouds 19 1011 65 10000 2.57 320 15:55 13.09.2022
1790 Clouds 18 1011 68 10000 2.57 330 14:36 13.09.2022
1791 Clouds 17 1012 73 10000 2.06 300 13:20 13.09.2022
1792 Clouds 10 1012 99 10000 0.51 0 09:23 13.09.2022
1793 Clear 9 1012 95 10000 0.51 80 06:24 13.09.2022
1794 Clouds 12 1012 91 10000 1.54 260 00:22 13.09.2022
1795 Clouds 14 1011 91 10000 2.57 300 22:50 12.09.2022
1796 Clouds 15 1011 92 10000 1.54 280 21:55 12.09.2022
1797 Clouds 16 1010 93 10000 2.57 310 20:39 12.09.2022
1798 Clouds 17 1009 95 10000 3.6 290 18:51 12.09.2022
1799 Rain 18 1009 94 10000 3.6 280 17:25 12.09.2022
1800 Rain 19 1010 89 10000 3.09 210 14:37 12.09.2022
1801 Clouds 18 1009 94 10000 2.57 200 11:30 12.09.2022
1802 Rain 17 1009 95 7000 2.06 190 09:56 12.09.2022
1803 Clouds 16 1010 94 10000 3.09 190 04:54 12.09.2022
1804 Clouds 16 1010 95 10000 2.06 190 04:25 12.09.2022
1805 Rain 17 1012 94 3900 1.03 0 23:39 11.09.2022
1806 Rain 17 1012 88 3000 2.06 0 22:28 11.09.2022
1807 Rain 18 1012 82 10000 1.03 0 20:50 11.09.2022
1808 Rain 19 1012 77 10000 1.54 150 19:57 11.09.2022
1809 Rain 19 1013 74 10000 2.06 140 19:25 11.09.2022
1810 Clouds 20 1014 73 10000 2.06 160 18:21 11.09.2022
1811 Clouds 20 1015 71 10000 3.09 150 16:46 11.09.2022
1812 Clouds 20 1016 70 10000 2.06 150 14:39 11.09.2022
1813 Clouds 20 1017 74 10000 2.06 170 12:42 11.09.2022
1814 Fog 13 1018 98 10000 0.51 0 09:25 11.09.2022
1815 Fog 13 1018 98 10000 0.51 0 09:25 11.09.2022
1816 Clouds 11 1017 94 10000 0.51 0 07:19 11.09.2022
1817 Clouds 13 1019 91 10000 2.06 60 00:54 11.09.2022
1818 Clouds 14 1018 88 10000 2.06 70 22:56 10.09.2022
1819 Clouds 16 1018 83 10000 2.57 50 21:33 10.09.2022
1820 Clouds 19 1017 67 10000 1.54 10 19:48 10.09.2022
1821 Clouds 19 1018 64 10000 2.57 10 19:29 10.09.2022
1822 Clouds 19 1018 67 10000 2.57 40 18:54 10.09.2022
1823 Clouds 19 1017 69 10000 3.6 350 16:39 10.09.2022
1824 Clouds 19 1016 70 10000 3.6 30 14:42 10.09.2022
1825 Clouds 17 1016 79 10000 2.57 340 12:53 10.09.2022
1826 Clouds 16 1016 86 10000 3.6 20 11:19 10.09.2022
1827 Clouds 15 1015 91 10000 2.57 320 09:50 10.09.2022
1828 Clouds 15 1014 94 10000 2.06 270 08:37 10.09.2022
1829 Clouds 14 1013 92 10000 2.06 290 07:22 10.09.2022
1830 Clouds 14 1011 89 10000 2.06 310 00:41 10.09.2022
1831 Clouds 15 1010 91 10000 2.06 350 23:33 09.09.2022
1832 Clouds 15 1010 88 10000 3.09 20 22:18 09.09.2022
1833 Clouds 16 1008 88 10000 4.12 30 20:46 09.09.2022
1834 Clouds 18 1007 82 10000 1.54 280 19:24 09.09.2022
1835 Clouds 18 1007 84 10000 1.54 280 18:47 09.09.2022
1836 Rain 19 1006 77 10000 3.09 290 16:23 09.09.2022
1837 Rain 19 1005 71 10000 3.09 260 13:49 09.09.2022
1838 Clouds 18 1006 80 10000 2.57 320 12:30 09.09.2022
1839 Clouds 16 1004 90 10000 2.06 320 09:53 09.09.2022
1840 Clouds 14 1003 93 10000 1.03 260 05:18 09.09.2022
1841 Clouds 14 1002 89 10000 2.06 60 03:20 09.09.2022
1842 Clouds 16 1002 88 10000 2.57 90 21:52 08.09.2022
1843 Clouds 16 1002 84 10000 2.06 80 20:51 08.09.2022
1844 Clouds 16 1001 83 10000 1.54 70 20:31 08.09.2022
1845 Clouds 17 1001 79 10000 2.06 80 19:49 08.09.2022
1846 Clouds 19 1001 71 10000 1.54 60 17:48 08.09.2022
1847 Clouds 19 1002 65 10000 2.06 90 16:19 08.09.2022
1848 Clouds 20 1002 67 10000 1.54 0 14:40 08.09.2022
1849 Clouds 19 1003 71 10000 1.54 0 13:26 08.09.2022
1850 Clouds 18 1002 76 10000 2.06 100 11:39 08.09.2022
1851 Clouds 16 1002 82 10000 2.06 80 10:48 08.09.2022
1852 Clouds 14 1003 89 10000 1.03 0 07:57 08.09.2022
1853 Clouds 14 1004 92 10000 1.54 100 06:41 08.09.2022
1854 Clouds 14 1003 90 10000 1.03 0 02:36 08.09.2022
1855 Clouds 14 1004 89 10000 1.54 90 02:18 08.09.2022
1856 Clouds 14 1004 91 10000 1.54 100 00:27 08.09.2022
1857 Clouds 14 1004 91 10000 1.03 0 22:36 07.09.2022
1858 Clouds 15 1004 91 10000 0.51 0 21:41 07.09.2022
1859 Clouds 15 1004 90 10000 1.54 0 20:38 07.09.2022
1860 Thunderstorm 17 1005 78 10000 2.06 180 19:30 07.09.2022
1861 Clouds 21 1005 61 10000 2.57 150 17:27 07.09.2022
1862 Clouds 20 1005 68 10000 2.57 170 12:49 07.09.2022
1863 Clouds 18 1005 81 10000 2.06 0 10:46 07.09.2022
1864 Clouds 15 1005 89 10000 2.57 130 08:36 07.09.2022
1865 Clouds 14 1005 90 10000 2.06 150 06:51 07.09.2022
1866 Clouds 16 1006 84 10000 2.06 170 01:50 07.09.2022
1867 Clouds 15 1006 92 10000 2.06 90 22:35 06.09.2022
1868 Clouds 16 1006 92 10000 1.54 90 21:38 06.09.2022
1869 Rain 17 1006 81 10000 1.34 120 19:57 06.09.2022
1870 Clouds 19 1006 69 10000 3.09 150 18:42 06.09.2022
1871 Clouds 20 1007 66 10000 3.09 0 17:51 06.09.2022
1872 Clouds 21 1007 63 10000 3.6 170 16:53 06.09.2022
1873 Clouds 21 1007 64 10000 2.57 170 16:26 06.09.2022
1874 Clouds 19 1008 81 10000 2.57 0 14:54 06.09.2022
1875 Clouds 18 1009 88 10000 2.57 140 13:44 06.09.2022
1876 Clouds 18 1009 88 10000 2.57 140 13:44 06.09.2022
1877 Clouds 18 1009 92 10000 2.06 0 13:20 06.09.2022
1878 Clouds 17 1010 90 10000 1.03 0 10:57 06.09.2022
1879 Clouds 16 1011 90 10000 1.54 120 09:56 06.09.2022
1880 Clouds 15 1010 93 10000 1.03 0 08:27 06.09.2022
1881 Clouds 15 1011 90 10000 2.57 130 06:58 06.09.2022
1882 Clouds 15 1013 92 10000 1.54 40 01:23 06.09.2022
1883 Clouds 19 1012 75 10000 1.54 0 23:19 05.09.2022
1884 Clouds 19 1012 75 10000 1.54 130 21:39 05.09.2022
1885 Clouds 20 1012 69 10000 1.03 0 20:32 05.09.2022
1886 Clouds 21 1012 62 10000 2.06 160 18:53 05.09.2022
1887 Clouds 22 1012 61 10000 3.09 190 18:26 05.09.2022
1888 Clouds 23 1013 55 10000 3.09 170 17:57 05.09.2022
1889 Clouds 24 1013 50 10000 3.09 190 15:54 05.09.2022
1890 Clouds 23 1013 50 10000 3.6 200 14:48 05.09.2022
1891 Clouds 21 1014 65 10000 2.57 0 12:53 05.09.2022
1892 Clouds 20 1014 77 10000 2.57 0 11:37 05.09.2022
1893 Clouds 16 1013 92 10000 2.06 130 08:58 05.09.2022
1894 Clouds 17 1012 88 10000 3.09 130 05:20 05.09.2022
1895 Clouds 19 1012 77 10000 3.09 0 01:19 05.09.2022
1896 Rain 20 1013 74 10000 2.57 140 22:29 04.09.2022
1897 Clouds 20 1013 75 10000 3.09 150 21:57 04.09.2022
1898 Clouds 21 1012 73 10000 2.57 150 20:26 04.09.2022
1899 Clouds 22 1013 69 10000 3.6 130 18:35 04.09.2022
1900 Clouds 23 1012 64 10000 3.09 160 17:31 04.09.2022
1901 Clouds 23 1012 66 10000 3.09 160 15:43 04.09.2022
1902 Clouds 21 1012 72 10000 2.57 0 14:25 04.09.2022
1903 Clouds 20 1011 73 10000 3.09 0 12:34 04.09.2022
1904 Clear 19 1011 77 10000 3.6 0 10:59 04.09.2022
1905 Clouds 18 1010 77 10000 3.09 130 09:25 04.09.2022
1906 Rain 17 1009 77 10000 5.44 143 06:31 04.09.2022
1907 Clouds 17 1009 72 10000 1.54 0 02:41 04.09.2022
1908 Clouds 19 1009 77 10000 1.03 0 22:33 03.09.2022
1909 Clouds 20 1008 72 10000 2.06 140 21:25 03.09.2022
1910 Clouds 20 1007 70 10000 2.06 140 20:55 03.09.2022
1911 Clouds 22 1007 62 10000 2.57 0 17:37 03.09.2022
1912 Clouds 22 1007 59 10000 3.09 170 16:52 03.09.2022
1913 Clouds 22 1006 60 10000 3.09 170 14:52 03.09.2022
1914 Clouds 22 1007 61 10000 3.09 170 14:30 03.09.2022
1915 Clouds 22 1007 64 10000 3.09 140 13:44 03.09.2022
1916 Clouds 20 1007 76 10000 1.03 0 11:31 03.09.2022
1917 Clouds 17 1007 83 10000 1.54 90 08:57 03.09.2022
1918 Clouds 17 1006 78 10000 2.06 80 07:23 03.09.2022
1919 Clouds 18 1006 78 10000 1.03 0 04:45 03.09.2022
1920 Clouds 18 1008 66 10000 2.57 90 00:48 03.09.2022
1921 Clouds 18 1008 63 10000 2.06 90 23:35 02.09.2022
1922 Clouds 19 1009 63 10000 1.54 130 21:46 02.09.2022
1923 Clouds 21 1009 59 10000 1.54 130 20:40 02.09.2022
1924 Clouds 22 1010 52 10000 1.54 120 19:47 02.09.2022
1925 Clouds 23 1010 49 10000 2.57 100 18:43 02.09.2022
1926 Clouds 23 1010 47 10000 1.54 0 18:24 02.09.2022
1927 Clouds 23 1011 51 10000 3.09 120 16:51 02.09.2022
1928 Clouds 23 1012 52 10000 2.57 90 15:48 02.09.2022
1929 Clouds 21 1014 64 10000 1.54 0 12:56 02.09.2022
1930 Clouds 17 1015 81 10000 3.09 0 10:25 02.09.2022
1931 Clouds 16 1015 84 10000 3.09 80 09:41 02.09.2022
1932 Clouds 15 1016 85 10000 2.57 60 08:35 02.09.2022
1933 Clear 15 1016 85 10000 2.06 40 06:42 02.09.2022
1934 Clear 16 1017 83 10000 1.54 70 03:53 02.09.2022
1935 Clear 17 1019 76 10000 2.06 70 22:54 01.09.2022
1936 Clear 18 1019 71 10000 2.57 70 21:45 01.09.2022
1937 Clear 19 1019 69 10000 2.57 70 21:25 01.09.2022
1938 Clear 20 1019 65 10000 2.06 70 20:46 01.09.2022
1939 Clouds 22 1019 54 10000 3.6 80 19:23 01.09.2022
1940 Clouds 23 1020 45 10000 3.09 0 17:48 01.09.2022
1941 Clouds 23 1020 44 10000 4.12 100 16:29 01.09.2022
1942 Clouds 22 1021 45 10000 4.63 90 14:33 01.09.2022
1943 Clouds 20 1023 57 10000 4.12 80 12:59 01.09.2022
1944 Clouds 19 1024 64 10000 4.63 80 11:54 01.09.2022
1945 Clouds 19 1023 64 10000 4.63 80 11:33 01.09.2022
1946 Clouds 17 1023 70 10000 4.12 70 10:40 01.09.2022
1947 Clouds 14 1024 92 10000 2.57 50 08:30 01.09.2022
1948 Clear 14 1024 87 10000 3.6 50 06:23 01.09.2022
1949 Clouds 15 1025 83 10000 3.09 50 01:34 01.09.2022
1950 Clouds 16 1025 81 10000 3.6 60 00:18 01.09.2022
1951 Clouds 18 1025 68 10000 3.6 80 21:44 31.08.2022
1952 Clouds 20 1024 54 10000 4.12 70 19:50 31.08.2022
1953 Clouds 22 1025 41 10000 2.57 80 18:18 31.08.2022
1954 Clouds 21 1026 48 10000 3.6 70 16:23 31.08.2022
1955 Clouds 22 1026 51 10000 1.34 341 14:32 31.08.2022
1956 Clouds 20 1027 63 10000 4.63 60 12:22 31.08.2022
1957 Clouds 18 1027 70 10000 5.14 50 11:26 31.08.2022
1958 Clouds 14 1027 86 10000 3.09 40 08:37 31.08.2022
1959 Clouds 13 1027 85 10000 3.09 40 05:26 31.08.2022
1960 Clouds 15 1026 77 10000 3.6 50 23:20 30.08.2022
1961 Clouds 16 1026 68 10000 3.09 60 21:41 30.08.2022
1962 Clouds 18 1025 60 10000 4.63 50 20:57 30.08.2022
1963 Clouds 20 1025 53 10000 4.63 50 18:23 30.08.2022
1964 Clouds 20 1025 52 10000 3.6 30 15:23 30.08.2022
1965 Clouds 19 1026 55 10000 5.66 30 13:24 30.08.2022
1966 Clouds 16 1026 64 10000 3.6 60 11:21 30.08.2022
1967 Clouds 16 1026 69 10000 5.14 40 10:40 30.08.2022
1968 Clouds 11 1025 87 10000 3.09 30 06:51 30.08.2022
1969 Clouds 13 1025 82 10000 1.54 30 02:32 30.08.2022
1970 Clouds 16 1025 76 10000 3.6 70 22:58 29.08.2022
1971 Clouds 16 1025 76 10000 3.6 60 22:24 29.08.2022
1972 Clouds 17 1024 73 10000 3.09 60 21:25 29.08.2022
1973 Clouds 18 1024 70 10000 3.6 50 19:51 29.08.2022
1974 Clouds 19 1024 68 10000 2.06 100 17:50 29.08.2022
1975 Clouds 19 1024 66 10000 2.57 60 17:24 29.08.2022
1976 Clouds 19 1024 68 10000 5.14 50 16:22 29.08.2022
1977 Clouds 19 1025 66 10000 3.09 70 14:44 29.08.2022
1978 Clouds 18 1025 69 10000 2.57 80 12:52 29.08.2022
1979 Clouds 18 1024 73 10000 3.09 80 10:56 29.08.2022
1980 Clouds 17 1024 79 10000 3.6 80 09:45 29.08.2022
1981 Clouds 16 1024 81 10000 1.54 60 08:28 29.08.2022
1982 Clouds 17 1023 75 10000 2.06 80 02:48 29.08.2022
1983 Clouds 18 1023 74 10000 3.09 60 23:52 28.08.2022
1984 Clouds 19 1022 68 10000 3.6 50 22:22 28.08.2022
1985 Clouds 19 1022 65 10000 4.12 360 21:32 28.08.2022
1986 Clouds 20 1022 64 10000 1.03 140 20:39 28.08.2022
1987 Clouds 22 1021 57 10000 1.03 0 18:38 28.08.2022
1988 Clouds 22 1021 54 10000 0.51 0 18:18 28.08.2022
1989 Clouds 23 1021 51 10000 0.51 0 16:52 28.08.2022
1990 Clouds 24 1022 54 10000 1.03 0 15:37 28.08.2022
1991 Clouds 22 1023 64 10000 1.54 190 13:34 28.08.2022
1992 Clouds 21 1023 65 10000 1.54 0 12:19 28.08.2022
1993 Clouds 18 1022 76 10000 0.51 0 10:27 28.08.2022
1994 Clouds 16 1022 82 10000 0.51 0 09:34 28.08.2022
1995 Clouds 13 1022 88 10000 1.54 80 08:28 28.08.2022
1996 Clouds 13 1021 88 10000 1.54 120 07:27 28.08.2022
1997 Clouds 15 1021 78 10000 1.03 0 00:45 28.08.2022
1998 Clouds 16 1021 74 10000 1.54 320 23:28 27.08.2022
1999 Clouds 18 1020 69 10000 2.57 330 22:27 27.08.2022
2000 Clouds 18 1020 69 10000 2.57 330 22:27 27.08.2022
2001 Clouds 20 1020 63 10000 2.57 320 20:36 27.08.2022
2002 Clouds 22 1019 58 10000 3.6 320 19:29 27.08.2022
2003 Clouds 22 1019 59 10000 2.57 0 16:30 27.08.2022
2004 Clouds 22 1019 56 10000 1.54 150 15:31 27.08.2022
2005 Clouds 21 1020 64 10000 1.03 0 13:30 27.08.2022
2006 Clouds 20 1021 70 10000 1.54 190 12:20 27.08.2022
2007 Clear 17 1019 84 10000 1.54 50 10:30 27.08.2022
2008 Clouds 16 1019 86 8000 0.51 0 09:36 27.08.2022
2009 Haze 14 1019 87 1600 1.03 0 06:54 27.08.2022
2010 Clouds 16 1019 79 10000 1.03 300 01:21 27.08.2022
2011 Clouds 16 1018 74 10000 3.09 310 23:48 26.08.2022
2012 Clouds 18 1018 67 10000 0.45 33 21:49 26.08.2022
2013 Clouds 20 1017 59 10000 0.51 0 20:20 26.08.2022
2014 Clouds 21 1018 58 10000 2.06 250 17:59 26.08.2022
2015 Clouds 21 1019 52 10000 2.06 0 16:32 26.08.2022
2016 Clouds 21 1019 56 10000 1.54 0 15:24 26.08.2022
2017 Clouds 20 1019 54 10000 2.06 200 13:18 26.08.2022
2018 Clouds 18 1019 65 10000 1.03 0 11:48 26.08.2022
2019 Clouds 18 1019 70 10000 1.03 0 11:22 26.08.2022
2020 Clouds 13 1019 87 10000 0.51 70 08:55 26.08.2022
2021 Clouds 11 1019 90 10000 1.03 0 03:59 26.08.2022
2022 Clear 13 1019 84 10000 0.51 150 00:39 26.08.2022
2023 Clear 15 1020 71 10000 1.54 260 22:39 25.08.2022
2024 Clear 18 1019 63 10000 4.12 290 20:54 25.08.2022
2025 Clear 17 1019 64 10000 4.12 290 20:54 25.08.2022
2026 Clouds 20 1018 55 10000 2.57 290 19:35 25.08.2022
2027 Clouds 20 1018 54 10000 4.12 310 18:29 25.08.2022
2028 Clouds 21 1018 55 10000 4.63 310 17:31 25.08.2022
2029 Clouds 20 1019 62 10000 5.14 290 16:40 25.08.2022
2030 Clouds 20 1019 66 10000 4.63 320 15:29 25.08.2022
2031 Clouds 18 1017 75 10000 3.09 330 13:51 25.08.2022
2032 Clouds 16 1018 89 10000 1.54 320 10:49 25.08.2022
2033 Clouds 16 1018 91 10000 2.06 290 09:52 25.08.2022
2034 Mist 15 1017 95 5000 1.54 250 07:35 25.08.2022
2035 Clouds 17 1017 81 10000 0.51 0 02:41 25.08.2022
2036 Clouds 18 1017 77 10000 1.54 310 23:30 24.08.2022
2037 Clouds 18 1017 76 10000 2.06 10 22:54 24.08.2022
2038 Clouds 19 1017 74 10000 2.06 320 21:53 24.08.2022
2039 Clouds 19 1016 72 10000 2.57 300 21:28 24.08.2022
2040 Clouds 20 1016 68 10000 2.57 250 19:52 24.08.2022
2041 Clouds 22 1015 66 10000 4.63 250 16:51 24.08.2022
2042 Clouds 22 1015 69 10000 3.09 250 15:53 24.08.2022
2043 Clouds 21 1014 68 10000 2.06 260 14:58 24.08.2022
2044 Clouds 19 1014 83 10000 4.63 260 12:28 24.08.2022
2045 Clouds 19 1013 85 10000 3.6 210 11:18 24.08.2022
2046 Rain 18 1012 91 10000 2.57 170 08:38 24.08.2022
2047 Clouds 19 1012 79 10000 1.03 0 03:54 24.08.2022
2048 Clouds 19 1014 80 10000 1.54 190 23:53 23.08.2022
2049 Clouds 20 1013 75 10000 1.54 210 22:35 23.08.2022
2050 Clouds 20 1012 74 10000 1.03 0 21:46 23.08.2022
2051 Clouds 21 1012 71 10000 2.06 260 20:33 23.08.2022
2052 Clouds 22 1012 68 10000 3.6 220 18:55 23.08.2022
2053 Clouds 23 1011 65 10000 4.12 220 17:53 23.08.2022
2054 Clouds 23 1011 67 10000 3.6 220 17:18 23.08.2022
2055 Clouds 23 1011 67 10000 3.6 220 17:18 23.08.2022
2056 Clouds 23 1011 70 10000 3.09 200 15:49 23.08.2022
2057 Clouds 21 1011 74 10000 3.6 230 13:50 23.08.2022
2058 Clouds 21 1011 75 10000 3.09 190 12:45 23.08.2022
2059 Clouds 18 1011 90 10000 1.54 190 10:53 23.08.2022
2060 Clouds 18 1011 91 10000 1.54 190 10:32 23.08.2022
2061 Clouds 17 1010 94 10000 1.03 0 08:55 23.08.2022
2062 Clouds 16 1010 96 10000 1.03 0 08:22 23.08.2022
2063 Clouds 16 1010 94 10000 1.03 0 07:48 23.08.2022
2064 Clouds 16 1010 94 10000 1.03 0 06:58 23.08.2022
2065 Clouds 16 1010 94 10000 1.03 0 05:52 23.08.2022
2066 Mist 17 1010 94 3400 1.03 0 01:42 23.08.2022
2067 Mist 18 1010 95 4500 0.51 190 00:26 23.08.2022
2068 Clouds 18 1010 94 8000 1.54 200 23:29 22.08.2022
2069 Clouds 19 1010 91 10000 1.03 0 21:51 22.08.2022
2070 Clouds 19 1009 89 10000 1.54 140 19:51 22.08.2022
2071 Clouds 19 1009 90 10000 2.06 0 19:27 22.08.2022
2072 Clouds 18 1010 91 10000 0.45 22 17:59 22.08.2022
2073 Rain 21 1010 59 10000 2.57 170 15:40 22.08.2022
2074 Clouds 22 1010 53 10000 3.6 140 14:32 22.08.2022
2075 Clouds 21 1011 70 10000 2.57 150 11:20 22.08.2022
2076 Clouds 16 1012 84 10000 0.51 0 08:54 22.08.2022
2077 Clouds 15 1013 89 10000 0.51 0 04:42 22.08.2022
2078 Clouds 16 1014 78 10000 0.51 0 00:53 22.08.2022
2079 Clouds 16 1014 77 10000 0.51 0 00:34 22.08.2022
2080 Clouds 17 1014 66 10000 1.54 290 22:54 21.08.2022
2081 Clouds 18 1015 62 10000 2.06 330 21:36 21.08.2022
2082 Clouds 19 1014 64 10000 1.54 310 20:57 21.08.2022
2083 Clouds 20 1014 57 10000 1.03 0 19:28 21.08.2022
2084 Clouds 21 1014 56 10000 1.54 250 17:59 21.08.2022
2085 Clouds 21 1014 55 10000 2.57 260 15:59 21.08.2022
2086 Clouds 20 1014 55 10000 4.63 260 15:28 21.08.2022
2087 Clouds 20 1014 57 10000 3.09 280 13:58 21.08.2022
2088 Clouds 19 1014 58 10000 3.09 280 13:34 21.08.2022
2089 Clouds 17 1015 72 10000 2.06 260 11:56 21.08.2022
2090 Clouds 15 1013 81 10000 1.54 260 09:32 21.08.2022
2091 Clouds 15 1013 87 10000 1.03 0 08:56 21.08.2022
2092 Clouds 14 1013 88 10000 1.03 0 08:38 21.08.2022
2093 Clouds 14 1012 92 10000 1.54 210 07:27 21.08.2022
2094 Clouds 15 1012 86 10000 2.06 180 03:41 21.08.2022
2095 Clouds 17 1012 73 10000 4.12 210 00:24 21.08.2022
2096 Clouds 18 1012 66 10000 4.12 210 22:41 20.08.2022
2097 Clouds 18 1012 60 10000 4.12 210 21:38 20.08.2022
2098 Clouds 19 1012 55 10000 6.69 230 20:43 20.08.2022
2099 Clouds 20 1012 54 10000 6.17 240 19:41 20.08.2022
2100 Clouds 22 1012 48 10000 8.23 240 18:31 20.08.2022
2101 Clouds 22 1012 46 10000 8.23 220 17:51 20.08.2022
2102 Clouds 23 1012 43 10000 10.8 240 16:52 20.08.2022
2103 Clear 22 1013 49 10000 8.75 240 15:33 20.08.2022
2104 Clouds 20 1013 59 10000 8.23 230 13:26 20.08.2022
2105 Clouds 19 1013 70 10000 4.63 210 11:51 20.08.2022
2106 Clouds 16 1013 82 10000 2.57 190 09:37 20.08.2022
2107 Clouds 15 1013 85 10000 2.06 190 08:31 20.08.2022
2108 Clouds 13 1013 85 10000 2.57 190 05:52 20.08.2022
2109 Clouds 15 1015 78 10000 2.06 170 00:59 20.08.2022
2110 Clouds 15 1015 77 10000 2.06 170 00:35 20.08.2022
2111 Clouds 16 1015 71 10000 0.45 330 23:18 19.08.2022
2112 Clouds 17 1014 64 10000 2.57 220 21:41 19.08.2022
2113 Clouds 19 1013 57 10000 4.63 260 20:20 19.08.2022
2114 Clouds 20 1013 54 10000 5.14 260 17:19 19.08.2022
2115 Clouds 20 1013 54 10000 4.63 260 15:18 19.08.2022
2116 Clouds 19 1012 55 10000 5.66 250 13:18 19.08.2022
2117 Clear 17 1013 70 10000 3.6 240 10:52 19.08.2022
2118 Clear 16 1012 73 10000 3.09 220 10:19 19.08.2022
2119 Clouds 13 1011 82 10000 2.06 220 05:58 19.08.2022
2120 Clouds 18 1009 91 10000 3.09 210 00:48 19.08.2022
2121 Clouds 18 1009 91 10000 2.57 200 00:23 19.08.2022
2122 Clouds 19 1009 90 10000 3.6 200 23:28 18.08.2022
2123 Clouds 18 1009 88 10000 2.57 190 22:37 18.08.2022
2124 Clouds 18 1009 87 10000 2.57 190 21:53 18.08.2022
2125 Clouds 18 1009 87 10000 2.57 180 21:23 18.08.2022
2126 Rain 19 1009 83 10000 3.6 200 19:54 18.08.2022
2127 Rain 19 1009 79 10000 2.57 190 19:24 18.08.2022
2128 Clouds 20 1010 74 10000 5.14 210 17:46 18.08.2022
2129 Clouds 21 1010 70 10000 2.57 190 16:25 18.08.2022
2130 Clouds 20 1011 72 10000 2.57 200 14:22 18.08.2022
2131 Clouds 20 1011 71 10000 2.57 200 13:45 18.08.2022
2132 Clouds 19 1012 74 10000 2.57 200 12:31 18.08.2022
2133 Clouds 18 1012 82 10000 2.57 190 11:21 18.08.2022
2134 Clouds 16 1013 91 10000 2.06 180 09:43 18.08.2022
2135 Clouds 15 1013 84 10000 1.98 158 07:57 18.08.2022
2136 Clouds 15 1014 84 10000 0.51 0 06:43 18.08.2022
2137 Clouds 16 1015 80 10000 1.03 0 02:32 18.08.2022
2138 Clouds 18 1015 68 10000 1.03 0 22:50 17.08.2022
2139 Clouds 19 1015 63 10000 1.03 0 20:37 17.08.2022
2140 Clouds 20 1015 62 10000 1.03 0 19:59 17.08.2022
2141 Clouds 20 1016 64 10000 4.12 40 18:39 17.08.2022
2142 Clouds 21 1015 60 10000 2.57 70 17:21 17.08.2022
2143 Clouds 21 1015 60 10000 3.09 70 16:20 17.08.2022
2144 Clouds 20 1015 64 10000 5.14 40 14:41 17.08.2022
2145 Clouds 17 1015 74 10000 5.66 50 12:36 17.08.2022
2146 Clouds 15 1015 79 10000 5.14 50 11:25 17.08.2022
2147 Rain 14 1014 85 10000 4.63 50 09:29 17.08.2022
2148 Rain 15 1013 89 10000 3.6 50 06:50 17.08.2022
2149 Clouds 16 1012 83 10000 4.63 60 01:23 17.08.2022
2150 Clouds 16 1011 82 10000 3.6 50 23:32 16.08.2022
2151 Clouds 18 1010 74 10000 5.14 60 21:33 16.08.2022
2152 Clouds 19 1009 71 10000 4.12 280 20:22 16.08.2022
2153 Clouds 20 1009 69 10000 5.14 280 19:40 16.08.2022
2154 Clouds 21 1009 65 10000 5.66 280 17:56 16.08.2022
2155 Clouds 21 1009 64 10000 5.66 280 17:56 16.08.2022
2156 Clouds 21 1009 65 10000 4.63 290 16:55 16.08.2022
2157 Clouds 21 1009 68 10000 4.12 280 15:45 16.08.2022
2158 Clouds 21 1009 72 10000 4.12 270 14:54 16.08.2022
2159 Clouds 21 1008 69 10000 4.12 270 14:36 16.08.2022
2160 Clouds 20 1007 73 10000 3.6 260 12:39 16.08.2022
2161 Clouds 18 1006 80 10000 3.09 270 10:23 16.08.2022
2162 Haze 17 1006 88 5000 2.06 250 08:55 16.08.2022
2163 Haze 17 1006 91 4500 1.03 0 08:26 16.08.2022
2164 Haze 17 1005 91 5000 1.54 260 06:48 16.08.2022
2165 Clouds 19 1005 79 10000 1.54 260 00:32 16.08.2022
2166 Rain 20 1004 76 10000 1.54 310 22:24 15.08.2022
2167 Rain 20 1004 75 10000 2.06 300 21:50 15.08.2022
2168 Clouds 21 1003 68 10000 2.57 250 20:32 15.08.2022
2169 Clouds 22 1003 61 10000 2.06 250 19:59 15.08.2022
2170 Clouds 22 1003 67 10000 2.06 300 17:59 15.08.2022
2171 Clouds 22 1003 70 10000 2.06 280 16:25 15.08.2022
2172 Clouds 22 1003 71 10000 3.6 260 15:52 15.08.2022
2173 Clear 22 1003 62 10000 4.63 290 13:50 15.08.2022
2174 Clouds 21 1002 80 10000 3.09 270 11:24 15.08.2022
2175 Clouds 20 1001 76 10000 1.54 280 09:40 15.08.2022
2176 Clouds 18 1001 74 10000 1.03 0 07:32 15.08.2022
2177 Clouds 19 1001 65 10000 1.54 110 04:34 15.08.2022
2178 Clouds 22 1003 52 10000 2.57 80 00:22 15.08.2022
2179 Clouds 24 1003 45 10000 1.54 100 22:29 14.08.2022
2180 Clouds 27 1003 39 10000 1.54 110 21:37 14.08.2022
2181 Clouds 30 1003 32 10000 1.03 0 19:47 14.08.2022
2182 Clouds 32 1004 26 10000 1.54 0 18:53 14.08.2022
2183 Clouds 32 1004 27 10000 1.54 0 17:48 14.08.2022
2184 Clouds 32 1005 28 10000 2.06 140 16:50 14.08.2022
2185 Clouds 31 1006 31 10000 2.57 170 15:48 14.08.2022
2186 Clouds 31 1006 33 10000 2.06 170 14:19 14.08.2022
2187 Clouds 30 1007 34 10000 1.54 150 13:49 14.08.2022
2188 Clouds 29 1007 35 10000 2.06 180 13:18 14.08.2022
2189 Clear 27 1008 38 10000 1.03 0 11:50 14.08.2022
2190 Clouds 24 1009 51 10000 0.51 0 10:27 14.08.2022
2191 Clouds 19 1009 69 10000 1.03 0 08:45 14.08.2022
2192 Clouds 18 1009 70 10000 1.03 30 06:21 14.08.2022
2193 Clouds 21 1011 62 10000 3.09 50 02:46 14.08.2022
2194 Clouds 23 1012 57 10000 3.09 70 23:36 13.08.2022
2195 Clouds 25 1012 54 10000 3.6 80 22:28 13.08.2022
2196 Clouds 28 1012 41 10000 2.57 80 20:58 13.08.2022
2197 Clouds 30 1012 37 10000 2.06 90 20:19 13.08.2022
2198 Clouds 31 1012 34 10000 2.06 90 19:20 13.08.2022
2199 Clouds 31 1014 36 10000 2.06 0 17:36 13.08.2022
2200 Clouds 31 1015 35 10000 2.57 130 15:18 13.08.2022
2201 Clear 30 1016 40 10000 2.57 80 14:24 13.08.2022
2202 Clear 29 1016 42 10000 2.06 90 13:37 13.08.2022
2203 Clear 26 1016 48 10000 2.06 80 11:49 13.08.2022
2204 Clear 21 1016 61 10000 3.09 40 09:43 13.08.2022
2205 Clear 17 1016 72 10000 3.09 60 07:50 13.08.2022
2206 Clear 20 1017 59 10000 0.51 0 02:33 13.08.2022
2207 Clear 23 1018 51 10000 3.09 80 23:45 12.08.2022
2208 Clear 26 1017 46 10000 3.6 80 21:40 12.08.2022
2209 Clear 30 1018 35 10000 1.54 80 19:51 12.08.2022
2210 Clear 31 1018 33 10000 1.54 100 19:24 12.08.2022
2211 Clear 31 1018 32 10000 2.57 80 18:34 12.08.2022
2212 Clear 31 1019 32 10000 3.6 60 16:28 12.08.2022
2213 Clear 30 1019 35 10000 3.09 70 15:23 12.08.2022
2214 Clear 29 1020 38 10000 2.06 90 13:56 12.08.2022
2215 Clear 28 1021 42 10000 1.54 0 12:51 12.08.2022
2216 Clear 21 1020 68 10000 0.51 0 09:28 12.08.2022
2217 Clear 17 1020 69 10000 0.51 0 07:47 12.08.2022
2218 Clear 17 1020 72 10000 1.03 0 06:25 12.08.2022
2219 Clear 20 1021 64 10000 2.57 30 01:22 12.08.2022
2220 Clear 22 1021 57 10000 3.09 50 00:18 12.08.2022
2221 Clear 22 1021 56 10000 2.21 34 23:29 11.08.2022
2222 Clear 26 1020 48 10000 3.6 330 21:57 11.08.2022
2223 Clear 26 1021 49 10000 3.6 330 21:34 11.08.2022
2224 Clear 29 1020 35 10000 1.03 0 20:31 11.08.2022
2225 Clouds 30 1020 33 10000 0.51 0 19:53 11.08.2022
2226 Clouds 31 1021 33 10000 1.03 0 19:29 11.08.2022
2227 Clouds 31 1021 33 10000 1.54 0 17:34 11.08.2022
2228 Clear 31 1022 36 10000 1.54 0 16:19 11.08.2022
2229 Clear 30 1022 38 10000 1.03 0 15:20 11.08.2022
2230 Clear 27 1023 54 10000 1.03 0 12:35 11.08.2022
2231 Clear 20 1023 74 10000 0.51 0 09:24 11.08.2022
2232 Clear 15 1023 83 10000 0.51 0 06:59 11.08.2022
2233 Clouds 17 1023 82 10000 0.51 220 03:25 11.08.2022
2234 Clouds 19 1023 68 10000 1.6 25 00:28 11.08.2022
2235 Clear 23 1023 55 10000 3.09 320 22:18 10.08.2022
2236 Clear 26 1023 52 10000 4.12 320 21:20 10.08.2022
2237 Clear 27 1024 40 10000 1.03 0 20:42 10.08.2022
2238 Clear 29 1024 37 10000 1.03 0 18:53 10.08.2022
2239 Clear 30 1025 40 10000 1.54 240 17:28 10.08.2022
2240 Clear 29 1025 47 10000 1.51 247 15:26 10.08.2022
2241 Clear 27 1027 50 10000 1.03 0 13:34 10.08.2022
2242 Clear 24 1026 55 10000 2.06 190 11:47 10.08.2022
2243 Clear 18 1027 72 10000 0.51 80 08:44 10.08.2022
2244 Clear 15 1027 78 10000 0.51 0 07:36 10.08.2022
2245 Clouds 14 1027 80 10000 1.03 80 05:46 10.08.2022
2246 Clouds 16 1027 72 10000 1.03 0 02:22 10.08.2022
2247 Clouds 19 1028 56 10000 1.03 280 23:33 09.08.2022
2248 Clouds 19 1029 64 10000 1.7 2 22:48 09.08.2022
2249 Clouds 23 1028 47 10000 1.54 290 21:33 09.08.2022
2250 Clouds 26 1028 41 10000 2.06 250 19:33 09.08.2022
2251 Clouds 26 1029 42 10000 2.06 270 17:59 09.08.2022
2252 Clouds 27 1028 40 10000 1.54 0 17:26 09.08.2022
2253 Clouds 26 1029 46 10000 2.06 290 16:33 09.08.2022
2254 Clouds 25 1029 46 10000 2.06 0 15:26 09.08.2022
2255 Clouds 23 1030 41 10000 1.03 0 12:20 09.08.2022
2256 Clouds 14 1029 78 10000 1.03 0 08:54 09.08.2022
2257 Clouds 12 1029 83 10000 1.03 90 08:26 09.08.2022
2258 Clouds 10 1029 86 10000 1.54 100 07:18 09.08.2022
2259 Clear 12 1029 84 10000 0 0 02:27 09.08.2022
2260 Clear 17 1028 67 10000 1.84 354 23:26 08.08.2022
2261 Clear 18 1028 63 10000 2.57 310 22:52 08.08.2022
2262 Clear 19 1028 59 10000 4.12 300 21:47 08.08.2022
2263 Clear 22 1028 57 10000 4.12 290 20:43 08.08.2022
2264 Clouds 23 1028 53 10000 4.12 290 19:41 08.08.2022
2265 Clouds 24 1026 52 10000 4.12 290 18:19 08.08.2022
2266 Clouds 24 1027 46 10000 1.03 0 15:55 08.08.2022
2267 Clouds 24 1027 47 10000 1.03 0 15:37 08.08.2022
2268 Clouds 21 1028 73 10000 1.54 0 12:35 08.08.2022
2269 Clouds 18 1028 82 10000 1.54 250 10:50 08.08.2022
2270 Clouds 14 1027 92 10000 1.03 130 08:20 08.08.2022
2271 Clouds 13 1026 91 10000 0.51 0 04:45 08.08.2022
2272 Clouds 15 1026 84 10000 2.57 340 01:29 08.08.2022
2273 Clouds 18 1026 75 10000 3.6 320 21:42 07.08.2022
2274 Clouds 18 1025 71 10000 4.12 290 21:24 07.08.2022
2275 Clouds 20 1025 62 10000 5.66 280 20:24 07.08.2022
2276 Clouds 20 1026 61 10000 4.12 300 19:52 07.08.2022
2277 Clouds 20 1026 61 10000 4.12 290 19:24 07.08.2022
2278 Clouds 21 1025 55 10000 5.14 290 17:58 07.08.2022
2279 Clouds 21 1025 52 10000 5.14 290 16:53 07.08.2022
2280 Clear 21 1026 53 10000 5.66 270 15:40 07.08.2022
2281 Clouds 21 1026 56 10000 5.14 280 14:27 07.08.2022
2282 Clouds 20 1027 61 10000 5.14 280 12:41 07.08.2022
2283 Clouds 18 1026 77 10000 2.57 240 10:53 07.08.2022
2284 Clouds 17 1026 80 10000 4.63 240 10:21 07.08.2022
2285 Clouds 11 1026 87 10000 1.54 170 04:38 07.08.2022
2286 Clouds 12 1027 84 10000 1.54 160 02:25 07.08.2022
2287 Clouds 15 1029 71 10000 1.03 280 22:39 06.08.2022
2288 Clouds 16 1027 65 10000 2.06 270 22:18 06.08.2022
2289 Clouds 19 1028 56 10000 4.12 290 19:46 06.08.2022
2290 Clouds 20 1027 55 10000 4.63 280 18:50 06.08.2022
2291 Clouds 20 1028 56 10000 0.89 2 17:45 06.08.2022
2292 Clouds 19 1028 58 10000 3.6 290 16:24 06.08.2022
2293 Clouds 18 1029 65 10000 3.6 260 13:51 06.08.2022
2294 Clouds 18 1029 63 10000 3.09 240 12:38 06.08.2022
2295 Clouds 16 1029 71 10000 2.06 220 11:21 06.08.2022
2296 Clouds 13 1029 85 10000 1.54 200 09:41 06.08.2022
2297 Clouds 9 1028 87 9000 2.06 160 04:43 06.08.2022
2298 Clear 12 1027 75 10000 2.06 270 00:49 06.08.2022
2299 Clear 14 1026 68 10000 3.09 300 22:36 05.08.2022
2300 Clear 16 1025 59 10000 5.14 290 21:18 05.08.2022
2301 Clouds 17 1024 53 10000 6.17 290 19:18 05.08.2022
2302 Clouds 18 1024 57 10000 7.2 290 18:41 05.08.2022
2303 Clouds 18 1023 61 10000 7.2 280 16:53 05.08.2022
2304 Clouds 17 1023 60 10000 6.17 310 15:25 05.08.2022
2305 Clouds 18 1022 59 10000 6.69 300 14:38 05.08.2022
2306 Clouds 17 1022 57 10000 5.14 280 13:38 05.08.2022
2307 Clouds 17 1022 63 10000 6.69 270 13:18 05.08.2022
2308 Clouds 15 1022 81 10000 4.12 260 11:55 05.08.2022
2309 Rain 12 1021 91 10000 1.03 150 09:18 05.08.2022
2310 Clouds 11 1020 85 10000 2.06 310 07:53 05.08.2022
2311 Clouds 12 1021 77 10000 1.54 270 04:19 05.08.2022
2312 Clouds 14 1019 74 10000 2.06 290 23:36 04.08.2022
2313 Clouds 16 1018 62 10000 5.66 320 21:28 04.08.2022
2314 Clouds 17 1018 60 10000 4.63 300 20:57 04.08.2022
2315 Clouds 17 1018 58 10000 4.63 300 20:37 04.08.2022
2316 Clear 18 1017 53 10000 5.66 320 18:59 04.08.2022
2317 Clear 18 1017 53 10000 5.66 320 18:34 04.08.2022
2318 Clouds 19 1017 52 10000 6.69 300 15:53 04.08.2022
2319 Clouds 18 1015 66 10000 3.6 310 13:26 04.08.2022
2320 Clouds 18 1015 66 10000 3.6 310 13:26 04.08.2022
2321 Clouds 17 1015 61 10000 6.17 260 11:39 04.08.2022
2322 Clouds 16 1014 67 10000 5.14 270 10:21 04.08.2022
2323 Clouds 15 1014 90 10000 2.57 260 07:45 04.08.2022
2324 Clouds 15 1012 81 10000 1.54 160 02:50 04.08.2022
2325 Clouds 16 1012 78 10000 2.06 210 00:43 04.08.2022
2326 Clouds 17 1012 73 10000 4.12 250 23:40 03.08.2022
2327 Clouds 19 1011 60 10000 4.63 240 21:31 03.08.2022
2328 Clouds 20 1011 54 10000 5.14 250 20:21 03.08.2022
2329 Clouds 22 1010 49 10000 6.69 250 19:19 03.08.2022
2330 Clouds 23 1010 50 10000 6.69 240 16:48 03.08.2022
2331 Clouds 23 1010 49 10000 6.17 230 16:22 03.08.2022
2332 Clouds 22 1010 56 10000 6.69 260 13:52 03.08.2022
2333 Clouds 20 1009 66 10000 6.17 240 10:56 03.08.2022
2334 Clouds 17 1008 84 10000 3.6 230 07:26 03.08.2022
2335 Clouds 19 1008 85 10000 5.14 210 04:22 03.08.2022
2336 Clouds 19 1008 85 10000 4.12 200 03:23 03.08.2022
2337 Clouds 20 1008 81 10000 5.14 210 00:49 03.08.2022
2338 Clouds 21 1008 79 10000 5.66 210 22:37 02.08.2022
2339 Clouds 21 1008 78 10000 4.63 220 21:51 02.08.2022
2340 Clouds 22 1009 75 10000 7.72 220 20:29 02.08.2022
2341 Clouds 23 1009 69 10000 4.63 240 17:52 02.08.2022
2342 Clouds 22 1009 83 10000 5.14 210 14:46 02.08.2022
2343 Clouds 19 1009 96 4100 3.6 200 10:50 02.08.2022
2344 Rain 19 1010 96 3000 2.06 190 08:54 02.08.2022
2345 Rain 19 1010 96 3000 2.06 190 08:54 02.08.2022
2346 Rain 19 1009 96 3000 4.12 190 07:52 02.08.2022
2347 Rain 19 1010 91 10000 3.6 190 04:59 02.08.2022
2348 Clouds 18 1011 91 10000 3.6 180 03:36 02.08.2022
2349 Clouds 17 1013 92 10000 2.57 180 23:32 01.08.2022
2350 Rain 18 1014 83 9000 4.12 220 21:54 01.08.2022
2351 Rain 22 1014 59 10000 4.63 220 20:34 01.08.2022
2352 Clear 23 1014 55 10000 3.6 220 19:22 01.08.2022
2353 Clouds 23 1015 53 10000 5.66 230 17:22 01.08.2022
2354 Clouds 23 1016 53 10000 3.09 200 16:49 01.08.2022
2355 Clouds 23 1016 52 10000 4.12 220 15:46 01.08.2022
2356 Clouds 23 1017 51 10000 4.63 230 15:19 01.08.2022
2357 Clouds 21 1017 53 10000 3.6 210 13:39 01.08.2022
2358 Clouds 19 1018 63 10000 2.57 190 11:38 01.08.2022
2359 Clouds 14 1018 83 10000 1.54 210 09:38 01.08.2022
2360 Clouds 11 1018 91 10000 1.54 160 08:18 01.08.2022
2361 Clouds 10 1018 90 10000 1.54 150 04:43 01.08.2022
2362 Clouds 11 1019 87 10000 0 0 02:24 01.08.2022
2363 Clouds 15 1018 68 10000 2.06 300 22:54 31.07.2022
2364 Clouds 15 1018 67 10000 2.06 300 22:35 31.07.2022
2365 Clear 18 1018 57 10000 5.14 290 20:44 31.07.2022
2366 Clear 20 1017 57 10000 5.66 290 18:42 31.07.2022
2367 Clouds 21 1016 60 10000 6.69 280 17:34 31.07.2022
2368 Clouds 21 1015 74 10000 6.17 290 14:57 31.07.2022
2369 Clouds 19 1014 85 10000 5.14 300 13:19 31.07.2022
2370 Clouds 18 1013 92 10000 6.17 280 11:44 31.07.2022
2371 Clouds 18 1012 94 8000 3.09 250 08:47 31.07.2022
2372 Clouds 18 1012 96 10000 2.06 220 06:31 31.07.2022
2373 Rain 18 1014 96 10000 2.06 200 02:31 31.07.2022
2374 Rain 18 1015 88 10000 2.06 200 22:50 30.07.2022
2375 Clouds 19 1015 83 10000 3.09 220 21:52 30.07.2022
2376 Rain 19 1015 79 10000 3.09 210 21:33 30.07.2022
2377 Clouds 20 1016 80 10000 3.6 210 20:38 30.07.2022
2378 Clouds 20 1015 80 10000 3.6 220 19:57 30.07.2022
2379 Clouds 20 1016 81 10000 4.12 220 18:20 30.07.2022
2380 Clouds 20 1016 79 10000 4.63 220 16:40 30.07.2022
2381 Rain 20 1015 81 10000 3.6 220 15:33 30.07.2022
2382 Clouds 20 1015 80 10000 4.63 220 14:23 30.07.2022
2383 Clouds 19 1015 81 10000 3.09 220 12:33 30.07.2022
2384 Clouds 19 1015 83 10000 3.09 210 11:55 30.07.2022
2385 Clouds 18 1015 84 10000 3.09 200 10:20 30.07.2022
2386 Clouds 17 1015 86 10000 2.06 190 09:32 30.07.2022
2387 Clouds 16 1015 82 10000 2.06 190 07:44 30.07.2022
2388 Rain 17 1017 77 10000 1.54 210 02:34 30.07.2022
2389 Clouds 18 1017 69 10000 0.51 120 00:32 30.07.2022
2390 Clouds 20 1017 67 10000 0.51 0 21:38 29.07.2022
2391 Clouds 20 1017 67 10000 0.51 0 20:51 29.07.2022
2392 Clouds 21 1017 64 10000 1.03 140 19:47 29.07.2022
2393 Clouds 21 1018 62 10000 1.54 200 17:34 29.07.2022
2394 Clouds 20 1018 66 10000 1.54 150 14:50 29.07.2022
2395 Clouds 18 1019 71 10000 1.54 170 12:52 29.07.2022
2396 Rain 15 1018 79 10000 1.03 0 08:52 29.07.2022
2397 Clouds 15 1018 80 10000 0.51 0 08:24 29.07.2022
2398 Clouds 15 1018 76 10000 1.03 0 06:40 29.07.2022
2399 Clouds 17 1018 74 10000 0.51 0 01:19 29.07.2022
2400 Clouds 18 1017 69 10000 1.54 70 21:45 28.07.2022
2401 Clouds 18 1016 70 10000 0.51 0 20:54 28.07.2022
2402 Clouds 18 1016 66 10000 2.06 280 20:20 28.07.2022
2403 Clouds 19 1017 67 10000 1.03 0 19:40 28.07.2022
2404 Clouds 19 1016 62 10000 1.03 0 18:20 28.07.2022
2405 Clouds 19 1016 62 10000 1.03 0 17:36 28.07.2022
2406 Clouds 19 1017 63 10000 1.03 0 16:41 28.07.2022
2407 Clouds 19 1017 64 10000 2.06 130 14:28 28.07.2022
2408 Clouds 17 1018 70 10000 1.54 130 12:41 28.07.2022
2409 Clouds 15 1017 80 10000 1.54 0 09:21 28.07.2022
2410 Clouds 15 1016 88 10000 1.54 130 05:45 28.07.2022
2411 Clouds 15 1016 88 10000 1.03 0 05:21 28.07.2022
2412 Rain 16 1017 83 10000 1.03 0 00:28 28.07.2022
2413 Rain 18 1018 63 10000 1.03 0 21:58 27.07.2022
2414 Clouds 20 1017 53 10000 1.03 0 20:20 27.07.2022
2415 Clouds 21 1017 51 10000 1.03 0 19:30 27.07.2022
2416 Clouds 21 1019 51 10000 1.03 0 16:33 27.07.2022
2417 Clouds 21 1019 49 10000 2.06 0 15:51 27.07.2022
2418 Clouds 21 1019 51 10000 2.06 200 14:42 27.07.2022
2419 Clouds 21 1020 53 1300 1.54 0 13:57 27.07.2022
2420 Clouds 17 1020 71 10000 1.03 0 11:18 27.07.2022
2421 Clouds 11 1020 96 10000 0.51 0 07:53 27.07.2022
2422 Clouds 10 1020 88 10000 1.03 120 05:18 27.07.2022
2423 Clouds 13 1022 76 10000 1.03 300 23:29 26.07.2022
2424 Clouds 15 1021 70 10000 2.57 280 22:19 26.07.2022
2425 Clouds 16 1021 67 10000 3.6 300 21:18 26.07.2022
2426 Clouds 18 1020 59 10000 5.66 290 19:33 26.07.2022
2427 Clouds 18 1020 58 10000 5.14 270 18:41 26.07.2022
2428 Clouds 19 1020 58 10000 5.66 270 17:54 26.07.2022
2429 Clouds 18 1021 64 10000 5.14 270 15:46 26.07.2022
2430 Clouds 18 1020 64 10000 4.12 270 14:43 26.07.2022
2431 Clouds 15 1020 77 10000 4.63 310 12:33 26.07.2022
2432 Clouds 15 1019 87 10000 2.57 270 10:32 26.07.2022
2433 Clouds 13 1018 92 10000 1.54 230 08:27 26.07.2022
2434 Clouds 13 1016 87 10000 1.54 60 01:55 26.07.2022
2435 Clouds 13 1015 89 3400 6.17 50 00:21 26.07.2022
2436 Drizzle 15 1015 88 4500 4.12 270 22:40 25.07.2022
2437 Clouds 15 1013 84 10000 4.63 280 21:43 25.07.2022
2438 Clouds 15 1012 81 10000 5.66 290 20:43 25.07.2022
2439 Clouds 15 1012 77 10000 6.17 280 20:24 25.07.2022
2440 Clouds 16 1012 77 10000 6.69 280 19:24 25.07.2022
2441 Clouds 17 1010 72 10000 7.2 280 17:42 25.07.2022
2442 Clouds 17 1010 73 10000 7.72 280 17:20 25.07.2022
2443 Rain 17 1008 87 10000 6.17 270 13:27 25.07.2022
2444 Clouds 16 1005 91 10000 5.66 250 10:54 25.07.2022
2445 Clouds 15 1003 90 10000 3.6 210 07:53 25.07.2022
2446 Clouds 17 1005 89 10000 3.09 200 00:57 25.07.2022
2447 Clouds 18 1005 85 10000 4.12 210 23:45 24.07.2022
2448 Clouds 18 1005 87 10000 4.12 200 22:47 24.07.2022
2449 Clouds 19 1005 89 10000 3.09 210 21:42 24.07.2022
2450 Clouds 19 1005 93 10000 3.6 200 20:59 24.07.2022
2451 Clouds 19 1005 93 10000 3.6 200 20:41 24.07.2022
2452 Clouds 19 1006 95 7000 4.12 200 19:20 24.07.2022
2453 Rain 20 1006 92 10000 4.63 190 17:57 24.07.2022
2454 Rain 20 1007 92 3400 4.63 180 15:55 24.07.2022
2455 Clouds 20 1008 93 9000 3.09 0 14:47 24.07.2022
2456 Clouds 20 1009 87 10000 4.12 190 13:47 24.07.2022
2457 Clouds 21 1009 82 10000 4.12 210 12:28 24.07.2022
2458 Clouds 21 1009 78 10000 4.63 210 11:30 24.07.2022
2459 Clouds 20 1009 81 10000 5.66 220 09:44 24.07.2022
2460 Clouds 18 1010 90 10000 3.09 200 07:53 24.07.2022
2461 Clouds 18 1010 92 10000 3.6 190 07:26 24.07.2022
2462 Clouds 18 1011 87 10000 4.12 190 02:52 24.07.2022
2463 Clouds 19 1013 85 10000 4.12 180 22:52 23.07.2022
2464 Rain 20 1012 78 10000 3.09 180 20:47 23.07.2022
2465 Clouds 20 1013 76 10000 3.6 190 19:25 23.07.2022
2466 Clouds 20 1014 75 10000 3.09 200 18:18 23.07.2022
2467 Clouds 20 1014 76 10000 4.63 190 17:27 23.07.2022
2468 Clouds 18 1016 85 10000 2.06 180 16:22 23.07.2022
2469 Clouds 17 1016 87 10000 1.54 160 15:21 23.07.2022
2470 Clouds 17 1016 89 6000 1.54 180 14:52 23.07.2022
2471 Rain 17 1016 77 10000 2.57 0 13:58 23.07.2022
2472 Clouds 18 1016 74 10000 2.06 190 11:55 23.07.2022
2473 Clouds 17 1016 81 10000 1.54 170 10:37 23.07.2022
2474 Clouds 16 1016 93 8000 1.54 190 09:34 23.07.2022
2475 Fog 13 1017 96 50 1.54 100 06:46 23.07.2022
2476 Mist 15 1017 95 3000 1.03 260 03:37 23.07.2022
2477 Rain 16 1018 86 10000 0.51 0 00:27 23.07.2022
2478 Clouds 17 1017 81 10000 0.45 137 21:28 22.07.2022
2479 Clouds 18 1018 78 10000 1.54 150 20:29 22.07.2022
2480 Clouds 17 1019 85 10000 2.03 89 18:41 22.07.2022
2481 Clouds 17 1019 80 10000 2.06 80 17:39 22.07.2022
2482 Clouds 16 1019 90 10000 2.06 70 15:46 22.07.2022
2483 Rain 15 1020 93 4500 2.57 80 12:47 22.07.2022
2484 Rain 14 1021 91 2500 1.54 0 09:56 22.07.2022
2485 Rain 15 1021 91 8000 1.03 0 09:21 22.07.2022
2486 Rain 15 1020 85 10000 1.03 0 07:51 22.07.2022
2487 Clouds 16 1021 77 10000 1.03 0 04:22 22.07.2022
2488 Clouds 16 1022 90 10000 2.06 310 23:29 21.07.2022
2489 Rain 17 1022 86 4900 0.51 0 21:39 21.07.2022
2490 Clouds 18 1022 78 10000 0.51 0 19:41 21.07.2022
2491 Clouds 19 1022 76 10000 1.03 0 18:29 21.07.2022
2492 Clouds 19 1023 76 10000 1.03 0 17:21 21.07.2022
2493 Clouds 18 1023 75 10000 1.54 250 15:49 21.07.2022
2494 Clouds 18 1023 77 10000 2.06 280 14:46 21.07.2022
2495 Clouds 17 1023 84 10000 1.54 280 13:49 21.07.2022
2496 Clouds 16 1023 91 7000 3.09 320 11:48 21.07.2022
2497 Clouds 15 1022 89 10000 3.09 300 09:51 21.07.2022
2498 Clouds 15 1022 89 10000 4.12 300 08:53 21.07.2022
2499 Clouds 15 1021 89 10000 2.57 300 07:50 21.07.2022
2500 Clouds 15 1021 91 10000 4.12 280 06:26 21.07.2022
2501 Clouds 16 1020 87 10000 3.6 290 02:23 21.07.2022
2502 Clouds 17 1019 78 10000 4.63 280 22:24 20.07.2022
2503 Clouds 17 1018 76 10000 5.14 290 21:49 20.07.2022
2504 Clouds 18 1018 72 10000 4.63 300 20:46 20.07.2022
2505 Clouds 19 1017 69 10000 5.66 280 19:46 20.07.2022
2506 Clouds 20 1017 65 10000 5.66 290 18:53 20.07.2022
2507 Clouds 20 1017 63 10000 7.2 280 18:30 20.07.2022
2508 Clouds 22 1016 59 10000 7.2 280 16:49 20.07.2022
2509 Clouds 22 1016 63 10000 7.72 280 15:32 20.07.2022
2510 Clouds 22 1015 61 10000 7.2 280 14:32 20.07.2022
2511 Clouds 20 1016 73 10000 5.14 280 12:41 20.07.2022
2512 Clouds 18 1014 84 10000 5.66 290 10:28 20.07.2022
2513 Clouds 18 1010 81 10000 5.14 280 05:44 20.07.2022
2514 Clouds 23 1010 56 10000 2.36 282 00:54 20.07.2022
2515 Clouds 24 1011 53 10000 1.03 0 00:36 20.07.2022
2516 Clouds 27 1009 46 10000 2.57 280 22:35 19.07.2022
2517 Clouds 29 1009 43 10000 3.6 290 21:53 19.07.2022
2518 Clouds 30 1008 39 10000 0.51 0 20:49 19.07.2022
2519 Clouds 31 1009 33 10000 1.54 220 19:22 19.07.2022
2520 Clouds 32 1009 33 10000 3.6 270 18:35 19.07.2022
2521 Clouds 34 1010 32 10000 6.69 270 17:51 19.07.2022
2522 Clouds 38 1008 21 10000 3.6 190 15:21 19.07.2022
2523 Clouds 35 1010 27 10000 2.57 170 12:27 19.07.2022
2524 Clouds 33 1010 27 10000 1.54 150 11:31 19.07.2022
2525 Clouds 30 1011 35 10000 1.03 0 09:44 19.07.2022
2526 Clouds 26 1011 46 10000 0.51 0 08:42 19.07.2022
2527 Clouds 23 1011 44 10000 1.54 50 07:19 19.07.2022
2528 Clouds 23 1012 44 10000 1.54 120 05:48 19.07.2022
2529 Clouds 23 1013 49 10000 1.54 120 04:58 19.07.2022
2530 Clouds 25 1014 44 10000 0.51 70 01:58 19.07.2022
2531 Clouds 27 1014 40 10000 1.03 0 23:50 18.07.2022
2532 Clouds 28 1014 39 10000 1.54 120 23:19 18.07.2022
2533 Clouds 29 1014 34 10000 1.54 130 22:22 18.07.2022
2534 Clouds 34 1015 25 10000 1.54 180 20:51 18.07.2022
2535 Clouds 36 1014 18 10000 2.06 190 19:33 18.07.2022
2536 Clouds 36 1015 16 10000 2.57 220 17:52 18.07.2022
2537 Clouds 34 1017 17 10000 2.06 190 15:57 18.07.2022
2538 Clear 34 1017 17 10000 2.06 210 15:18 18.07.2022
2539 Clouds 31 1018 21 10000 1.54 0 13:24 18.07.2022
2540 Clouds 27 1019 31 10000 3.09 220 11:31 18.07.2022
2541 Clouds 22 1018 44 10000 1.54 190 09:43 18.07.2022
2542 Clouds 19 1018 50 10000 1.03 0 07:45 18.07.2022
2543 Clouds 21 1020 52 10000 1.03 0 02:21 18.07.2022
2544 Clouds 25 1021 44 10000 3.09 190 22:51 17.07.2022
2545 Clouds 26 1021 48 10000 2.06 200 22:23 17.07.2022
2546 Clouds 28 1020 38 10000 2.57 200 21:24 17.07.2022
2547 Clouds 29 1020 38 10000 4.12 220 20:44 17.07.2022
2548 Clouds 31 1019 33 10000 4.12 220 19:34 17.07.2022
2549 Clouds 31 1020 31 10000 3.09 200 18:56 17.07.2022
2550 Clouds 31 1020 31 10000 4.12 200 17:39 17.07.2022
2551 Clouds 31 1021 29 10000 3.6 210 16:51 17.07.2022
2552 Clouds 30 1022 30 10000 3.6 200 16:27 17.07.2022
2553 Clouds 28 1022 33 10000 3.6 180 14:58 17.07.2022
2554 Clouds 27 1023 43 10000 3.6 200 13:32 17.07.2022
2555 Clouds 25 1023 45 10000 2.06 190 11:50 17.07.2022
2556 Clouds 20 1024 61 10000 0.51 0 09:30 17.07.2022
2557 Clouds 15 1024 74 10000 1.03 0 05:54 17.07.2022
2558 Clouds 15 1025 77 10000 1.03 100 02:33 17.07.2022
2559 Clouds 19 1025 66 10000 1.54 330 23:21 16.07.2022
2560 Clouds 21 1025 54 10000 2.06 330 21:47 16.07.2022
2561 Clouds 24 1025 47 10000 3.6 330 19:53 16.07.2022
2562 Clouds 25 1025 44 10000 3.09 280 18:35 16.07.2022
2563 Clouds 25 1024 43 10000 3.6 280 16:53 16.07.2022
2564 Clouds 21 1025 55 10000 2.06 0 13:56 16.07.2022
2565 Clouds 17 1025 72 10000 2.57 300 10:55 16.07.2022
2566 Clouds 15 1025 78 10000 2.57 310 09:33 16.07.2022
2567 Clouds 14 1024 88 10000 2.06 340 08:44 16.07.2022
2568 Clouds 14 1024 91 10000 0.51 0 08:23 16.07.2022
2569 Clouds 11 1024 91 10000 0.51 0 04:21 16.07.2022
2570 Clear 12 1024 89 10000 0.51 0 02:49 16.07.2022
2571 Clouds 15 1023 77 10000 2.57 280 23:30 15.07.2022
2572 Clouds 15 1024 78 10000 3.09 300 22:40 15.07.2022
2573 Clouds 17 1023 72 10000 4.63 290 21:28 15.07.2022
2574 Clouds 17 1023 72 10000 4.63 300 20:26 15.07.2022
2575 Clouds 18 1022 71 10000 6.17 280 18:40 15.07.2022
2576 Clouds 18 1022 69 10000 7.2 280 17:37 15.07.2022
2577 Clouds 19 1022 65 10000 6.69 280 14:53 15.07.2022
2578 Clouds 18 1023 73 10000 3.6 300 12:57 15.07.2022
2579 Clouds 17 1023 74 10000 2.57 220 11:20 15.07.2022
2580 Clouds 15 1023 79 10000 2.06 180 09:21 15.07.2022
2581 Clouds 12 1024 88 10000 1.54 160 05:56 15.07.2022
2582 Clouds 13 1025 81 10000 1.54 280 00:53 15.07.2022
2583 Clouds 13 1026 84 10000 0.51 0 00:21 15.07.2022
2584 Clouds 15 1025 73 10000 3.09 300 22:45 14.07.2022
2585 Clouds 17 1024 67 10000 4.12 290 21:43 14.07.2022
2586 Clouds 17 1024 65 10000 5.14 290 21:25 14.07.2022
2587 Clouds 18 1025 63 10000 5.14 330 20:43 14.07.2022
2588 Clouds 18 1025 63 10000 6.17 310 20:19 14.07.2022
2589 Clouds 19 1024 55 10000 7.2 290 18:42 14.07.2022
2590 Clouds 19 1024 51 10000 6.69 310 16:22 14.07.2022
2591 Clouds 19 1023 52 10000 6.17 290 15:29 14.07.2022
2592 Clouds 19 1023 56 10000 4.63 330 13:53 14.07.2022
2593 Clouds 18 1023 60 10000 5.14 300 12:48 14.07.2022
2594 Clouds 16 1023 68 10000 5.66 340 11:42 14.07.2022
2595 Clouds 16 1023 71 10000 5.66 310 11:22 14.07.2022
2596 Clouds 16 1022 81 10000 2.57 290 09:49 14.07.2022
2597 Clouds 13 1022 84 10000 1.03 150 05:25 14.07.2022
2598 Clouds 13 1023 77 10000 0.51 0 01:22 14.07.2022
2599 Clouds 13 1023 77 10000 0.77 335 00:52 14.07.2022
2600 Clouds 16 1024 68 10000 2.57 300 22:32 13.07.2022
2601 Clouds 16 1024 63 10000 3.6 300 21:54 13.07.2022
2602 Clouds 18 1023 57 10000 4.63 310 20:45 13.07.2022
2603 Clouds 19 1023 51 10000 6.17 270 19:19 13.07.2022
2604 Clouds 20 1024 50 10000 5.66 260 17:35 13.07.2022
2605 Clouds 21 1023 48 10000 5.14 280 16:23 13.07.2022
2606 Clouds 21 1023 48 10000 5.66 300 15:24 13.07.2022
2607 Clouds 19 1023 54 10000 4.63 300 12:39 13.07.2022
2608 Clouds 17 1023 66 10000 4.63 280 10:45 13.07.2022
2609 Clouds 16 1023 71 10000 3.09 310 09:58 13.07.2022
2610 Clouds 16 1022 71 10000 3.09 320 09:21 13.07.2022
2611 Clouds 15 1021 80 10000 4.63 300 06:19 13.07.2022
2612 Clouds 19 1021 71 10000 3.09 300 01:27 13.07.2022
2613 Clouds 19 1021 72 10000 2.06 220 23:42 12.07.2022
2614 Clouds 23 1020 53 10000 2.57 260 21:55 12.07.2022
2615 Clouds 23 1020 56 10000 2.57 250 21:19 12.07.2022
2616 Clear 24 1021 50 10000 2.57 260 20:41 12.07.2022
2617 Clouds 24 1021 46 10000 4.12 280 19:25 12.07.2022
2618 Clouds 23 1021 46 10000 4.12 270 17:49 12.07.2022
2619 Rain 23 1022 52 10000 2.06 220 15:43 12.07.2022
2620 Rain 22 1021 60 10000 2.57 230 14:30 12.07.2022
2621 Rain 23 1021 59 10000 2.06 230 12:29 12.07.2022
2622 Rain 22 1020 59 10000 2.57 220 11:22 12.07.2022
2623 Clouds 21 1020 69 10000 2.06 200 09:28 12.07.2022
2624 Clouds 20 1020 71 10000 1.54 190 08:18 12.07.2022
2625 Clouds 20 1021 70 10000 1.03 0 06:24 12.07.2022
2626 Clouds 20 1020 70 10000 1.54 180 05:39 12.07.2022
2627 Clouds 21 1020 66 10000 2.06 170 01:57 12.07.2022
2628 Clouds 21 1020 66 10000 2.06 170 01:57 12.07.2022
2629 Clouds 21 1020 66 10000 2.06 170 01:57 12.07.2022
2630 Clouds 23 1021 54 10000 2.06 190 23:18 11.07.2022
2631 Clouds 24 1020 49 10000 2.06 190 22:29 11.07.2022
2632 Clouds 27 1020 41 10000 2.57 200 20:33 11.07.2022
2633 Clouds 28 1020 39 10000 2.57 210 19:36 11.07.2022
2634 Clouds 29 1020 35 10000 3.09 220 18:32 11.07.2022
2635 Clear 29 1020 37 10000 3.09 230 17:39 11.07.2022
2636 Clouds 29 1021 35 10000 3.09 220 16:18 11.07.2022
2637 Clouds 29 1022 38 10000 3.09 220 14:32 11.07.2022
2638 Clouds 25 1022 55 10000 1.54 180 11:40 11.07.2022
2639 Clouds 22 1023 71 10000 1.03 0 10:22 11.07.2022
2640 Clouds 20 1023 76 10000 1.03 0 09:42 11.07.2022
2641 Fog 18 1023 83 10000 0.51 0 08:33 11.07.2022
2642 Clouds 13 1023 89 10000 1.54 150 05:51 11.07.2022
2643 Clouds 17 1025 79 10000 0.51 0 00:22 11.07.2022
2644 Clouds 19 1025 71 10000 1.44 328 22:56 10.07.2022
2645 Clouds 21 1024 66 10000 1.45 329 21:51 10.07.2022
2646 Clouds 24 1025 48 10000 3.09 320 20:54 10.07.2022
2647 Clouds 24 1025 44 10000 3.09 320 19:50 10.07.2022
2648 Clouds 26 1025 44 10000 4.12 300 18:48 10.07.2022
2649 Clouds 26 1026 45 10000 4.12 280 17:37 10.07.2022
2650 Clouds 26 1026 47 10000 4.12 280 16:45 10.07.2022
2651 Clouds 26 1027 50 10000 2.57 0 15:28 10.07.2022
2652 Clear 25 1026 48 10000 2.57 290 14:21 10.07.2022
2653 Clear 23 1027 59 10000 2.06 280 12:28 10.07.2022
2654 Clouds 18 1028 73 10000 1.54 230 10:20 10.07.2022
2655 Clouds 16 1028 79 10000 1.54 260 08:45 10.07.2022
2656 Clouds 16 1028 79 10000 1.54 260 08:45 10.07.2022
2657 Clouds 15 1029 84 10000 1.54 300 07:30 10.07.2022
2658 Clear 15 1030 86 10000 0.83 274 01:33 10.07.2022
2659 Clear 16 1031 79 10000 3.6 300 22:43 09.07.2022
2660 Clear 17 1031 75 10000 3.09 310 22:24 09.07.2022
2661 Clear 19 1031 64 10000 4.63 310 20:50 09.07.2022
2662 Clouds 20 1031 58 10000 5.66 290 18:38 09.07.2022
2663 Clouds 21 1031 54 10000 5.66 280 17:45 09.07.2022
2664 Clouds 21 1031 52 10000 5.66 300 16:44 09.07.2022
2665 Clouds 21 1031 54 10000 5.14 310 15:41 09.07.2022
2666 Clouds 20 1031 57 10000 5.66 260 14:43 09.07.2022
2667 Clouds 20 1031 58 10000 5.14 310 13:50 09.07.2022
2668 Clouds 19 1031 57 10000 4.63 290 12:47 09.07.2022
2669 Clouds 18 1031 63 10000 5.14 300 11:31 09.07.2022
2670 Clouds 17 1031 71 10000 5.14 320 10:22 09.07.2022
2671 Clouds 15 1031 85 10000 4.12 310 07:53 09.07.2022
2672 Clouds 16 1030 88 10000 3.09 290 04:59 09.07.2022
2673 Clouds 16 1031 87 10000 4.63 290 02:34 09.07.2022
2674 Clouds 16 1032 80 10000 2.06 270 22:54 08.07.2022
2675 Clouds 18 1031 74 10000 3.6 280 21:58 08.07.2022
2676 Clouds 18 1032 74 10000 3.6 300 20:41 08.07.2022
2677 Clouds 19 1031 70 10000 3.6 290 19:53 08.07.2022
2678 Clouds 20 1032 66 10000 5.66 310 18:26 08.07.2022
2679 Clouds 21 1032 61 10000 5.66 300 16:48 08.07.2022
2680 Clouds 21 1032 64 10000 4.63 290 14:54 08.07.2022
2681 Clouds 20 1032 64 10000 5.14 300 13:41 08.07.2022
2682 Clouds 19 1033 76 10000 2.57 290 11:51 08.07.2022
2683 Clouds 17 1033 87 9000 2.06 320 10:29 08.07.2022
2684 Clouds 16 1033 91 10000 2.06 300 08:37 08.07.2022
2685 Clouds 15 1032 90 10000 1.54 260 06:50 08.07.2022
2686 Clouds 15 1034 88 10000 2.57 300 01:31 08.07.2022
2687 Clouds 16 1032 84 10000 2.06 280 23:22 07.07.2022
2688 Clouds 16 1032 83 10000 2.06 290 22:35 07.07.2022
2689 Clouds 17 1032 73 10000 5.14 300 20:36 07.07.2022
2690 Clouds 19 1031 65 10000 6.17 280 18:20 07.07.2022
2691 Clouds 20 1031 59 10000 6.17 310 16:53 07.07.2022
2692 Clouds 20 1030 64 10000 5.14 270 14:35 07.07.2022
2693 Clouds 19 1030 67 10000 4.63 280 13:18 07.07.2022
2694 Clouds 18 1029 69 10000 4.12 280 12:24 07.07.2022
2695 Clouds 18 1029 69 10000 4.12 280 12:24 07.07.2022
2696 Clouds 17 1029 70 10000 3.6 300 11:45 07.07.2022
2697 Clouds 17 1029 72 10000 4.12 310 11:24 07.07.2022
2698 Clouds 17 1029 73 10000 3.6 300 10:41 07.07.2022
2699 Clouds 16 1029 79 10000 4.63 320 10:23 07.07.2022
2700 Clouds 14 1026 92 10000 4.63 300 06:49 07.07.2022
2701 Clouds 15 1024 89 10000 5.66 320 01:43 07.07.2022
2702 Clouds 17 1023 89 10000 1.34 350 23:36 06.07.2022
2703 Clouds 17 1023 87 10000 6.69 270 23:18 06.07.2022
2704 Clouds 17 1023 86 10000 6.69 270 22:52 06.07.2022
2705 Clouds 17 1023 86 10000 6.69 270 22:34 06.07.2022
2706 Rain 17 1023 79 10000 7.2 270 20:33 06.07.2022
2707 Clouds 18 1024 78 10000 6.17 270 19:34 06.07.2022
2708 Clouds 18 1025 73 10000 7.72 280 17:22 06.07.2022
2709 Clouds 18 1025 72 10000 7.72 280 17:22 06.07.2022
2710 Clouds 17 1025 79 10000 6.17 270 15:59 06.07.2022
2711 Clouds 17 1026 78 10000 5.14 270 13:56 06.07.2022
2712 Clouds 16 1026 92 10000 5.66 270 12:30 06.07.2022
2713 Clouds 16 1026 90 10000 5.66 270 12:30 06.07.2022
2714 Clouds 16 1026 95 10000 5.66 270 11:44 06.07.2022
2715 Drizzle 15 1026 95 7000 5.66 270 10:18 06.07.2022
2716 Clouds 15 1026 92 10000 3.6 260 07:44 06.07.2022
2717 Clouds 15 1026 94 10000 3.09 260 07:19 06.07.2022
2718 Clouds 15 1028 78 10000 2.06 300 00:38 06.07.2022
2719 Clouds 15 1027 75 10000 2.57 280 22:43 05.07.2022
2720 Clouds 17 1026 63 10000 4.63 300 21:29 05.07.2022
2721 Clouds 17 1027 64 10000 6.17 310 20:35 05.07.2022
2722 Clouds 18 1027 58 10000 6.17 300 19:40 05.07.2022
2723 Clouds 18 1025 58 10000 6.17 300 18:23 05.07.2022
2724 Clouds 19 1025 58 10000 6.69 280 17:39 05.07.2022
2725 Clouds 18 1025 58 10000 7.2 310 16:36 05.07.2022
2726 Clouds 19 1025 56 10000 6.17 300 14:55 05.07.2022
2727 Clouds 18 1024 59 10000 5.66 290 13:36 05.07.2022
2728 Clouds 16 1024 80 10000 3.09 320 12:26 05.07.2022
2729 Clouds 14 1023 78 10000 4.63 280 10:46 05.07.2022
2730 Clouds 14 1023 75 10000 5.66 290 09:58 05.07.2022
2731 Clouds 14 1022 77 10000 3.09 260 08:23 05.07.2022
2732 Clouds 13 1022 80 10000 3.6 260 07:20 05.07.2022
2733 Clouds 13 1023 76 10000 3.6 280 04:39 05.07.2022
2734 Clouds 14 1022 76 10000 2.57 250 01:33 05.07.2022
2735 Clouds 15 1021 73 10000 2.57 260 23:38 04.07.2022
2736 Clouds 15 1021 69 10000 4.12 260 22:57 04.07.2022
2737 Clouds 15 1021 68 10000 4.12 270 22:19 04.07.2022
2738 Clouds 16 1020 62 10000 6.17 270 20:56 04.07.2022
2739 Clouds 16 1020 62 10000 6.17 270 20:36 04.07.2022
2740 Clouds 17 1020 58 10000 5.66 270 19:57 04.07.2022
2741 Clouds 17 1020 58 10000 5.66 270 19:37 04.07.2022
2742 Clouds 17 1020 59 10000 6.17 290 18:51 04.07.2022
2743 Clouds 17 1020 57 10000 7.72 280 16:54 04.07.2022
2744 Clouds 16 1020 61 10000 6.69 290 15:35 04.07.2022
2745 Clouds 16 1019 63 10000 8.23 280 13:47 04.07.2022
2746 Clouds 16 1019 67 10000 9.26 280 12:42 04.07.2022
2747 Clouds 15 1019 71 10000 6.69 270 10:40 04.07.2022
2748 Clouds 14 1019 73 10000 5.66 250 10:22 04.07.2022
2749 Clouds 13 1019 79 10000 5.14 260 08:33 04.07.2022
2750 Clouds 13 1019 84 10000 2.06 190 05:57 04.07.2022
2751 Clouds 13 1020 81 10000 1.54 220 00:44 04.07.2022
2752 Clouds 13 1019 78 10000 1.54 230 23:38 03.07.2022
2753 Clouds 15 1019 69 10000 3.6 290 22:28 03.07.2022
2754 Clouds 17 1020 59 10000 5.66 280 20:45 03.07.2022
2755 Clouds 17 1020 57 10000 5.66 280 19:42 03.07.2022
2756 Clouds 18 1020 57 10000 5.66 290 19:24 03.07.2022
2757 Clouds 18 1019 62 10000 6.17 300 18:23 03.07.2022
2758 Clouds 18 1019 63 10000 6.17 280 17:31 03.07.2022
2759 Clouds 17 1018 67 10000 6.17 280 15:26 03.07.2022
2760 Clouds 17 1018 69 10000 5.66 290 14:49 03.07.2022
2761 Clouds 17 1018 70 10000 6.17 280 13:49 03.07.2022
2762 Clouds 16 1018 73 10000 4.63 250 12:42 03.07.2022
2763 Clouds 16 1017 80 10000 6.17 270 11:46 03.07.2022
2764 Clouds 15 1017 89 10000 2.57 240 10:40 03.07.2022
2765 Clouds 15 1017 88 10000 2.57 240 10:20 03.07.2022
2766 Rain 12 1016 87 10000 1.54 180 07:37 03.07.2022
2767 Clouds 11 1015 89 10000 1.03 160 05:26 03.07.2022
2768 Clouds 13 1016 80 10000 2.57 230 00:25 03.07.2022
2769 Clouds 15 1016 69 10000 3.09 250 22:36 02.07.2022
2770 Clouds 16 1015 59 10000 4.63 270 21:43 02.07.2022
2771 Clouds 18 1015 60 10000 4.12 270 20:20 02.07.2022
2772 Clouds 18 1015 59 10000 3.09 280 19:49 02.07.2022
2773 Clouds 18 1015 61 10000 4.63 280 17:58 02.07.2022
2774 Clouds 18 1015 62 10000 4.63 280 17:37 02.07.2022
2775 Clouds 18 1014 57 10000 6.69 250 15:32 02.07.2022
2776 Clouds 17 1015 71 10000 5.14 220 12:24 02.07.2022
2777 Clouds 16 1014 81 10000 3.6 210 11:28 02.07.2022
2778 Clouds 15 1013 90 10000 4.63 200 10:48 02.07.2022
2779 Clouds 14 1013 93 10000 3.09 200 09:49 02.07.2022
2780 Rain 13 1013 90 10000 3.09 190 08:37 02.07.2022
2781 Rain 13 1013 91 10000 2.57 200 08:18 02.07.2022
2782 Rain 13 1014 83 10000 3.09 170 02:53 02.07.2022
2783 Clouds 14 1014 88 10000 2.57 180 00:27 02.07.2022
2784 Clouds 14 1014 89 10000 1.03 0 22:59 01.07.2022
2785 Clouds 14 1014 86 10000 1.54 170 22:19 01.07.2022
2786 Rain 15 1014 79 7000 2.57 210 21:37 01.07.2022
2787 Rain 16 1014 70 10000 4.12 220 20:57 01.07.2022
2788 Clouds 17 1013 65 10000 3.6 230 19:47 01.07.2022
2789 Clouds 18 1013 66 10000 2.57 210 19:22 01.07.2022
2790 Clouds 17 1013 82 10000 1.54 200 16:38 01.07.2022
2791 Rain 17 1013 71 10000 5.14 230 14:21 01.07.2022
2792 Clouds 17 1013 66 10000 4.63 230 13:22 01.07.2022
2793 Clouds 16 1012 75 10000 3.6 240 10:46 01.07.2022
2794 Clouds 16 1012 78 10000 2.57 230 10:18 01.07.2022
2795 Clouds 12 1012 93 10000 1.54 170 05:58 01.07.2022
2796 Clouds 13 1013 85 10000 2.57 300 01:30 01.07.2022
2797 Clouds 14 1012 85 10000 1.54 180 23:28 30.06.2022
2798 Clouds 15 1011 81 10000 2.06 180 22:45 30.06.2022
2799 Clouds 15 1011 81 10000 2.06 180 22:45 30.06.2022
2800 Clouds 16 1011 73 10000 3.09 180 22:27 30.06.2022
2801 Clouds 17 1011 64 10000 2.06 270 21:50 30.06.2022
2802 Clouds 18 1011 55 10000 3.6 270 20:31 30.06.2022
2803 Clouds 18 1011 55 10000 3.09 260 19:55 30.06.2022
2804 Clouds 19 1011 56 10000 3.09 260 19:35 30.06.2022
2805 Clouds 19 1010 57 10000 4.63 280 18:43 30.06.2022
2806 Clouds 19 1009 54 10000 2.57 280 17:49 30.06.2022
2807 Clouds 19 1010 56 10000 3.6 270 16:55 30.06.2022
2808 Clouds 19 1009 55 10000 3.6 270 15:50 30.06.2022
2809 Clouds 19 1010 58 10000 2.57 200 13:50 30.06.2022
2810 Clouds 18 1009 61 10000 4.12 230 12:36 30.06.2022
2811 Clouds 18 1009 61 10000 4.12 230 12:36 30.06.2022
2812 Clouds 17 1009 69 10000 1.54 200 11:59 30.06.2022
2813 Clouds 16 1009 78 10000 2.57 190 10:19 30.06.2022
2814 Clouds 15 1009 78 10000 2.57 200 09:40 30.06.2022
2815 Clouds 14 1009 90 10000 0.51 0 08:22 30.06.2022
2816 Clouds 13 1009 91 10000 0.51 0 07:40 30.06.2022
2817 Rain 13 1010 91 10000 1.54 190 02:49 30.06.2022
2818 Clouds 15 1009 81 10000 1.54 180 23:38 29.06.2022
2819 Clouds 15 1009 82 10000 1.03 0 22:41 29.06.2022
2820 Clouds 16 1008 77 10000 1.54 200 21:59 29.06.2022
2821 Clouds 17 1008 72 10000 1.03 0 20:35 29.06.2022
2822 Clouds 17 1008 72 10000 1.03 0 20:35 29.06.2022
2823 Clouds 17 1008 75 10000 1.54 190 19:56 29.06.2022
2824 Clouds 18 1008 72 10000 1.54 160 17:55 29.06.2022
2825 Clouds 18 1008 76 10000 2.06 210 16:55 29.06.2022
2826 Clouds 19 1008 55 10000 4.63 190 15:33 29.06.2022
2827 Clouds 19 1009 66 10000 3.09 170 13:43 29.06.2022
2828 Clouds 18 1009 67 10000 2.57 190 12:36 29.06.2022
2829 Clouds 15 1008 83 10000 2.57 180 09:46 29.06.2022
2830 Clouds 15 1008 87 10000 2.57 180 09:22 29.06.2022
2831 Rain 14 1008 92 10000 2.57 140 06:28 29.06.2022
2832 Clouds 14 1010 82 10000 3.09 170 02:59 29.06.2022
2833 Clouds 14 1010 82 10000 2.57 170 00:52 29.06.2022
2834 Rain 14 1010 82 10000 2.57 170 00:33 29.06.2022
2835 Rain 15 1011 80 10000 2.06 180 22:49 28.06.2022
2836 Clouds 15 1011 75 10000 3.09 150 21:57 28.06.2022
2837 Clouds 16 1011 73 10000 3.09 150 21:38 28.06.2022
2838 Clouds 16 1010 70 10000 5.14 180 20:57 28.06.2022
2839 Clouds 16 1011 73 10000 3.6 180 19:50 28.06.2022
2840 Rain 16 1011 68 10000 4.63 180 19:24 28.06.2022
2841 Clouds 17 1011 62 10000 4.12 190 18:38 28.06.2022
2842 Clouds 18 1011 59 10000 4.63 180 16:47 28.06.2022
2843 Clouds 18 1012 61 10000 6.17 180 15:54 28.06.2022
2844 Clouds 17 1012 61 10000 4.63 190 14:48 28.06.2022
2845 Clouds 17 1012 61 10000 5.66 190 14:18 28.06.2022
2846 Clouds 17 1012 62 10000 4.12 180 13:45 28.06.2022
2847 Clouds 16 1013 67 10000 3.09 170 11:58 28.06.2022
2848 Clouds 15 1014 70 10000 4.63 180 09:50 28.06.2022
2849 Clouds 14 1014 72 10000 2.57 170 08:53 28.06.2022
2850 Clouds 13 1014 78 10000 2.06 170 07:58 28.06.2022
2851 Clouds 12 1014 77 10000 2.57 170 07:19 28.06.2022
2852 Clouds 13 1016 73 10000 2.06 190 02:25 28.06.2022
2853 Clouds 13 1016 67 10000 1.54 180 23:47 27.06.2022
2854 Clouds 14 1016 60 10000 1.54 200 22:55 27.06.2022
2855 Clouds 15 1016 54 10000 3.09 240 21:39 27.06.2022
2856 Clouds 16 1015 50 10000 5.66 250 21:18 27.06.2022
2857 Clouds 17 1015 52 10000 3.6 290 19:48 27.06.2022
2858 Clouds 17 1014 54 10000 5.14 280 18:40 27.06.2022
2859 Clouds 17 1014 54 10000 4.63 260 17:24 27.06.2022
2860 Clouds 17 1013 62 10000 4.12 250 15:43 27.06.2022
2861 Clouds 14 1013 82 10000 4.12 300 13:44 27.06.2022
2862 Clouds 14 1012 84 10000 4.12 260 12:57 27.06.2022
2863 Clouds 13 1011 89 10000 5.14 240 10:43 27.06.2022
2864 Rain 13 1011 87 10000 3.6 200 09:37 27.06.2022
2865 Clouds 13 1009 87 10000 2.57 180 08:32 27.06.2022
2866 Clouds 13 1009 87 10000 2.57 180 07:38 27.06.2022
2867 Clouds 13 1010 81 10000 3.09 180 04:40 27.06.2022
2868 Clear 14 1009 72 10000 3.09 190 01:20 27.06.2022
2869 Clear 16 1009 64 10000 3.6 200 22:47 26.06.2022
2870 Clouds 18 1008 53 10000 6.17 220 20:55 26.06.2022
2871 Clouds 19 1007 52 10000 5.14 220 19:59 26.06.2022
2872 Clouds 19 1007 49 10000 4.63 200 18:32 26.06.2022
2873 Clouds 19 1007 49 10000 4.63 200 17:33 26.06.2022
2874 Clouds 19 1006 45 10000 5.66 190 15:31 26.06.2022
2875 Clouds 19 1006 48 10000 4.63 200 13:55 26.06.2022
2876 Clouds 18 1006 48 10000 6.17 200 13:23 26.06.2022
2877 Clouds 16 1006 60 10000 5.14 180 11:27 26.06.2022
2878 Clouds 16 1006 66 10000 5.14 180 10:28 26.06.2022
2879 Clouds 16 1006 66 10000 5.14 180 10:28 26.06.2022
2880 Clouds 15 1006 73 10000 5.14 170 09:39 26.06.2022
2881 Clouds 12 1005 84 10000 3.09 150 07:45 26.06.2022
2882 Clear 11 1005 81 10000 1.54 0 02:52 26.06.2022
2883 Clear 12 1005 82 10000 1.54 0 00:21 26.06.2022
2884 Clear 12 1005 83 10000 1.03 0 23:51 25.06.2022
2885 Clear 12 1005 81 10000 1.54 180 23:24 25.06.2022
2886 Clouds 13 1004 83 10000 2.06 150 22:27 25.06.2022
2887 Clouds 14 1004 85 10000 2.06 150 21:46 25.06.2022
2888 Clouds 14 1005 84 10000 3.6 170 21:20 25.06.2022
2889 Clouds 17 1003 57 10000 3.09 0 20:30 25.06.2022
2890 Clouds 18 1004 53 10000 4.12 190 19:42 25.06.2022
2891 Rain 19 1003 46 10000 6.17 220 18:19 25.06.2022
2892 Clouds 19 1003 51 10000 4.12 180 17:24 25.06.2022
2893 Clouds 19 1004 52 10000 4.63 160 15:36 25.06.2022
2894 Clouds 18 1003 53 10000 5.14 180 13:41 25.06.2022
2895 Clouds 19 1003 50 10000 4.12 210 12:38 25.06.2022
2896 Clouds 16 1003 66 10000 4.12 200 10:45 25.06.2022
2897 Clouds 15 1003 72 10000 4.63 190 09:20 25.06.2022
2898 Clear 14 1002 74 10000 4.12 180 08:37 25.06.2022
2899 Clouds 14 1002 76 10000 3.09 170 08:18 25.06.2022
2900 Clouds 14 1000 78 10000 3.6 190 03:34 25.06.2022
2901 Clouds 16 998 77 9000 2.57 0 00:35 25.06.2022
2902 Clouds 17 998 68 10000 3.09 0 22:54 24.06.2022
2903 Clouds 18 999 74 10000 2.06 150 21:41 24.06.2022
2904 Clouds 19 998 70 10000 2.06 170 20:45 24.06.2022
2905 Clouds 19 998 67 10000 2.57 180 20:18 24.06.2022
2906 Clouds 19 999 68 10000 3.6 190 19:21 24.06.2022
2907 Clouds 19 999 66 10000 3.6 190 18:48 24.06.2022
2908 Clouds 19 999 68 10000 3.6 200 18:30 24.06.2022
2909 Clouds 20 999 70 10000 3.09 180 17:20 24.06.2022
2910 Clouds 20 1000 70 10000 2.57 190 15:29 24.06.2022
2911 Clouds 19 1001 75 10000 2.57 170 14:27 24.06.2022
2912 Clouds 19 1001 74 10000 2.57 170 13:55 24.06.2022
2913 Clouds 20 1001 72 10000 2.06 150 11:44 24.06.2022
2914 Clouds 19 1002 75 10000 1.54 180 10:55 24.06.2022
2915 Clouds 18 1002 79 10000 2.06 210 09:49 24.06.2022
2916 Clouds 18 1002 82 10000 2.06 180 09:27 24.06.2022
2917 Clouds 18 1002 81 10000 2.06 180 08:51 24.06.2022
2918 Clouds 15 1002 86 10000 1.03 240 06:47 24.06.2022
2919 Clouds 15 1002 86 10000 1.03 0 06:29 24.06.2022
2920 Clouds 15 1003 84 10000 1.03 0 05:51 24.06.2022
2921 Clouds 17 1005 70 10000 0.51 0 00:57 24.06.2022
2922 Clouds 19 1006 56 10000 1.03 160 22:44 23.06.2022
2923 Clouds 20 1007 56 10000 1.03 0 21:52 23.06.2022
2924 Clear 21 1006 56 10000 2.06 0 20:53 23.06.2022
2925 Clouds 21 1006 60 10000 1.54 170 20:31 23.06.2022
2926 Rain 22 1006 61 10000 1.79 132 18:43 23.06.2022
2927 Rain 25 1006 53 10000 3.6 160 17:37 23.06.2022
2928 Clear 27 1007 43 10000 2.57 180 16:32 23.06.2022
2929 Clouds 27 1007 42 10000 3.09 200 15:26 23.06.2022
2930 Clouds 27 1009 44 10000 2.57 0 14:45 23.06.2022
2931 Clear 24 1009 57 10000 2.06 240 11:49 23.06.2022
2932 Clear 22 1010 64 10000 1.03 0 10:56 23.06.2022
2933 Clear 19 1010 69 10000 0.89 135 09:19 23.06.2022
2934 Clouds 12 1011 86 10000 1.03 110 05:48 23.06.2022
2935 Clouds 15 1013 75 10000 0.51 0 01:21 23.06.2022
2936 Clouds 16 1014 74 10000 1.54 270 00:18 23.06.2022
2937 Clouds 17 1014 71 10000 2.06 300 23:22 22.06.2022
2938 Clouds 19 1013 63 10000 2.57 300 21:44 22.06.2022
2939 Clear 21 1013 59 10000 4.12 290 20:52 22.06.2022
2940 Clear 22 1013 57 10000 4.12 310 20:19 22.06.2022
2941 Clouds 23 1014 54 10000 3.09 300 19:30 22.06.2022
2942 Clouds 23 1014 52 10000 3.09 300 17:40 22.06.2022
2943 Clouds 24 1013 50 10000 3.6 290 16:41 22.06.2022
2944 Clouds 24 1013 49 10000 4.63 280 15:29 22.06.2022
2945 Clouds 23 1014 52 10000 3.6 290 14:47 22.06.2022
2946 Clouds 23 1014 54 10000 2.57 290 13:47 22.06.2022
2947 Clouds 23 1014 55 10000 0.89 76 13:24 22.06.2022
2948 Clouds 21 1014 62 10000 3.09 300 12:18 22.06.2022
2949 Clouds 20 1014 71 10000 1.34 332 11:29 22.06.2022
2950 Clouds 19 1014 77 10000 1.03 0 10:43 22.06.2022
2951 Mist 16 1015 86 10000 1.54 250 09:18 22.06.2022
2952 Mist 13 1014 94 3700 1.54 170 06:55 22.06.2022
2953 Clear 15 1014 83 10000 2.06 310 01:59 22.06.2022
2954 Clear 15 1015 83 10000 2.06 310 00:56 22.06.2022
2955 Clear 17 1015 68 10000 1.61 335 22:40 21.06.2022
2956 Clear 21 1014 50 10000 4.63 320 20:40 21.06.2022
2957 Clouds 23 1014 48 10000 4.63 290 19:20 21.06.2022
2958 Clouds 24 1013 46 10000 4.12 280 17:47 21.06.2022
2959 Clouds 24 1013 41 10000 3.6 280 16:36 21.06.2022
2960 Clouds 20 1014 47 10000 0.45 275 11:56 21.06.2022
2961 Clouds 18 1014 57 10000 1.03 0 10:33 21.06.2022
2962 Clouds 14 1014 73 10000 1.54 150 08:54 21.06.2022
2963 Clouds 11 1014 80 10000 1.03 0 07:40 21.06.2022
2964 Clouds 9 1015 86 10000 2.06 140 04:42 21.06.2022
2965 Clouds 14 1018 68 10000 1.03 260 23:45 20.06.2022
2966 Clouds 16 1019 56 10000 1.75 325 22:21 20.06.2022
2967 Clouds 16 1019 56 10000 1.75 325 22:21 20.06.2022
2968 Clouds 18 1018 45 10000 3.6 300 21:33 20.06.2022
2969 Clouds 19 1019 49 10000 4.63 280 20:27 20.06.2022
2970 Clouds 20 1019 47 10000 4.12 280 19:23 20.06.2022
2971 Clouds 21 1019 48 10000 3.09 280 18:25 20.06.2022
2972 Clouds 21 1019 50 10000 4.12 310 17:44 20.06.2022
2973 Clouds 21 1019 48 10000 2.57 0 16:24 20.06.2022
2974 Clouds 20 1020 49 10000 3.09 10 14:36 20.06.2022
2975 Clouds 17 1020 55 10000 2.57 40 11:47 20.06.2022
2976 Clear 15 1020 65 10000 4.63 40 09:55 20.06.2022
2977 Clear 13 1021 72 10000 2.57 50 08:46 20.06.2022
2978 Clear 12 1020 79 10000 1.03 0 07:36 20.06.2022
2979 Clear 10 1018 84 10000 1.54 90 04:30 20.06.2022
2980 Clouds 12 1018 79 10000 2.06 60 01:32 20.06.2022
2981 Clouds 14 1017 70 10000 1.03 0 23:48 19.06.2022
2982 Clouds 16 1017 61 10000 3.6 70 22:20 19.06.2022
2983 Clouds 17 1017 62 10000 3.19 30 21:42 19.06.2022
2984 Clouds 18 1015 57 10000 3.09 310 20:49 19.06.2022
2985 Clouds 19 1015 55 10000 3.09 320 19:49 19.06.2022
2986 Clouds 18 1016 60 10000 3.6 300 19:24 19.06.2022
2987 Clouds 18 1015 57 10000 3.09 330 18:32 19.06.2022
2988 Clouds 18 1016 60 10000 2.06 340 17:42 19.06.2022
2989 Clouds 17 1015 65 10000 3.09 270 16:47 19.06.2022
2990 Clouds 16 1015 68 10000 3.6 280 16:23 19.06.2022
2991 Clouds 16 1015 67 10000 4.63 290 15:29 19.06.2022
2992 Clouds 16 1015 68 10000 5.14 320 14:42 19.06.2022
2993 Clouds 16 1015 69 10000 4.12 300 13:52 19.06.2022
2994 Clouds 14 1015 79 10000 3.09 290 12:19 19.06.2022
2995 Clouds 13 1015 83 10000 4.63 290 10:53 19.06.2022
2996 Clouds 12 1015 84 10000 3.09 280 09:21 19.06.2022
2997 Clouds 12 1015 88 10000 2.06 240 08:32 19.06.2022
2998 Clouds 10 1015 91 10000 0.51 0 07:26 19.06.2022
2999 Clouds 10 1015 91 10000 0.51 0 07:26 19.06.2022
3000 Drizzle 8 1015 89 5000 1.54 220 03:57 19.06.2022
3001 Clouds 10 1018 83 10000 1.54 140 00:51 19.06.2022
3002 Clouds 10 1018 85 10000 0.51 0 00:22 19.06.2022
3003 Clouds 11 1019 78 10000 2.06 250 23:35 18.06.2022
3004 Clouds 12 1018 73 10000 3.09 280 22:30 18.06.2022
3005 Clouds 13 1018 79 10000 1.54 270 20:51 18.06.2022
3006 Clouds 12 1020 80 10000 2.57 260 20:18 18.06.2022
3007 Rain 13 1019 72 10000 3.09 270 18:57 18.06.2022
3008 Rain 13 1019 72 10000 3.09 270 18:57 18.06.2022
3009 Clouds 13 1019 72 10000 3.09 270 18:38 18.06.2022
3010 Clouds 14 1019 63 10000 4.12 310 17:29 18.06.2022
3011 Clouds 14 1019 59 10000 5.14 320 16:18 18.06.2022
3012 Clouds 15 1020 59 10000 5.66 290 14:58 18.06.2022
3013 Clouds 15 1020 58 10000 5.66 290 14:37 18.06.2022
3014 Clouds 16 1021 60 10000 4.12 310 12:31 18.06.2022
3015 Clouds 16 1020 60 10000 3.09 310 11:25 18.06.2022
3016 Clouds 14 1020 63 10000 4.63 320 09:46 18.06.2022
3017 Clouds 14 1020 65 10000 4.12 310 08:59 18.06.2022
3018 Clouds 13 1020 70 10000 3.6 340 07:34 18.06.2022
3019 Clouds 13 1020 70 10000 3.6 340 07:34 18.06.2022
3020 Clouds 13 1019 74 10000 3.6 320 05:58 18.06.2022
3021 Clouds 15 1019 84 10000 2.06 270 02:51 18.06.2022
3022 Clouds 16 1019 87 10000 5.66 290 01:21 18.06.2022
3023 Clouds 17 1018 86 10000 4.12 310 00:32 18.06.2022
3024 Clouds 18 1018 82 10000 3.6 300 23:40 17.06.2022
3025 Clouds 18 1018 79 10000 3.6 310 22:33 17.06.2022
3026 Clouds 19 1017 74 10000 4.63 330 20:29 17.06.2022
3027 Clouds 21 1017 64 10000 6.69 300 19:24 17.06.2022
3028 Clouds 24 1016 54 10000 6.69 290 17:58 17.06.2022
3029 Clouds 26 1015 49 10000 6.17 300 16:50 17.06.2022
3030 Clouds 26 1015 47 10000 7.2 270 16:25 17.06.2022
3031 Clouds 27 1015 46 10000 7.2 270 15:40 17.06.2022
3032 Clouds 27 1015 47 10000 5.14 220 14:23 17.06.2022
3033 Clouds 26 1015 46 10000 3.6 210 13:58 17.06.2022
3034 Clouds 26 1015 45 10000 3.6 210 13:38 17.06.2022
3035 Clouds 25 1015 43 10000 1.79 115 12:28 17.06.2022
3036 Clouds 24 1016 44 10000 4.12 210 11:55 17.06.2022
3037 Clouds 24 1016 44 10000 4.12 210 11:33 17.06.2022
3038 Clouds 20 1017 56 10000 3.09 200 08:58 17.06.2022
3039 Clouds 19 1017 60 10000 2.06 170 08:25 17.06.2022
3040 Clouds 18 1017 59 10000 2.06 190 06:44 17.06.2022
3041 Clouds 18 1018 58 10000 2.06 180 03:45 17.06.2022
3042 Clouds 18 1020 56 10000 2.06 190 01:56 17.06.2022
3043 Clouds 20 1020 60 10000 2.06 200 23:35 16.06.2022
3044 Clouds 21 1020 58 10000 1.54 180 22:42 16.06.2022
3045 Clouds 23 1020 50 10000 1.03 0 21:22 16.06.2022
3046 Clouds 24 1020 45 10000 1.03 0 20:51 16.06.2022
3047 Clouds 24 1020 43 10000 1.03 0 20:32 16.06.2022
3048 Clouds 24 1021 43 10000 1.03 0 19:32 16.06.2022
3049 Clouds 25 1021 44 10000 1.54 220 17:57 16.06.2022
3050 Clouds 24 1021 46 10000 1.54 220 17:35 16.06.2022
3051 Clouds 25 1021 43 10000 2.06 230 16:30 16.06.2022
3052 Clouds 24 1022 47 10000 2.01 218 15:21 16.06.2022
3053 Clouds 22 1023 49 10000 2.06 220 14:28 16.06.2022
3054 Clouds 21 1022 57 10000 1.42 245 12:59 16.06.2022
3055 Clouds 21 1021 50 10000 1.03 0 12:35 16.06.2022
3056 Clouds 20 1021 56 10000 1.54 240 11:49 16.06.2022
3057 Clouds 19 1021 63 10000 1.03 0 10:51 16.06.2022
3058 Clouds 16 1022 70 10000 0.51 0 09:43 16.06.2022
3059 Clouds 15 1022 74 10000 1.03 0 09:20 16.06.2022
3060 Clouds 12 1022 84 10000 0.51 0 07:57 16.06.2022
3061 Clouds 12 1022 84 10000 0.51 0 07:57 16.06.2022
3062 Clouds 11 1022 88 10000 1.03 220 06:51 16.06.2022
3063 Clouds 11 1021 84 10000 0.51 0 04:28 16.06.2022
3064 Clouds 13 1020 77 10000 1.03 200 01:53 16.06.2022
3065 Clouds 13 1020 76 10000 1.03 200 01:34 16.06.2022
3066 Clouds 14 1021 71 10000 1.54 280 00:36 16.06.2022
3067 Clouds 15 1020 71 10000 1.73 339 23:23 15.06.2022
3068 Clouds 18 1019 60 10000 3.6 290 21:59 15.06.2022
3069 Clouds 19 1019 58 10000 3.09 280 21:20 15.06.2022
3070 Clouds 20 1019 58 10000 3.6 290 20:38 15.06.2022
3071 Clouds 20 1018 57 10000 4.63 290 20:18 15.06.2022
3072 Clouds 20 1018 49 10000 2.06 280 18:48 15.06.2022
3073 Clouds 22 1019 52 10000 2.06 280 17:54 15.06.2022
3074 Clouds 22 1018 48 10000 2.57 260 16:37 15.06.2022
3075 Clouds 23 1018 46 10000 1.54 0 15:23 15.06.2022
3076 Clear 22 1019 55 10000 1.54 250 13:43 15.06.2022
3077 Clouds 21 1018 56 10000 0.89 220 12:53 15.06.2022
3078 Clear 20 1018 61 10000 2.06 250 11:42 15.06.2022
3079 Clouds 17 1018 69 10000 1.05 231 10:23 15.06.2022
3080 Clouds 15 1018 75 10000 1.03 0 09:37 15.06.2022
3081 Clouds 13 1018 80 10000 1.03 0 08:27 15.06.2022
3082 Clouds 9 1017 86 10000 1.03 0 06:33 15.06.2022
3083 Clouds 10 1018 79 10000 1.03 50 03:30 15.06.2022
3084 Clouds 12 1018 72 10000 1.03 0 01:38 15.06.2022
3085 Clouds 12 1018 68 10000 3.09 340 00:50 15.06.2022
3086 Clouds 13 1019 67 10000 2.06 330 23:39 14.06.2022
3087 Clouds 15 1020 66 10000 2.19 3 22:52 14.06.2022
3088 Clouds 16 1019 55 10000 3.6 310 21:53 14.06.2022
3089 Clouds 18 1018 49 10000 3.6 330 21:27 14.06.2022
3090 Clouds 18 1019 51 10000 3.6 310 20:48 14.06.2022
3091 Clouds 19 1019 50 10000 1.54 0 19:59 14.06.2022
3092 Clouds 20 1018 46 10000 2.57 340 18:45 14.06.2022
3093 Clouds 20 1019 47 10000 2.06 220 17:29 14.06.2022
3094 Clouds 20 1019 46 10000 2.06 0 16:43 14.06.2022
3095 Clouds 20 1020 44 10000 2.06 270 15:49 14.06.2022
3096 Clouds 19 1021 47 10000 2.06 290 14:57 14.06.2022
3097 Clouds 19 1021 51 10000 2.57 250 14:19 14.06.2022
3098 Clouds 18 1020 49 10000 2.06 240 13:32 14.06.2022
3099 Clouds 17 1021 51 10000 1.54 220 12:27 14.06.2022
3100 Haze 17 1021 55 1000 2.57 220 11:27 14.06.2022
3101 Clear 16 1021 61 10000 1.03 0 10:33 14.06.2022
3102 Clouds 14 1021 72 10000 1.03 0 09:28 14.06.2022
3103 Clouds 14 1021 72 10000 1.03 0 09:28 14.06.2022
3104 Clear 13 1021 77 10000 0.51 0 08:41 14.06.2022
3105 Clouds 10 1021 82 10000 0.51 320 06:54 14.06.2022
3106 Clouds 9 1023 84 10000 0.91 174 04:35 14.06.2022
3107 Clouds 9 1023 78 10000 0.89 148 02:43 14.06.2022
3108 Clouds 11 1024 72 10000 0.51 0 00:27 14.06.2022
3109 Clouds 13 1023 66 10000 0.51 0 23:18 13.06.2022
3110 Clouds 14 1023 65 10000 2.06 300 22:24 13.06.2022
3111 Clouds 14 1023 64 10000 3.09 310 21:41 13.06.2022
3112 Clouds 15 1023 62 10000 4.12 300 19:59 13.06.2022
3113 Clouds 16 1023 63 10000 4.12 300 19:25 13.06.2022
3114 Clouds 17 1023 58 10000 3.6 280 17:57 13.06.2022
3115 Clouds 16 1024 59 10000 4.12 300 17:27 13.06.2022
3116 Clouds 16 1024 60 10000 4.12 290 16:32 13.06.2022
3117 Clouds 16 1025 59 10000 4.12 250 14:53 13.06.2022
3118 Clouds 16 1024 56 10000 4.12 250 14:33 13.06.2022
3119 Clouds 16 1024 65 10000 5.14 290 13:39 13.06.2022
3120 Clouds 15 1024 66 10000 4.63 290 12:23 13.06.2022
3121 Clouds 15 1024 69 10000 3.6 280 10:58 13.06.2022
3122 Clouds 14 1024 70 10000 5.14 290 10:26 13.06.2022
3123 Clouds 13 1023 78 10000 3.6 270 08:59 13.06.2022
3124 Clouds 12 1023 82 10000 3.6 290 06:53 13.06.2022
3125 Clouds 12 1023 84 10000 4.12 280 05:35 13.06.2022
3126 Clouds 12 1023 86 10000 2.57 280 02:27 13.06.2022
3127 Clouds 12 1023 83 10000 3.09 290 01:36 13.06.2022
3128 Clouds 13 1022 75 10000 4.63 260 23:49 12.06.2022
3129 Clouds 14 1021 70 10000 5.14 260 22:44 12.06.2022
3130 Clouds 14 1021 66 10000 5.14 270 21:53 12.06.2022
3131 Clouds 15 1021 64 10000 7.72 260 20:53 12.06.2022
3132 Clouds 15 1021 62 10000 7.2 270 19:59 12.06.2022
3133 Clouds 16 1021 61 10000 8.23 260 19:30 12.06.2022
3134 Clouds 16 1021 61 10000 7.72 270 17:40 12.06.2022
3135 Clouds 17 1021 51 10000 8.23 260 15:54 12.06.2022
3136 Clouds 17 1021 53 10000 7.72 280 14:51 12.06.2022
3137 Clouds 17 1021 50 10000 6.69 270 14:19 12.06.2022
3138 Clouds 17 1021 49 10000 6.69 270 13:46 12.06.2022
3139 Clouds 16 1022 53 10000 6.69 270 12:32 12.06.2022
3140 Clouds 15 1022 61 10000 6.69 270 11:22 12.06.2022
3141 Clouds 14 1021 68 10000 6.69 260 10:21 12.06.2022
3142 Clouds 13 1021 80 10000 6.17 250 08:52 12.06.2022
3143 Clouds 13 1021 80 10000 6.17 250 08:33 12.06.2022
3144 Clouds 13 1020 85 10000 4.12 240 06:49 12.06.2022
3145 Clouds 13 1021 85 10000 2.06 210 04:35 12.06.2022
3146 Clouds 13 1021 82 10000 3.09 220 02:32 12.06.2022
3147 Clouds 14 1021 77 10000 4.12 220 01:36 12.06.2022
3148 Clouds 14 1020 75 10000 4.12 220 00:57 12.06.2022
3149 Clouds 14 1020 75 10000 3.6 220 00:19 12.06.2022
3150 Clouds 14 1020 75 10000 3.6 220 00:19 12.06.2022
3151 Clouds 15 1020 72 10000 5.66 230 23:21 11.06.2022
3152 Clouds 15 1020 70 10000 7.2 240 22:37 11.06.2022
3153 Clouds 15 1019 68 10000 7.2 230 21:36 11.06.2022
3154 Clouds 17 1018 56 10000 8.75 240 20:27 11.06.2022
3155 Clouds 18 1019 55 10000 8.75 240 19:37 11.06.2022
3156 Clouds 18 1017 50 10000 9.77 240 18:45 11.06.2022
3157 Clouds 18 1017 50 10000 10.8 240 18:27 11.06.2022
3158 Clouds 19 1017 50 10000 8.75 240 17:48 11.06.2022
3159 Clouds 19 1017 49 10000 10.29 250 17:26 11.06.2022
3160 Clouds 19 1017 49 10000 10.29 250 17:26 11.06.2022
3161 Clouds 19 1017 50 10000 9.26 250 16:44 11.06.2022
3162 Clouds 19 1017 53 10000 7.72 260 16:18 11.06.2022
3163 Clouds 19 1017 56 10000 8.23 230 14:57 11.06.2022
3164 Clouds 18 1017 59 10000 6.69 220 13:52 11.06.2022
3165 Clouds 17 1017 62 10000 9.26 230 12:19 11.06.2022
3166 Clouds 17 1016 67 10000 5.66 220 10:32 11.06.2022
3167 Clouds 16 1016 71 10000 5.14 220 09:41 11.06.2022
3168 Clouds 15 1016 76 10000 3.6 200 08:44 11.06.2022
3169 Clouds 12 1015 85 10000 2.24 98 06:33 11.06.2022
3170 Clouds 12 1015 85 10000 3.6 200 05:53 11.06.2022
3171 Clouds 13 1015 82 10000 3.6 200 03:31 11.06.2022
3172 Clear 13 1015 77 10000 2.57 190 01:51 11.06.2022
3173 Clear 14 1015 76 10000 4.12 210 01:25 11.06.2022
3174 Clear 14 1015 76 10000 4.12 210 01:25 11.06.2022
3175 Clear 15 1015 67 10000 4.12 220 23:27 10.06.2022
3176 Clear 16 1015 62 10000 4.63 240 22:21 10.06.2022
3177 Clear 17 1015 57 10000 6.17 230 21:44 10.06.2022
3178 Clear 19 1015 47 10000 8.23 250 20:39 10.06.2022
3179 Clear 19 1015 50 10000 9.77 240 20:19 10.06.2022
3180 Clouds 20 1015 56 10000 6.17 220 19:19 10.06.2022
3181 Clouds 20 1015 56 10000 6.17 220 19:19 10.06.2022
3182 Clouds 20 1014 54 10000 9.77 230 18:32 10.06.2022
3183 Clouds 21 1013 50 10000 5.66 210 17:50 10.06.2022
3184 Clouds 21 1014 53 10000 6.69 220 17:21 10.06.2022
3185 Clouds 21 1014 51 10000 6.17 220 16:26 10.06.2022
3186 Clouds 21 1015 54 10000 5.14 220 15:38 10.06.2022
3187 Clouds 20 1014 53 10000 6.17 220 13:58 10.06.2022
3188 Clouds 19 1014 62 10000 4.63 210 12:51 10.06.2022
3189 Clouds 18 1014 68 10000 4.63 210 11:53 10.06.2022
3190 Clouds 17 1014 68 10000 3.6 200 10:45 10.06.2022
3191 Clear 16 1014 73 10000 4.12 210 09:55 10.06.2022
3192 Clouds 14 1014 81 10000 3.6 210 08:44 10.06.2022
3193 Clouds 13 1014 83 10000 2.24 116 07:30 10.06.2022
3194 Clouds 12 1013 84 10000 2.57 190 06:45 10.06.2022
3195 Clouds 12 1013 85 10000 3.09 190 06:26 10.06.2022
3196 Clouds 13 1013 83 10000 3.6 200 03:56 10.06.2022
3197 Clouds 14 1013 85 10000 3.09 200 01:42 10.06.2022
3198 Clouds 15 1013 83 10000 2.57 210 00:32 10.06.2022
3199 Clouds 15 1013 84 10000 3.09 200 23:47 09.06.2022
3200 Clouds 16 1011 84 10000 2.06 190 22:18 09.06.2022
3201 Clouds 17 1011 80 10000 2.57 180 21:37 09.06.2022
3202 Clouds 17 1011 79 10000 3.09 190 20:54 09.06.2022
3203 Clouds 17 1011 79 10000 3.6 190 20:21 09.06.2022
3204 Clouds 17 1011 77 10000 3.6 190 19:29 09.06.2022
3205 Clouds 16 1011 81 10000 3.09 190 18:34 09.06.2022
3206 Clouds 16 1012 82 9000 3.6 180 16:56 09.06.2022
3207 Rain 15 1013 76 10000 3.09 190 15:49 09.06.2022
3208 Clouds 16 1013 72 10000 4.63 210 14:35 09.06.2022
3209 Clouds 16 1012 73 10000 5.14 220 13:54 09.06.2022
3210 Rain 16 1012 69 10000 3.6 220 13:28 09.06.2022
3211 Clouds 17 1012 67 10000 1.34 265 11:54 09.06.2022
3212 Clouds 16 1012 70 10000 4.12 230 11:18 09.06.2022
3213 Clouds 15 1012 76 10000 2.57 220 09:44 09.06.2022
3214 Clouds 14 1011 80 10000 3.09 220 09:24 09.06.2022
3215 Clouds 11 1011 89 10000 1.54 190 07:52 09.06.2022
3216 Clouds 10 1010 91 10000 1.54 180 06:33 09.06.2022
3217 Clear 11 1008 92 10000 2.06 220 02:52 09.06.2022
3218 Clouds 13 1007 85 10000 1.54 160 23:39 08.06.2022
3219 Clouds 13 1007 81 10000 1.03 0 22:58 08.06.2022
3220 Clear 14 1006 78 10000 3.09 270 22:27 08.06.2022
3221 Clouds 15 1006 76 10000 3.6 300 21:54 08.06.2022
3222 Clouds 15 1006 77 10000 3.09 280 21:21 08.06.2022
3223 Clouds 16 1005 80 10000 3.6 260 20:20 08.06.2022
3224 Clouds 16 1004 78 10000 3.6 260 19:38 08.06.2022
3225 Clouds 17 1004 69 10000 7.72 280 18:43 08.06.2022
3226 Clouds 17 1003 68 10000 3.6 270 16:54 08.06.2022
3227 Rain 17 1003 67 10000 4.63 270 15:44 08.06.2022
3228 Clouds 17 1002 74 10000 5.66 250 13:44 08.06.2022
3229 Clouds 16 1001 83 10000 5.14 230 11:52 08.06.2022
3230 Rain 16 1001 81 10000 3.6 210 11:29 08.06.2022
3231 Clouds 16 1001 89 10000 2.06 200 09:55 08.06.2022
3232 Clouds 15 1001 90 10000 2.57 210 09:21 08.06.2022
3233 Clouds 14 1000 93 10000 3.09 200 08:22 08.06.2022
3234 Clouds 14 1000 94 10000 1.54 180 05:51 08.06.2022
3235 Rain 14 1002 92 10000 1.54 0 03:52 08.06.2022
3236 Rain 15 1005 88 800 2.06 150 00:29 08.06.2022
3237 Rain 17 1006 76 10000 1.03 0 23:27 07.06.2022
3238 Clouds 17 1007 71 10000 1.03 0 22:44 07.06.2022
3239 Clouds 17 1007 70 10000 1.54 140 22:22 07.06.2022
3240 Clouds 19 1007 63 10000 1.54 0 21:28 07.06.2022
3241 Clouds 19 1008 62 10000 2.06 0 20:53 07.06.2022
3242 Clouds 20 1008 55 10000 1.03 0 20:31 07.06.2022
3243 Clouds 20 1008 52 10000 2.06 190 19:27 07.06.2022
3244 Clouds 20 1009 59 10000 2.57 170 18:19 07.06.2022
3245 Clouds 20 1010 58 10000 2.06 0 17:21 07.06.2022
3246 Clouds 20 1010 58 10000 2.06 170 16:41 07.06.2022
3247 Clouds 20 1010 57 10000 2.06 160 15:43 07.06.2022
3248 Clouds 20 1010 55 10000 1.79 141 15:23 07.06.2022
3249 Clouds 19 1011 61 10000 1.54 0 14:46 07.06.2022
3250 Clouds 18 1011 61 10000 2.06 210 13:58 07.06.2022
3251 Clouds 18 1011 65 10000 3.09 210 13:29 07.06.2022
3252 Clouds 18 1012 65 10000 1.54 210 12:44 07.06.2022
3253 Clouds 17 1011 62 10000 1.03 0 11:22 07.06.2022
3254 Clouds 16 1011 71 10000 0.51 0 10:19 07.06.2022
3255 Clouds 13 1012 82 10000 0.51 0 08:36 07.06.2022
3256 Clouds 11 1012 91 8000 2.06 40 07:23 07.06.2022
3257 Mist 10 1012 92 4500 1.03 110 05:56 07.06.2022
3258 Clouds 10 1013 91 10000 0.51 0 02:48 07.06.2022
3259 Clouds 12 1013 85 10000 1.03 170 00:35 07.06.2022
3260 Clouds 12 1013 84 10000 1.54 230 23:34 06.06.2022
3261 Clouds 13 1013 80 10000 1.03 260 22:41 06.06.2022
3262 Clouds 14 1013 78 10000 1.54 270 21:43 06.06.2022
3263 Clouds 14 1013 75 10000 1.54 220 20:19 06.06.2022
3264 Clouds 15 1013 74 10000 2.06 210 19:23 06.06.2022
3265 Clouds 15 1014 73 10000 1.54 220 18:46 06.06.2022
3266 Clouds 15 1015 74 10000 1.54 220 17:51 06.06.2022
3267 Clouds 15 1015 73 10000 0.51 0 16:39 06.06.2022
3268 Clouds 14 1015 75 10000 1.54 270 15:40 06.06.2022
3269 Clouds 14 1015 74 10000 1.54 270 15:40 06.06.2022
3270 Clouds 13 1015 78 10000 1.03 0 14:56 06.06.2022
3271 Clouds 13 1015 83 10000 2.06 300 13:31 06.06.2022
3272 Clouds 13 1015 79 10000 1.54 310 12:39 06.06.2022
3273 Clouds 12 1015 80 10000 0.51 0 12:20 06.06.2022
3274 Clouds 12 1015 79 10000 0.51 0 11:42 06.06.2022
3275 Clouds 11 1014 86 10000 1.54 320 09:41 06.06.2022
3276 Clouds 11 1015 89 10000 1.54 310 08:35 06.06.2022
3277 Clouds 10 1015 91 10000 1.54 40 07:40 06.06.2022
3278 Clouds 10 1013 88 10000 3.09 30 05:34 06.06.2022
3279 Clouds 10 1014 89 10000 2.06 10 03:47 06.06.2022
3280 Clouds 11 1015 88 10000 1.54 340 01:29 06.06.2022
3281 Clouds 11 1015 87 10000 2.06 30 00:43 06.06.2022
3282 Clouds 11 1016 89 10000 2.57 40 23:50 05.06.2022
3283 Clouds 11 1016 87 10000 1.54 40 22:53 05.06.2022
3284 Clouds 11 1016 86 10000 2.06 60 21:26 05.06.2022
3285 Clouds 12 1016 88 10000 3.09 50 19:52 05.06.2022
3286 Clouds 12 1016 91 10000 3.09 30 18:42 05.06.2022
3287 Clouds 12 1016 88 10000 2.06 70 17:56 05.06.2022
3288 Clouds 12 1016 89 10000 3.6 20 17:27 05.06.2022
3289 Clouds 12 1016 88 10000 4.12 20 16:58 05.06.2022
3290 Clouds 12 1016 89 10000 4.12 20 16:37 05.06.2022
3291 Clouds 12 1016 89 10000 4.12 20 16:37 05.06.2022
3292 Clouds 12 1017 87 10000 4.12 60 14:46 05.06.2022
3293 Clouds 11 1018 90 10000 3.09 60 13:21 05.06.2022
3294 Clouds 10 1018 91 9000 2.06 70 11:51 05.06.2022
3295 Clouds 10 1017 90 9000 5.66 60 10:43 05.06.2022
3296 Clouds 10 1018 89 10000 5.66 60 10:23 05.06.2022
3297 Clouds 10 1018 81 10000 3.6 50 08:41 05.06.2022
3298 Clouds 10 1018 81 10000 4.63 50 08:20 05.06.2022
3299 Clouds 10 1020 83 10000 3.09 80 05:23 05.06.2022
3300 Clouds 10 1020 82 10000 1.34 349 04:30 05.06.2022
3301 Clouds 10 1020 79 10000 2.06 80 01:33 05.06.2022
3302 Clouds 11 1021 77 10000 2.06 70 00:52 05.06.2022
3303 Clouds 12 1022 73 10000 2.06 90 22:43 04.06.2022
3304 Clouds 14 1021 65 10000 3.09 70 20:42 04.06.2022
3305 Clouds 16 1022 61 10000 4.63 70 18:51 04.06.2022
3306 Clouds 17 1023 59 10000 4.12 0 16:47 04.06.2022
3307 Clouds 16 1023 60 10000 5.14 80 16:18 04.06.2022
3308 Clouds 16 1024 63 10000 4.63 0 14:54 04.06.2022
3309 Clouds 17 1024 59 10000 4.63 80 13:37 04.06.2022
3310 Clouds 14 1024 64 10000 4.12 90 11:22 04.06.2022
3311 Clouds 14 1024 65 10000 6.17 60 10:49 04.06.2022
3312 Clouds 13 1023 69 10000 4.63 60 09:45 04.06.2022
3313 Clouds 12 1023 75 10000 3.6 70 08:43 04.06.2022
3314 Clouds 11 1023 78 10000 3.6 70 07:42 04.06.2022
3315 Clouds 10 1023 80 10000 4.12 50 05:30 04.06.2022
3316 Clouds 11 1022 79 10000 5.14 60 02:20 04.06.2022
3317 Clouds 12 1022 70 10000 5.66 60 00:19 04.06.2022
3318 Clouds 14 1022 66 10000 5.14 50 22:40 03.06.2022
3319 Clouds 16 1021 58 10000 5.14 70 21:39 03.06.2022
3320 Clouds 17 1021 58 10000 5.14 80 20:37 03.06.2022
3321 Clouds 18 1020 52 10000 4.63 80 18:41 03.06.2022
3322 Clouds 19 1020 42 10000 4.63 80 16:52 03.06.2022
3323 Clouds 19 1020 45 10000 4.12 80 15:37 03.06.2022
3324 Clouds 19 1020 48 10000 3.09 110 13:48 03.06.2022
3325 Clouds 13 1020 77 10000 4.12 30 11:50 03.06.2022
3326 Rain 12 1018 82 10000 2.06 60 09:50 03.06.2022
3327 Clouds 12 1018 84 10000 2.57 80 09:28 03.06.2022
3328 Rain 12 1019 87 10000 1.03 0 07:27 03.06.2022
3329 Clouds 12 1018 90 10000 2.06 70 06:44 03.06.2022
3330 Clouds 12 1018 90 5000 2.06 60 06:26 03.06.2022
3331 Rain 14 1018 78 10000 3.09 80 01:23 03.06.2022
3332 Rain 15 1018 71 10000 1.36 90 23:31 02.06.2022
3333 Clouds 16 1018 60 10000 1.03 0 21:57 02.06.2022
3334 Clouds 18 1018 56 10000 1.54 130 20:25 02.06.2022
3335 Clouds 18 1018 54 10000 1.03 0 19:52 02.06.2022
3336 Clouds 18 1018 54 10000 1.03 0 19:33 02.06.2022
3337 Clouds 19 1018 46 10000 1.54 180 17:58 02.06.2022
3338 Clouds 20 1019 48 10000 2.53 172 16:28 02.06.2022
3339 Clouds 19 1019 49 10000 2.06 220 14:34 02.06.2022
3340 Clouds 19 1019 53 10000 0.89 284 13:30 02.06.2022
3341 Clouds 18 1020 57 10000 2.57 180 12:40 02.06.2022
3342 Clouds 15 1020 68 10000 1.54 190 10:20 02.06.2022
3343 Clear 13 1019 77 10000 0.51 0 09:28 02.06.2022
3344 Clear 11 1019 88 10000 0.45 135 08:28 02.06.2022
3345 Clear 8 1019 93 10000 0.51 0 07:34 02.06.2022
3346 Fog 8 1019 91 3000 1.03 80 05:29 02.06.2022
3347 Clouds 9 1019 90 10000 1.54 160 03:45 02.06.2022
3348 Clouds 12 1019 78 10000 2.06 280 23:52 01.06.2022
3349 Clouds 13 1019 74 10000 1.54 310 22:54 01.06.2022
3350 Clouds 14 1019 76 10000 0.51 0 21:39 01.06.2022
3351 Clouds 15 1019 72 10000 1.03 220 21:19 01.06.2022
3352 Clouds 15 1019 72 10000 1.54 170 20:37 01.06.2022
3353 Clouds 17 1017 59 10000 3.09 330 19:31 01.06.2022
3354 Clouds 16 1018 65 10000 3.6 340 17:46 01.06.2022
3355 Clouds 16 1017 60 10000 3.09 280 16:40 01.06.2022
3356 Clouds 16 1016 59 10000 3.6 290 15:18 01.06.2022
3357 Clouds 15 1016 68 10000 0.45 315 13:54 01.06.2022
3358 Clouds 15 1015 68 10000 3.09 270 12:28 01.06.2022
3359 Clouds 11 1015 91 10000 2.06 250 09:48 01.06.2022
3360 Clouds 11 1015 94 10000 2.06 240 09:24 01.06.2022
3361 Mist 8 1014 94 4000 1.03 130 07:25 01.06.2022
3362 Fog 7 1013 93 250 1.03 0 06:30 01.06.2022
3363 Clouds 9 1014 89 10000 2.57 250 00:48 01.06.2022
3364 Clouds 10 1014 84 10000 2.57 290 23:30 31.05.2022
3365 Clouds 10 1014 84 10000 2.57 290 23:30 31.05.2022
3366 Clouds 11 1013 82 10000 2.57 270 22:37 31.05.2022
3367 Clouds 11 1013 78 10000 2.57 280 21:46 31.05.2022
3368 Clouds 12 1012 68 10000 4.63 280 20:46 31.05.2022
3369 Clouds 13 1012 67 10000 6.69 290 20:20 31.05.2022
3370 Clouds 13 1011 71 10000 6.69 300 18:53 31.05.2022
3371 Clouds 13 1011 71 10000 5.66 300 17:50 31.05.2022
3372 Clouds 14 1011 69 10000 7.2 280 17:18 31.05.2022
3373 Clouds 13 1010 69 10000 4.63 290 15:41 31.05.2022
3374 Clouds 13 1010 84 10000 3.09 290 14:18 31.05.2022
3375 Clouds 12 1009 83 10000 3.6 280 12:21 31.05.2022
3376 Clouds 11 1009 86 10000 4.12 260 10:55 31.05.2022
3377 Clouds 11 1009 86 10000 4.12 260 10:55 31.05.2022
3378 Clouds 10 1009 91 10000 2.06 220 09:31 31.05.2022
3379 Clouds 9 1009 93 10000 1.54 190 07:25 31.05.2022
3380 Clouds 9 1009 91 10000 0.51 0 05:20 31.05.2022
3381 Clouds 9 1010 90 10000 1.03 0 00:52 31.05.2022
3382 Clouds 10 1010 86 10000 1.03 150 23:27 30.05.2022
3383 Clouds 10 1010 85 10000 1.03 160 22:56 30.05.2022
3384 Clouds 10 1009 84 10000 1.03 200 21:52 30.05.2022
3385 Clouds 11 1009 83 10000 1.03 200 21:32 30.05.2022
3386 Rain 11 1009 79 10000 1.54 250 20:20 30.05.2022
3387 Clouds 12 1009 76 10000 3.6 260 18:41 30.05.2022
3388 Clouds 12 1010 80 10000 3.6 270 17:36 30.05.2022
3389 Clouds 11 1010 87 4000 3.6 290 16:41 30.05.2022
3390 Rain 11 1010 83 10000 4.12 270 14:49 30.05.2022
3391 Rain 11 1011 83 10000 3.6 230 12:24 30.05.2022
3392 Rain 10 1011 90 10000 2.57 210 10:41 30.05.2022
3393 Rain 9 1011 88 10000 2.06 220 09:21 30.05.2022
3394 Clouds 8 1012 90 10000 2.06 180 07:18 30.05.2022
3395 Clouds 9 1013 86 10000 2.06 200 05:49 30.05.2022
3396 Clouds 10 1016 81 10000 1.54 200 01:48 30.05.2022
3397 Clouds 11 1017 71 10000 1.03 80 23:19 29.05.2022
3398 Clouds 11 1017 70 10000 2.06 50 22:37 29.05.2022
3399 Clouds 13 1017 62 10000 2.24 11 20:55 29.05.2022
3400 Clouds 13 1018 61 10000 2.57 90 19:33 29.05.2022
3401 Clouds 14 1017 57 10000 3.09 10 18:53 29.05.2022
3402 Clouds 13 1019 56 10000 5.14 30 17:31 29.05.2022
3403 Clouds 13 1020 57 10000 2.57 10 15:48 29.05.2022
3404 Clouds 13 1020 58 10000 2.57 310 14:58 29.05.2022
3405 Clouds 13 1021 65 10000 2.57 280 13:53 29.05.2022
3406 Clouds 11 1021 65 10000 2.06 20 11:41 29.05.2022
3407 Clouds 10 1021 71 10000 4.12 40 10:38 29.05.2022
3408 Clouds 10 1022 74 10000 1.03 0 09:18 29.05.2022
3409 Clouds 9 1022 80 10000 1.54 60 06:18 29.05.2022
3410 Clouds 9 1022 79 7000 1.03 0 04:45 29.05.2022
3411 Clouds 9 1023 79 10000 2.57 50 03:47 29.05.2022
3412 Clouds 11 1024 81 10000 2.06 60 23:50 28.05.2022
3413 Clouds 11 1024 81 10000 2.06 60 23:50 28.05.2022
3414 Clouds 11 1024 77 10000 6.17 50 23:26 28.05.2022
3415 Rain 13 1024 58 10000 3.09 300 22:36 28.05.2022
3416 Clouds 14 1024 55 10000 3.6 320 21:38 28.05.2022
3417 Clouds 16 1024 55 10000 5.66 300 19:49 28.05.2022
3418 Clouds 16 1024 57 10000 5.66 310 18:50 28.05.2022
3419 Clouds 17 1025 55 10000 3.6 300 17:37 28.05.2022
3420 Clouds 17 1025 53 10000 3.6 280 16:38 28.05.2022
3421 Clouds 16 1025 54 10000 3.6 290 15:43 28.05.2022
3422 Clouds 16 1026 54 10000 4.12 280 14:23 28.05.2022
3423 Clouds 16 1025 55 10000 3.09 280 12:44 28.05.2022
3424 Clouds 15 1026 60 10000 1.03 0 12:18 28.05.2022
3425 Clouds 14 1026 65 10000 2.06 300 10:51 28.05.2022
3426 Clouds 12 1026 75 10000 2.06 310 09:57 28.05.2022
3427 Clouds 11 1026 86 10000 1.54 330 08:45 28.05.2022
3428 Clouds 8 1026 90 10000 1.54 190 07:23 28.05.2022
3429 Clouds 8 1026 88 10000 2.06 320 05:28 28.05.2022
3430 Clouds 9 1026 80 10000 1.54 240 02:44 28.05.2022
3431 Clouds 10 1026 74 10000 3.6 290 00:32 28.05.2022
3432 Clouds 11 1026 72 10000 4.63 300 22:51 27.05.2022
3433 Clouds 12 1025 69 10000 6.17 300 21:43 27.05.2022
3434 Clouds 13 1025 69 10000 7.2 300 20:49 27.05.2022
3435 Clouds 13 1025 67 10000 7.72 300 20:23 27.05.2022
3436 Clouds 13 1025 66 10000 6.17 300 19:42 27.05.2022
3437 Clouds 14 1025 64 10000 8.23 290 19:21 27.05.2022
3438 Clouds 14 1025 62 10000 7.2 290 17:52 27.05.2022
3439 Clouds 14 1025 62 10000 7.72 290 16:38 27.05.2022
3440 Clouds 15 1025 59 10000 6.69 290 15:22 27.05.2022
3441 Clouds 14 1024 62 10000 8.23 280 13:44 27.05.2022
3442 Clouds 13 1024 64 10000 7.72 270 12:35 27.05.2022
3443 Clouds 12 1024 65 10000 7.2 270 11:33 27.05.2022
3444 Clouds 12 1023 68 10000 7.2 280 10:54 27.05.2022
3445 Clouds 12 1023 69 10000 5.66 270 10:26 27.05.2022
3446 Clouds 12 1023 72 10000 5.14 270 09:32 27.05.2022
3447 Clouds 10 1022 74 10000 4.12 250 07:42 27.05.2022
3448 Clouds 10 1021 69 10000 4.63 280 05:32 27.05.2022
3449 Clouds 11 1021 71 10000 4.12 270 02:25 27.05.2022
3450 Clouds 12 1019 80 10000 1.34 230 00:19 27.05.2022
3451 Clouds 13 1018 74 10000 2.57 270 22:30 26.05.2022
3452 Clouds 14 1019 72 10000 4.63 270 21:34 26.05.2022
3453 Clouds 16 1017 72 10000 7.72 280 19:51 26.05.2022
3454 Clouds 16 1017 75 10000 6.69 270 19:19 26.05.2022
3455 Clouds 15 1017 87 4000 6.17 250 17:36 26.05.2022
3456 Clouds 15 1017 91 4000 5.66 270 16:36 26.05.2022
3457 Drizzle 16 1017 88 10000 6.69 250 15:41 26.05.2022
3458 Drizzle 16 1016 83 10000 9.26 240 14:21 26.05.2022
3459 Rain 15 1016 87 10000 9.26 240 12:35 26.05.2022
3460 Rain 14 1016 91 10000 4.63 210 11:21 26.05.2022
3461 Rain 12 1016 89 10000 4.12 210 09:40 26.05.2022
3462 Clouds 12 1016 82 10000 2.57 190 08:57 26.05.2022
3463 Clouds 12 1016 81 10000 2.57 210 07:38 26.05.2022
3464 Clouds 12 1016 82 10000 3.6 220 02:59 26.05.2022
3465 Clouds 13 1014 76 10000 3.09 230 00:21 26.05.2022
3466 Clouds 14 1013 73 10000 4.12 250 23:22 25.05.2022
3467 Clouds 15 1012 68 10000 4.12 260 21:47 25.05.2022
3468 Clouds 15 1012 68 10000 5.14 270 21:28 25.05.2022
3469 Clouds 16 1011 65 10000 8.23 270 19:59 25.05.2022
3470 Clouds 16 1010 65 10000 7.72 270 19:19 25.05.2022
3471 Clouds 16 1009 68 10000 7.2 270 17:30 25.05.2022
3472 Clouds 16 1008 67 10000 7.72 270 16:36 25.05.2022
3473 Clouds 16 1008 72 10000 8.75 270 15:53 25.05.2022
3474 Clouds 16 1007 72 10000 5.66 260 14:51 25.05.2022
3475 Clouds 15 1007 76 10000 5.66 260 14:32 25.05.2022
3476 Clouds 14 1006 90 10000 5.14 220 13:28 25.05.2022
3477 Rain 14 1006 90 10000 1.34 87 12:24 25.05.2022
3478 Clouds 13 1005 81 10000 5.14 210 10:42 25.05.2022
3479 Rain 11 1006 87 10000 4.12 190 09:53 25.05.2022
3480 Clouds 11 1006 88 10000 1.79 144 08:22 25.05.2022
3481 Clouds 11 1006 83 10000 2.24 101 06:45 25.05.2022
3482 Clouds 11 1008 79 10000 2.57 190 02:55 25.05.2022
3483 Clouds 11 1009 79 10000 2.57 220 23:52 24.05.2022
3484 Clouds 11 1008 72 10000 2.06 200 23:23 24.05.2022
3485 Clear 13 1007 63 10000 2.06 270 22:18 24.05.2022
3486 Clear 13 1008 61 10000 2.57 280 21:38 24.05.2022
3487 Clear 14 1007 58 10000 3.6 290 21:19 24.05.2022
3488 Clouds 15 1007 56 10000 6.17 270 19:32 24.05.2022
3489 Clouds 16 1006 52 10000 6.69 300 18:49 24.05.2022
3490 Clouds 16 1005 51 10000 7.72 280 16:40 24.05.2022
3491 Clouds 15 1005 59 10000 6.69 280 15:54 24.05.2022
3492 Clouds 15 1004 61 10000 5.66 290 14:45 24.05.2022
3493 Clouds 14 1004 63 10000 5.66 270 13:48 24.05.2022
3494 Clouds 14 1004 70 10000 6.17 270 12:42 24.05.2022
3495 Clouds 12 1002 81 10000 6.17 260 10:18 24.05.2022
3496 Clouds 11 1002 81 10000 4.63 290 09:41 24.05.2022
3497 Clouds 11 1001 82 10000 4.12 280 08:43 24.05.2022
3498 Clouds 10 1000 86 10000 3.6 290 06:45 24.05.2022
3499 Clouds 10 1000 87 10000 3.09 280 03:48 24.05.2022
3500 Clouds 11 999 85 10000 2.06 270 01:48 24.05.2022
3501 Clouds 11 1000 83 10000 3.6 280 00:57 24.05.2022
3502 Clouds 12 999 76 10000 2.57 290 22:29 23.05.2022
3503 Clouds 12 999 74 10000 3.6 300 21:53 23.05.2022
3504 Clouds 13 1000 74 10000 5.14 290 20:55 23.05.2022
3505 Clouds 14 999 67 10000 5.66 270 20:26 23.05.2022
3506 Clouds 14 1000 68 10000 5.14 280 19:31 23.05.2022
3507 Clouds 15 999 69 10000 4.63 290 18:42 23.05.2022
3508 Clouds 15 999 69 10000 4.12 290 18:22 23.05.2022
3509 Rain 14 1000 72 10000 4.12 300 16:51 23.05.2022
3510 Clouds 15 1000 70 10000 4.12 270 14:49 23.05.2022
3511 Clouds 16 1001 69 10000 2.57 250 12:30 23.05.2022
3512 Clouds 15 1001 69 10000 2.06 230 11:25 23.05.2022
3513 Clouds 13 1002 82 10000 2.57 210 09:49 23.05.2022
3514 Clouds 13 1002 84 10000 1.03 0 08:51 23.05.2022
3515 Clouds 12 1002 88 10000 1.54 190 07:46 23.05.2022
3516 Clouds 11 1002 88 10000 2.57 200 06:43 23.05.2022
3517 Clouds 11 1004 86 10000 2.06 190 04:43 23.05.2022
3518 Clouds 13 1006 90 10000 2.06 180 02:19 23.05.2022
3519 Clouds 13 1006 92 10000 1.54 180 01:34 23.05.2022
3520 Clouds 14 1007 84 10000 2.57 200 23:42 22.05.2022
3521 Clouds 15 1007 84 10000 3.6 210 22:34 22.05.2022
3522 Clouds 16 1006 76 10000 4.63 260 21:54 22.05.2022
3523 Rain 17 1007 71 10000 4.12 210 20:51 22.05.2022
3524 Clouds 18 1007 69 10000 4.12 210 20:23 22.05.2022
3525 Clouds 18 1008 69 10000 4.12 210 19:54 22.05.2022
3526 Clouds 18 1008 69 10000 4.12 210 19:54 22.05.2022
3527 Clouds 19 1007 66 10000 4.63 220 18:53 22.05.2022
3528 Clouds 19 1009 68 10000 5.14 220 18:24 22.05.2022
3529 Clouds 19 1009 65 10000 3.6 210 17:28 22.05.2022
3530 Clouds 19 1010 66 10000 3.6 200 15:59 22.05.2022
3531 Clouds 18 1010 68 10000 2.57 0 14:48 22.05.2022
3532 Clouds 18 1011 69 10000 3.6 200 13:27 22.05.2022
3533 Clouds 18 1011 68 10000 3.6 190 12:50 22.05.2022
3534 Clouds 16 1012 76 10000 3.6 210 11:32 22.05.2022
3535 Clouds 14 1013 81 10000 2.06 170 09:41 22.05.2022
3536 Clouds 13 1013 80 10000 2.57 180 08:21 22.05.2022
3537 Clouds 12 1014 81 10000 2.06 180 07:21 22.05.2022
3538 Clouds 12 1015 78 10000 2.57 190 05:22 22.05.2022
3539 Clouds 12 1016 78 10000 2.06 170 01:26 22.05.2022
3540 Clouds 12 1016 72 10000 2.57 210 00:39 22.05.2022
3541 Clouds 13 1018 71 10000 2.06 220 23:50 21.05.2022
3542 Clouds 15 1017 65 10000 2.06 240 22:26 21.05.2022
3543 Clouds 15 1018 68 10000 1.54 230 21:41 21.05.2022
3544 Clouds 17 1018 64 10000 2.06 210 20:51 21.05.2022
3545 Clouds 17 1018 66 10000 1.54 200 20:21 21.05.2022
3546 Clouds 17 1017 63 10000 2.57 250 19:25 21.05.2022
3547 Clouds 17 1019 62 10000 3.6 270 17:47 21.05.2022
3548 Clouds 17 1018 61 10000 5.14 240 15:44 21.05.2022
3549 Clouds 17 1019 62 10000 6.17 240 14:37 21.05.2022
3550 Clouds 16 1018 64 10000 5.66 230 13:41 21.05.2022
3551 Clouds 16 1019 66 10000 3.6 220 12:41 21.05.2022
3552 Clouds 14 1019 73 10000 3.6 250 11:56 21.05.2022
3553 Clouds 13 1019 79 10000 2.57 210 10:22 21.05.2022
3554 Clouds 12 1019 84 10000 2.06 200 09:38 21.05.2022
3555 Clouds 12 1018 85 10000 0.89 256 08:52 21.05.2022
3556 Clouds 11 1017 88 10000 0.45 315 06:28 21.05.2022
3557 Clouds 12 1016 92 10000 4.12 220 02:26 21.05.2022
3558 Clouds 12 1014 87 10000 4.12 230 23:47 20.05.2022
3559 Clouds 13 1014 87 10000 4.63 230 22:42 20.05.2022
3560 Clouds 13 1013 88 10000 3.09 230 22:23 20.05.2022
3561 Clouds 14 1013 83 10000 7.2 240 21:32 20.05.2022
3562 Clouds 14 1012 83 10000 8.23 230 20:53 20.05.2022
3563 Clouds 14 1012 83 10000 2.06 190 19:56 20.05.2022
3564 Rain 14 1012 82 10000 1.03 0 18:59 20.05.2022
3565 Rain 14 1012 79 10000 2.06 230 18:27 20.05.2022
3566 Clouds 17 1014 67 10000 3.6 220 16:51 20.05.2022
3567 Clouds 15 1014 71 10000 3.6 210 15:57 20.05.2022
3568 Clouds 15 1014 71 10000 3.6 210 15:39 20.05.2022
3569 Clouds 15 1015 71 10000 4.63 210 14:29 20.05.2022
3570 Clouds 15 1014 72 10000 4.12 210 13:44 20.05.2022
3571 Clouds 14 1016 69 10000 2.57 200 10:56 20.05.2022
3572 Clouds 13 1016 73 10000 2.06 180 09:50 20.05.2022
3573 Clouds 11 1017 82 10000 1.54 190 08:38 20.05.2022
3574 Clouds 10 1016 83 10000 1.54 150 06:45 20.05.2022
3575 Clouds 10 1017 83 10000 1.03 0 05:53 20.05.2022
3576 Clouds 10 1018 81 10000 1.54 160 03:53 20.05.2022
3577 Clouds 13 1019 65 10000 1.54 310 23:54 19.05.2022
3578 Clouds 14 1019 61 10000 2.57 300 22:44 19.05.2022
3579 Clouds 15 1019 59 10000 1.86 279 21:53 19.05.2022
3580 Clouds 16 1018 53 10000 2.57 300 21:24 19.05.2022
3581 Clouds 17 1018 52 10000 3.09 300 20:54 19.05.2022
3582 Clouds 18 1018 50 10000 3.6 280 20:20 19.05.2022
3583 Clouds 19 1017 46 10000 2.06 220 19:25 19.05.2022
3584 Clouds 19 1018 45 10000 2.57 240 17:47 19.05.2022
3585 Clouds 19 1018 45 10000 2.57 240 17:47 19.05.2022
3586 Clouds 19 1018 47 10000 2.06 0 16:22 19.05.2022
3587 Clouds 17 1018 55 10000 3.09 290 14:50 19.05.2022
3588 Clouds 17 1019 58 10000 2.57 260 14:21 19.05.2022
3589 Clouds 17 1019 58 10000 2.57 260 14:21 19.05.2022
3590 Clouds 14 1018 71 10000 3.09 260 12:19 19.05.2022
3591 Clouds 13 1016 83 10000 2.57 260 10:31 19.05.2022
3592 Clouds 12 1015 92 10000 2.06 210 08:46 19.05.2022
3593 Clouds 11 1015 94 10000 1.54 190 07:33 19.05.2022
3594 Clouds 11 1014 91 10000 2.06 200 04:23 19.05.2022
3595 Clouds 13 1014 88 10000 2.57 180 01:28 19.05.2022
3596 Clouds 13 1014 86 10000 3.09 200 23:43 18.05.2022
3597 Clouds 14 1014 78 10000 3.6 190 22:44 18.05.2022
3598 Rain 16 1015 78 10000 4.76 177 21:45 18.05.2022
3599 Rain 17 1013 64 10000 1.54 140 21:24 18.05.2022
3600 Clouds 18 1013 59 10000 2.06 160 20:22 18.05.2022
3601 Clouds 19 1014 57 10000 2.06 170 19:18 18.05.2022
3602 Clouds 19 1015 54 10000 3.6 180 18:18 18.05.2022
3603 Clouds 20 1015 52 10000 3.6 190 17:40 18.05.2022
3604 Clouds 20 1016 52 10000 4.12 180 17:22 18.05.2022
3605 Clouds 20 1016 51 10000 2.68 97 15:58 18.05.2022
3606 Clouds 20 1016 53 10000 4.63 170 15:35 18.05.2022
3607 Clouds 19 1018 58 10000 2.57 190 14:25 18.05.2022
3608 Clouds 18 1018 60 10000 3.09 190 12:58 18.05.2022
3609 Clouds 17 1018 62 10000 1.34 107 12:25 18.05.2022
3610 Clouds 17 1018 63 10000 3.6 210 11:33 18.05.2022
3611 Clouds 16 1018 66 10000 2.57 220 10:48 18.05.2022
3612 Clouds 12 1017 84 10000 1.79 135 08:25 18.05.2022
3613 Clouds 11 1016 86 10000 1.54 0 07:27 18.05.2022
3614 Clouds 11 1015 88 10000 2.57 180 04:26 18.05.2022
3615 Clouds 13 1014 80 10000 4.12 220 00:51 18.05.2022
3616 Clouds 16 1013 89 10000 4.12 190 23:41 17.05.2022
3617 Clouds 18 1011 84 10000 4.12 180 21:23 17.05.2022
3618 Clouds 18 1010 82 10000 3.09 180 20:44 17.05.2022
3619 Clouds 20 1010 60 10000 3.6 140 19:45 17.05.2022
3620 Clouds 21 1011 63 10000 3.6 130 19:24 17.05.2022
3621 Clouds 22 1011 59 10000 3.6 0 17:49 17.05.2022
3622 Clouds 22 1013 58 10000 3.6 170 16:57 17.05.2022
3623 Clouds 22 1013 58 10000 4.12 180 15:59 17.05.2022
3624 Clouds 21 1014 62 10000 3.6 190 14:55 17.05.2022
3625 Clouds 20 1014 62 10000 2.57 180 14:28 17.05.2022
3626 Clouds 20 1015 64 10000 3.13 142 13:24 17.05.2022
3627 Clouds 17 1016 74 10000 3.09 180 10:42 17.05.2022
3628 Clouds 14 1016 87 10000 2.06 170 08:51 17.05.2022
3629 Clouds 12 1016 91 10000 2.06 160 07:55 17.05.2022
3630 Clouds 12 1015 91 10000 1.54 0 06:23 17.05.2022
3631 Clouds 12 1015 91 10000 1.03 130 01:23 17.05.2022
3632 Clouds 13 1014 89 10000 1.54 180 23:46 16.05.2022
3633 Clouds 15 1014 84 10000 1.03 0 22:39 16.05.2022
3634 Clouds 16 1013 85 10000 3.09 220 21:24 16.05.2022
3635 Clouds 17 1013 80 10000 4.63 210 20:42 16.05.2022
3636 Rain 19 1011 80 10000 0.51 0 18:51 16.05.2022
3637 Clouds 20 1012 64 10000 2.06 0 17:18 16.05.2022
3638 Clouds 19 1012 72 10000 3.09 180 15:35 16.05.2022
3639 Clouds 18 1012 87 10000 2.06 180 13:48 16.05.2022
3640 Clouds 15 1011 94 10000 1.54 170 12:41 16.05.2022
3641 Clouds 14 1010 88 9000 1.54 200 10:36 16.05.2022
3642 Clouds 13 1009 92 10000 1.54 90 07:59 16.05.2022
3643 Clouds 13 1009 88 10000 2.57 90 05:46 16.05.2022
3644 Rain 13 1011 91 7000 3.6 80 01:43 16.05.2022
3645 Clouds 16 1012 73 10000 2.57 90 22:44 15.05.2022
3646 Clouds 17 1012 72 10000 2.57 120 21:59 15.05.2022
3647 Clouds 17 1013 73 10000 2.57 120 21:36 15.05.2022
3648 Clouds 17 1013 71 10000 2.06 110 20:47 15.05.2022
3649 Clouds 19 1013 63 10000 2.57 110 18:46 15.05.2022
3650 Clouds 20 1014 62 10000 3.6 120 16:54 15.05.2022
3651 Clouds 21 1015 52 10000 3.6 0 14:34 15.05.2022
3652 Clouds 18 1016 55 10000 3.6 80 13:46 15.05.2022
3653 Clouds 15 1017 67 10000 2.06 0 11:59 15.05.2022
3654 Clouds 15 1017 67 10000 1.54 120 10:49 15.05.2022
3655 Clouds 14 1017 77 10000 1.54 100 09:51 15.05.2022
3656 Clouds 14 1017 75 10000 2.06 90 07:23 15.05.2022
3657 Clouds 13 1017 77 10000 1.82 97 06:55 15.05.2022
3658 Clouds 14 1017 72 10000 1.03 0 02:55 15.05.2022
3659 Clear 15 1018 66 10000 1.54 110 00:24 15.05.2022
3660 Clear 15 1019 66 10000 1.54 90 23:36 14.05.2022
3661 Clear 16 1019 70 10000 0.93 94 21:50 14.05.2022
3662 Clear 19 1018 54 10000 1.03 50 21:25 14.05.2022
3663 Clouds 21 1019 46 10000 1.03 0 20:26 14.05.2022
3664 Clouds 21 1019 46 10000 1.54 220 19:20 14.05.2022
3665 Clouds 21 1019 49 10000 1.54 250 18:57 14.05.2022
3666 Clouds 21 1019 48 10000 1.54 270 17:44 14.05.2022
3667 Haze 21 1020 49 2900 1.54 0 15:58 14.05.2022
3668 Clouds 19 1021 56 10000 1.54 0 14:38 14.05.2022
3669 Clouds 19 1021 56 10000 1.54 0 14:38 14.05.2022
3670 Clouds 18 1020 59 10000 2.57 260 13:27 14.05.2022
3671 Clouds 16 1020 68 10000 2.57 260 11:45 14.05.2022
3672 Clouds 15 1020 74 10000 3.09 270 10:43 14.05.2022
3673 Clouds 14 1020 76 10000 2.06 230 10:18 14.05.2022
3674 Clouds 13 1020 85 10000 1.54 190 09:23 14.05.2022
3675 Clouds 11 1019 89 10000 1.54 170 07:26 14.05.2022
3676 Clouds 11 1018 86 10000 2.57 190 04:32 14.05.2022
3677 Clouds 12 1018 80 10000 0.45 238 00:27 14.05.2022
3678 Clouds 13 1018 77 10000 3.37 240 23:25 13.05.2022
3679 Clouds 13 1018 75 10000 2.06 200 22:54 13.05.2022
3680 Clouds 14 1017 73 10000 2.06 210 22:21 13.05.2022
3681 Clouds 16 1017 62 10000 5.66 250 20:58 13.05.2022
3682 Clouds 16 1017 60 10000 6.17 240 20:32 13.05.2022
3683 Clouds 17 1016 58 10000 6.17 250 19:51 13.05.2022
3684 Clouds 17 1016 55 10000 7.2 250 18:47 13.05.2022
3685 Clouds 17 1015 57 10000 8.23 250 17:29 13.05.2022
3686 Clouds 17 1015 59 10000 9.26 240 16:29 13.05.2022
3687 Clouds 17 1015 60 10000 8.75 240 15:45 13.05.2022
3688 Clouds 16 1015 57 10000 7.72 250 14:29 13.05.2022
3689 Clouds 15 1015 60 10000 7.2 240 12:47 13.05.2022
3690 Clouds 14 1015 64 10000 6.69 240 11:39 13.05.2022
3691 Clouds 12 1015 71 10000 3.6 220 09:43 13.05.2022
3692 Clouds 12 1015 73 10000 5.14 230 08:51 13.05.2022
3693 Clouds 11 1014 75 10000 4.63 220 07:49 13.05.2022
3694 Clouds 11 1014 74 10000 4.12 210 06:44 13.05.2022
3695 Clouds 11 1014 75 10000 4.12 220 04:54 13.05.2022
3696 Clouds 11 1014 76 10000 4.12 210 00:42 13.05.2022
3697 Clouds 12 1013 68 10000 3.6 210 22:47 12.05.2022
3698 Clouds 12 1013 68 10000 3.6 210 22:29 12.05.2022
3699 Clouds 13 1014 59 10000 5.14 220 20:41 12.05.2022
3700 Clouds 14 1014 52 10000 6.69 250 19:24 12.05.2022
3701 Clouds 15 1014 52 10000 6.69 250 18:19 12.05.2022
3702 Clouds 15 1015 49 10000 8.23 250 16:34 12.05.2022
3703 Clouds 15 1016 58 10000 4.63 260 14:51 12.05.2022
3704 Clouds 14 1016 57 10000 6.17 260 13:47 12.05.2022
3705 Clouds 12 1016 79 10000 6.17 260 11:25 12.05.2022
3706 Clouds 11 1015 81 10000 3.6 230 09:37 12.05.2022
3707 Clouds 10 1015 84 10000 2.57 200 08:52 12.05.2022
3708 Clouds 9 1014 88 10000 2.06 180 07:57 12.05.2022
3709 Clouds 8 1014 87 10000 2.06 180 06:55 12.05.2022
3710 Clouds 9 1013 84 10000 2.06 170 03:31 12.05.2022
3711 Clear 10 1012 77 10000 2.06 180 00:41 12.05.2022
3712 Clear 11 1010 71 10000 0.45 18 22:41 11.05.2022
3713 Clear 12 1010 66 10000 2.57 250 21:56 11.05.2022
3714 Clear 13 1009 60 10000 3.6 280 21:24 11.05.2022
3715 Clouds 14 1008 58 10000 7.2 280 19:42 11.05.2022
3716 Clouds 14 1005 64 10000 9.26 280 17:24 11.05.2022
3717 Clouds 14 1005 78 10000 3.6 250 15:59 11.05.2022
3718 Rain 13 1004 86 10000 3.09 230 14:39 11.05.2022
3719 Clouds 13 1004 86 10000 3.09 230 14:39 11.05.2022
3720 Clouds 12 1004 90 10000 2.57 230 14:19 11.05.2022
3721 Rain 11 1005 92 6000 2.57 200 11:55 11.05.2022
3722 Rain 11 1005 93 10000 2.57 190 11:30 11.05.2022
3723 Rain 11 1004 92 9000 3.6 210 08:55 11.05.2022
3724 Rain 11 1005 78 10000 3.09 200 05:45 11.05.2022
3725 Clouds 12 1008 67 10000 4.12 210 01:28 11.05.2022
3726 Clouds 13 1010 56 10000 5.14 230 22:32 10.05.2022
3727 Clouds 14 1009 56 10000 5.66 220 21:58 10.05.2022
3728 Clouds 14 1010 55 10000 4.12 230 20:58 10.05.2022
3729 Clouds 15 1011 51 10000 5.66 250 20:21 10.05.2022
3730 Clouds 17 1011 46 10000 10.29 230 18:35 10.05.2022
3731 Clouds 17 1010 50 10000 8.75 230 17:37 10.05.2022
3732 Clouds 17 1010 59 10000 9.26 240 15:43 10.05.2022
3733 Clouds 15 1010 71 10000 1.34 131 12:48 10.05.2022
3734 Clouds 15 1010 67 10000 5.14 220 11:51 10.05.2022
3735 Clouds 15 1011 72 10000 4.63 220 11:21 10.05.2022
3736 Clouds 14 1010 70 10000 4.63 210 10:54 10.05.2022
3737 Clouds 13 1010 70 10000 5.14 230 09:27 10.05.2022
3738 Clouds 12 1010 74 10000 5.14 220 07:32 10.05.2022
3739 Clouds 13 1010 81 10000 4.12 210 04:34 10.05.2022
3740 Clouds 14 1012 69 10000 4.63 200 01:36 10.05.2022
3741 Clouds 15 1013 66 10000 4.63 200 23:37 09.05.2022
3742 Clouds 15 1013 60 10000 5.14 210 22:29 09.05.2022
3743 Rain 16 1013 59 10000 7.2 210 21:21 09.05.2022
3744 Clouds 17 1014 64 10000 3.09 200 19:37 09.05.2022
3745 Clear 17 1015 61 10000 3.58 141 17:56 09.05.2022
3746 Clouds 17 1016 60 10000 4.12 180 16:49 09.05.2022
3747 Clouds 17 1017 58 10000 3.6 190 15:53 09.05.2022
3748 Rain 17 1017 56 10000 3.09 180 15:31 09.05.2022
3749 Clouds 17 1018 52 10000 4.12 180 14:32 09.05.2022
3750 Clouds 18 1018 55 10000 4.63 190 13:50 09.05.2022
3751 Clouds 17 1020 55 10000 4.12 190 12:30 09.05.2022
3752 Clouds 16 1020 52 10000 3.09 180 11:43 09.05.2022
3753 Clouds 15 1021 57 10000 3.09 170 10:44 09.05.2022
3754 Clouds 14 1021 66 10000 2.06 160 09:38 09.05.2022
3755 Clouds 11 1023 77 10000 2.06 170 07:54 09.05.2022
3756 Clouds 12 1024 72 10000 2.57 180 03:40 09.05.2022
3757 Clouds 14 1025 68 10000 2.06 130 00:20 09.05.2022
3758 Clouds 14 1026 69 10000 1.54 130 22:56 08.05.2022
3759 Clouds 15 1026 68 10000 0.51 0 21:56 08.05.2022
3760 Clear 17 1026 60 10000 2.57 200 20:37 08.05.2022
3761 Clouds 18 1026 56 10000 2.06 190 19:45 08.05.2022
3762 Clouds 19 1026 59 10000 2.57 170 18:54 08.05.2022
3763 Clouds 19 1026 57 10000 3.09 190 18:18 08.05.2022
3764 Clouds 18 1027 61 10000 2.57 190 16:56 08.05.2022
3765 Clouds 16 1028 64 10000 1.54 0 15:40 08.05.2022
3766 Clouds 15 1028 68 10000 2.06 0 14:57 08.05.2022
3767 Clouds 13 1029 70 10000 2.57 160 12:33 08.05.2022
3768 Clouds 12 1029 72 10000 1.54 130 10:32 08.05.2022
3769 Clouds 11 1029 75 10000 1.03 0 09:58 08.05.2022
3770 Clouds 11 1029 75 10000 1.03 0 09:58 08.05.2022
3771 Clouds 10 1029 79 10000 0.51 0 08:57 08.05.2022
3772 Clouds 8 1028 83 10000 1.03 70 07:25 08.05.2022
3773 Clouds 9 1028 70 10000 1.03 0 03:40 08.05.2022
3774 Clouds 9 1028 69 10000 2.06 70 02:47 08.05.2022
3775 Clouds 11 1028 74 10000 2.57 80 00:28 08.05.2022
3776 Clouds 12 1028 75 10000 2.57 90 23:50 07.05.2022
3777 Clouds 12 1028 76 10000 2.57 80 22:46 07.05.2022
3778 Clouds 13 1027 75 10000 3.09 80 21:59 07.05.2022
3779 Clouds 13 1027 74 10000 3.09 80 21:34 07.05.2022
3780 Clouds 15 1027 70 10000 3.6 80 20:28 07.05.2022
3781 Clouds 16 1027 65 10000 2.06 80 19:23 07.05.2022
3782 Clouds 16 1027 63 10000 2.57 60 17:35 07.05.2022
3783 Clouds 17 1027 60 10000 2.57 310 15:46 07.05.2022
3784 Clouds 16 1027 63 10000 1.03 0 13:39 07.05.2022
3785 Clouds 13 1026 89 10000 1.54 310 10:41 07.05.2022
3786 Clouds 10 1026 95 10000 2.57 290 08:57 07.05.2022
3787 Clouds 10 1025 97 8000 2.06 280 07:50 07.05.2022
3788 Mist 9 1025 94 5000 2.06 290 06:43 07.05.2022
3789 Mist 10 1024 96 4900 1.54 280 04:35 07.05.2022
3790 Clouds 12 1023 95 10000 3.09 320 01:19 07.05.2022
3791 Clouds 12 1022 95 4900 0.51 190 23:36 06.05.2022
3792 Clouds 13 1022 95 6000 1.03 0 22:26 06.05.2022
3793 Rain 13 1022 93 10000 1.54 190 21:41 06.05.2022
3794 Rain 13 1022 92 9000 1.54 200 20:24 06.05.2022
3795 Rain 13 1022 91 10000 2.57 220 19:29 06.05.2022
3796 Rain 13 1022 91 10000 2.57 220 19:29 06.05.2022
3797 Rain 14 1022 89 7000 3.09 220 18:54 06.05.2022
3798 Rain 15 1022 77 10000 6.17 240 17:38 06.05.2022
3799 Clouds 16 1022 71 10000 4.63 230 15:56 06.05.2022
3800 Clouds 16 1022 72 10000 4.63 230 15:38 06.05.2022
3801 Clouds 16 1022 71 10000 7.72 250 14:23 06.05.2022
3802 Clouds 16 1022 71 10000 4.63 220 12:53 06.05.2022
3803 Clouds 16 1023 75 10000 3.6 230 12:30 06.05.2022
3804 Clouds 15 1022 75 10000 2.57 220 11:33 06.05.2022
3805 Clouds 13 1023 77 10000 3.09 190 09:49 06.05.2022
3806 Clouds 12 1023 79 10000 2.06 190 09:19 06.05.2022
3807 Clouds 12 1023 83 10000 2.57 180 07:56 06.05.2022
3808 Clouds 11 1024 84 10000 2.06 190 06:29 06.05.2022
3809 Clouds 12 1023 84 10000 2.06 170 04:32 06.05.2022
3810 Clouds 12 1023 83 10000 0.51 0 02:40 06.05.2022
3811 Clouds 12 1024 75 10000 1.03 280 23:25 05.05.2022
3812 Clouds 14 1025 72 10000 1.54 270 21:51 05.05.2022
3813 Clouds 16 1024 67 10000 4.63 290 20:37 05.05.2022
3814 Clouds 17 1024 68 10000 4.63 280 19:20 05.05.2022
3815 Clouds 18 1024 59 10000 3.09 290 16:49 05.05.2022
3816 Clouds 18 1023 58 10000 4.12 290 15:46 05.05.2022
3817 Clouds 17 1023 63 10000 3.6 270 13:41 05.05.2022
3818 Clouds 16 1023 67 10000 3.09 270 13:18 05.05.2022
3819 Clouds 14 1023 73 10000 2.57 260 11:42 05.05.2022
3820 Clouds 12 1023 88 10000 2.06 240 09:46 05.05.2022
3821 Clouds 11 1022 93 10000 1.03 0 08:54 05.05.2022
3822 Clouds 9 1021 92 10000 2.57 290 06:28 05.05.2022
3823 Clouds 9 1020 84 10000 1.54 310 02:27 05.05.2022
3824 Clouds 9 1020 85 10000 2.06 280 01:44 05.05.2022
3825 Clouds 10 1020 84 10000 1.03 0 00:49 05.05.2022
3826 Clouds 10 1020 82 10000 1.34 325 23:18 04.05.2022
3827 Clouds 11 1019 79 10000 5.14 280 21:59 04.05.2022
3828 Clouds 12 1019 78 10000 5.14 280 21:34 04.05.2022
3829 Clouds 12 1018 75 10000 4.12 280 20:52 04.05.2022
3830 Clouds 12 1018 72 10000 3.6 290 20:18 04.05.2022
3831 Clouds 12 1018 74 10000 4.12 290 19:35 04.05.2022
3832 Clouds 12 1017 82 10000 5.66 290 18:42 04.05.2022
3833 Clouds 12 1017 85 10000 6.69 290 18:18 04.05.2022
3834 Clouds 13 1018 84 10000 6.69 290 16:36 04.05.2022
3835 Clouds 12 1017 89 9000 5.66 290 15:32 04.05.2022
3836 Clouds 13 1017 89 10000 6.69 280 14:41 04.05.2022
3837 Clouds 13 1016 91 10000 6.17 280 14:19 04.05.2022
3838 Clouds 12 1016 95 10000 2.57 230 12:39 04.05.2022
3839 Rain 12 1016 95 7000 2.06 200 11:28 04.05.2022
3840 Clouds 11 1016 97 4500 2.06 190 09:57 04.05.2022
3841 Clouds 10 1016 95 5000 1.54 180 09:20 04.05.2022
3842 Clouds 10 1016 95 4000 1.03 0 07:51 04.05.2022
3843 Rain 11 1017 90 4700 2.06 190 04:45 04.05.2022
3844 Clouds 11 1017 87 8000 1.03 0 02:33 04.05.2022
3845 Clouds 12 1019 84 10000 1.03 170 22:59 03.05.2022
3846 Clouds 13 1018 79 10000 1.54 200 21:50 03.05.2022
3847 Clouds 13 1019 80 10000 1.54 210 21:23 03.05.2022
3848 Clouds 14 1020 75 10000 1.54 200 20:39 03.05.2022
3849 Clouds 14 1020 73 10000 1.54 170 19:32 03.05.2022
3850 Clouds 14 1020 77 10000 1.54 180 18:43 03.05.2022
3851 Clouds 14 1020 72 10000 1.54 180 17:21 03.05.2022
3852 Clouds 14 1020 74 10000 1.54 0 15:51 03.05.2022
3853 Clouds 13 1021 74 10000 2.06 180 14:23 03.05.2022
3854 Clouds 12 1021 80 10000 1.03 0 12:35 03.05.2022
3855 Clouds 10 1022 83 10000 1.34 137 11:24 03.05.2022
3856 Clouds 9 1022 84 10000 0.51 0 10:26 03.05.2022
3857 Clouds 9 1021 87 10000 0.51 70 08:19 03.05.2022
3858 Clouds 8 1021 89 10000 0.51 60 06:45 03.05.2022
3859 Clouds 9 1022 94 6000 2.06 60 01:59 03.05.2022
3860 Rain 11 1022 90 4000 3.6 50 22:56 02.05.2022
3861 Rain 12 1022 88 7000 2.57 50 22:28 02.05.2022
3862 Clouds 12 1021 90 10000 4.63 30 21:27 02.05.2022
3863 Clouds 14 1020 78 10000 2.57 310 19:22 02.05.2022
3864 Clouds 15 1020 74 10000 2.06 310 18:25 02.05.2022
3865 Clouds 14 1021 77 10000 3.09 310 17:38 02.05.2022
3866 Clouds 15 1020 72 10000 2.57 300 16:37 02.05.2022
3867 Clouds 15 1021 70 10000 2.06 330 15:41 02.05.2022
3868 Clouds 15 1022 76 10000 2.06 280 14:27 02.05.2022
3869 Clouds 15 1021 77 8000 1.54 320 13:19 02.05.2022
3870 Clouds 13 1021 83 9000 0.51 0 11:41 02.05.2022
3871 Clouds 12 1020 90 8000 0.51 0 09:32 02.05.2022
3872 Clouds 11 1020 91 6000 0.51 110 07:57 02.05.2022
3873 Clouds 10 1021 91 7000 0.51 0 06:31 02.05.2022
3874 Clouds 12 1020 85 10000 1.03 170 00:44 02.05.2022
3875 Clouds 12 1020 84 10000 1.03 0 00:21 02.05.2022
3876 Clouds 12 1020 82 10000 1.03 180 22:53 01.05.2022
3877 Clouds 12 1021 82 10000 0.51 0 21:41 01.05.2022
3878 Clouds 13 1020 77 10000 1.54 200 20:30 01.05.2022
3879 Clouds 13 1020 77 10000 2.06 190 19:21 01.05.2022
3880 Clouds 13 1020 75 10000 2.06 200 18:52 01.05.2022
3881 Clouds 13 1020 75 10000 2.06 190 17:49 01.05.2022
3882 Clouds 14 1020 74 10000 3.6 180 16:29 01.05.2022
3883 Clouds 13 1021 75 10000 2.06 200 15:46 01.05.2022
3884 Clouds 13 1021 76 10000 1.54 160 14:45 01.05.2022
3885 Clouds 11 1022 90 10000 2.06 200 12:24 01.05.2022
3886 Clouds 9 1021 91 10000 0.45 103 10:22 01.05.2022
3887 Rain 8 1021 94 7000 2.57 180 08:49 01.05.2022
3888 Drizzle 8 1021 95 2200 1.54 190 06:31 01.05.2022
3889 Clouds 9 1024 87 10000 1.03 0 01:56 01.05.2022
3890 Rain 11 1025 76 10000 1.54 280 22:18 30.04.2022
3891 Rain 11 1024 74 10000 3.09 320 21:32 30.04.2022
3892 Clouds 13 1026 65 10000 3.6 300 19:53 30.04.2022
3893 Clouds 14 1026 51 10000 5.14 300 18:53 30.04.2022
3894 Clouds 15 1027 50 10000 3.6 230 17:26 30.04.2022
3895 Clouds 16 1028 46 10000 3.6 220 15:51 30.04.2022
3896 Clouds 16 1028 48 10000 4.12 210 15:18 30.04.2022
3897 Clouds 16 1029 48 10000 3.6 230 13:52 30.04.2022
3898 Clouds 14 1030 56 10000 2.06 210 11:41 30.04.2022
3899 Clouds 12 1030 60 10000 1.54 210 10:56 30.04.2022
3900 Clouds 10 1030 67 10000 1.54 190 09:54 30.04.2022
3901 Clouds 4 1030 84 10000 1.03 110 07:47 30.04.2022
3902 Clear 5 1031 81 10000 1.03 0 03:58 30.04.2022
3903 Clear 9 1032 66 10000 1.54 110 23:55 29.04.2022
3904 Clear 10 1031 59 10000 1.54 90 22:37 29.04.2022
3905 Clear 11 1032 56 10000 1.54 100 21:56 29.04.2022
3906 Clear 13 1031 51 10000 2.06 100 21:24 29.04.2022
3907 Clouds 14 1031 44 10000 1.54 120 19:55 29.04.2022
3908 Clear 15 1031 43 10000 2.57 120 19:26 29.04.2022
3909 Clear 16 1031 42 10000 2.06 120 17:34 29.04.2022
3910 Clear 16 1032 44 10000 1.03 0 16:36 29.04.2022
3911 Clear 14 1033 48 10000 2.06 60 14:34 29.04.2022
3912 Clouds 14 1033 48 10000 2.57 20 13:36 29.04.2022
3913 Clouds 12 1034 52 10000 2.06 0 12:36 29.04.2022
3914 Clear 10 1032 62 10000 1.54 80 10:29 29.04.2022
3915 Clouds 5 1032 86 10000 1.03 80 07:52 29.04.2022
3916 Clouds 5 1032 86 10000 1.54 60 07:25 29.04.2022
3917 Clouds 5 1032 82 10000 1.54 50 06:29 29.04.2022
3918 Clouds 8 1032 72 10000 1.54 90 00:52 29.04.2022
3919 Clouds 9 1032 70 10000 1.03 80 23:55 28.04.2022
3920 Clouds 9 1032 68 10000 1.03 0 23:25 28.04.2022
3921 Clouds 9 1032 65 10000 1.03 0 22:19 28.04.2022
3922 Clouds 9 1032 64 10000 1.03 0 21:41 28.04.2022
3923 Clouds 10 1032 65 10000 2.06 80 20:43 28.04.2022
3924 Clouds 10 1031 62 10000 2.06 90 19:49 28.04.2022
3925 Clouds 10 1032 63 10000 2.57 80 19:24 28.04.2022
3926 Clouds 10 1031 63 10000 2.57 70 18:45 28.04.2022
3927 Clouds 10 1032 60 10000 2.06 90 17:32 28.04.2022
3928 Clouds 10 1032 61 10000 2.06 110 16:50 28.04.2022
3929 Clouds 10 1032 60 10000 2.06 0 16:20 28.04.2022
3930 Clouds 10 1032 59 10000 2.06 0 16:20 28.04.2022
3931 Clouds 10 1032 59 10000 2.57 90 15:41 28.04.2022
3932 Clouds 10 1032 59 10000 2.57 80 14:55 28.04.2022
3933 Clouds 10 1032 59 10000 2.06 70 13:23 28.04.2022
3934 Clouds 9 1032 63 10000 3.09 60 12:28 28.04.2022
3935 Clouds 8 1032 63 10000 3.09 50 10:51 28.04.2022
3936 Clouds 8 1032 64 10000 2.06 60 10:26 28.04.2022
3937 Clouds 8 1032 65 10000 1.54 60 09:41 28.04.2022
3938 Clouds 7 1031 69 10000 1.54 60 07:38 28.04.2022
3939 Clouds 6 1032 68 10000 1.54 70 06:37 28.04.2022
3940 Clouds 6 1032 68 10000 1.03 0 05:39 28.04.2022
3941 Clouds 6 1032 65 10000 1.03 90 04:41 28.04.2022
3942 Clouds 7 1032 63 10000 2.57 80 00:36 28.04.2022
3943 Clouds 8 1031 62 10000 2.57 80 22:49 27.04.2022
3944 Clouds 9 1030 57 10000 2.57 90 21:57 27.04.2022
3945 Clouds 9 1029 55 10000 2.06 0 21:29 27.04.2022
3946 Clouds 10 1029 54 10000 2.57 100 20:43 27.04.2022
3947 Clouds 12 1028 49 10000 2.57 120 19:39 27.04.2022
3948 Clouds 12 1028 49 10000 2.57 120 19:39 27.04.2022
3949 Clouds 12 1028 49 10000 2.57 120 19:39 27.04.2022
3950 Clouds 12 1028 49 10000 2.57 120 19:39 27.04.2022
3951 Clouds 12 1028 48 10000 2.06 90 19:19 27.04.2022
3952 Clouds 12 1029 51 10000 3.09 90 18:35 27.04.2022
3953 Clouds 13 1028 46 10000 2.57 0 17:26 27.04.2022
3954 Clouds 12 1028 48 10000 1.54 0 15:43 27.04.2022
3955 Clouds 10 1029 53 10000 3.09 70 12:31 27.04.2022
3956 Clouds 9 1029 56 10000 3.6 60 11:23 27.04.2022
3957 Clear 8 1028 63 10000 4.12 50 09:59 27.04.2022
3958 Clouds 5 1027 87 10000 0 0 07:25 27.04.2022
3959 Clouds 4 1027 87 10000 0.51 0 05:50 27.04.2022
3960 Clouds 6 1026 76 10000 0.51 0 01:52 27.04.2022
3961 Clouds 7 1026 75 10000 3.09 60 00:52 27.04.2022
3962 Clouds 8 1025 72 10000 1.54 70 23:57 26.04.2022
3963 Clouds 8 1025 73 10000 2.57 60 23:23 26.04.2022
3964 Clouds 8 1025 71 10000 3.6 60 22:41 26.04.2022
3965 Clouds 10 1024 67 10000 3.09 70 21:48 26.04.2022
3966 Clouds 11 1024 59 10000 3.09 70 20:54 26.04.2022
3967 Clouds 12 1024 56 10000 3.09 70 20:34 26.04.2022
3968 Clouds 13 1024 54 10000 4.63 60 19:33 26.04.2022
3969 Clouds 14 1023 47 10000 2.06 90 18:51 26.04.2022
3970 Clouds 13 1023 48 10000 3.09 80 18:18 26.04.2022
3971 Clouds 14 1023 47 10000 2.57 40 17:22 26.04.2022
3972 Clouds 14 1024 50 10000 2.06 0 14:28 26.04.2022
3973 Clouds 13 1024 56 10000 1.54 80 13:33 26.04.2022
3974 Clouds 12 1023 59 10000 1.54 0 11:58 26.04.2022
3975 Clouds 10 1022 68 10000 1.03 0 10:44 26.04.2022
3976 Clouds 9 1022 73 10000 1.03 0 09:36 26.04.2022
3977 Clouds 6 1021 82 10000 1.03 60 07:54 26.04.2022
3978 Clouds 7 1021 84 10000 2.57 60 04:33 26.04.2022
3979 Clouds 8 1020 78 10000 2.06 70 01:30 26.04.2022
3980 Clouds 9 1020 77 10000 1.54 70 00:26 26.04.2022
3981 Clouds 9 1020 75 10000 2.57 70 22:46 25.04.2022
3982 Clouds 10 1019 69 10000 1.54 100 21:42 25.04.2022
3983 Clouds 12 1018 63 10000 2.06 90 20:40 25.04.2022
3984 Clouds 13 1017 51 10000 2.06 90 18:58 25.04.2022
3985 Clouds 13 1017 51 10000 2.57 70 17:54 25.04.2022
3986 Clouds 13 1017 55 10000 2.57 50 16:59 25.04.2022
3987 Clouds 12 1017 57 10000 3.09 40 15:29 25.04.2022
3988 Clouds 12 1018 62 10000 3.77 75 14:42 25.04.2022
3989 Clouds 11 1017 68 10000 2.57 70 13:33 25.04.2022
3990 Clouds 9 1017 63 10000 1.54 0 11:38 25.04.2022
3991 Clouds 8 1016 70 10000 2.57 40 10:26 25.04.2022
3992 Clouds 6 1016 87 10000 3.6 30 08:39 25.04.2022
3993 Clouds 4 1016 88 10000 2.06 40 06:39 25.04.2022
3994 Clouds 5 1016 82 10000 2.57 40 04:27 25.04.2022
3995 Clouds 8 1015 70 10000 2.57 60 00:57 25.04.2022
3996 Clouds 8 1015 72 10000 4.63 60 23:51 24.04.2022
3997 Clouds 9 1014 72 10000 4.63 50 22:43 24.04.2022
3998 Clouds 9 1014 71 10000 5.66 50 22:20 24.04.2022
3999 Clouds 11 1014 65 10000 5.66 60 21:24 24.04.2022
4000 Clouds 12 1014 59 10000 4.63 70 20:48 24.04.2022
4001 Clouds 13 1013 55 10000 5.14 60 20:29 24.04.2022
4002 Clouds 14 1013 53 10000 6.17 60 19:45 24.04.2022
4003 Clouds 15 1013 47 10000 4.12 70 18:20 24.04.2022
4004 Clouds 15 1013 47 10000 6.17 50 17:27 24.04.2022
4005 Clouds 16 1012 43 10000 5.66 60 16:58 24.04.2022
4006 Clouds 15 1013 45 10000 5.66 60 16:32 24.04.2022
4007 Clouds 15 1013 43 10000 6.17 60 15:54 24.04.2022
4008 Clouds 15 1012 46 10000 5.14 60 14:57 24.04.2022
4009 Clouds 15 1012 48 10000 5.66 60 13:51 24.04.2022
4010 Clouds 15 1012 48 10000 6.17 70 13:23 24.04.2022
4011 Clouds 13 1012 62 10000 5.14 50 11:55 24.04.2022
4012 Clear 12 1011 69 10000 1.34 61 11:27 24.04.2022
4013 Clouds 10 1011 75 10000 8.23 40 09:51 24.04.2022
4014 Clouds 8 1011 81 10000 4.12 40 08:31 24.04.2022
4015 Clear 7 1010 83 10000 6.17 60 05:46 24.04.2022
4016 Clear 8 1010 80 10000 6.17 50 02:59 24.04.2022
4017 Clear 8 1010 79 10000 5.66 50 01:18 24.04.2022
4018 Clear 9 1009 76 10000 7.2 50 23:55 23.04.2022
4019 Clear 9 1009 75 10000 7.2 50 23:25 23.04.2022
4020 Clear 10 1009 72 10000 7.2 50 22:42 23.04.2022
4021 Clear 11 1009 65 10000 5.14 60 21:49 23.04.2022
4022 Clear 12 1008 60 10000 6.69 60 21:30 23.04.2022
4023 Clouds 13 1008 49 10000 7.72 60 20:27 23.04.2022
4024 Clouds 15 1007 46 10000 8.75 60 19:21 23.04.2022
4025 Clouds 15 1007 48 10000 10.29 40 18:55 23.04.2022
4026 Clouds 15 1007 51 10000 7.72 60 18:32 23.04.2022
4027 Clouds 15 1007 52 10000 6.69 70 17:47 23.04.2022
4028 Clouds 16 1007 48 10000 9.26 60 16:46 23.04.2022
4029 Clouds 15 1007 50 10000 8.75 60 15:53 23.04.2022
4030 Clouds 15 1007 50 10000 8.75 60 15:53 23.04.2022
4031 Clouds 13 1008 70 10000 8.23 70 13:33 23.04.2022
4032 Clouds 12 1008 77 10000 7.2 50 11:57 23.04.2022
4033 Clouds 11 1008 77 10000 8.23 50 10:37 23.04.2022
4034 Clouds 9 1008 81 10000 6.17 50 08:27 23.04.2022
4035 Clouds 8 1008 84 10000 4.12 60 04:18 23.04.2022
4036 Clouds 8 1009 82 10000 5.14 40 03:27 23.04.2022
4037 Clouds 9 1010 72 10000 4.12 60 23:37 22.04.2022
4038 Clouds 9 1010 72 10000 5.66 60 23:18 22.04.2022
4039 Clouds 11 1010 68 10000 3.6 70 21:58 22.04.2022
4040 Clouds 11 1010 64 10000 3.6 70 21:39 22.04.2022
4041 Clear 13 1010 52 10000 4.63 80 20:34 22.04.2022
4042 Clouds 15 1010 44 10000 6.69 70 19:26 22.04.2022
4043 Clouds 16 1010 41 10000 7.2 70 18:57 22.04.2022
4044 Clouds 16 1010 41 10000 8.23 60 18:26 22.04.2022
4045 Clouds 17 1011 42 10000 6.69 70 16:57 22.04.2022
4046 Clouds 17 1011 43 10000 7.72 80 15:59 22.04.2022
4047 Clouds 17 1011 42 10000 5.66 70 15:24 22.04.2022
4048 Clouds 17 1010 40 10000 7.2 80 14:38 22.04.2022
4049 Clouds 16 1011 45 10000 4.63 80 13:41 22.04.2022
4050 Clouds 14 1011 62 10000 6.69 50 12:36 22.04.2022
4051 Clouds 13 1011 67 10000 5.14 40 11:23 22.04.2022
4052 Clouds 13 1012 67 10000 4.63 40 10:56 22.04.2022
4053 Clouds 12 1012 69 10000 4.63 40 10:32 22.04.2022
4054 Clouds 11 1012 74 10000 5.66 30 09:57 22.04.2022
4055 Clouds 10 1012 75 10000 6.17 40 09:21 22.04.2022
4056 Clouds 9 1012 78 10000 5.66 40 08:42 22.04.2022
4057 Clouds 8 1012 76 10000 5.14 50 06:38 22.04.2022
4058 Clouds 9 1014 68 10000 3.6 50 00:56 22.04.2022
4059 Clouds 10 1014 67 10000 4.12 50 23:31 21.04.2022
4060 Clouds 11 1014 63 10000 3.6 60 22:36 21.04.2022
4061 Clear 12 1015 54 10000 5.66 50 21:36 21.04.2022
4062 Clouds 14 1014 45 10000 5.66 70 20:30 21.04.2022
4063 Clouds 16 1014 46 10000 3.6 90 18:49 21.04.2022
4064 Clouds 16 1014 46 10000 3.6 90 18:49 21.04.2022
4065 Clouds 17 1014 44 10000 4.63 70 18:26 21.04.2022
4066 Clouds 18 1014 42 10000 4.63 70 17:19 21.04.2022
4067 Clouds 17 1014 44 10000 4.12 0 15:24 21.04.2022
4068 Clear 17 1014 46 10000 4.12 100 14:52 21.04.2022
4069 Clouds 17 1014 42 10000 3.6 0 13:59 21.04.2022
4070 Clouds 16 1015 46 10000 4.63 80 13:21 21.04.2022
4071 Clouds 16 1015 46 10000 4.63 80 13:21 21.04.2022
4072 Clouds 14 1014 45 10000 4.63 70 11:46 21.04.2022
4073 Clouds 10 1014 60 10000 4.12 80 09:33 21.04.2022
4074 Clouds 8 1014 71 10000 3.6 70 08:38 21.04.2022
4075 Clouds 7 1015 78 10000 2.57 70 06:36 21.04.2022
4076 Clouds 8 1015 62 10000 1.54 70 03:39 21.04.2022
4077 Clouds 8 1015 62 10000 1.54 90 03:20 21.04.2022
4078 Clouds 8 1015 60 10000 2.06 110 02:44 21.04.2022
4079 Clouds 10 1015 66 10000 3.6 80 00:27 21.04.2022
4080 Clouds 11 1015 66 10000 3.09 80 23:25 20.04.2022
4081 Clouds 11 1015 63 10000 3.6 80 22:59 20.04.2022
4082 Clouds 11 1015 63 10000 3.6 80 22:59 20.04.2022
4083 Clouds 11 1015 61 10000 3.6 80 22:33 20.04.2022
4084 Clouds 12 1016 47 10000 2.06 80 21:36 20.04.2022
4085 Clouds 14 1016 39 10000 3.09 80 20:43 20.04.2022
4086 Clouds 15 1015 37 10000 2.57 80 20:21 20.04.2022
4087 Clouds 15 1016 41 10000 3.09 0 19:39 20.04.2022
4088 Clouds 16 1016 39 10000 3.09 100 18:45 20.04.2022
4089 Clouds 17 1017 41 10000 3.6 90 17:18 20.04.2022
4090 Clouds 16 1017 41 10000 3.6 100 16:39 20.04.2022
4091 Clouds 16 1018 46 10000 3.09 0 14:55 20.04.2022
4092 Clouds 14 1019 51 10000 2.06 100 12:18 20.04.2022
4093 Clouds 14 1019 54 10000 2.06 90 11:36 20.04.2022
4094 Clouds 11 1019 68 10000 1.54 20 10:30 20.04.2022
4095 Clouds 9 1019 78 10000 2.57 40 09:27 20.04.2022
4096 Clouds 7 1019 80 10000 3.6 40 08:25 20.04.2022
4097 Clouds 7 1019 80 10000 3.6 40 08:25 20.04.2022
4098 Clouds 6 1019 84 10000 3.09 30 07:44 20.04.2022
4099 Clouds 7 1019 76 10000 2.06 360 05:19 20.04.2022
4100 Clouds 8 1021 90 10000 2.06 30 01:20 20.04.2022
4101 Clouds 9 1020 83 10000 2.57 40 00:21 20.04.2022
4102 Clouds 10 1020 86 10000 1.03 20 22:44 19.04.2022
4103 Clouds 10 1020 86 10000 1.03 30 22:22 19.04.2022
4104 Clouds 11 1020 85 10000 1.54 110 21:38 19.04.2022
4105 Clouds 11 1019 73 10000 3.09 330 20:57 19.04.2022
4106 Clouds 12 1019 71 10000 3.09 330 20:37 19.04.2022
4107 Clouds 13 1018 65 10000 2.57 260 19:32 19.04.2022
4108 Clouds 13 1017 53 10000 2.57 50 18:26 19.04.2022
4109 Clouds 14 1017 49 10000 2.57 320 16:47 19.04.2022
4110 Clouds 14 1018 49 10000 4.12 330 16:25 19.04.2022
4111 Clouds 14 1018 46 10000 2.57 350 15:23 19.04.2022
4112 Clouds 14 1018 49 10000 1.54 340 14:40 19.04.2022
4113 Clouds 13 1017 52 10000 2.57 320 12:52 19.04.2022
4114 Clouds 13 1018 60 10000 2.06 360 12:29 19.04.2022
4115 Clouds 11 1017 66 10000 2.06 30 11:23 19.04.2022
4116 Clouds 8 1017 86 10000 0.51 0 09:27 19.04.2022
4117 Clouds 4 1017 93 10000 0.51 0 07:37 19.04.2022
4118 Clouds 6 1015 89 10000 1.03 160 04:23 19.04.2022
4119 Clouds 9 1016 73 10000 1.03 240 01:18 19.04.2022
4120 Clouds 10 1016 71 10000 1.54 250 23:40 18.04.2022
4121 Clouds 11 1016 67 10000 2.06 290 21:56 18.04.2022
4122 Clouds 11 1015 63 10000 1.03 0 21:24 18.04.2022
4123 Clouds 11 1015 63 10000 2.57 290 20:38 18.04.2022
4124 Clouds 11 1015 63 10000 2.57 290 20:38 18.04.2022
4125 Clouds 12 1015 59 10000 3.09 300 19:59 18.04.2022
4126 Clouds 12 1015 59 10000 3.6 310 19:30 18.04.2022
4127 Clouds 13 1015 56 10000 4.63 300 18:37 18.04.2022
4128 Clouds 13 1016 49 10000 2.57 220 17:39 18.04.2022
4129 Clouds 13 1016 49 10000 2.57 220 17:39 18.04.2022
4130 Clouds 13 1016 51 10000 1.54 220 17:19 18.04.2022
4131 Clouds 14 1016 47 10000 3.09 240 16:36 18.04.2022
4132 Clouds 14 1015 48 10000 3.09 270 15:30 18.04.2022
4133 Clouds 13 1017 55 10000 3.09 270 13:55 18.04.2022
4134 Clouds 12 1017 65 10000 3.6 280 12:41 18.04.2022
4135 Clouds 11 1016 71 10000 3.6 230 11:48 18.04.2022
4136 Clouds 10 1015 82 10000 3.6 240 10:46 18.04.2022
4137 Clouds 9 1015 89 10000 2.57 210 09:31 18.04.2022
4138 Clouds 9 1015 86 10000 2.06 200 08:39 18.04.2022
4139 Clouds 9 1014 87 10000 1.54 190 06:44 18.04.2022
4140 Clouds 11 1014 90 10000 1.54 180 02:27 18.04.2022
4141 Clouds 14 1015 67 10000 2.06 220 22:55 17.04.2022
4142 Clouds 14 1015 52 10000 4.67 220 22:32 17.04.2022
4143 Clouds 15 1015 52 10000 1.54 170 21:34 17.04.2022
4144 Clouds 17 1015 50 10000 2.06 180 20:51 17.04.2022
4145 Clouds 17 1014 46 10000 2.57 180 20:18 17.04.2022
4146 Clouds 18 1016 42 10000 4.63 180 18:42 17.04.2022
4147 Clouds 19 1017 45 10000 5.14 190 17:20 17.04.2022
4148 Clouds 19 1017 46 10000 3.6 170 15:34 17.04.2022
4149 Clouds 18 1019 51 10000 4.12 150 14:38 17.04.2022
4150 Clouds 18 1020 50 10000 3.09 160 13:23 17.04.2022
4151 Clouds 17 1021 53 10000 2.57 0 12:31 17.04.2022
4152 Clouds 15 1021 54 10000 2.06 0 10:48 17.04.2022
4153 Clouds 14 1022 57 10000 2.57 140 10:29 17.04.2022
4154 Clouds 13 1022 61 10000 2.57 150 09:50 17.04.2022
4155 Clouds 11 1023 73 10000 1.03 0 08:59 17.04.2022
4156 Clouds 11 1023 77 10000 1.03 0 08:29 17.04.2022
4157 Clouds 12 1024 71 10000 2.06 160 05:33 17.04.2022
4158 Clouds 13 1025 68 10000 2.57 150 01:47 17.04.2022
4159 Clouds 14 1025 69 10000 2.57 140 23:59 16.04.2022
4160 Clouds 15 1026 69 10000 1.54 0 22:56 16.04.2022
4161 Clouds 16 1026 66 10000 1.03 0 21:44 16.04.2022
4162 Clouds 18 1026 61 10000 2.06 180 20:54 16.04.2022
4163 Clouds 20 1027 52 10000 3.09 180 19:21 16.04.2022
4164 Clouds 20 1027 52 10000 3.6 200 18:35 16.04.2022
4165 Clouds 20 1028 52 10000 3.6 200 16:44 16.04.2022
4166 Clouds 20 1027 54 10000 3.6 180 15:46 16.04.2022
4167 Clouds 20 1027 55 10000 3.09 190 14:57 16.04.2022
4168 Clouds 20 1027 56 10000 3.09 180 14:29 16.04.2022
4169 Clear 19 1028 57 10000 3.6 200 13:41 16.04.2022
4170 Clouds 18 1028 64 10000 3.09 180 12:35 16.04.2022
4171 Clouds 16 1028 73 10000 2.57 150 11:24 16.04.2022
4172 Clouds 12 1028 85 10000 0.51 0 09:59 16.04.2022
4173 Clouds 11 1028 90 8000 1.03 0 09:32 16.04.2022
4174 Clouds 10 1028 92 9000 0.51 0 08:41 16.04.2022
4175 Mist 9 1027 91 5000 1.54 140 06:59 16.04.2022
4176 Clouds 9 1027 91 6000 1.03 150 04:36 16.04.2022
4177 Clouds 11 1026 82 10000 1.39 122 00:38 16.04.2022
4178 Clouds 12 1026 76 10000 1.54 260 23:35 15.04.2022
4179 Clouds 13 1026 74 10000 2.06 0 22:38 15.04.2022
4180 Clouds 14 1026 71 10000 1.03 100 21:59 15.04.2022
4181 Clouds 16 1025 68 10000 1.03 80 21:20 15.04.2022
4182 Clouds 17 1025 65 10000 1.03 90 20:31 15.04.2022
4183 Clouds 18 1025 61 10000 0.51 0 19:41 15.04.2022
4184 Clouds 18 1025 58 10000 1.54 210 18:55 15.04.2022
4185 Clouds 18 1025 58 10000 1.54 210 18:26 15.04.2022
4186 Clouds 18 1025 58 10000 2.06 200 17:49 15.04.2022
4187 Clouds 18 1025 56 10000 2.57 210 17:22 15.04.2022
4188 Clouds 19 1025 52 10000 2.57 170 16:24 15.04.2022
4189 Clouds 18 1025 56 10000 3.09 200 15:37 15.04.2022
4190 Clouds 18 1025 57 10000 2.57 180 13:55 15.04.2022
4191 Clouds 17 1025 60 10000 3.09 210 12:46 15.04.2022
4192 Clouds 16 1025 70 10000 1.54 0 11:59 15.04.2022
4193 Clouds 15 1025 71 10000 1.54 0 11:40 15.04.2022
4194 Clouds 14 1025 72 10000 2.06 150 10:45 15.04.2022
4195 Clouds 12 1025 75 10000 1.03 0 09:50 15.04.2022
4196 Clouds 12 1025 78 10000 1.03 0 09:21 15.04.2022
4197 Clouds 9 1024 85 10000 0.51 0 07:53 15.04.2022
4198 Clouds 9 1023 83 10000 1.54 110 06:46 15.04.2022
4199 Clouds 11 1023 78 10000 1.03 110 03:47 15.04.2022
4200 Clouds 12 1022 74 10000 1.03 120 23:32 14.04.2022
4201 Clouds 13 1022 71 10000 1.03 130 22:50 14.04.2022
4202 Clouds 13 1022 71 10000 1.03 130 22:32 14.04.2022
4203 Clouds 13 1022 68 10000 0.51 130 21:59 14.04.2022
4204 Clouds 14 1022 66 10000 0.51 0 21:30 14.04.2022
4205 Clouds 16 1021 58 10000 1.03 0 19:24 14.04.2022
4206 Clouds 16 1021 58 10000 1.54 180 18:30 14.04.2022
4207 Clouds 15 1021 58 10000 2.06 210 17:44 14.04.2022
4208 Clouds 15 1021 59 10000 1.54 0 16:46 14.04.2022
4209 Clouds 15 1021 61 10000 2.06 190 15:28 14.04.2022
4210 Clouds 15 1021 64 10000 2.57 230 13:47 14.04.2022
4211 Clouds 14 1021 72 10000 2.06 200 12:58 14.04.2022
4212 Clouds 14 1021 72 10000 1.54 210 12:31 14.04.2022
4213 Clouds 12 1021 81 10000 2.06 180 11:30 14.04.2022
4214 Clouds 11 1020 87 10000 1.54 150 10:54 14.04.2022
4215 Clouds 10 1020 93 10000 1.03 0 10:27 14.04.2022
4216 Clouds 8 1020 94 10000 0.51 0 09:25 14.04.2022
4217 Clouds 6 1019 96 7000 1.03 0 07:36 14.04.2022
4218 Fog 6 1019 94 10000 0.51 0 04:35 14.04.2022
4219 Clouds 9 1018 85 10000 1.03 140 23:45 13.04.2022
4220 Clouds 11 1018 78 10000 1.54 290 22:24 13.04.2022
4221 Clouds 12 1018 74 10000 1.54 270 21:42 13.04.2022
4222 Clouds 14 1017 64 10000 2.57 300 20:25 13.04.2022
4223 Clouds 15 1017 64 10000 3.09 310 19:39 13.04.2022
4224 Clouds 16 1016 59 10000 4.12 290 18:36 13.04.2022
4225 Clouds 15 1014 64 10000 3.6 270 17:24 13.04.2022
4226 Clouds 15 1015 67 10000 4.12 270 16:41 13.04.2022
4227 Clouds 15 1014 67 10000 3.6 280 15:43 13.04.2022
4228 Clouds 14 1014 70 10000 4.63 280 14:53 13.04.2022
4229 Clouds 14 1014 75 10000 3.6 240 14:30 13.04.2022
4230 Clouds 13 1013 74 10000 3.6 240 13:36 13.04.2022
4231 Clouds 12 1013 81 10000 4.12 250 12:38 13.04.2022
4232 Clouds 11 1012 89 9000 3.6 240 10:58 13.04.2022
4233 Clouds 11 1011 91 9000 3.09 230 09:45 13.04.2022
4234 Clouds 10 1010 91 9000 1.54 220 08:43 13.04.2022
4235 Clouds 10 1008 92 10000 1.03 0 07:18 13.04.2022
4236 Clouds 10 1009 95 10000 1.03 200 06:46 13.04.2022
4237 Clouds 10 1008 92 10000 1.54 190 06:18 13.04.2022
4238 Clouds 12 1006 87 10000 2.06 180 00:25 13.04.2022
4239 Clouds 12 1006 86 10000 3.09 190 23:46 12.04.2022
4240 Clouds 13 1005 87 10000 3.09 170 22:20 12.04.2022
4241 Clouds 13 1005 87 10000 2.06 170 21:39 12.04.2022
4242 Clouds 13 1004 84 10000 2.57 170 20:42 12.04.2022
4243 Clouds 13 1003 84 10000 2.57 160 19:54 12.04.2022
4244 Clouds 13 1003 84 10000 2.57 160 19:33 12.04.2022
4245 Clouds 13 1003 82 10000 2.06 140 18:50 12.04.2022
4246 Clouds 13 1003 79 10000 2.06 160 17:34 12.04.2022
4247 Clouds 13 1003 84 8000 2.06 150 16:25 12.04.2022
4248 Clouds 12 1003 85 9000 1.54 150 15:33 12.04.2022
4249 Clouds 11 1002 87 9000 1.54 80 14:32 12.04.2022
4250 Clouds 11 1002 89 8000 3.6 60 13:38 12.04.2022
4251 Rain 10 1003 88 5000 2.06 70 12:53 12.04.2022
4252 Rain 10 1004 87 8000 1.54 90 11:47 12.04.2022
4253 Rain 10 1003 86 9000 2.06 70 11:24 12.04.2022
4254 Clouds 10 1003 69 10000 1.03 0 09:25 12.04.2022
4255 Clouds 9 1004 77 10000 1.54 70 07:59 12.04.2022
4256 Clouds 9 1005 75 10000 2.06 60 06:32 12.04.2022
4257 Clouds 9 1005 73 10000 2.06 70 05:35 12.04.2022
4258 Clouds 10 1006 66 10000 3.09 100 00:59 12.04.2022
4259 Clouds 11 1006 59 10000 3.09 0 22:53 11.04.2022
4260 Clouds 12 1006 49 10000 3.6 120 21:49 11.04.2022
4261 Clouds 13 1006 44 10000 3.09 120 20:59 11.04.2022
4262 Clouds 13 1005 41 10000 3.6 0 20:29 11.04.2022
4263 Clouds 13 1005 41 10000 3.09 0 19:55 11.04.2022
4264 Clouds 14 1005 43 10000 3.09 100 19:18 11.04.2022
4265 Clouds 14 1005 44 10000 4.12 90 18:47 11.04.2022
4266 Clouds 14 1005 40 10000 3.09 0 17:57 11.04.2022
4267 Clouds 15 1005 40 10000 3.09 120 16:54 11.04.2022
4268 Clouds 15 1005 40 10000 3.09 120 16:54 11.04.2022
4269 Clouds 15 1007 41 10000 4.12 0 15:58 11.04.2022
4270 Clouds 15 1008 42 10000 4.63 120 14:33 11.04.2022
4271 Clouds 13 1009 48 10000 3.09 0 12:53 11.04.2022
4272 Clouds 12 1009 50 10000 3.09 0 12:33 11.04.2022
4273 Clouds 11 1009 53 10000 4.12 100 11:33 11.04.2022
4274 Clouds 10 1010 55 10000 2.06 100 10:28 11.04.2022
4275 Clouds 8 1011 61 10000 2.57 80 09:20 11.04.2022
4276 Clouds 7 1012 58 10000 2.06 100 06:44 11.04.2022
4277 Clouds 9 1014 54 10000 2.06 130 01:55 11.04.2022
4278 Clouds 9 1015 52 10000 1.54 0 22:37 10.04.2022
4279 Clouds 10 1014 48 10000 1.54 0 21:55 10.04.2022
4280 Clouds 10 1015 50 10000 1.03 0 21:29 10.04.2022
4281 Clouds 11 1015 45 10000 1.03 0 20:30 10.04.2022
4282 Clouds 11 1016 42 10000 2.06 180 19:43 10.04.2022
4283 Clouds 11 1016 41 10000 2.06 180 19:20 10.04.2022
4284 Clouds 12 1016 40 10000 2.06 180 18:41 10.04.2022
4285 Clouds 12 1015 39 10000 1.54 180 17:52 10.04.2022
4286 Clouds 12 1016 41 10000 1.54 180 17:32 10.04.2022
4287 Clouds 12 1017 42 10000 3.09 0 15:56 10.04.2022
4288 Clouds 12 1018 45 10000 3.09 210 14:51 10.04.2022
4289 Clouds 11 1018 46 10000 3.09 180 13:49 10.04.2022
4290 Clouds 9 1019 55 10000 3.09 210 12:33 10.04.2022
4291 Clouds 9 1019 60 10000 2.06 150 11:45 10.04.2022
4292 Clouds 8 1019 66 10000 2.06 180 11:24 10.04.2022
4293 Clouds 7 1019 71 10000 1.54 170 10:38 10.04.2022
4294 Clouds 4 1019 82 10000 0.51 0 09:49 10.04.2022
4295 Clouds 2 1019 89 10000 1.03 120 08:55 10.04.2022
4296 Clouds 1 1019 90 10000 1.03 120 08:20 10.04.2022
4297 Clouds 0 1018 90 10000 1.03 0 06:59 10.04.2022
4298 Clouds 0 1019 85 10000 1.54 160 04:36 10.04.2022
4299 Clouds 1 1019 86 10000 1.54 160 02:19 10.04.2022
4300 Clouds 3 1019 76 10000 1.54 190 23:54 09.04.2022
4301 Clouds 4 1018 70 10000 2.57 260 22:56 09.04.2022
4302 Clouds 4 1018 69 10000 2.57 260 22:38 09.04.2022
4303 Clouds 6 1018 64 10000 4.12 280 21:23 09.04.2022
4304 Clouds 7 1017 60 10000 5.66 290 20:30 09.04.2022
4305 Clouds 8 1017 55 10000 5.14 290 19:57 09.04.2022
4306 Clouds 8 1017 57 10000 5.14 290 19:39 09.04.2022
4307 Clouds 9 1017 58 10000 7.2 300 18:23 09.04.2022
4308 Clouds 9 1016 59 10000 7.72 310 17:49 09.04.2022
4309 Clouds 9 1015 52 10000 7.2 280 16:57 09.04.2022
4310 Clouds 9 1015 52 10000 7.2 280 16:38 09.04.2022
4311 Clouds 9 1015 52 10000 7.2 280 16:38 09.04.2022
4312 Clouds 9 1015 52 10000 7.2 280 16:38 09.04.2022
4313 Clouds 9 1015 52 10000 7.2 280 16:38 09.04.2022
4314 Clouds 9 1015 52 10000 7.2 280 16:38 09.04.2022
4315 Clouds 9 1015 53 10000 7.72 270 15:50 09.04.2022
4316 Clouds 9 1015 63 10000 5.66 270 15:25 09.04.2022
4317 Clouds 9 1015 56 10000 5.66 310 14:25 09.04.2022
4318 Clouds 9 1015 53 10000 5.66 290 13:27 09.04.2022
4319 Clouds 9 1014 53 10000 4.63 270 12:54 09.04.2022
4320 Clouds 7 1014 54 10000 5.14 320 11:45 09.04.2022
4321 Clouds 6 1013 76 10000 4.12 290 10:51 09.04.2022
4322 Clouds 6 1013 84 10000 2.57 280 10:18 09.04.2022
4323 Clouds 4 1013 87 10000 2.57 280 09:22 09.04.2022
4324 Clouds 1 1012 92 10000 1.03 210 07:49 09.04.2022
4325 Clear 1 1010 90 10000 1.54 170 04:37 09.04.2022
4326 Clouds 2 1008 90 10000 2.06 170 00:34 09.04.2022
4327 Clouds 2 1007 85 10000 1.88 324 23:22 08.04.2022
4328 Clouds 4 1005 82 10000 0.51 0 21:44 08.04.2022
4329 Clouds 5 1004 80 10000 3.6 70 20:43 08.04.2022
4330 Clouds 6 1004 78 10000 2.57 80 19:46 08.04.2022
4331 Clouds 8 1002 68 10000 5.14 310 18:42 08.04.2022
4332 Clouds 8 1002 62 10000 3.6 20 18:18 08.04.2022
4333 Clouds 9 1001 50 10000 5.66 330 17:27 08.04.2022
4334 Clouds 9 1001 51 10000 4.63 300 16:55 08.04.2022
4335 Clouds 10 1001 41 10000 4.12 310 16:26 08.04.2022
4336 Clouds 10 1000 42 10000 4.12 320 15:33 08.04.2022
4337 Clouds 10 999 45 10000 4.12 340 14:45 08.04.2022
4338 Clouds 10 999 49 10000 2.57 310 13:59 08.04.2022
4339 Clouds 9 1000 55 10000 3.09 310 13:30 08.04.2022
4340 Clouds 9 1000 56 10000 2.57 0 12:49 08.04.2022
4341 Clouds 7 998 69 10000 1.54 0 11:26 08.04.2022
4342 Clear 4 997 86 10000 0 0 09:57 08.04.2022
4343 Clear 2 997 91 10000 1.03 120 08:59 08.04.2022
4344 Clouds 1 997 90 10000 0.51 110 07:43 08.04.2022
4345 Clouds 2 997 88 10000 1.54 160 06:44 08.04.2022
4346 Clear 3 998 84 10000 2.06 220 02:37 08.04.2022
4347 Clear 4 997 79 10000 3.64 281 00:29 08.04.2022
4348 Clear 5 997 78 10000 3.09 230 23:43 07.04.2022
4349 Clouds 5 996 71 10000 4.12 250 22:41 07.04.2022
4350 Clouds 5 996 69 10000 3.09 220 22:23 07.04.2022
4351 Clouds 5 995 68 10000 2.06 230 21:58 07.04.2022
4352 Clouds 5 995 66 10000 3.09 270 21:28 07.04.2022
4353 Clouds 6 994 64 10000 4.12 280 20:42 07.04.2022
4354 Clouds 6 993 77 10000 6.69 310 19:25 07.04.2022
4355 Rain 6 989 84 10000 8.75 300 17:28 07.04.2022
4356 Rain 6 988 85 10000 8.23 310 16:51 07.04.2022
4357 Rain 6 988 83 10000 9.77 300 16:33 07.04.2022
4358 Clouds 7 986 76 10000 9.26 290 15:39 07.04.2022
4359 Clouds 7 983 80 10000 10.8 270 13:52 07.04.2022
4360 Clouds 8 983 80 10000 9.26 270 13:23 07.04.2022
4361 Clouds 7 981 88 10000 8.23 270 11:49 07.04.2022
4362 Clouds 7 979 81 10000 8.75 270 10:40 07.04.2022
4363 Clouds 6 977 85 10000 9.77 270 08:43 07.04.2022
4364 Clouds 6 976 87 1900 5.66 250 06:58 07.04.2022
4365 Rain 7 977 80 10000 9.77 230 04:36 07.04.2022
4366 Clouds 7 980 77 10000 7.72 230 02:32 07.04.2022
4367 Clouds 7 980 79 10000 5.14 220 00:42 07.04.2022
4368 Clouds 8 982 84 2400 5.66 220 23:21 06.04.2022
4369 Clouds 9 982 78 10000 5.14 210 22:44 06.04.2022
4370 Clouds 9 983 76 10000 5.66 220 21:47 06.04.2022
4371 Clouds 10 984 74 10000 5.66 200 20:43 06.04.2022
4372 Clouds 10 985 71 10000 6.17 220 19:59 06.04.2022
4373 Clouds 11 986 66 10000 9.26 230 19:19 06.04.2022
4374 Clouds 11 986 65 10000 8.23 230 18:47 06.04.2022
4375 Clouds 11 987 64 10000 9.77 240 17:35 06.04.2022
4376 Clouds 11 988 69 10000 10.8 240 16:39 06.04.2022
4377 Clouds 11 989 64 10000 9.26 230 15:57 06.04.2022
4378 Clouds 11 988 66 10000 9.26 230 15:39 06.04.2022
4379 Clouds 9 990 88 10000 5.14 210 13:31 06.04.2022
4380 Rain 9 991 89 6000 4.12 210 12:28 06.04.2022
4381 Clouds 10 992 73 10000 7.72 230 10:57 06.04.2022
4382 Clouds 10 993 79 10000 6.17 220 10:32 06.04.2022
4383 Clouds 9 993 80 10000 4.63 230 09:43 06.04.2022
4384 Clouds 9 994 83 10000 4.63 230 08:36 06.04.2022
4385 Clouds 9 994 85 10000 5.14 230 07:56 06.04.2022
4386 Clouds 9 996 94 10000 4.12 210 04:42 06.04.2022
4387 Clouds 10 1000 84 10000 6.17 220 23:57 05.04.2022
4388 Clouds 10 1001 84 10000 6.17 220 23:33 05.04.2022
4389 Rain 10 1002 79 10000 6.69 230 21:31 05.04.2022
4390 Rain 10 1002 77 10000 4.12 230 20:54 05.04.2022
4391 Rain 11 1002 74 10000 7.2 240 20:23 05.04.2022
4392 Clouds 11 1004 66 10000 7.2 250 18:26 05.04.2022
4393 Clouds 12 1005 69 10000 9.77 260 17:20 05.04.2022
4394 Clouds 12 1005 69 10000 9.77 260 16:41 05.04.2022
4395 Clouds 11 1005 73 10000 9.77 280 15:49 05.04.2022
4396 Clouds 11 1006 75 10000 9.26 270 15:29 05.04.2022
4397 Clouds 11 1006 78 10000 10.8 260 13:42 05.04.2022
4398 Drizzle 9 1006 94 4900 7.2 260 11:51 05.04.2022
4399 Drizzle 9 1006 94 4900 7.2 260 11:33 05.04.2022
4400 Rain 9 1006 92 8000 7.72 260 10:57 05.04.2022
4401 Clouds 9 1007 94 10000 7.2 260 09:29 05.04.2022
4402 Rain 9 1006 97 9000 6.69 270 07:32 05.04.2022
4403 Rain 10 1008 95 7000 7.2 270 02:43 05.04.2022
4404 Clouds 10 1008 95 10000 6.69 270 23:18 04.04.2022
4405 Clouds 10 1008 96 10000 6.17 270 22:29 04.04.2022
4406 Clouds 10 1008 96 10000 5.66 270 21:22 04.04.2022
4407 Rain 10 1008 96 10000 7.2 280 20:53 04.04.2022
4408 Clouds 10 1008 96 10000 7.2 280 20:35 04.04.2022
4409 Clouds 11 1008 96 5000 6.69 280 19:26 04.04.2022
4410 Clouds 11 1008 93 3000 7.2 280 18:39 04.04.2022
4411 Clouds 11 1008 92 10000 7.2 280 16:41 04.04.2022
4412 Clouds 11 1008 91 10000 6.69 280 16:23 04.04.2022
4413 Clouds 11 1008 92 10000 8.75 290 15:33 04.04.2022
4414 Clouds 11 1008 92 10000 6.69 280 14:46 04.04.2022
4415 Clouds 11 1008 93 10000 7.2 280 13:40 04.04.2022
4416 Clouds 11 1008 95 10000 7.72 290 12:41 04.04.2022
4417 Clouds 10 1008 96 10000 7.2 280 11:29 04.04.2022
4418 Clouds 10 1008 97 3500 6.69 270 09:53 04.04.2022
4419 Drizzle 8 1010 97 2200 5.14 250 05:33 04.04.2022
4420 Rain 6 1014 91 10000 3.09 210 02:47 04.04.2022
4421 Clouds 7 1020 69 10000 3.09 230 22:49 03.04.2022
4422 Clouds 7 1019 66 10000 4.12 260 21:58 03.04.2022
4423 Clouds 7 1020 66 10000 4.63 270 21:25 03.04.2022
4424 Clouds 7 1021 66 10000 5.66 280 20:21 03.04.2022
4425 Clouds 8 1021 56 10000 6.69 280 18:37 03.04.2022
4426 Clouds 9 1022 52 10000 6.69 280 17:50 03.04.2022
4427 Clouds 9 1023 52 10000 6.69 290 17:32 03.04.2022
4428 Clouds 10 1023 48 10000 6.17 270 16:49 03.04.2022
4429 Clouds 10 1023 52 10000 7.2 290 15:42 03.04.2022
4430 Clouds 9 1024 62 10000 6.17 270 13:58 03.04.2022
4431 Clouds 8 1025 67 10000 4.12 270 12:58 03.04.2022
4432 Clouds 7 1026 74 10000 1.54 240 11:34 03.04.2022
4433 Clouds 3 1026 84 10000 1.03 0 09:41 03.04.2022
4434 Clouds 2 1026 84 10000 0.51 0 08:52 03.04.2022
4435 Clouds 0 1026 87 10000 0.51 0 05:45 03.04.2022
4436 Clouds 0 1026 87 10000 0.51 0 05:45 03.04.2022
4437 Clouds 0 1026 85 10000 1.03 100 02:55 03.04.2022
4438 Clouds 3 1026 73 10000 1.54 80 23:27 02.04.2022
4439 Clouds 4 1026 72 10000 1.03 70 22:41 02.04.2022
4440 Clouds 5 1025 67 10000 1.54 90 21:55 02.04.2022
4441 Clouds 6 1025 64 10000 2.57 60 21:19 02.04.2022
4442 Clouds 7 1024 59 10000 2.06 90 20:36 02.04.2022
4443 Clouds 8 1024 47 10000 2.06 20 18:47 02.04.2022
4444 Clouds 9 1023 43 10000 2.06 100 18:19 02.04.2022
4445 Clouds 9 1023 44 10000 1.54 110 16:45 02.04.2022
4446 Clouds 9 1023 49 10000 1.03 0 15:27 02.04.2022
4447 Clouds 9 1023 47 10000 1.54 0 14:52 02.04.2022
4448 Clouds 9 1023 51 10000 1.54 60 14:26 02.04.2022
4449 Clouds 8 1023 56 10000 1.54 0 13:31 02.04.2022
4450 Clouds 7 1024 63 10000 1.54 70 12:20 02.04.2022
4451 Clouds 4 1022 85 10000 1.03 0 10:22 02.04.2022
4452 Clouds 1 1021 93 10000 1.03 50 07:48 02.04.2022
4453 Clouds 1 1022 94 10000 1.03 100 04:34 02.04.2022
4454 Clouds 2 1021 88 10000 1.03 0 01:21 02.04.2022
4455 Clouds 3 1021 87 10000 1.54 190 23:54 01.04.2022
4456 Clouds 3 1022 84 10000 0.51 0 22:46 01.04.2022
4457 Clouds 5 1021 75 10000 2.57 290 20:55 01.04.2022
4458 Clouds 6 1020 73 10000 2.57 290 20:35 01.04.2022
4459 Clouds 6 1021 66 10000 5.66 310 19:41 01.04.2022
4460 Clouds 7 1020 55 10000 6.17 320 19:23 01.04.2022
4461 Clouds 8 1020 47 10000 6.17 320 18:36 01.04.2022
4462 Clouds 8 1020 45 10000 6.17 330 17:36 01.04.2022
4463 Rain 8 1021 47 10000 5.66 350 15:46 01.04.2022
4464 Clouds 8 1020 51 10000 4.63 350 14:51 01.04.2022
4465 Clouds 7 1020 57 10000 5.14 350 13:39 01.04.2022
4466 Clouds 6 1021 63 10000 4.63 350 12:33 01.04.2022
4467 Clouds 5 1020 69 10000 4.12 30 11:45 01.04.2022
4468 Clouds 4 1020 74 10000 4.12 330 10:49 01.04.2022
4469 Clouds 2 1020 82 10000 2.57 260 09:35 01.04.2022
4470 Clouds 1 1018 84 10000 2.57 350 07:24 01.04.2022
4471 Clouds 1 1017 81 10000 3.6 350 04:57 01.04.2022
4472 Clouds 1 1017 80 10000 3.6 350 04:39 01.04.2022
4473 Clouds 1 1018 79 10000 4.12 320 02:32 01.04.2022
4474 Clouds 2 1018 78 10000 4.12 350 01:31 01.04.2022
4475 Clouds 3 1016 75 10000 7.2 20 22:23 31.03.2022
4476 Clouds 3 1017 73 10000 6.17 20 21:37 31.03.2022
4477 Clouds 4 1016 72 10000 7.2 10 20:50 31.03.2022
4478 Clouds 4 1015 66 10000 5.66 10 20:28 31.03.2022
4479 Clouds 6 1014 68 10000 7.72 10 19:18 31.03.2022
4480 Clouds 6 1014 68 10000 8.23 20 18:31 31.03.2022
4481 Clouds 7 1014 45 10000 8.23 20 16:46 31.03.2022
4482 Clouds 7 1014 50 10000 7.72 20 15:54 31.03.2022
4483 Clouds 7 1014 51 10000 7.2 30 15:22 31.03.2022
4484 Clouds 7 1014 50 10000 7.72 30 14:44 31.03.2022
4485 Clouds 6 1014 58 10000 7.72 20 13:27 31.03.2022
4486 Clouds 4 1014 74 10000 8.23 20 11:29 31.03.2022
4487 Clouds 2 1013 82 10000 8.75 20 10:19 31.03.2022
4488 Snow 1 1012 87 10000 5.14 10 08:52 31.03.2022
4489 Clouds 1 1011 87 10000 2.57 330 07:24 31.03.2022
4490 Clouds 2 1009 78 10000 5.14 10 00:46 31.03.2022
4491 Clouds 2 1010 79 10000 4.63 40 23:23 30.03.2022
4492 Clouds 2 1009 79 10000 7.2 60 21:43 30.03.2022
4493 Clouds 2 1008 82 10000 8.23 40 21:25 30.03.2022
4494 Clouds 3 1008 83 10000 6.69 30 20:21 30.03.2022
4495 Clouds 3 1007 81 10000 5.66 50 19:38 30.03.2022
4496 Clouds 4 1007 81 10000 5.14 50 18:34 30.03.2022
4497 Clouds 5 1007 81 10000 5.14 60 17:48 30.03.2022
4498 Rain 5 1007 85 10000 4.63 50 16:57 30.03.2022
4499 Rain 5 1007 85 10000 4.63 50 16:38 30.03.2022
4500 Rain 6 1007 84 10000 3.6 60 15:38 30.03.2022
4501 Rain 5 1007 83 10000 5.66 50 13:57 30.03.2022
4502 Rain 5 1007 82 10000 5.14 50 13:18 30.03.2022
4503 Clouds 5 1007 84 10000 3.6 60 11:36 30.03.2022
4504 Clouds 5 1007 88 10000 7.2 20 10:31 30.03.2022
4505 Haze 6 1007 88 3800 1.34 25 09:25 30.03.2022
4506 Haze 7 1007 85 3000 0 0 07:41 30.03.2022
4507 Haze 7 1008 91 4600 1.03 260 05:41 30.03.2022
4508 Clouds 7 1009 82 8000 0.51 0 04:19 30.03.2022
4509 Clouds 8 1010 81 8000 0.51 70 00:42 30.03.2022
4510 Clouds 9 1010 80 6000 1.03 0 22:34 29.03.2022
4511 Clouds 9 1010 77 7000 1.54 70 21:45 29.03.2022
4512 Clouds 10 1009 74 9000 0.89 39 20:54 29.03.2022
4513 Clouds 10 1009 72 10000 1.03 0 20:19 29.03.2022
4514 Clouds 12 1009 69 10000 1.03 0 18:56 29.03.2022
4515 Clouds 12 1009 69 8000 1.03 0 18:21 29.03.2022
4516 Clouds 13 1010 71 8000 1.54 70 17:35 29.03.2022
4517 Clouds 13 1010 66 10000 1.54 100 16:57 29.03.2022
4518 Clouds 13 1011 62 10000 2.57 50 15:57 29.03.2022
4519 Clouds 14 1012 58 10000 1.54 260 14:53 29.03.2022
4520 Clouds 13 1013 62 10000 2.06 20 13:58 29.03.2022
4521 Clouds 13 1014 62 10000 1.03 0 12:51 29.03.2022
4522 Clouds 12 1013 71 10000 1.03 0 11:43 29.03.2022
4523 Clouds 9 1013 84 10000 2.06 60 10:30 29.03.2022
4524 Clear 7 1014 88 10000 3.09 60 09:42 29.03.2022
4525 Mist 6 1014 90 3800 0.51 0 06:58 29.03.2022
4526 Clouds 7 1015 89 8000 0.51 60 03:54 29.03.2022
4527 Clear 9 1017 81 10000 1.54 100 00:33 29.03.2022
4528 Clear 10 1017 76 10000 2.06 80 23:22 28.03.2022
4529 Clear 10 1017 76 10000 1.54 100 22:51 28.03.2022
4530 Clear 10 1017 76 10000 1.03 110 22:23 28.03.2022
4531 Clouds 12 1017 60 10000 0.51 220 20:54 28.03.2022
4532 Clouds 14 1017 54 10000 1.54 240 20:20 28.03.2022
4533 Clouds 14 1018 60 10000 2.06 250 19:41 28.03.2022
4534 Clouds 15 1019 55 10000 2.57 260 18:54 28.03.2022
4535 Clouds 15 1019 56 10000 2.57 260 18:20 28.03.2022
4536 Clouds 16 1020 58 10000 2.57 300 17:32 28.03.2022
4537 Clouds 15 1021 61 10000 2.06 300 15:54 28.03.2022
4538 Clouds 14 1022 60 10000 1.03 0 14:27 28.03.2022
4539 Clouds 13 1022 63 10000 1.03 0 13:35 28.03.2022
4540 Clouds 12 1023 71 10000 1.03 0 11:57 28.03.2022
4541 Clouds 11 1023 79 10000 1.54 190 10:50 28.03.2022
4542 Clouds 10 1023 82 10000 1.03 0 09:41 28.03.2022
4543 Clouds 10 1025 85 10000 2.06 230 08:49 28.03.2022
4544 Clouds 10 1025 82 10000 1.03 0 08:21 28.03.2022
4545 Clouds 10 1025 82 10000 1.03 0 08:21 28.03.2022
4546 Clouds 10 1024 82 10000 1.03 0 07:27 28.03.2022
4547 Clouds 11 1027 79 10000 1.54 140 02:48 28.03.2022
4548 Clouds 12 1028 74 10000 1.03 130 23:24 27.03.2022
4549 Clouds 13 1028 73 10000 1.54 130 22:22 27.03.2022
4550 Clouds 13 1029 70 10000 1.54 110 21:40 27.03.2022
4551 Clouds 13 1029 70 10000 1.54 110 21:40 27.03.2022
4552 Clouds 14 1029 67 10000 1.54 110 20:53 27.03.2022
4553 Clouds 15 1029 65 10000 1.54 0 19:44 27.03.2022
4554 Clouds 16 1030 64 10000 1.54 0 18:47 27.03.2022
4555 Clouds 16 1030 64 10000 1.54 0 18:47 27.03.2022
4556 Clouds 16 1030 64 10000 2.06 0 18:26 27.03.2022
4557 Clouds 16 1030 63 10000 2.06 0 17:38 27.03.2022
4558 Clouds 17 1031 56 10000 3.09 80 15:57 27.03.2022
4559 Clouds 16 1032 56 10000 3.09 90 14:22 27.03.2022
4560 Clouds 15 1033 59 10000 2.57 100 13:42 27.03.2022
4561 Clouds 13 1034 76 10000 0.51 0 11:46 27.03.2022
4562 Clouds 10 1033 85 10000 1.54 50 10:23 27.03.2022
4563 Clouds 6 1033 89 10000 1.54 120 07:55 27.03.2022
4564 Clear 7 1033 82 10000 1.54 110 05:18 27.03.2022
4565 Clouds 9 1034 79 10000 2.06 50 00:30 27.03.2022
4566 Clouds 11 1034 75 10000 2.06 70 22:58 26.03.2022
4567 Clouds 11 1034 73 10000 2.57 90 22:27 26.03.2022
4568 Clouds 12 1033 66 10000 2.06 90 21:31 26.03.2022
4569 Clouds 15 1033 55 10000 2.57 90 19:45 26.03.2022
4570 Clouds 17 1033 42 10000 3.09 70 18:44 26.03.2022
4571 Clouds 18 1033 42 10000 3.09 60 17:44 26.03.2022
4572 Clouds 18 1033 41 10000 3.09 90 16:47 26.03.2022
4573 Clouds 19 1033 39 10000 3.09 110 15:43 26.03.2022
4574 Clouds 19 1034 47 10000 3.6 40 14:18 26.03.2022
4575 Clouds 19 1034 45 10000 1.54 30 13:47 26.03.2022
4576 Clouds 18 1034 48 10000 1.03 0 12:31 26.03.2022
4577 Clouds 14 1034 60 10000 0.51 0 10:49 26.03.2022
4578 Clear 10 1034 74 10000 0.51 0 09:21 26.03.2022
4579 Clear 7 1034 80 10000 0.51 80 07:34 26.03.2022
4580 Clear 6 1032 76 10000 1.54 50 05:49 26.03.2022
4581 Clear 8 1033 69 10000 1.03 70 02:34 26.03.2022
4582 Clouds 10 1032 59 10000 1.03 0 22:47 25.03.2022
4583 Clouds 12 1032 50 10000 1.03 340 20:58 25.03.2022
4584 Clouds 13 1031 47 10000 1.03 300 20:26 25.03.2022
4585 Clouds 13 1031 47 10000 1.03 300 20:26 25.03.2022
4586 Clouds 16 1031 38 10000 0.51 0 19:19 25.03.2022
4587 Clouds 17 1031 36 10000 1.54 150 18:36 25.03.2022
4588 Clear 18 1031 33 10000 2.06 170 17:34 25.03.2022
4589 Clouds 18 1032 29 6000 2.06 220 16:27 25.03.2022
4590 Clouds 19 1031 28 10000 1.54 100 15:37 25.03.2022
4591 Clear 18 1033 31 10000 2.06 200 13:32 25.03.2022
4592 Clouds 15 1033 42 10000 0.51 0 11:25 25.03.2022
4593 Clouds 11 1032 61 10000 1.03 80 09:37 25.03.2022
4594 Clouds 9 1031 65 10000 0.51 0 08:50 25.03.2022
4595 Clouds 7 1031 67 10000 1.54 70 07:46 25.03.2022
4596 Clouds 7 1031 70 10000 1.03 90 07:19 25.03.2022
4597 Clouds 8 1030 63 10000 1.54 140 02:37 25.03.2022
4598 Clouds 10 1030 55 10000 0.51 120 23:49 24.03.2022
4599 Clouds 11 1030 50 10000 1.03 0 22:24 24.03.2022
4600 Clouds 13 1029 54 10000 1.54 290 20:58 24.03.2022
4601 Clouds 14 1030 48 10000 1.28 32 19:49 24.03.2022
4602 Clouds 16 1029 31 10000 2.57 260 18:45 24.03.2022
4603 Clear 18 1029 32 10000 3.09 270 17:36 24.03.2022
4604 Clear 18 1029 32 10000 3.09 270 17:36 24.03.2022
4605 Clouds 18 1029 31 10000 1.54 270 16:28 24.03.2022
4606 Clouds 19 1030 30 10000 2.06 240 14:51 24.03.2022
4607 Clouds 18 1030 35 10000 1.54 0 14:22 24.03.2022
4608 Clear 18 1030 38 10000 1.03 0 13:33 24.03.2022
4609 Clear 16 1031 51 10000 1.54 260 12:24 24.03.2022
4610 Clear 14 1030 61 10000 1.03 0 10:48 24.03.2022
4611 Clear 9 1029 76 10000 1.54 120 09:24 24.03.2022
4612 Clear 7 1030 76 10000 1.54 120 08:32 24.03.2022
4613 Clouds 8 1028 69 10000 2.06 90 04:52 24.03.2022
4614 Clouds 9 1030 63 10000 2.06 100 23:41 23.03.2022
4615 Clouds 10 1029 65 10000 1.54 120 22:18 23.03.2022
4616 Clouds 11 1029 59 10000 1.03 140 21:21 23.03.2022
4617 Clouds 14 1029 47 10000 1.54 230 19:51 23.03.2022
4618 Clear 15 1028 42 10000 0.51 0 19:25 23.03.2022
4619 Clear 17 1029 36 10000 2.06 200 17:47 23.03.2022
4620 Clear 18 1029 33 10000 2.06 150 17:18 23.03.2022
4621 Clear 19 1029 29 10000 3.13 165 15:21 23.03.2022
4622 Clear 18 1030 29 10000 2.57 140 14:42 23.03.2022
4623 Clear 18 1031 34 10000 2.57 200 13:30 23.03.2022
4624 Clear 14 1029 53 10000 1.54 110 10:37 23.03.2022
4625 Clear 7 1028 77 10000 0.51 0 07:56 23.03.2022
4626 Clear 8 1028 74 10000 2.06 80 05:40 23.03.2022
4627 Clouds 10 1028 72 10000 1.03 0 01:41 23.03.2022
4628 Clouds 11 1028 69 10000 2.06 130 00:24 23.03.2022
4629 Clouds 13 1028 71 10000 2.36 104 21:33 22.03.2022
4630 Clouds 14 1027 66 10000 2.57 90 20:55 22.03.2022
4631 Clouds 14 1028 63 10000 2.06 90 19:56 22.03.2022
4632 Clouds 15 1027 61 10000 2.06 100 19:25 22.03.2022
4633 Clouds 16 1027 55 10000 2.57 100 18:45 22.03.2022
4634 Clouds 17 1027 48 10000 3.09 0 17:42 22.03.2022
4635 Clouds 18 1027 45 10000 2.57 0 16:35 22.03.2022
4636 Clouds 18 1027 45 10000 3.6 110 15:37 22.03.2022
4637 Clouds 18 1028 48 10000 3.6 0 15:18 22.03.2022
4638 Clouds 17 1028 51 10000 4.12 150 14:41 22.03.2022
4639 Clear 17 1028 45 10000 4.12 140 13:37 22.03.2022
4640 Clouds 15 1029 56 10000 2.57 130 11:52 22.03.2022
4641 Clouds 14 1028 61 10000 1.03 0 10:51 22.03.2022
4642 Clouds 10 1027 69 10000 1.54 0 08:40 22.03.2022
4643 Clouds 7 1027 86 10000 1.03 80 06:58 22.03.2022
4644 Clouds 8 1027 66 10000 1.03 110 03:54 22.03.2022
4645 Clouds 8 1027 61 10000 1.03 0 00:34 22.03.2022
4646 Clouds 8 1027 61 10000 1.54 0 22:46 21.03.2022
4647 Clouds 9 1027 58 10000 1.03 0 21:20 21.03.2022
4648 Clouds 9 1027 57 10000 1.54 120 20:42 21.03.2022
4649 Clouds 10 1027 57 10000 1.03 0 19:59 21.03.2022
4650 Clouds 10 1026 55 10000 1.03 0 19:35 21.03.2022
4651 Clouds 11 1026 53 10000 1.03 0 18:46 21.03.2022
4652 Clouds 11 1026 49 10000 1.03 0 17:32 21.03.2022
4653 Clouds 11 1026 48 10000 1.54 120 16:53 21.03.2022
4654 Clouds 11 1026 46 10000 1.54 140 16:24 21.03.2022
4655 Clouds 11 1026 44 10000 1.79 125 15:21 21.03.2022
4656 Clouds 11 1026 43 10000 2.06 180 14:28 21.03.2022
4657 Clouds 11 1026 42 10000 2.57 180 12:53 21.03.2022
4658 Clouds 10 1027 49 10000 3.09 200 11:54 21.03.2022
4659 Clouds 8 1026 57 10000 2.57 180 10:49 21.03.2022
4660 Clear 4 1026 84 7000 0.51 60 09:21 21.03.2022
4661 Mist 1 1025 83 4200 0.51 0 06:59 21.03.2022
4662 Clear 2 1025 77 7000 0 0 03:29 21.03.2022
4663 Clear 3 1026 81 9000 1.54 50 00:35 21.03.2022
4664 Clear 5 1026 75 10000 2.06 80 22:55 20.03.2022
4665 Clear 5 1026 70 10000 2.06 80 21:57 20.03.2022
4666 Clear 6 1026 68 10000 1.54 100 21:29 20.03.2022
4667 Clear 7 1026 60 10000 1.54 90 20:45 20.03.2022
4668 Clear 8 1025 55 10000 1.54 90 20:00 20.03.2022
4669 Clear 8 1025 51 10000 1.54 90 19:38 20.03.2022
4670 Clear 10 1026 45 10000 1.54 0 18:40 20.03.2022
4671 Clear 11 1026 45 10000 2.06 0 17:37 20.03.2022
4672 Clear 11 1026 42 10000 3.6 110 16:57 20.03.2022
4673 Clouds 11 1026 43 10000 3.6 130 15:43 20.03.2022
4674 Clouds 11 1026 44 10000 4.12 100 14:36 20.03.2022
4675 Clouds 10 1028 53 10000 3.09 90 13:18 20.03.2022
4676 Clear 9 1030 67 10000 2.57 0 11:32 20.03.2022
4677 Clear 6 1029 75 10000 2.57 100 09:39 20.03.2022
4678 Clear 4 1030 79 10000 1.54 30 07:49 20.03.2022
4679 Clear 4 1030 80 10000 3.09 90 05:48 20.03.2022
4680 Clear 5 1032 75 10000 4.63 100 02:45 20.03.2022
4681 Clear 6 1033 66 10000 3.6 0 00:48 20.03.2022
4682 Clear 7 1033 61 10000 3.6 0 23:20 19.03.2022
4683 Clear 7 1033 59 10000 4.63 90 21:32 19.03.2022
4684 Clear 9 1033 51 10000 5.14 90 20:58 19.03.2022
4685 Clear 12 1034 54 10000 3.09 90 18:59 19.03.2022
4686 Clear 13 1034 52 10000 4.12 90 18:24 19.03.2022
4687 Clear 14 1035 51 10000 4.12 90 17:40 19.03.2022
4688 Clear 16 1035 42 10000 3.09 0 16:24 19.03.2022
4689 Clear 15 1036 42 10000 4.63 0 15:19 19.03.2022
4690 Clear 14 1038 48 10000 4.63 0 13:20 19.03.2022
4691 Clear 13 1039 53 10000 5.14 100 12:41 19.03.2022
4692 Clear 13 1038 53 10000 4.63 100 11:54 19.03.2022
4693 Clear 12 1040 60 10000 5.14 100 11:25 19.03.2022
4694 Clear 8 1040 71 10000 3.6 100 07:59 19.03.2022
4695 Clear 7 1041 76 10000 1.03 0 03:53 19.03.2022
4696 Clear 8 1042 73 10000 1.54 40 02:30 19.03.2022
4697 Clear 9 1042 75 10000 2.57 90 23:46 18.03.2022
4698 Clear 10 1042 74 10000 3.09 90 22:28 18.03.2022
4699 Clear 10 1042 69 10000 2.06 100 21:46 18.03.2022
4700 Clear 12 1042 59 10000 1.54 120 19:52 18.03.2022
4701 Clear 12 1042 59 10000 1.54 120 19:52 18.03.2022
4702 Clear 13 1042 55 10000 1.54 120 19:21 18.03.2022
4703 Clouds 15 1042 55 10000 2.57 130 17:52 18.03.2022
4704 Clouds 15 1042 49 10000 2.06 140 16:49 18.03.2022
4705 Clouds 16 1042 50 10000 3.09 180 15:32 18.03.2022
4706 Clouds 15 1042 55 9000 2.57 180 14:23 18.03.2022
4707 Clouds 14 1043 61 10000 2.57 160 12:36 18.03.2022
4708 Clouds 11 1043 79 10000 0.51 0 10:53 18.03.2022
4709 Clouds 7 1041 90 10000 1.54 90 09:30 18.03.2022
4710 Fog 5 1041 90 10000 1.03 0 08:32 18.03.2022
4711 Fog 4 1040 90 600 1.03 60 06:37 18.03.2022
4712 Clouds 6 1037 91 6000 1.54 150 02:57 18.03.2022
4713 Clouds 8 1035 87 10000 2.06 150 00:23 18.03.2022
4714 Clouds 8 1035 84 10000 2.06 170 23:24 17.03.2022
4715 Clouds 9 1033 81 10000 2.57 230 22:24 17.03.2022
4716 Clouds 9 1033 79 10000 2.57 210 21:48 17.03.2022
4717 Clouds 10 1033 80 10000 2.06 190 21:23 17.03.2022
4718 Clouds 10 1032 77 10000 2.57 200 20:44 17.03.2022
4719 Clouds 10 1032 75 10000 2.06 190 19:48 17.03.2022
4720 Clouds 12 1030 68 10000 3.09 200 18:59 17.03.2022
4721 Clouds 12 1030 68 10000 5.66 230 18:39 17.03.2022
4722 Clouds 12 1028 67 10000 8.23 240 16:49 17.03.2022
4723 Clouds 12 1028 66 10000 9.26 240 15:44 17.03.2022
4724 Clouds 12 1028 66 10000 8.23 240 15:24 17.03.2022
4725 Clouds 11 1028 64 10000 6.69 230 14:28 17.03.2022
4726 Clouds 11 1027 68 10000 5.14 210 12:54 17.03.2022
4727 Clouds 11 1027 70 10000 4.63 200 12:23 17.03.2022
4728 Clouds 9 1028 77 10000 3.09 200 11:27 17.03.2022
4729 Clouds 7 1027 83 10000 3.6 200 10:29 17.03.2022
4730 Clouds 3 1026 90 10000 2.57 170 08:34 17.03.2022
4731 Clouds 2 1026 90 10000 2.57 160 07:33 17.03.2022
4732 Clear 3 1024 90 10000 2.57 170 05:47 17.03.2022
4733 Clouds 4 1023 87 10000 2.57 280 01:23 17.03.2022
4734 Clouds 5 1022 90 10000 4.63 290 23:45 16.03.2022
4735 Clouds 6 1021 91 10000 4.12 300 22:45 16.03.2022
4736 Clouds 6 1021 93 10000 3.6 300 22:21 16.03.2022
4737 Clouds 6 1021 93 10000 5.14 300 21:37 16.03.2022
4738 Clouds 6 1018 90 10000 3.09 290 19:40 16.03.2022
4739 Rain 6 1018 90 10000 3.09 310 19:19 16.03.2022
4740 Rain 6 1018 90 10000 4.12 310 18:35 16.03.2022
4741 Rain 6 1018 90 7000 4.63 300 17:41 16.03.2022
4742 Rain 7 1017 86 10000 5.66 300 16:50 16.03.2022
4743 Rain 9 1017 85 4700 4.12 300 15:53 16.03.2022
4744 Clouds 11 1017 76 10000 2.06 280 14:24 16.03.2022
4745 Clouds 11 1017 78 10000 1.03 0 13:22 16.03.2022
4746 Clouds 10 1018 81 8000 1.03 0 11:51 16.03.2022
4747 Clouds 10 1019 83 8000 1.54 210 11:19 16.03.2022
4748 Clouds 9 1018 85 10000 1.03 0 10:18 16.03.2022
4749 Clouds 8 1018 86 10000 1.03 0 08:38 16.03.2022
4750 Clouds 8 1017 82 10000 1.54 170 04:35 16.03.2022
4751 Clouds 10 1018 74 10000 1.54 170 00:42 16.03.2022
4752 Clouds 10 1017 65 10000 1.54 170 22:37 15.03.2022
4753 Clouds 11 1017 64 10000 2.06 180 21:50 15.03.2022
4754 Clouds 11 1017 60 10000 2.06 190 19:47 15.03.2022
4755 Clouds 12 1017 57 10000 2.57 190 18:41 15.03.2022
4756 Clouds 13 1018 57 10000 4.12 190 16:47 15.03.2022
4757 Clouds 13 1017 54 10000 4.12 190 16:18 15.03.2022
4758 Clouds 13 1018 56 10000 3.6 180 14:55 15.03.2022
4759 Clear 13 1018 57 10000 3.09 190 14:30 15.03.2022
4760 Clouds 12 1020 64 10000 3.09 170 13:24 15.03.2022
4761 Clouds 10 1021 69 10000 2.57 170 11:48 15.03.2022
4762 Clouds 10 1020 65 10000 2.57 170 10:56 15.03.2022
4763 Clouds 6 1022 82 10000 0.51 0 09:31 15.03.2022
4764 Clouds 4 1021 77 10000 0.51 0 08:32 15.03.2022
4765 Clouds 3 1021 78 10000 1.54 300 07:44 15.03.2022
4766 Clear 2 1021 81 10000 1.03 100 06:32 15.03.2022
4767 Clear 4 1023 75 10000 2.06 130 01:59 15.03.2022
4768 Clouds 7 1025 68 10000 2.06 180 23:32 14.03.2022
4769 Clouds 7 1025 67 10000 2.06 180 22:54 14.03.2022
4770 Clouds 7 1026 67 10000 2.27 193 21:56 14.03.2022
4771 Clouds 8 1025 69 10000 2.06 190 21:18 14.03.2022
4772 Clouds 8 1024 69 10000 2.06 200 20:30 14.03.2022
4773 Clouds 8 1023 65 10000 2.06 190 19:33 14.03.2022
4774 Clouds 9 1022 66 10000 3.09 210 18:20 14.03.2022
4775 Clouds 9 1022 57 10000 7.72 260 17:42 14.03.2022
4776 Clouds 11 1021 44 10000 7.72 250 16:37 14.03.2022
4777 Clouds 12 1021 44 10000 6.69 220 14:58 14.03.2022
4778 Clouds 12 1021 47 10000 5.66 230 13:58 14.03.2022
4779 Clear 9 1022 70 10000 3.6 210 11:27 14.03.2022
4780 Clear 7 1020 84 10000 3.09 200 09:57 14.03.2022
4781 Clear 6 1019 86 10000 3.09 200 09:38 14.03.2022
4782 Clear 5 1019 89 10000 2.06 180 08:58 14.03.2022
4783 Clear 4 1018 90 10000 1.54 180 08:30 14.03.2022
4784 Clouds 4 1017 90 10000 1.54 160 06:47 14.03.2022
4785 Clear 5 1014 87 10000 2.06 180 03:27 14.03.2022
4786 Clouds 5 1012 86 10000 1.54 170 01:39 14.03.2022
4787 Clouds 6 1011 83 10000 2.06 180 00:29 14.03.2022
4788 Clouds 8 1009 78 10000 2.06 170 21:49 13.03.2022
4789 Clouds 8 1008 77 10000 2.06 0 21:21 13.03.2022
4790 Clouds 8 1008 77 10000 2.06 170 20:46 13.03.2022
4791 Clouds 9 1007 74 10000 1.54 180 20:22 13.03.2022
4792 Clouds 9 1006 74 10000 2.57 180 19:42 13.03.2022
4793 Clouds 9 1006 76 10000 1.54 170 19:22 13.03.2022
4794 Clouds 10 1005 68 10000 2.57 180 18:45 13.03.2022
4795 Clouds 10 1004 64 10000 2.57 170 18:25 13.03.2022
4796 Clouds 11 1003 59 10000 3.6 210 17:36 13.03.2022
4797 Clouds 12 1003 58 10000 5.14 190 16:45 13.03.2022
4798 Clouds 12 1003 55 10000 5.66 180 16:21 13.03.2022
4799 Clouds 12 1002 56 10000 4.63 180 15:39 13.03.2022
4800 Clouds 12 1001 54 10000 5.14 180 14:37 13.03.2022
4801 Clouds 12 1001 56 10000 5.66 170 13:28 13.03.2022
4802 Clouds 11 1001 64 10000 5.66 170 12:22 13.03.2022
4803 Clouds 11 1001 67 10000 4.63 160 11:38 13.03.2022
4804 Clouds 10 1000 73 10000 4.63 160 10:49 13.03.2022
4805 Clouds 10 1000 76 10000 4.63 170 10:25 13.03.2022
4806 Clouds 9 1000 81 10000 4.63 160 09:42 13.03.2022
4807 Clouds 8 1000 85 10000 4.12 140 08:49 13.03.2022
4808 Clouds 8 1000 85 10000 5.66 150 08:23 13.03.2022
4809 Clouds 8 999 81 10000 5.14 150 06:40 13.03.2022
4810 Clouds 8 1001 78 10000 5.66 160 03:56 13.03.2022
4811 Clouds 9 1002 70 10000 4.63 140 00:48 13.03.2022
4812 Clouds 9 1003 66 10000 5.14 150 22:48 12.03.2022
4813 Clouds 9 1003 62 10000 4.63 140 20:59 12.03.2022
4814 Clouds 9 1004 63 10000 4.63 140 19:58 12.03.2022
4815 Clouds 10 1004 60 10000 4.63 140 19:39 12.03.2022
4816 Clouds 10 1005 65 10000 4.12 150 18:31 12.03.2022
4817 Clouds 11 1005 61 10000 4.12 170 17:46 12.03.2022
4818 Clouds 12 1005 56 10000 3.6 0 16:25 12.03.2022
4819 Clouds 12 1004 51 10000 4.12 170 15:24 12.03.2022
4820 Clouds 12 1004 54 10000 4.12 180 14:52 12.03.2022
4821 Clouds 11 1005 62 10000 4.12 190 13:53 12.03.2022
4822 Clouds 11 1005 62 10000 4.12 190 13:53 12.03.2022
4823 Clouds 10 1004 68 10000 3.6 180 12:25 12.03.2022
4824 Clouds 10 1004 70 10000 4.63 190 11:51 12.03.2022
4825 Clouds 10 1003 73 10000 4.12 180 11:19 12.03.2022
4826 Clouds 8 1003 80 10000 3.6 190 09:58 12.03.2022
4827 Clouds 8 1003 80 10000 3.6 190 09:38 12.03.2022
4828 Clouds 8 1001 84 10000 4.63 190 07:50 12.03.2022
4829 Clouds 9 1000 84 10000 2.57 150 04:50 12.03.2022
4830 Clouds 9 1000 84 10000 2.57 150 00:21 12.03.2022
4831 Rain 8 1000 85 10000 3.09 160 23:28 11.03.2022
4832 Clouds 9 999 87 10000 2.57 170 21:47 11.03.2022
4833 Rain 9 998 88 10000 4.12 190 20:57 11.03.2022
4834 Rain 9 998 88 10000 4.12 190 20:37 11.03.2022
4835 Rain 9 998 88 10000 4.12 190 20:37 11.03.2022
4836 Rain 9 997 88 10000 4.63 150 19:52 11.03.2022
4837 Rain 9 997 91 10000 3.6 150 19:22 11.03.2022
4838 Clouds 11 996 82 6000 3.6 130 17:34 11.03.2022
4839 Rain 11 997 83 10000 3.09 140 16:38 11.03.2022
4840 Clouds 12 996 70 10000 4.63 130 15:55 11.03.2022
4841 Clouds 13 998 65 10000 6.17 140 14:20 11.03.2022
4842 Clouds 12 999 65 10000 5.66 130 12:45 11.03.2022
4843 Clouds 12 999 68 10000 5.66 130 12:21 11.03.2022
4844 Clouds 12 999 67 10000 5.66 140 11:53 11.03.2022
4845 Clouds 11 1002 70 10000 4.63 140 09:59 11.03.2022
4846 Clouds 10 1001 73 10000 4.63 130 08:56 11.03.2022
4847 Clouds 10 1003 78 10000 4.12 130 08:24 11.03.2022
4848 Clouds 10 1002 75 10000 5.14 130 07:45 11.03.2022
4849 Clouds 11 1003 75 10000 3.09 120 05:44 11.03.2022
4850 Clouds 11 1006 78 10000 3.09 130 03:41 11.03.2022
4851 Clouds 12 1008 72 10000 3.09 130 23:36 10.03.2022
4852 Clouds 12 1009 73 10000 3.09 140 22:30 10.03.2022
4853 Clouds 11 1010 74 10000 2.57 150 21:27 10.03.2022
4854 Clouds 11 1010 73 10000 2.57 160 20:55 10.03.2022
4855 Clouds 12 1010 66 10000 2.06 0 19:23 10.03.2022
4856 Clouds 12 1010 65 10000 2.06 210 18:40 10.03.2022
4857 Clouds 13 1011 59 10000 5.14 190 17:19 10.03.2022
4858 Clouds 14 1011 56 10000 5.14 180 15:50 10.03.2022
4859 Clouds 14 1012 53 10000 4.63 180 14:39 10.03.2022
4860 Clouds 12 1012 61 10000 5.14 170 12:53 10.03.2022
4861 Clouds 11 1013 72 10000 3.6 160 11:42 10.03.2022
4862 Clouds 11 1014 75 10000 4.12 0 10:24 10.03.2022
4863 Clouds 10 1013 73 10000 3.6 140 08:49 10.03.2022
4864 Clouds 9 1012 73 10000 4.12 150 06:36 10.03.2022
4865 Clouds 9 1013 77 10000 3.09 140 03:52 10.03.2022
4866 Clouds 10 1014 75 10000 3.6 150 00:51 10.03.2022
4867 Clouds 10 1013 71 10000 4.12 160 22:46 09.03.2022
4868 Clouds 10 1013 71 10000 3.6 150 21:48 09.03.2022
4869 Clouds 10 1013 70 10000 2.57 160 21:23 09.03.2022
4870 Clouds 11 1012 65 10000 3.6 160 19:40 09.03.2022
4871 Clouds 11 1011 62 10000 3.6 160 18:19 09.03.2022
4872 Clouds 12 1010 57 10000 4.12 170 17:26 09.03.2022
4873 Clouds 12 1010 52 10000 6.17 170 16:23 09.03.2022
4874 Clouds 12 1011 57 10000 5.14 170 14:27 09.03.2022
4875 Clouds 12 1011 57 10000 5.14 180 13:51 09.03.2022
4876 Clouds 11 1011 61 10000 4.63 170 12:27 09.03.2022
4877 Clouds 11 1011 65 10000 4.63 180 11:48 09.03.2022
4878 Clouds 10 1012 71 10000 4.63 180 10:59 09.03.2022
4879 Clouds 9 1011 73 10000 4.63 160 09:40 09.03.2022
4880 Clouds 8 1011 81 10000 3.09 160 08:45 09.03.2022
4881 Clouds 8 1011 83 10000 3.09 170 06:25 09.03.2022
4882 Clouds 8 1012 74 10000 3.76 159 00:59 09.03.2022
4883 Clouds 9 1011 72 10000 3.09 0 23:48 08.03.2022
4884 Clouds 9 1012 71 10000 3.6 170 22:46 08.03.2022
4885 Clouds 9 1011 66 10000 4.12 180 21:51 08.03.2022
4886 Clouds 9 1010 63 10000 3.09 160 21:21 08.03.2022
4887 Clouds 10 1010 59 10000 3.09 150 20:21 08.03.2022
4888 Clouds 10 1009 59 10000 4.63 140 18:57 08.03.2022
4889 Clouds 10 1008 57 10000 4.63 140 18:21 08.03.2022
4890 Clouds 11 1009 55 10000 4.63 160 16:40 08.03.2022
4891 Clouds 10 1009 52 10000 3.6 150 14:36 08.03.2022
4892 Clear 9 1010 53 10000 4.12 140 13:23 08.03.2022
4893 Clear 7 1011 55 10000 4.12 150 12:20 08.03.2022
4894 Clear 6 1011 59 10000 3.09 120 11:41 08.03.2022
4895 Clear 4 1011 62 10000 3.09 0 10:27 08.03.2022
4896 Clear 2 1011 69 10000 4.12 130 08:54 08.03.2022
4897 Clear 1 1013 72 10000 2.57 110 05:49 08.03.2022
4898 Clouds 3 1016 71 10000 3.6 130 01:49 08.03.2022
4899 Clouds 3 1018 72 10000 3.6 110 22:41 07.03.2022
4900 Clear 4 1018 74 10000 3.09 100 21:36 07.03.2022
4901 Clear 4 1018 72 10000 3.6 90 20:55 07.03.2022
4902 Clear 4 1020 73 10000 2.57 100 20:26 07.03.2022
4903 Clear 5 1020 70 10000 3.6 90 19:41 07.03.2022
4904 Clouds 6 1019 62 10000 2.57 0 18:47 07.03.2022
4905 Clouds 7 1020 56 10000 3.6 110 17:58 07.03.2022
4906 Clouds 8 1021 56 10000 2.57 0 16:56 07.03.2022
4907 Clouds 8 1021 55 10000 4.12 90 16:30 07.03.2022
4908 Clouds 7 1024 62 10000 3.6 130 14:31 07.03.2022
4909 Clouds 6 1026 71 10000 2.57 120 12:33 07.03.2022
4910 Clouds 5 1027 72 10000 1.03 0 10:45 07.03.2022
4911 Clouds 4 1027 72 10000 1.03 0 10:24 07.03.2022
4912 Clouds 1 1028 87 10000 1.54 50 06:35 07.03.2022
4913 Clear 1 1031 80 10000 1.03 0 00:23 07.03.2022
4914 Clouds 2 1030 76 10000 2.06 70 23:41 06.03.2022
4915 Clear 3 1030 72 10000 1.03 0 22:58 06.03.2022
4916 Clear 3 1030 73 10000 2.06 270 22:24 06.03.2022
4917 Clear 3 1030 73 10000 2.06 270 22:24 06.03.2022
4918 Clouds 4 1030 65 10000 1.03 0 20:51 06.03.2022
4919 Clear 5 1029 63 10000 1.54 80 20:26 06.03.2022
4920 Clear 6 1029 59 10000 3.09 80 19:23 06.03.2022
4921 Clouds 8 1029 52 10000 3.09 60 18:25 06.03.2022
4922 Clouds 9 1030 54 10000 5.14 50 17:21 06.03.2022
4923 Clouds 9 1030 52 10000 4.12 40 16:43 06.03.2022
4924 Clouds 9 1030 49 10000 4.12 50 15:54 06.03.2022
4925 Clouds 9 1030 53 10000 3.09 70 14:57 06.03.2022
4926 Clouds 9 1030 51 10000 3.09 70 14:33 06.03.2022
4927 Clouds 8 1032 58 10000 5.14 50 13:30 06.03.2022
4928 Clouds 7 1033 65 10000 4.12 70 12:35 06.03.2022
4929 Clouds 6 1032 72 10000 3.09 20 11:18 06.03.2022
4930 Clouds 5 1032 81 10000 4.12 350 10:27 06.03.2022
4931 Clouds 2 1031 85 10000 2.57 300 08:30 06.03.2022
4932 Clouds 2 1031 86 10000 2.57 300 08:30 06.03.2022
4933 Clouds 2 1032 89 10000 1.54 330 07:35 06.03.2022
4934 Clouds 3 1031 89 10000 2.57 360 06:19 06.03.2022
4935 Clouds 4 1030 81 10000 4.12 360 00:53 06.03.2022
4936 Clouds 4 1030 80 10000 3.6 10 00:31 06.03.2022
4937 Clouds 4 1031 83 10000 5.14 20 23:23 05.03.2022
4938 Clouds 4 1030 77 10000 4.12 10 22:53 05.03.2022
4939 Clouds 4 1030 76 10000 5.66 10 21:56 05.03.2022
4940 Clouds 4 1030 74 10000 5.14 360 21:23 05.03.2022
4941 Clouds 6 1028 69 10000 7.72 20 19:44 05.03.2022
4942 Clouds 6 1028 63 10000 7.72 30 18:54 05.03.2022
4943 Clouds 7 1027 61 10000 6.17 30 18:27 05.03.2022
4944 Clouds 8 1027 50 10000 7.72 10 16:34 05.03.2022
4945 Clouds 8 1027 51 10000 9.26 20 15:31 05.03.2022
4946 Clouds 8 1027 50 10000 7.72 30 14:47 05.03.2022
4947 Clouds 8 1027 51 10000 7.2 10 14:29 05.03.2022
4948 Clouds 8 1027 55 10000 6.69 10 13:21 05.03.2022
4949 Clouds 6 1027 68 10000 6.17 350 11:48 05.03.2022
4950 Clouds 6 1027 67 10000 4.63 340 11:18 05.03.2022
4951 Clear 4 1027 78 10000 2.57 340 09:59 05.03.2022
4952 Clear 3 1026 84 10000 2.57 330 08:59 05.03.2022
4953 Clouds 2 1025 81 10000 2.57 330 07:38 05.03.2022
4954 Clouds 3 1024 87 10000 2.57 330 05:43 05.03.2022
4955 Clouds 4 1023 86 10000 1.54 350 02:27 05.03.2022
4956 Clouds 4 1022 89 10000 2.06 330 23:37 04.03.2022
4957 Clouds 4 1022 85 10000 2.57 320 22:42 04.03.2022
4958 Clouds 5 1021 84 10000 2.06 310 21:48 04.03.2022
4959 Clouds 5 1022 84 10000 2.57 300 20:52 04.03.2022
4960 Clouds 5 1022 84 10000 2.57 290 20:22 04.03.2022
4961 Clouds 6 1022 83 10000 3.6 300 19:35 04.03.2022
4962 Clouds 7 1021 73 10000 5.14 290 18:43 04.03.2022
4963 Clouds 8 1021 70 10000 5.66 290 17:31 04.03.2022
4964 Clouds 9 1021 69 10000 5.66 290 16:43 04.03.2022
4965 Clouds 9 1020 70 10000 5.66 290 15:28 04.03.2022
4966 Clouds 8 1020 73 10000 5.66 300 14:19 04.03.2022
4967 Clouds 8 1020 77 10000 5.14 290 13:24 04.03.2022
4968 Clouds 7 1019 87 10000 3.09 290 11:41 04.03.2022
4969 Clouds 6 1019 90 10000 1.54 290 10:42 04.03.2022
4970 Clouds 5 1019 91 10000 2.06 330 09:40 04.03.2022
4971 Clouds 5 1018 92 10000 2.06 310 08:34 04.03.2022
4972 Clouds 5 1017 94 10000 0.89 197 07:23 04.03.2022
4973 Rain 5 1016 94 10000 4.63 300 03:43 04.03.2022
4974 Rain 6 1016 93 10000 5.14 310 00:22 04.03.2022
4975 Drizzle 7 1015 93 3900 4.63 300 22:21 03.03.2022
4976 Drizzle 7 1016 95 3500 5.14 310 21:39 03.03.2022
4977 Drizzle 7 1015 93 4500 4.12 300 21:18 03.03.2022
4978 Drizzle 8 1014 92 800 1.54 290 19:48 03.03.2022
4979 Mist 8 1014 91 1200 1.03 50 18:51 03.03.2022
4980 Drizzle 8 1013 89 1200 1.03 30 18:22 03.03.2022
4981 Haze 8 1013 88 3900 1.54 40 17:27 03.03.2022
4982 Rain 9 1013 83 3500 1.03 0 15:48 03.03.2022
4983 Haze 8 1014 90 2500 1.03 0 14:59 03.03.2022
4984 Drizzle 8 1014 92 2500 1.03 0 14:33 03.03.2022
4985 Haze 8 1014 90 3300 0.51 0 13:18 03.03.2022
4986 Haze 8 1014 90 3300 0.51 0 13:18 03.03.2022
4987 Haze 8 1014 90 3300 0.51 0 13:18 03.03.2022
4988 Clouds 8 1014 87 7000 1.03 0 11:45 03.03.2022
4989 Clouds 7 1014 88 7000 2.06 160 10:40 03.03.2022
4990 Clouds 6 1013 89 7000 1.54 120 08:45 03.03.2022
4991 Clouds 6 1012 86 6000 2.57 140 07:25 03.03.2022
4992 Clouds 6 1012 85 6000 3.09 140 06:34 03.03.2022
4993 Clouds 6 1014 80 10000 3.09 130 01:45 03.03.2022
4994 Clouds 6 1015 85 10000 3.09 130 23:29 02.03.2022
4995 Clouds 6 1015 84 10000 3.09 140 22:50 02.03.2022
4996 Clouds 6 1015 84 10000 3.09 140 22:50 02.03.2022
4997 Clouds 7 1015 88 10000 3.09 120 21:29 02.03.2022
4998 Clouds 7 1015 86 10000 3.6 120 20:44 02.03.2022
4999 Clouds 7 1016 86 10000 3.6 120 19:56 02.03.2022
5000 Clouds 7 1017 89 10000 3.6 120 19:34 02.03.2022
5001 Clouds 7 1017 89 10000 4.12 120 18:44 02.03.2022
5002 Clouds 7 1016 86 10000 3.09 130 17:57 02.03.2022
5003 Clouds 7 1016 85 10000 2.57 0 17:21 02.03.2022
5004 Rain 7 1017 85 10000 2.57 0 16:42 02.03.2022
5005 Rain 7 1018 85 10000 3.09 100 14:43 02.03.2022
5006 Rain 7 1020 89 10000 2.57 100 13:24 02.03.2022
5007 Clouds 7 1020 88 10000 2.06 0 12:42 02.03.2022
5008 Clouds 7 1020 88 10000 3.09 100 11:40 02.03.2022
5009 Clouds 7 1020 88 10000 3.6 100 11:21 02.03.2022
5010 Rain 6 1021 92 10000 3.09 100 09:41 02.03.2022
5011 Clouds 6 1021 91 10000 3.6 100 08:54 02.03.2022
5012 Clouds 6 1021 90 10000 3.6 0 07:28 02.03.2022
5013 Clouds 6 1021 91 10000 3.6 100 06:40 02.03.2022
5014 Clouds 6 1026 83 10000 4.12 90 01:32 02.03.2022
5015 Clouds 6 1026 78 10000 3.6 90 23:47 01.03.2022
5016 Clouds 6 1026 78 10000 4.63 80 22:45 01.03.2022
5017 Clouds 6 1027 76 10000 3.6 70 21:58 01.03.2022
5018 Clouds 6 1026 75 10000 5.14 80 21:24 01.03.2022
5019 Clouds 6 1026 75 10000 3.6 90 20:30 01.03.2022
5020 Clouds 6 1026 75 10000 3.6 90 20:30 01.03.2022
5021 Clouds 7 1026 69 10000 4.12 80 19:28 01.03.2022
5022 Clouds 7 1026 67 10000 3.6 80 18:49 01.03.2022
5023 Clouds 8 1026 63 10000 4.12 80 18:19 01.03.2022
5024 Clouds 9 1027 62 10000 3.09 90 17:19 01.03.2022
5025 Clouds 9 1027 57 10000 4.12 60 16:31 01.03.2022
5026 Clouds 10 1027 53 10000 5.66 50 15:32 01.03.2022
5027 Clouds 10 1028 56 10000 4.12 60 14:34 01.03.2022
5028 Clouds 9 1029 62 10000 3.09 80 13:45 01.03.2022
5029 Clouds 9 1029 64 10000 2.06 80 13:22 01.03.2022
5030 Clouds 7 1030 69 10000 4.12 50 12:27 01.03.2022
5031 Clouds 4 1029 87 10000 2.06 50 10:33 01.03.2022
5032 Fog 2 1029 90 10000 2.57 350 08:41 01.03.2022
5033 Fog 2 1028 92 10000 0.51 0 07:40 01.03.2022
5034 Mist 3 1027 94 3000 2.06 340 04:50 01.03.2022
5035 Clouds 5 1025 94 10000 2.06 340 01:43 01.03.2022
5036 Clouds 6 1024 92 10000 1.54 310 23:48 28.02.2022
5037 Clouds 6 1025 95 10000 1.03 320 23:19 28.02.2022
5038 Rain 7 1024 95 10000 2.06 300 21:59 28.02.2022
5039 Clouds 7 1023 98 10000 2.06 300 21:24 28.02.2022
5040 Rain 7 1021 90 10000 3.09 310 19:52 28.02.2022
5041 Rain 8 1021 90 7000 3.6 310 19:26 28.02.2022
5042 Rain 8 1020 90 8000 3.6 310 18:36 28.02.2022
5043 Rain 9 1019 93 6000 3.09 190 17:24 28.02.2022
5044 Rain 10 1018 90 4300 2.06 200 16:33 28.02.2022
5045 Clouds 10 1018 89 10000 3.09 180 15:23 28.02.2022
5046 Clouds 10 1018 87 4000 3.6 180 14:31 28.02.2022
5047 Clouds 10 1020 83 10000 3.09 190 13:34 28.02.2022
5048 Clouds 10 1019 80 10000 3.6 180 12:37 28.02.2022
5049 Clouds 9 1019 88 10000 3.6 180 11:40 28.02.2022
5050 Clouds 8 1018 88 10000 3.09 180 10:44 28.02.2022
5051 Rain 8 1018 86 10000 3.09 160 10:19 28.02.2022
5052 Rain 8 1019 89 10000 2.57 160 09:30 28.02.2022
5053 Rain 7 1019 85 8000 2.57 160 08:26 28.02.2022
5054 Rain 7 1018 85 10000 1.34 312 07:19 28.02.2022
5055 Clouds 6 1019 84 10000 2.06 0 04:31 28.02.2022
5056 Clouds 6 1019 79 10000 2.57 160 03:30 28.02.2022
5057 Clear 6 1019 66 10000 3.6 160 23:26 27.02.2022
5058 Clear 7 1019 60 10000 3.6 170 22:33 27.02.2022
5059 Clear 7 1020 58 10000 3.6 160 21:47 27.02.2022
5060 Clear 7 1019 56 10000 3.6 140 20:54 27.02.2022
5061 Clear 8 1019 55 10000 3.6 140 20:27 27.02.2022
5062 Clear 8 1020 60 10000 3.6 140 19:56 27.02.2022
5063 Clear 8 1019 57 10000 2.57 140 19:26 27.02.2022
5064 Clear 9 1019 58 10000 3.09 140 18:39 27.02.2022
5065 Clear 10 1018 52 10000 4.12 150 17:54 27.02.2022
5066 Clear 11 1019 50 10000 4.12 160 16:37 27.02.2022
5067 Clear 10 1019 52 10000 4.12 140 15:55 27.02.2022
5068 Clear 7 1022 66 10000 4.12 0 12:53 27.02.2022
5069 Clear 7 1022 67 10000 4.63 160 12:29 27.02.2022
5070 Clear 5 1023 72 10000 3.09 160 10:50 27.02.2022
5071 Clear 4 1022 75 10000 3.09 140 09:58 27.02.2022
5072 Clear 3 1022 77 10000 3.6 140 09:29 27.02.2022
5073 Clear 3 1022 77 10000 3.6 140 08:59 27.02.2022
5074 Clear 3 1021 73 10000 3.6 150 06:43 27.02.2022
5075 Clear 3 1022 71 10000 3.6 0 05:35 27.02.2022
5076 Clouds 5 1022 64 10000 3.6 0 00:37 27.02.2022
5077 Clouds 6 1023 64 10000 4.12 150 22:51 26.02.2022
5078 Clouds 7 1022 62 10000 4.12 150 21:38 26.02.2022
5079 Clouds 7 1022 58 10000 3.09 0 20:48 26.02.2022
5080 Clouds 8 1022 62 10000 3.6 150 19:59 26.02.2022
5081 Clouds 8 1023 65 10000 3.6 150 19:37 26.02.2022
5082 Clouds 9 1022 61 10000 2.57 170 18:46 26.02.2022
5083 Clouds 9 1023 62 10000 4.12 180 17:40 26.02.2022
5084 Clouds 10 1023 59 10000 4.12 180 16:48 26.02.2022
5085 Clouds 10 1023 58 10000 5.66 180 15:48 26.02.2022
5086 Clouds 10 1024 57 10000 5.66 180 15:20 26.02.2022
5087 Clouds 10 1024 61 10000 5.66 180 14:52 26.02.2022
5088 Clouds 10 1024 62 10000 5.14 190 14:25 26.02.2022
5089 Clouds 9 1025 69 10000 5.14 190 13:18 26.02.2022
5090 Clouds 8 1026 76 10000 3.09 180 11:54 26.02.2022
5091 Clouds 7 1027 79 10000 3.09 170 11:28 26.02.2022
5092 Clouds 6 1027 78 10000 2.57 170 10:31 26.02.2022
5093 Clouds 3 1027 85 10000 2.06 0 08:48 26.02.2022
5094 Clouds 3 1026 83 10000 1.34 345 06:46 26.02.2022
5095 Clouds 5 1028 78 10000 2.57 180 00:38 26.02.2022
5096 Clouds 5 1028 77 10000 1.54 170 22:45 25.02.2022
5097 Clouds 5 1028 76 10000 1.03 0 21:40 25.02.2022
5098 Clouds 6 1029 78 10000 1.54 180 21:21 25.02.2022
5099 Clouds 6 1028 79 10000 1.54 180 20:32 25.02.2022
5100 Clouds 8 1027 69 10000 1.03 0 18:41 25.02.2022
5101 Clouds 8 1027 63 10000 4.12 270 17:23 25.02.2022
5102 Clouds 9 1026 63 10000 4.63 280 16:21 25.02.2022
5103 Clouds 9 1026 66 10000 4.12 300 15:42 25.02.2022
5104 Clouds 9 1026 64 10000 4.63 290 15:20 25.02.2022
5105 Clouds 9 1026 63 10000 6.69 280 14:41 25.02.2022
5106 Clouds 9 1025 66 10000 6.69 280 13:36 25.02.2022
5107 Clouds 8 1025 70 10000 6.69 280 12:45 25.02.2022
5108 Clouds 8 1023 75 10000 4.63 300 11:28 25.02.2022
5109 Clouds 6 1022 81 10000 5.66 290 10:29 25.02.2022
5110 Clouds 6 1022 82 10000 5.66 280 09:53 25.02.2022
5111 Clouds 5 1020 80 10000 5.66 270 08:46 25.02.2022
5112 Clouds 5 1018 79 10000 6.69 280 07:37 25.02.2022
5113 Clouds 5 1016 81 10000 7.2 270 05:47 25.02.2022
5114 Clouds 5 1016 84 10000 6.69 260 03:34 25.02.2022
5115 Rain 3 1010 85 9000 4.63 200 23:42 24.02.2022
5116 Clouds 4 1010 76 10000 2.24 346 21:56 24.02.2022
5117 Clouds 4 1010 77 10000 3.6 210 21:37 24.02.2022
5118 Clouds 4 1010 75 10000 5.14 220 21:18 24.02.2022
5119 Clouds 5 1009 70 10000 6.17 240 19:38 24.02.2022
5120 Clouds 5 1008 68 10000 7.2 260 18:38 24.02.2022
5121 Clouds 5 1008 67 10000 9.26 260 18:18 24.02.2022
5122 Clouds 5 1008 67 10000 10.29 270 17:33 24.02.2022
5123 Clouds 5 1008 67 10000 10.29 270 17:33 24.02.2022
5124 Clouds 5 1006 68 10000 9.77 270 16:29 24.02.2022
5125 Clouds 5 1006 66 10000 10.29 280 15:47 24.02.2022
5126 Clouds 5 1005 74 10000 3.58 118 14:53 24.02.2022
5127 Clouds 4 1005 70 10000 11.32 270 14:26 24.02.2022
5128 Clouds 5 1005 72 10000 8.23 270 13:39 24.02.2022
5129 Clouds 4 1004 83 10000 10.29 250 12:49 24.02.2022
5130 Clouds 4 1003 80 10000 5.14 220 10:40 24.02.2022
5131 Clouds 3 1003 86 10000 4.12 210 08:58 24.02.2022
5132 Clouds 3 1003 86 10000 4.12 210 08:39 24.02.2022
5133 Rain 4 1004 82 10000 5.14 220 05:52 24.02.2022
5134 Clouds 5 1007 93 10000 4.12 250 01:56 24.02.2022
5135 Rain 9 1006 81 10000 6.17 210 22:38 23.02.2022
5136 Clouds 9 1007 74 10000 5.66 200 21:40 23.02.2022
5137 Clouds 9 1008 75 10000 5.14 200 20:31 23.02.2022
5138 Clouds 9 1008 75 10000 5.14 200 19:46 23.02.2022
5139 Clouds 9 1009 77 10000 5.66 200 18:32 23.02.2022
5140 Clouds 9 1010 79 10000 4.12 200 17:36 23.02.2022
5141 Clouds 10 1012 71 10000 6.69 210 14:42 23.02.2022
5142 Clouds 9 1015 69 10000 1.79 327 12:42 23.02.2022
5143 Clouds 9 1015 72 10000 5.14 210 11:34 23.02.2022
5144 Clouds 8 1016 73 10000 5.14 200 10:31 23.02.2022
5145 Clouds 7 1017 72 10000 4.63 200 08:59 23.02.2022
5146 Clouds 6 1018 73 10000 3.09 190 07:58 23.02.2022
5147 Clouds 6 1020 77 10000 5.66 230 03:48 23.02.2022
5148 Clear 7 1020 79 10000 0.89 32 00:26 23.02.2022
5149 Clouds 6 1020 79 10000 3.09 200 23:35 22.02.2022
5150 Clear 6 1019 80 10000 0.45 90 22:31 22.02.2022
5151 Clear 6 1018 80 10000 0.89 111 21:49 22.02.2022
5152 Clouds 6 1018 76 10000 0.45 81 21:30 22.02.2022
5153 Clear 7 1018 72 10000 4.63 270 20:52 22.02.2022
5154 Clear 7 1019 77 10000 5.66 260 20:29 22.02.2022
5155 Clear 7 1017 77 10000 4.63 260 19:36 22.02.2022
5156 Clouds 7 1017 76 10000 5.14 260 19:18 22.02.2022
5157 Clouds 9 1016 66 10000 8.75 270 17:46 22.02.2022
5158 Clouds 9 1014 64 10000 9.26 270 17:20 22.02.2022
5159 Clouds 9 1014 63 10000 9.77 280 16:36 22.02.2022
5160 Clouds 9 1013 69 10000 9.26 270 15:39 22.02.2022
5161 Clouds 9 1013 72 10000 9.77 280 14:44 22.02.2022
5162 Clouds 8 1010 82 10000 7.72 280 12:21 22.02.2022
5163 Clouds 10 1007 89 9000 7.72 230 10:39 22.02.2022
5164 Clouds 9 1009 84 10000 4.12 200 07:52 22.02.2022
5165 Clouds 9 1010 87 10000 3.6 190 07:26 22.02.2022
5166 Clouds 7 1014 88 10000 3.6 180 04:31 22.02.2022
5167 Clouds 6 1017 83 10000 2.57 190 01:44 22.02.2022
5168 Clouds 6 1017 83 10000 2.57 190 01:44 22.02.2022
5169 Clouds 6 1018 88 10000 2.57 250 22:44 21.02.2022
5170 Clouds 6 1018 81 10000 2.06 270 21:31 21.02.2022
5171 Clear 7 1017 74 10000 2.06 290 20:34 21.02.2022
5172 Clear 7 1017 74 10000 2.06 290 20:34 21.02.2022
5173 Clouds 8 1015 72 10000 7.2 300 18:42 21.02.2022
5174 Clouds 9 1013 70 10000 9.77 300 16:56 21.02.2022
5175 Clouds 9 1009 73 10000 12.35 300 14:52 21.02.2022
5176 Clouds 9 1009 73 10000 12.35 300 14:52 21.02.2022
5177 Clouds 9 1009 78 7000 10.8 300 14:21 21.02.2022
5178 Rain 8 1006 74 10000 12.35 300 12:59 21.02.2022
5179 Clouds 9 1005 75 10000 11.32 310 12:23 21.02.2022
5180 Rain 8 1000 84 10000 11.83 290 10:51 21.02.2022
5181 Clouds 8 997 83 5000 15.95 270 09:30 21.02.2022
5182 Clouds 8 997 83 5000 15.95 270 09:30 21.02.2022
5183 Clouds 5 997 74 10000 9.26 260 02:58 21.02.2022
5184 Clouds 4 994 79 10000 11.32 260 23:29 20.02.2022
5185 Rain 4 995 74 10000 11.32 270 22:20 20.02.2022
5186 Clouds 5 994 74 10000 10.8 270 21:41 20.02.2022
5187 Clouds 5 992 71 10000 2.68 105 20:52 20.02.2022
5188 Rain 5 991 70 10000 12.86 280 20:22 20.02.2022
5189 Clouds 6 990 85 10000 13.89 280 19:29 20.02.2022
5190 Clouds 6 988 87 5000 12.86 260 18:49 20.02.2022
5191 Rain 7 988 85 10000 11.83 260 18:30 20.02.2022
5192 Rain 8 987 83 10000 8.75 250 17:30 20.02.2022
5193 Rain 11 989 93 5000 6.69 220 15:30 20.02.2022
5194 Rain 11 991 90 9000 6.17 220 14:39 20.02.2022
5195 Clouds 11 993 85 10000 9.26 220 13:22 20.02.2022
5196 Clouds 11 993 85 10000 9.26 220 13:22 20.02.2022
5197 Clouds 11 993 85 10000 9.26 220 13:22 20.02.2022
5198 Rain 11 995 87 10000 8.75 220 12:20 20.02.2022
5199 Clouds 10 996 91 8000 6.17 210 10:21 20.02.2022
5200 Rain 10 997 91 5000 5.66 210 09:52 20.02.2022
5201 Rain 10 998 87 7000 9.77 230 06:44 20.02.2022
5202 Rain 4 1003 91 10000 2.57 160 00:33 20.02.2022
5203 Rain 3 1005 90 10000 2.06 170 23:39 19.02.2022
5204 Clouds 3 1006 93 10000 1.54 160 22:25 19.02.2022
5205 Clouds 3 1007 93 10000 1.54 170 21:54 19.02.2022
5206 Clouds 3 1007 93 10000 1.54 190 20:48 19.02.2022
5207 Clouds 3 1007 90 10000 1.54 260 19:36 19.02.2022
5208 Clouds 3 1005 87 10000 2.57 280 18:41 19.02.2022
5209 Clouds 3 1004 87 10000 3.6 330 17:59 19.02.2022
5210 Clouds 4 1004 86 10000 3.6 330 17:32 19.02.2022
5211 Clouds 4 1000 90 10000 4.12 220 15:59 19.02.2022
5212 Clouds 4 999 91 10000 5.14 210 14:55 19.02.2022
5213 Rain 3 999 89 10000 5.14 190 13:58 19.02.2022
5214 Rain 3 1003 89 9000 2.06 170 11:58 19.02.2022
5215 Rain 3 1004 87 9000 2.57 140 11:29 19.02.2022
5216 Clouds 3 1006 83 10000 2.57 190 09:21 19.02.2022
5217 Clouds 3 1006 78 10000 0.89 63 06:49 19.02.2022
5218 Clouds 4 1002 82 9948 2.24 179 00:50 19.02.2022
5219 Clouds 4 1001 75 10000 11.83 270 22:33 18.02.2022
5220 Clouds 4 998 75 10000 8.75 260 21:26 18.02.2022
5221 Clouds 4 996 78 10000 10.8 260 20:25 18.02.2022
5222 Clouds 4 996 73 10000 12.35 270 19:50 18.02.2022
5223 Clouds 5 994 71 10000 13.38 270 18:37 18.02.2022
5224 Clouds 5 993 72 10000 13.89 260 18:18 18.02.2022
5225 Clouds 5 990 70 10000 15.43 270 17:18 18.02.2022
5226 Clouds 5 980 89 10000 9.26 270 14:30 18.02.2022
5227 Clouds 5 978 87 10000 8.23 270 13:46 18.02.2022
5228 Rain 6 975 86 10000 1.34 328 12:50 18.02.2022
5229 Rain 6 978 81 10000 4.63 190 11:57 18.02.2022
5230 Clouds 6 980 77 10000 6.69 220 10:42 18.02.2022
5231 Clouds 8 985 89 10000 5.14 190 07:21 18.02.2022
5232 Clouds 6 988 89 10000 3.6 150 05:52 18.02.2022
5233 Rain 6 988 89 10000 3.6 150 05:34 18.02.2022
5234 Clouds 5 1006 83 10000 2.57 180 21:59 17.02.2022
5235 Clouds 5 1006 83 10000 2.57 180 21:33 17.02.2022
5236 Clouds 5 1006 87 10000 2.57 200 20:42 17.02.2022
5237 Clouds 5 1007 88 10000 2.57 200 19:55 17.02.2022
5238 Clouds 5 1007 87 10000 4.12 220 18:57 17.02.2022
5239 Clouds 5 1007 87 10000 4.12 240 18:29 17.02.2022
5240 Clouds 6 1006 89 10000 3.09 260 17:30 17.02.2022
5241 Rain 5 1006 81 10000 4.63 260 15:50 17.02.2022
5242 Clouds 8 1006 62 10000 7.2 250 14:29 17.02.2022
5243 Clouds 8 1006 69 10000 6.69 250 13:30 17.02.2022
5244 Clouds 7 1006 68 10000 8.23 260 11:36 17.02.2022
5245 Clouds 6 1003 72 10000 7.2 260 09:38 17.02.2022
5246 Clouds 7 1000 69 10000 10.29 260 06:37 17.02.2022
5247 Clouds 9 990 68 10000 13.38 260 23:21 16.02.2022
5248 Clouds 9 988 64 10000 15.95 260 22:20 16.02.2022
5249 Clear 11 987 64 10000 12.86 250 20:19 16.02.2022
5250 Clouds 11 986 64 10000 12.86 260 18:43 16.02.2022
5251 Clouds 12 986 78 10000 14.4 260 17:54 16.02.2022
5252 Clouds 13 985 81 10000 8.23 220 15:58 16.02.2022
5253 Clouds 14 986 80 10000 11.32 230 15:20 16.02.2022
5254 Clouds 12 989 77 10000 5.66 220 13:31 16.02.2022
5255 Clouds 12 990 74 10000 3.6 200 12:20 16.02.2022
5256 Clouds 12 991 75 10000 4.63 230 11:31 16.02.2022
5257 Clouds 12 992 78 10000 4.63 220 10:34 16.02.2022
5258 Clouds 12 991 77 10000 7.72 240 08:24 16.02.2022
5259 Clouds 12 989 86 10000 5.14 230 06:43 16.02.2022
5260 Rain 7 995 88 10000 3.09 170 23:45 15.02.2022
5261 Rain 7 997 88 10000 3.09 180 22:33 15.02.2022
5262 Clouds 7 997 78 10000 2.06 190 21:49 15.02.2022
5263 Rain 7 998 77 10000 2.57 180 21:29 15.02.2022
5264 Clouds 7 998 76 10000 3.09 200 20:56 15.02.2022
5265 Clouds 7 998 78 10000 4.12 210 19:59 15.02.2022
5266 Clouds 7 999 78 10000 4.12 210 19:26 15.02.2022
5267 Clouds 7 1000 77 10000 4.63 240 18:24 15.02.2022
5268 Clouds 8 999 68 10000 3.6 250 17:52 15.02.2022
5269 Clouds 8 1000 71 10000 4.63 250 17:21 15.02.2022
5270 Clouds 8 1000 74 10000 5.66 260 15:32 15.02.2022
5271 Clouds 8 1000 70 10000 7.72 280 13:28 15.02.2022
5272 Clouds 9 1001 77 10000 8.75 260 12:53 15.02.2022
5273 Clouds 8 999 90 10000 3.09 220 11:40 15.02.2022
5274 Rain 7 999 91 10000 5.14 190 09:47 15.02.2022
5275 Rain 5 1002 83 10000 4.63 190 06:59 15.02.2022
5276 Clouds 4 1003 83 10000 3.09 180 05:32 15.02.2022
5277 Clouds 6 1006 80 10000 5.14 280 23:34 14.02.2022
5278 Clouds 6 1005 83 10000 7.2 290 21:54 14.02.2022
5279 Clouds 7 1003 79 10000 6.69 280 20:40 14.02.2022
5280 Clouds 7 1003 83 10000 7.2 280 19:44 14.02.2022
5281 Clouds 7 1002 83 10000 7.2 290 19:25 14.02.2022
5282 Clouds 7 1001 83 10000 6.69 300 18:23 14.02.2022
5283 Clouds 7 1000 87 10000 8.23 290 17:26 14.02.2022
5284 Clouds 8 998 82 10000 6.69 290 16:25 14.02.2022
5285 Clouds 7 996 89 10000 3.6 300 14:31 14.02.2022
5286 Rain 6 996 91 10000 3.6 290 13:33 14.02.2022
5287 Rain 6 996 91 10000 3.6 290 13:33 14.02.2022
5288 Rain 5 995 90 10000 5.14 300 12:52 14.02.2022
5289 Clouds 5 994 90 10000 5.66 270 11:55 14.02.2022
5290 Rain 5 993 89 10000 5.14 270 10:58 14.02.2022
5291 Clouds 6 991 91 10000 5.14 260 08:45 14.02.2022
5292 Rain 6 990 90 10000 5.66 260 07:32 14.02.2022
5293 Clouds 6 989 90 10000 5.14 250 05:56 14.02.2022
5294 Clouds 7 988 87 10000 4.63 250 22:43 13.02.2022
5295 Clouds 7 988 89 10000 3.6 250 22:25 13.02.2022
5296 Clouds 8 987 89 10000 4.63 270 21:32 13.02.2022
5297 Clouds 8 987 90 3300 5.14 280 20:40 13.02.2022
5298 Clouds 9 986 89 4900 4.12 200 19:45 13.02.2022
5299 Rain 10 986 86 10000 4.12 190 18:54 13.02.2022
5300 Clouds 10 986 86 10000 4.12 190 18:35 13.02.2022
5301 Rain 9 986 88 10000 5.66 180 16:38 13.02.2022
5302 Rain 9 989 88 10000 5.14 180 15:25 13.02.2022
5303 Clouds 9 989 85 10000 5.14 170 14:36 13.02.2022
5304 Clouds 8 993 85 10000 4.12 170 12:51 13.02.2022
5305 Rain 8 995 89 10000 5.14 180 11:59 13.02.2022
5306 Rain 8 996 88 10000 4.63 170 10:35 13.02.2022
5307 Rain 9 997 90 7000 4.12 180 09:47 13.02.2022
5308 Clouds 9 999 91 10000 4.12 180 07:51 13.02.2022
5309 Clouds 8 1006 89 10000 2.24 343 00:36 13.02.2022
5310 Clouds 8 1006 89 10000 4.12 190 23:53 12.02.2022
5311 Clouds 8 1007 87 10000 5.14 200 22:33 12.02.2022
5312 Clouds 7 1007 88 10000 4.63 190 21:36 12.02.2022
5313 Clouds 7 1008 88 10000 4.12 180 20:52 12.02.2022
5314 Clouds 7 1008 84 10000 5.66 190 19:47 12.02.2022
5315 Clouds 7 1008 83 10000 4.63 180 18:53 12.02.2022
5316 Clouds 7 1008 83 10000 4.63 180 18:35 12.02.2022
5317 Clouds 7 1009 82 10000 5.14 180 17:37 12.02.2022
5318 Clouds 7 1009 82 10000 5.66 190 16:43 12.02.2022
5319 Clouds 7 1010 86 10000 5.14 190 15:51 12.02.2022
5320 Clouds 6 1011 86 7000 5.66 190 14:55 12.02.2022
5321 Rain 7 1011 80 10000 4.12 190 14:24 12.02.2022
5322 Clouds 6 1014 71 10000 5.66 190 11:18 12.02.2022
5323 Clouds 6 1015 71 10000 4.63 180 10:23 12.02.2022
5324 Rain 6 1016 73 10000 4.63 190 09:32 12.02.2022
5325 Clouds 6 1016 77 10000 4.12 180 08:45 12.02.2022
5326 Clouds 5 1019 75 10000 3.09 0 05:40 12.02.2022
5327 Clouds 5 1020 75 10000 3.6 180 04:33 12.02.2022
5328 Clouds 5 1022 78 10000 3.6 190 02:18 12.02.2022
5329 Clouds 4 1027 78 10000 2.57 180 22:57 11.02.2022
5330 Clouds 4 1027 75 10000 3.6 170 22:20 11.02.2022
5331 Clouds 5 1027 72 10000 3.09 180 20:52 11.02.2022
5332 Clouds 5 1028 74 10000 2.57 180 19:50 11.02.2022
5333 Clouds 5 1029 74 10000 2.06 180 19:27 11.02.2022
5334 Clouds 6 1029 72 10000 2.57 200 18:28 11.02.2022
5335 Clouds 6 1028 69 10000 2.57 200 17:26 11.02.2022
5336 Clouds 7 1029 70 10000 3.09 210 16:26 11.02.2022
5337 Clouds 7 1030 68 10000 3.09 210 14:57 11.02.2022
5338 Clouds 7 1030 70 10000 2.57 200 14:36 11.02.2022
5339 Clouds 7 1030 71 10000 2.57 200 14:18 11.02.2022
5340 Clouds 7 1030 73 10000 2.57 0 13:39 11.02.2022
5341 Clouds 5 1031 82 10000 1.54 200 12:19 11.02.2022
5342 Clouds 3 1030 95 10000 1.03 150 10:24 11.02.2022
5343 Clouds 2 1030 94 10000 1.54 150 08:49 11.02.2022
5344 Clouds 2 1029 94 10000 1.54 180 08:27 11.02.2022
5345 Clouds 2 1029 91 10000 1.54 180 07:22 11.02.2022
5346 Clouds 4 1026 86 10000 2.06 260 02:40 11.02.2022
5347 Clouds 4 1026 86 10000 2.06 260 02:40 11.02.2022
5348 Clouds 4 1025 87 10000 1.54 270 02:19 11.02.2022
5349 Clouds 5 1025 83 10000 5.09 300 23:20 10.02.2022
5350 Clouds 5 1023 81 10000 5.14 280 21:53 10.02.2022
5351 Clouds 5 1022 80 10000 7.2 280 21:21 10.02.2022
5352 Clouds 5 1022 79 10000 7.2 280 20:45 10.02.2022
5353 Clouds 5 1021 85 10000 4.12 290 19:26 10.02.2022
5354 Clouds 5 1020 84 10000 4.63 260 18:47 10.02.2022
5355 Clouds 6 1021 73 10000 7.72 270 17:27 10.02.2022
5356 Clouds 6 1019 67 10000 8.23 270 16:55 10.02.2022
5357 Clouds 7 1019 64 10000 9.77 270 15:51 10.02.2022
5358 Clouds 7 1019 64 10000 7.72 270 15:31 10.02.2022
5359 Clouds 7 1019 65 10000 7.2 280 14:48 10.02.2022
5360 Clouds 7 1019 65 10000 7.72 280 14:24 10.02.2022
5361 Clouds 7 1020 67 10000 7.72 280 13:29 10.02.2022
5362 Clouds 6 1020 68 10000 6.69 260 12:50 10.02.2022
5363 Clouds 6 1019 75 10000 5.14 250 11:34 10.02.2022
5364 Clouds 5 1019 74 10000 0.89 206 10:55 10.02.2022
5365 Clouds 4 1019 77 10000 3.09 220 09:59 10.02.2022
5366 Clouds 4 1019 78 10000 2.06 190 09:24 10.02.2022
5367 Clouds 4 1019 78 10000 5.14 240 07:28 10.02.2022
5368 Clouds 4 1019 81 10000 4.63 240 04:55 10.02.2022
5369 Clouds 5 1020 86 10000 3.09 230 01:48 10.02.2022
5370 Clouds 5 1020 85 10000 4.37 259 00:47 10.02.2022
5371 Clouds 5 1021 84 10000 4.25 264 00:28 10.02.2022
5372 Clouds 6 1021 82 10000 2.57 220 23:22 09.02.2022
5373 Clouds 6 1021 85 10000 3.09 230 22:35 09.02.2022
5374 Clouds 6 1021 82 10000 2.06 210 21:51 09.02.2022
5375 Rain 6 1021 81 10000 2.06 200 21:29 09.02.2022
5376 Clouds 6 1020 74 10000 1.54 200 20:47 09.02.2022
5377 Clouds 6 1021 77 10000 1.54 200 20:24 09.02.2022
5378 Clouds 6 1021 74 10000 2.06 250 19:45 09.02.2022
5379 Clouds 6 1020 67 10000 2.57 270 19:22 09.02.2022
5380 Clouds 7 1021 66 10000 4.12 280 17:35 09.02.2022
5381 Clouds 8 1021 61 10000 5.66 290 16:34 09.02.2022
5382 Clouds 9 1021 62 10000 6.17 270 15:40 09.02.2022
5383 Clouds 9 1021 65 10000 6.69 290 14:25 09.02.2022
5384 Clouds 8 1022 79 10000 5.66 290 12:27 09.02.2022
5385 Clouds 8 1020 85 10000 4.63 270 10:47 09.02.2022
5386 Clouds 7 1020 90 10000 4.12 270 09:59 09.02.2022
5387 Drizzle 8 1020 88 10000 5.66 260 09:23 09.02.2022
5388 Rain 8 1019 89 10000 4.63 250 08:58 09.02.2022
5389 Clouds 8 1019 90 10000 2.06 240 07:34 09.02.2022
5390 Clouds 8 1019 93 1700 6.17 300 05:30 09.02.2022
5391 Clouds 8 1019 93 1700 6.17 300 05:30 09.02.2022
5392 Rain 10 1018 87 4400 5.14 210 03:50 09.02.2022
5393 Clouds 10 1019 83 10000 5.14 200 00:21 09.02.2022
5394 Clouds 10 1020 83 10000 4.12 210 23:30 08.02.2022
5395 Clouds 10 1020 83 10000 4.63 210 22:43 08.02.2022
5396 Clouds 10 1019 83 10000 5.14 210 22:21 08.02.2022
5397 Clouds 11 1019 83 10000 5.14 210 21:38 08.02.2022
5398 Clouds 11 1020 83 10000 5.66 210 21:19 08.02.2022
5399 Clouds 11 1020 83 10000 6.17 220 20:41 08.02.2022
5400 Clouds 11 1020 82 10000 5.66 210 19:41 08.02.2022
5401 Rain 11 1020 84 10000 6.69 230 18:25 08.02.2022
5402 Clouds 11 1020 80 10000 7.72 230 17:36 08.02.2022
5403 Clouds 12 1020 78 10000 7.72 230 15:55 08.02.2022
5404 Clouds 12 1020 78 10000 8.75 230 15:28 08.02.2022
5405 Clouds 13 1020 76 10000 8.23 240 13:54 08.02.2022
5406 Clouds 12 1021 76 10000 9.77 230 12:39 08.02.2022
5407 Clouds 11 1020 80 10000 6.69 220 11:20 08.02.2022
5408 Clouds 11 1020 80 10000 8.75 240 09:51 08.02.2022
5409 Clouds 11 1020 81 10000 8.75 240 08:54 08.02.2022
5410 Clouds 11 1019 83 10000 8.23 230 06:50 08.02.2022
5411 Clouds 11 1020 78 10000 6.17 230 04:40 08.02.2022
5412 Clouds 11 1020 79 10000 5.66 230 04:22 08.02.2022
5413 Clouds 11 1020 79 10000 7.2 240 03:36 08.02.2022
5414 Clouds 11 1020 79 10000 7.2 230 03:18 08.02.2022
5415 Clouds 11 1020 79 10000 5.14 240 02:59 08.02.2022
5416 Clouds 10 1020 79 10000 5.14 240 02:36 08.02.2022
5417 Clouds 10 1020 79 10000 4.12 210 02:18 08.02.2022
5418 Clouds 10 1020 79 10000 5.14 220 01:45 08.02.2022
5419 Clouds 10 1020 79 10000 5.14 220 01:45 08.02.2022
5420 Clouds 10 1020 81 10000 4.12 210 01:25 08.02.2022
5421 Clouds 10 1020 79 10000 4.12 210 00:55 08.02.2022
5422 Clouds 10 1020 80 10000 0.89 330 00:32 08.02.2022
5423 Clouds 10 1020 78 10000 4.63 210 23:44 07.02.2022
5424 Clouds 10 1021 77 10000 4.63 210 23:18 07.02.2022
5425 Clouds 10 1020 78 10000 5.14 220 22:59 07.02.2022
5426 Clouds 10 1020 79 10000 5.14 220 22:19 07.02.2022
5427 Clouds 10 1021 80 10000 4.12 220 21:51 07.02.2022
5428 Clouds 10 1020 85 10000 5.14 220 21:27 07.02.2022
5429 Clouds 10 1021 89 10000 3.6 230 20:45 07.02.2022
5430 Clouds 10 1021 90 10000 3.09 230 20:27 07.02.2022
5431 Clouds 10 1021 90 10000 3.09 280 19:47 07.02.2022
5432 Clouds 10 1020 88 9000 4.63 220 18:37 07.02.2022
5433 Rain 10 1020 84 10000 0.89 300 17:23 07.02.2022
5434 Clouds 10 1020 84 10000 3.6 210 16:52 07.02.2022
5435 Clouds 9 1021 84 10000 3.09 180 15:48 07.02.2022
5436 Clouds 7 1023 91 10000 2.57 190 13:58 07.02.2022
5437 Clouds 7 1023 89 4000 3.09 220 13:27 07.02.2022
5438 Clouds 7 1023 80 10000 0.45 242 12:18 07.02.2022
5439 Clouds 6 1023 83 10000 0.89 312 11:38 07.02.2022
5440 Clouds 5 1023 86 10000 0.89 315 10:59 07.02.2022
5441 Clouds 4 1023 87 10000 0.45 320 10:41 07.02.2022
5442 Clouds 4 1023 89 10000 0.89 317 10:22 07.02.2022
5443 Clouds 3 1023 90 10000 0.89 315 09:47 07.02.2022
5444 Clouds 3 1023 91 10000 2.06 170 09:18 07.02.2022
5445 Clouds 2 1022 90 10000 1.54 180 07:34 07.02.2022
5446 Clouds 2 1021 90 10000 2.06 170 06:34 07.02.2022
5447 Clouds 3 1019 86 10000 2.06 290 04:22 07.02.2022
5448 Clouds 4 1016 82 10000 0.45 122 01:29 07.02.2022
5449 Clouds 4 1014 81 10000 3.09 260 23:50 06.02.2022
5450 Clouds 4 1013 78 10000 0.89 218 23:19 06.02.2022
5451 Clouds 4 1012 77 10000 2.24 156 22:38 06.02.2022
5452 Clouds 5 1010 75 10000 2.68 188 21:37 06.02.2022
5453 Clouds 5 1009 74 10000 2.24 141 20:58 06.02.2022
5454 Clouds 5 1009 77 10000 2.24 133 20:37 06.02.2022
5455 Clouds 5 1007 68 10000 3.13 140 19:50 06.02.2022
5456 Clouds 5 1005 76 10000 2.24 197 18:52 06.02.2022
5457 Clouds 5 1004 73 10000 2.68 176 18:26 06.02.2022
5458 Clouds 6 1003 72 10000 3.58 160 17:29 06.02.2022
5459 Clouds 7 1002 76 10000 3.13 152 16:50 06.02.2022
5460 Clouds 7 1001 75 10000 3.58 156 15:50 06.02.2022
5461 Clouds 7 1000 79 10000 2.68 171 15:28 06.02.2022
5462 Rain 7 1000 72 10000 4.02 173 14:52 06.02.2022
5463 Clouds 7 1000 80 10000 3.13 128 13:53 06.02.2022
5464 Clouds 7 1000 85 10000 3.13 126 13:20 06.02.2022
5465 Clouds 7 1000 88 10000 2.68 103 11:44 06.02.2022
5466 Clouds 7 1000 86 10000 2.24 82 10:31 06.02.2022
5467 Clouds 7 1000 90 10000 8.75 270 09:26 06.02.2022
5468 Clouds 7 1000 89 10000 7.72 260 08:41 06.02.2022
5469 Rain 7 999 90 8000 1.79 138 06:19 06.02.2022
5470 Clouds 8 1001 88 10000 0.89 360 03:31 06.02.2022
5471 Clouds 8 1003 89 10000 1.34 123 02:25 06.02.2022
5472 Rain 9 1003 85 10000 1.79 100 00:30 06.02.2022
5473 Clouds 9 1004 87 10000 1.79 49 23:18 05.02.2022
5474 Rain 9 1005 89 10000 1.79 133 21:33 05.02.2022
5475 Rain 9 1006 86 10000 1.79 284 20:25 05.02.2022
5476 Rain 9 1006 86 10000 1.79 119 19:49 05.02.2022
5477 Rain 9 1006 88 7000 1.79 336 19:18 05.02.2022
5478 Rain 8 1008 87 7000 1.79 104 17:45 05.02.2022
5479 Rain 8 1008 87 7000 1.34 37 17:27 05.02.2022
5480 Rain 8 1009 86 8000 1.79 354 15:42 05.02.2022
5481 Rain 8 1010 87 6000 1.34 49 15:22 05.02.2022
5482 Rain 8 1012 83 10000 1.79 37 12:54 05.02.2022
5483 Rain 7 1012 83 10000 0.89 342 12:31 05.02.2022
5484 Clouds 7 1013 80 10000 1.79 354 10:52 05.02.2022
5485 Clouds 6 1013 83 10000 0.89 2 10:22 05.02.2022
5486 Clouds 5 1014 82 10000 1.79 284 09:44 05.02.2022
5487 Clouds 3 1015 84 10000 0.89 9 07:54 05.02.2022
5488 Clouds 3 1016 84 10000 0.89 58 06:57 05.02.2022
5489 Clouds 4 1016 84 10000 0.45 108 04:30 05.02.2022
5490 Clouds 4 1015 85 10000 1.79 108 01:19 05.02.2022
5491 Clouds 4 1015 84 10000 1.79 91 00:53 05.02.2022
5492 Clouds 4 1014 84 10000 2.68 137 23:46 04.02.2022
5493 Clouds 4 1015 87 10000 5.66 260 23:28 04.02.2022
5494 Rain 4 1013 85 10000 0.89 96 21:54 04.02.2022
5495 Clouds 4 1013 86 10000 0.89 123 21:36 04.02.2022
5496 Clouds 4 1013 86 10000 0.45 92 21:18 04.02.2022
5497 Clouds 4 1011 80 10000 0.45 120 19:59 04.02.2022
5498 Clouds 6 1010 72 10000 2.68 229 17:43 04.02.2022
5499 Clouds 6 1008 79 10000 2.68 162 15:39 04.02.2022
5500 Clouds 6 1008 74 10000 2.68 78 14:54 04.02.2022
5501 Rain 6 1007 79 10000 3.58 95 13:31 04.02.2022
5502 Clouds 6 1007 82 10000 1.79 68 12:43 04.02.2022
5503 Clouds 5 1007 86 10000 0.89 98 11:41 04.02.2022
5504 Clouds 4 1006 88 10000 0.45 303 10:36 04.02.2022
5505 Clouds 4 1005 89 10000 0.45 88 08:34 04.02.2022
5506 Clouds 4 1005 87 10000 0.45 93 06:47 04.02.2022
5507 Rain 6 1003 90 10000 1.34 170 02:44 04.02.2022
5508 Rain 7 1003 86 5000 1.79 143 01:48 04.02.2022
5509 Clouds 10 1004 81 10000 1.79 322 23:29 03.02.2022
5510 Clouds 10 1004 79 10000 0.89 341 22:33 03.02.2022
5511 Clouds 10 1005 79 10000 0.89 352 21:49 03.02.2022
5512 Clouds 10 1006 78 10000 1.79 315 20:36 03.02.2022
5513 Clouds 10 1006 78 10000 1.79 346 20:18 03.02.2022
5514 Clouds 10 1006 79 10000 1.34 25 19:26 03.02.2022
5515 Clouds 10 1006 76 10000 1.34 143 18:34 03.02.2022
5516 Clouds 11 1007 73 10000 1.34 45 17:32 03.02.2022
5517 Clouds 11 1007 70 10000 1.79 71 16:24 03.02.2022
5518 Clouds 11 1009 73 10000 1.34 113 14:28 03.02.2022
5519 Clouds 10 1010 79 10000 1.34 158 12:40 03.02.2022
5520 Clouds 8 1011 87 10000 0.89 63 10:36 03.02.2022
5521 Clouds 8 1011 88 10000 0.45 135 08:23 03.02.2022
5522 Clouds 9 1014 84 10000 0.89 313 03:28 03.02.2022
5523 Clouds 9 1016 86 10000 1.34 294 00:30 03.02.2022
5524 Clouds 9 1017 86 10000 0.45 90 22:47 02.02.2022
5525 Clouds 9 1018 89 10000 0.45 315 21:53 02.02.2022
5526 Clouds 9 1018 88 10000 0.45 45 21:29 02.02.2022
5527 Clouds 9 1018 85 10000 2.57 250 20:28 02.02.2022
5528 Clouds 9 1018 85 10000 1.34 109 19:49 02.02.2022
5529 Clouds 9 1019 82 10000 0.89 194 19:20 02.02.2022
5530 Clouds 9 1019 82 10000 0.89 194 19:20 02.02.2022
5531 Clouds 10 1019 81 10000 0.89 128 18:26 02.02.2022
5532 Clouds 10 1019 83 10000 1.79 84 17:37 02.02.2022
5533 Clouds 10 1020 81 10000 1.34 97 17:18 02.02.2022
5534 Clouds 11 1020 81 10000 1.34 163 16:20 02.02.2022
5535 Clouds 10 1021 86 10000 1.34 110 12:50 02.02.2022
5536 Clouds 10 1021 89 9000 1.34 117 11:51 02.02.2022
5537 Clouds 10 1021 89 10000 1.79 93 11:31 02.02.2022
5538 Clouds 9 1020 89 10000 1.34 119 09:22 02.02.2022
5539 Clouds 10 1020 88 10000 1.34 164 05:29 02.02.2022
5540 Clouds 10 1019 81 10000 2.24 135 22:36 01.02.2022
5541 Clouds 10 1019 80 10000 1.79 174 20:58 01.02.2022
5542 Clouds 10 1019 77 10000 2.24 187 19:39 01.02.2022
5543 Clouds 11 1018 76 10000 2.24 243 17:37 01.02.2022
5544 Clouds 11 1018 79 10000 2.68 99 16:31 01.02.2022
5545 Clouds 11 1018 79 10000 3.58 221 13:27 01.02.2022
5546 Clouds 11 1018 81 10000 3.58 247 12:28 01.02.2022
5547 Drizzle 9 1018 95 2500 2.24 189 08:52 01.02.2022
5548 Drizzle 8 1021 92 4300 2.24 86 02:21 01.02.2022
5549 Clouds 7 1023 88 10000 1.34 103 23:38 31.01.2022
5550 Clouds 7 1024 87 10000 1.79 91 22:42 31.01.2022
5551 Clouds 7 1025 86 10000 1.34 176 21:35 31.01.2022
5552 Clouds 7 1025 79 10000 1.34 129 20:35 31.01.2022
5553 Clouds 7 1025 81 10000 0.45 106 19:58 31.01.2022
5554 Clouds 7 1025 82 10000 1.34 50 18:32 31.01.2022
5555 Clouds 7 1025 82 10000 1.34 50 18:32 31.01.2022
5556 Clouds 7 1025 79 10000 1.79 187 17:57 31.01.2022
5557 Clouds 7 1026 78 10000 7.2 290 17:18 31.01.2022
5558 Clouds 7 1025 67 10000 1.34 143 16:21 31.01.2022
5559 Clouds 7 1025 58 10000 2.24 190 14:53 31.01.2022
5560 Clouds 7 1026 58 10000 6.17 330 13:31 31.01.2022
5561 Clouds 7 1025 57 10000 6.17 320 12:37 31.01.2022
5562 Clouds 6 1024 64 10000 7.72 330 11:20 31.01.2022
5563 Clouds 5 1023 63 10000 1.79 165 10:47 31.01.2022
5564 Clouds 5 1022 64 10000 2.68 169 09:36 31.01.2022
5565 Clouds 5 1020 64 10000 2.68 123 08:56 31.01.2022
5566 Clouds 5 1020 65 10000 2.68 209 08:20 31.01.2022
5567 Clouds 5 1020 68 10000 2.24 190 07:37 31.01.2022
5568 Clouds 6 1018 71 10000 2.68 155 05:24 31.01.2022
5569 Rain 7 1016 74 10000 2.68 108 00:23 31.01.2022
5570 Clouds 7 1016 79 10000 4.47 99 22:33 30.01.2022
5571 Clouds 8 1015 90 10000 4.02 222 21:45 30.01.2022
5572 Clouds 8 1015 90 10000 2.68 106 21:24 30.01.2022
5573 Rain 7 1016 91 10000 1.34 15 20:51 30.01.2022
5574 Clouds 7 1016 89 5000 1.79 300 20:31 30.01.2022
5575 Clouds 6 1018 86 7000 1.34 73 19:55 30.01.2022
5576 Clouds 6 1020 77 10000 0.89 329 18:51 30.01.2022
5577 Clouds 7 1021 73 10000 0.89 140 18:22 30.01.2022
5578 Clouds 7 1023 72 10000 1.34 310 17:30 30.01.2022
5579 Clouds 7 1024 70 10000 1.34 354 16:42 30.01.2022
5580 Clouds 7 1025 70 10000 0.45 283 16:23 30.01.2022
5581 Clouds 7 1026 69 10000 0.89 215 15:54 30.01.2022
5582 Clouds 7 1026 68 10000 1.34 317 15:32 30.01.2022
5583 Clouds 7 1027 65 10000 1.79 4 14:47 30.01.2022
5584 Clouds 8 1029 70 10000 1.34 153 13:44 30.01.2022
5585 Clouds 6 1031 82 10000 2.57 210 12:44 30.01.2022
5586 Clouds 3 1031 87 10000 2.06 180 10:39 30.01.2022
5587 Clouds 2 1032 90 10000 1.54 140 09:58 30.01.2022
5588 Clouds 1 1032 90 10000 1.03 0 09:22 30.01.2022
5589 Clouds 2 1032 89 10000 1.54 130 07:58 30.01.2022
5590 Clouds 4 1032 77 10000 0.45 184 02:44 30.01.2022
5591 Clouds 5 1032 78 10000 2.06 280 01:54 30.01.2022
5592 Clouds 6 1031 75 10000 0.89 123 23:49 29.01.2022
5593 Clouds 7 1031 72 10000 0.45 115 22:50 29.01.2022
5594 Clouds 7 1030 72 10000 1.79 164 21:29 29.01.2022
5595 Clouds 7 1029 69 10000 1.79 196 20:53 29.01.2022
5596 Clouds 8 1028 70 10000 2.24 196 19:51 29.01.2022
5597 Clouds 8 1027 68 10000 2.24 132 19:30 29.01.2022
5598 Clouds 8 1027 69 10000 1.79 138 18:44 29.01.2022
5599 Clouds 8 1026 66 10000 10.29 290 17:54 29.01.2022
5600 Clouds 9 1024 62 10000 3.13 183 16:44 29.01.2022
5601 Clouds 10 1024 61 10000 4.47 76 15:25 29.01.2022
5602 Clouds 11 1023 61 10000 4.47 110 13:48 29.01.2022
5603 Clouds 11 1023 66 10000 3.13 135 13:26 29.01.2022
5604 Clouds 11 1023 71 10000 3.58 141 12:52 29.01.2022
5605 Clouds 12 1021 73 10000 3.13 179 11:39 29.01.2022
5606 Clouds 12 1021 72 10000 3.58 172 10:31 29.01.2022
5607 Clouds 11 1022 78 10000 1.34 129 07:57 29.01.2022
5608 Clouds 10 1025 82 10000 0.45 340 01:38 29.01.2022
5609 Clouds 10 1026 83 10000 0.45 106 00:31 29.01.2022
5610 Clouds 10 1026 83 10000 0.45 106 00:31 29.01.2022
5611 Clouds 10 1026 84 10000 1.34 130 23:29 28.01.2022
5612 Clouds 10 1026 85 10000 2.57 220 22:46 28.01.2022
5613 Clouds 10 1026 85 10000 2.06 190 22:18 28.01.2022
5614 Clouds 10 1027 87 10000 0.45 181 20:40 28.01.2022
5615 Clouds 10 1027 87 10000 0.89 306 19:53 28.01.2022
5616 Clouds 10 1027 85 10000 0.45 282 18:51 28.01.2022
5617 Clouds 10 1028 84 10000 0.89 294 17:52 28.01.2022
5618 Clouds 9 1029 79 10000 0.89 331 15:46 28.01.2022
5619 Clouds 9 1030 82 10000 1.34 336 14:20 28.01.2022
5620 Clouds 7 1031 85 10000 0.45 274 12:35 28.01.2022
5621 Clouds 6 1032 90 10000 2.06 170 11:38 28.01.2022
5622 Clouds 6 1032 90 10000 2.06 170 11:38 28.01.2022
5623 Clouds 5 1033 94 10000 1.54 180 10:22 28.01.2022
5624 Clouds 5 1033 94 10000 0.45 331 10:22 28.01.2022
5625 Clouds 5 1033 95 10000 0.45 318 09:45 28.01.2022
5626 Clouds 4 1032 96 10000 1.54 170 07:40 28.01.2022
5627 Clouds 4 1033 95 6000 1.54 170 05:30 28.01.2022
5628 Fog 4 1033 95 200 2.06 170 03:48 28.01.2022
5629 Fog 4 1033 92 400 1.54 200 02:23 28.01.2022
5630 Mist 5 1033 95 3500 1.54 190 01:35 28.01.2022
5631 Clouds 5 1032 91 10000 1.54 220 23:47 27.01.2022
5632 Clouds 6 1031 90 10000 0.45 80 21:54 27.01.2022
5633 Clouds 6 1031 90 10000 0.45 122 21:32 27.01.2022
5634 Clouds 7 1030 88 10000 0.45 55 20:53 27.01.2022
5635 Clouds 8 1030 82 10000 0.45 95 19:30 27.01.2022
5636 Clouds 9 1029 79 10000 0.45 156 17:56 27.01.2022
5637 Clouds 10 1027 68 10000 1.34 176 15:31 27.01.2022
5638 Clouds 10 1026 71 10000 1.34 112 13:39 27.01.2022
5639 Clouds 10 1025 75 10000 1.34 202 12:46 27.01.2022
5640 Clouds 9 1024 80 10000 1.79 157 10:46 27.01.2022
5641 Clouds 9 1023 86 10000 0.89 158 09:19 27.01.2022
5642 Clouds 9 1022 87 10000 1.34 129 08:37 27.01.2022
5643 Clouds 10 1021 94 7000 2.24 109 05:59 27.01.2022
5644 Rain 9 1022 87 10000 0.45 50 02:57 27.01.2022
5645 Clouds 8 1023 78 10000 0.89 4 23:33 26.01.2022
5646 Clouds 8 1024 75 10000 1.34 330 22:25 26.01.2022
5647 Clouds 7 1024 76 10000 1.79 315 21:36 26.01.2022
5648 Clouds 7 1026 77 10000 1.34 315 20:41 26.01.2022
5649 Clouds 7 1026 77 10000 1.34 315 20:22 26.01.2022
5650 Clouds 7 1026 77 10000 0.89 287 19:20 26.01.2022
5651 Clouds 7 1026 76 10000 0.89 116 18:45 26.01.2022
5652 Clouds 8 1028 78 10000 3.6 240 17:50 26.01.2022
5653 Clouds 8 1027 74 10000 0.89 107 17:23 26.01.2022
5654 Clouds 8 1028 77 10000 4.63 250 16:31 26.01.2022
5655 Clouds 9 1028 73 10000 1.34 93 15:49 26.01.2022
5656 Clouds 9 1028 73 10000 1.34 93 15:49 26.01.2022
5657 Clouds 9 1030 77 10000 4.63 240 13:58 26.01.2022
5658 Clouds 7 1031 81 10000 0.89 155 11:48 26.01.2022
5659 Clouds 5 1032 90 10000 2.06 180 10:27 26.01.2022
5660 Clouds 5 1032 88 10000 2.06 160 09:45 26.01.2022
5661 Clouds 5 1030 83 10000 0.45 325 07:37 26.01.2022
5662 Clouds 3 1032 88 7000 1.54 200 01:54 26.01.2022
5663 Clouds 4 1032 88 9000 1.54 190 23:56 25.01.2022
5664 Clouds 4 1032 88 9000 1.54 200 22:56 25.01.2022
5665 Clouds 4 1032 88 9000 1.54 180 22:21 25.01.2022
5666 Clouds 4 1032 87 10000 1.54 200 21:52 25.01.2022
5667 Clouds 4 1032 88 10000 1.03 0 20:46 25.01.2022
5668 Clouds 4 1032 86 9000 1.54 190 20:22 25.01.2022
5669 Clouds 3 1032 86 9000 0.45 315 19:46 25.01.2022
5670 Clouds 3 1032 88 7000 1.03 0 18:24 25.01.2022
5671 Clouds 3 1031 85 10000 0.45 320 17:42 25.01.2022
5672 Clouds 3 1032 87 6000 0.45 315 16:35 25.01.2022
5673 Clouds 3 1032 86 7000 0.45 16 15:47 25.01.2022
5674 Clouds 3 1032 86 6000 1.03 0 15:28 25.01.2022
5675 Clouds 3 1032 84 6000 1.54 230 14:57 25.01.2022
5676 Clouds 2 1033 88 6000 2.06 240 13:28 25.01.2022
5677 Clouds 1 1034 92 6000 2.06 220 10:35 25.01.2022
5678 Clouds 1 1033 91 7000 1.03 0 08:34 25.01.2022
5679 Haze 1 1032 88 5000 0.45 135 07:28 25.01.2022
5680 Haze 2 1032 88 4600 0.51 0 06:29 25.01.2022
5681 Mist 2 1033 90 4600 0.45 68 01:36 25.01.2022
5682 Mist 2 1033 91 4300 0.89 315 23:37 24.01.2022
5683 Mist 2 1033 89 4500 0.45 340 23:18 24.01.2022
5684 Mist 2 1033 91 4600 1.54 190 22:59 24.01.2022
5685 Mist 2 1033 91 4600 0.45 0 22:41 24.01.2022
5686 Mist 2 1033 91 5000 1.03 0 21:45 24.01.2022
5687 Haze 3 1033 91 5000 0.45 188 21:27 24.01.2022
5688 Clouds 3 1033 89 6000 0.51 0 20:29 24.01.2022
5689 Clouds 3 1033 89 6000 0.45 134 19:39 24.01.2022
5690 Clouds 3 1033 89 6000 1.54 200 18:55 24.01.2022
5691 Clouds 3 1032 88 7000 2.06 220 17:44 24.01.2022
5692 Clouds 3 1032 88 9000 0.45 324 17:23 24.01.2022
5693 Clouds 3 1032 88 9000 2.06 200 16:32 24.01.2022
5694 Clouds 4 1032 88 8000 0.89 315 15:52 24.01.2022
5695 Haze 4 1032 88 5000 1.54 180 14:27 24.01.2022
5696 Clouds 3 1033 88 7000 0.45 136 12:36 24.01.2022
5697 Clouds 3 1033 86 7000 1.54 180 11:45 24.01.2022
5698 Clouds 2 1032 88 7000 1.54 180 10:24 24.01.2022
5699 Clouds 2 1033 92 6000 2.06 190 09:46 24.01.2022
5700 Clouds 2 1032 88 9000 0.45 294 08:18 24.01.2022
5701 Clouds 3 1032 84 10000 1.34 312 02:29 24.01.2022
5702 Clouds 3 1032 84 10000 0.89 315 01:27 24.01.2022
5703 Clouds 3 1032 84 10000 0.89 315 01:27 24.01.2022
5704 Clouds 4 1031 84 10000 0.89 326 00:32 24.01.2022
5705 Clouds 4 1031 83 10000 0.89 332 23:46 23.01.2022
5706 Clouds 4 1032 83 10000 0.45 315 22:21 23.01.2022
5707 Clouds 4 1032 84 10000 0.45 315 21:41 23.01.2022
5708 Clouds 4 1032 83 10000 1.54 160 21:23 23.01.2022
5709 Clouds 4 1032 84 10000 0.89 311 20:23 23.01.2022
5710 Clouds 4 1032 83 10000 1.54 170 19:19 23.01.2022
5711 Clouds 4 1032 84 10000 0.45 315 18:41 23.01.2022
5712 Clouds 5 1032 84 10000 1.34 325 17:25 23.01.2022
5713 Clouds 5 1032 84 10000 0.89 337 16:18 23.01.2022
5714 Clouds 5 1033 84 10000 1.34 313 14:52 23.01.2022
5715 Clouds 5 1033 87 10000 1.34 315 14:19 23.01.2022
5716 Clouds 5 1034 87 10000 0.89 191 12:46 23.01.2022
5717 Clouds 5 1034 85 10000 0.89 61 12:21 23.01.2022
5718 Clouds 5 1034 86 10000 0.45 311 11:27 23.01.2022
5719 Clouds 5 1034 87 10000 0.45 90 10:58 23.01.2022
5720 Clouds 5 1035 89 10000 2.06 190 10:25 23.01.2022
5721 Clouds 5 1035 89 10000 1.54 180 09:32 23.01.2022
5722 Clouds 6 1034 93 10000 1.54 220 08:50 23.01.2022
5723 Clouds 6 1035 97 8000 0.51 0 03:59 23.01.2022
5724 Clouds 6 1036 94 10000 1.03 0 01:40 23.01.2022
5725 Clouds 6 1036 94 10000 1.03 0 00:47 23.01.2022
5726 Clouds 6 1036 93 10000 1.03 230 00:18 23.01.2022
5727 Clouds 6 1036 93 10000 2.57 250 22:55 22.01.2022
5728 Clouds 6 1036 93 10000 2.57 250 22:33 22.01.2022
5729 Clouds 6 1036 94 10000 1.03 150 20:46 22.01.2022
5730 Clouds 7 1035 91 10000 0.45 90 19:46 22.01.2022
5731 Clouds 7 1035 91 10000 0.45 121 18:38 22.01.2022
5732 Clouds 7 1035 88 10000 1.34 92 17:49 22.01.2022
5733 Clouds 7 1035 90 10000 1.34 165 17:29 22.01.2022
5734 Clouds 7 1035 87 10000 0.89 77 16:54 22.01.2022
5735 Clouds 7 1036 83 10000 0.89 132 15:45 22.01.2022
5736 Clouds 7 1036 81 10000 1.34 144 14:55 22.01.2022
5737 Clouds 7 1036 78 10000 0.89 61 13:31 22.01.2022
5738 Clouds 7 1037 82 10000 2.57 270 12:40 22.01.2022
5739 Clouds 7 1036 75 10000 0.89 115 12:20 22.01.2022
5740 Clouds 7 1036 78 10000 0.45 128 10:54 22.01.2022
5741 Clouds 6 1036 76 10000 0.45 105 10:25 22.01.2022
5742 Clouds 6 1036 79 10000 0.45 90 09:00 22.01.2022
5743 Clouds 6 1036 80 10000 2.06 280 08:39 22.01.2022
5744 Clouds 6 1036 83 10000 1.03 250 06:56 22.01.2022
5745 Clouds 5 1036 79 10000 0.89 137 02:40 22.01.2022
5746 Clouds 6 1037 80 10000 2.57 280 23:52 21.01.2022
5747 Clouds 6 1037 80 10000 2.57 280 23:21 21.01.2022
5748 Clouds 6 1038 79 10000 3.09 300 21:45 21.01.2022
5749 Clouds 6 1037 78 10000 4.12 300 19:48 21.01.2022
5750 Clouds 6 1038 78 10000 4.63 290 17:53 21.01.2022
5751 Clouds 7 1038 75 10000 4.63 290 16:37 21.01.2022
5752 Clouds 7 1037 76 10000 1.34 183 15:23 21.01.2022
5753 Clouds 6 1038 86 10000 2.45 284 12:48 21.01.2022
5754 Clouds 4 1038 89 10000 0.51 0 11:29 21.01.2022
5755 Clouds 3 1038 89 10000 1.03 210 10:51 21.01.2022
5756 Clouds 2 1038 88 10000 1.03 0 09:24 21.01.2022
5757 Clouds 2 1038 85 10000 1.54 170 08:20 21.01.2022
5758 Clear -1 1039 88 10000 1.54 180 01:55 21.01.2022
5759 Clouds 0 1039 84 10000 0.45 338 22:51 20.01.2022
5760 Clouds 0 1039 85 10000 0.51 180 21:49 20.01.2022
5761 Clouds 1 1039 79 10000 0.51 0 21:25 20.01.2022
5762 Clouds 2 1039 72 10000 1.54 280 19:54 20.01.2022
5763 Clouds 2 1038 70 10000 0.45 180 19:18 20.01.2022
5764 Clouds 3 1038 63 10000 1.54 260 17:37 20.01.2022
5765 Clear 5 1038 58 10000 0.89 149 16:24 20.01.2022
5766 Clear 5 1037 55 10000 0.89 187 15:31 20.01.2022
5767 Clear 5 1038 60 10000 0.89 178 14:20 20.01.2022
5768 Clear 3 1039 80 10000 1.54 280 12:53 20.01.2022
5769 Clear 3 1039 89 10000 1.03 0 12:29 20.01.2022
5770 Clear 2 1037 91 10000 0.51 0 11:19 20.01.2022
5771 Clear 0 1036 91 10000 0.51 0 10:18 20.01.2022
5772 Clear 0 1035 84 10000 2 16 08:51 20.01.2022
5773 Clear 1 1034 84 10000 1.45 347 06:57 20.01.2022
5774 Clear 3 1030 87 10000 3.09 300 00:40 20.01.2022
5775 Clear 4 1029 84 10000 3.6 320 22:38 19.01.2022
5776 Clear 5 1029 85 10000 0.45 180 21:34 19.01.2022
5777 Clear 5 1028 82 10000 0.45 122 20:56 19.01.2022
5778 Clear 5 1028 83 10000 0.45 180 20:30 19.01.2022
5779 Clouds 6 1027 79 10000 0.45 173 18:59 19.01.2022
5780 Clouds 6 1026 77 10000 1.34 160 17:51 19.01.2022
5781 Clouds 7 1026 78 10000 6.69 310 17:18 19.01.2022
5782 Clouds 7 1025 73 10000 0.89 174 17:18 19.01.2022
5783 Clouds 7 1026 78 10000 6.69 310 17:18 19.01.2022
5784 Clouds 8 1025 69 10000 2.24 138 15:32 19.01.2022
5785 Clouds 8 1024 73 10000 2.24 161 13:25 19.01.2022
5786 Clouds 8 1024 77 10000 2.68 212 11:59 19.01.2022
5787 Clouds 8 1024 84 10000 5.66 290 11:38 19.01.2022
5788 Rain 8 1021 93 10000 0.89 117 09:35 19.01.2022
5789 Drizzle 7 1022 94 10000 0.89 83 08:38 19.01.2022
5790 Clouds 5 1024 86 10000 0.45 315 05:20 19.01.2022
5791 Clouds 4 1029 89 10000 1.34 324 00:21 19.01.2022
5792 Clouds 3 1030 89 10000 1.54 180 23:18 18.01.2022
5793 Clouds 4 1031 87 10000 0.45 315 21:45 18.01.2022
5794 Clouds 4 1032 88 10000 0.89 321 20:34 18.01.2022
5795 Clouds 5 1031 86 10000 0.89 343 19:49 18.01.2022
5796 Clouds 5 1032 86 10000 0.89 343 19:31 18.01.2022
5797 Clouds 5 1032 84 10000 0.89 315 18:19 18.01.2022
5798 Clouds 5 1033 80 10000 1.54 190 17:32 18.01.2022
5799 Clouds 6 1033 75 10000 2.57 180 16:22 18.01.2022
5800 Clouds 7 1034 77 10000 0.89 307 15:25 18.01.2022
5801 Clouds 7 1034 76 10000 0.89 114 14:22 18.01.2022
5802 Clouds 3 1036 91 7000 1.54 100 11:37 18.01.2022
5803 Clouds 1 1035 94 10000 1.03 130 10:25 18.01.2022
5804 Clouds 1 1035 93 10000 0.51 0 08:29 18.01.2022
5805 Clouds 1 1035 93 10000 1.03 160 07:43 18.01.2022
5806 Mist 1 1037 92 1500 1.54 80 00:39 18.01.2022
5807 Fog 2 1037 93 450 1.03 130 22:40 17.01.2022
5808 Mist 2 1037 93 1200 1.54 100 21:42 17.01.2022
5809 Fog 2 1037 94 900 1.54 120 20:44 17.01.2022
5810 Clouds 4 1037 93 9000 1.03 0 18:46 17.01.2022
5811 Clouds 4 1037 91 10000 1.03 130 18:25 17.01.2022
5812 Clouds 6 1037 88 10000 1.03 0 17:22 17.01.2022
5813 Clouds 7 1037 86 10000 1.54 50 15:54 17.01.2022
5814 Clouds 7 1038 87 10000 0.45 201 14:58 17.01.2022
5815 Clouds 7 1038 89 10000 2.57 330 14:31 17.01.2022
5816 Clouds 7 1039 92 10000 2.57 310 13:18 17.01.2022
5817 Clouds 6 1039 100 10000 0.51 0 11:51 17.01.2022
5818 Clouds 5 1038 88 10000 0.84 268 10:52 17.01.2022
5819 Clouds 4 1036 86 5876 0.62 221 09:35 17.01.2022
5820 Clouds 4 1036 86 4476 0.84 254 08:43 17.01.2022
5821 Clouds 4 1036 91 9856 1.06 260 07:20 17.01.2022
5822 Clear 5 1033 88 10000 1.25 259 00:59 17.01.2022
5823 Clear 4 1032 87 10000 0.45 315 23:27 16.01.2022
5824 Clouds 5 1031 83 10000 0.45 126 20:50 16.01.2022
5825 Clouds 5 1031 83 10000 2.57 270 19:55 16.01.2022
5826 Clouds 6 1030 79 10000 2.57 290 18:45 16.01.2022
5827 Clouds 7 1029 81 10000 3.6 290 17:46 16.01.2022
5828 Clouds 7 1027 76 10000 1.34 93 16:50 16.01.2022
5829 Clouds 8 1026 78 10000 1.34 100 15:34 16.01.2022
5830 Clouds 8 1025 90 10000 0.45 166 14:29 16.01.2022
5831 Clouds 7 1025 95 10000 1.03 0 12:57 16.01.2022
5832 Clouds 7 1024 91 10000 0.45 323 11:49 16.01.2022
5833 Mist 6 1023 96 5000 1.54 150 10:58 16.01.2022
5834 Clouds 6 1023 96 10000 2.06 230 10:26 16.01.2022
5835 Clouds 5 1022 95 10000 2.06 230 09:56 16.01.2022
5836 Clouds 5 1022 95 10000 1.54 190 09:23 16.01.2022
5837 Clouds 5 1021 94 10000 1.03 0 08:47 16.01.2022
5838 Clouds 5 1020 89 8000 0.45 315 03:58 16.01.2022
5839 Clouds 5 1020 85 6000 1.54 170 23:50 15.01.2022
5840 Clouds 5 1020 86 6000 2.06 180 22:35 15.01.2022
5841 Haze 4 1021 88 5000 1.54 170 21:20 15.01.2022
5842 Clouds 4 1020 88 10000 1.54 170 20:40 15.01.2022
5843 Clouds 4 1021 85 7000 1.54 180 19:30 15.01.2022
5844 Clouds 4 1021 85 8000 1.54 190 18:47 15.01.2022
5845 Clouds 4 1021 84 8000 1.54 190 17:30 15.01.2022
5846 Clouds 6 1021 78 10000 0.45 3 15:59 15.01.2022
5847 Clouds 5 1022 81 10000 1.54 180 13:56 15.01.2022
5848 Clouds 4 1024 88 10000 0.51 0 12:18 15.01.2022
5849 Clouds 2 1024 88 10000 0.51 100 10:38 15.01.2022
5850 Clear 0 1025 90 10000 2.06 180 08:31 15.01.2022
5851 Mist 2 1030 89 3600 1.03 0 00:28 15.01.2022
5852 Clear 2 1031 94 10000 1.03 140 21:52 14.01.2022
5853 Clear 2 1031 94 10000 1.03 140 21:52 14.01.2022
5854 Clear 2 1031 89 10000 1.03 100 20:41 14.01.2022
5855 Clear 3 1031 90 10000 0.95 91 20:20 14.01.2022
5856 Clouds 3 1032 90 9000 1.03 110 18:49 14.01.2022
5857 Clouds 4 1033 88 10000 0.51 240 17:57 14.01.2022
5858 Clouds 6 1033 83 10000 0.51 40 16:48 14.01.2022
5859 Clouds 7 1033 80 10000 1.03 0 15:39 14.01.2022
5860 Clouds 6 1034 81 10000 0.51 0 14:42 14.01.2022
5861 Clouds 6 1035 85 10000 1.03 240 13:35 14.01.2022
5862 Clouds 5 1035 92 7000 1.03 0 12:24 14.01.2022
5863 Mist 4 1036 94 1600 2.06 190 10:53 14.01.2022
5864 Clouds 4 1035 94 10000 1.03 0 08:54 14.01.2022
5865 Clouds 4 1035 94 10000 1.03 0 08:34 14.01.2022
5866 Clouds 4 1036 94 10000 0.51 0 05:29 14.01.2022
5867 Clouds 5 1038 92 10000 0.51 200 00:59 14.01.2022
5868 Mist 5 1038 93 1500 1.03 0 22:46 13.01.2022
5869 Clouds 5 1038 93 10000 1.54 160 21:31 13.01.2022
5870 Clouds 5 1038 91 10000 1.03 0 20:56 13.01.2022
5871 Clouds 5 1038 93 10000 1.54 170 19:32 13.01.2022
5872 Clouds 5 1038 92 10000 0.51 0 18:57 13.01.2022
5873 Clouds 7 1038 85 10000 0.45 144 17:25 13.01.2022
5874 Clear 8 1038 85 10000 0.89 109 16:19 13.01.2022
5875 Clear 8 1038 87 10000 0.45 198 15:35 13.01.2022
5876 Clear 7 1039 90 10000 1.54 220 13:47 13.01.2022
5877 Clouds 5 1040 94 10000 2.06 210 12:25 13.01.2022
5878 Clouds 3 1039 93 10000 1.54 200 09:38 13.01.2022
5879 Clouds 3 1039 96 10000 1.03 0 08:54 13.01.2022
5880 Clouds 3 1039 96 10000 2.06 170 08:24 13.01.2022
5881 Clouds 3 1039 96 10000 2.06 180 07:21 13.01.2022
5882 Fog 4 1039 94 300 1.54 190 05:57 13.01.2022
5883 Fog 3 1039 95 5000 1.03 220 05:18 13.01.2022
5884 Clouds 4 1040 96 8000 1.54 160 01:49 13.01.2022
5885 Clouds 4 1041 99 6000 1.54 180 23:54 12.01.2022
5886 Clouds 4 1040 96 6000 1.54 180 23:35 12.01.2022
5887 Fog 5 1040 96 5000 1.54 160 22:56 12.01.2022
5888 Clouds 5 1040 96 7000 2.06 160 21:56 12.01.2022
5889 Clouds 5 1040 96 8000 1.54 160 21:21 12.01.2022
5890 Mist 5 1040 96 3300 1.54 140 20:56 12.01.2022
5891 Clouds 6 1040 95 8000 1.54 150 19:28 12.01.2022
5892 Clouds 6 1040 93 8000 0.51 0 18:29 12.01.2022
5893 Clouds 8 1039 85 10000 0.51 0 16:59 12.01.2022
5894 Clouds 8 1039 88 10000 1.03 0 15:58 12.01.2022
5895 Clouds 8 1040 90 10000 0.89 315 14:47 12.01.2022
5896 Clouds 6 1040 93 10000 1.03 0 12:58 12.01.2022
5897 Clouds 6 1040 93 10000 1.03 0 12:58 12.01.2022
5898 Clouds 3 1040 96 10000 1.54 150 09:59 12.01.2022
5899 Clear 3 1039 96 10000 1.03 160 08:36 12.01.2022
5900 Clouds 3 1038 96 10000 0.51 0 07:34 12.01.2022
5901 Clouds 3 1037 95 6000 2.06 150 06:21 12.01.2022
5902 Fog 2 1035 95 7000 0.51 0 23:30 11.01.2022
5903 Fog 2 1035 95 7000 2.06 150 22:41 11.01.2022
5904 Fog 3 1035 95 7000 1.54 160 22:21 11.01.2022
5905 Fog 3 1034 95 9000 1.03 0 20:49 11.01.2022
5906 Fog 4 1033 94 10000 1.54 150 19:42 11.01.2022
5907 Clouds 5 1032 93 10000 0.51 0 18:25 11.01.2022
5908 Clouds 7 1032 89 10000 1.54 260 17:18 11.01.2022
5909 Clouds 7 1031 85 10000 1.03 270 16:36 11.01.2022
5910 Clouds 8 1030 82 10000 2.06 290 14:59 11.01.2022
5911 Clouds 8 1030 83 10000 2.06 290 14:40 11.01.2022
5912 Clouds 8 1029 89 10000 1.54 300 13:54 11.01.2022
5913 Clouds 8 1029 91 10000 0.45 161 13:31 11.01.2022
5914 Clouds 8 1029 90 10000 2.06 290 12:37 11.01.2022
5915 Clear 7 1028 94 10000 2.06 290 10:52 11.01.2022
5916 Drizzle 8 1026 94 10000 0.45 180 08:53 11.01.2022
5917 Clouds 8 1024 95 4900 0.45 47 06:22 11.01.2022
5918 Clouds 9 1019 91 10000 1.34 320 00:30 11.01.2022
5919 Clouds 9 1019 90 10000 1.34 337 23:41 10.01.2022
5920 Clouds 9 1020 94 10000 2.57 160 22:43 10.01.2022
5921 Clouds 9 1020 94 10000 2.57 180 22:18 10.01.2022
5922 Clouds 9 1018 89 10000 1.34 315 21:42 10.01.2022
5923 Clouds 8 1019 94 10000 2.57 180 21:18 10.01.2022
5924 Clouds 8 1019 94 10000 2.57 190 20:55 10.01.2022
5925 Clouds 8 1018 94 10000 3.09 170 20:24 10.01.2022
5926 Clouds 8 1018 94 10000 2.06 180 19:41 10.01.2022
5927 Clouds 8 1018 93 10000 3.09 180 19:19 10.01.2022
5928 Clouds 8 1017 89 10000 0.89 332 18:47 10.01.2022
5929 Clouds 8 1016 84 10000 1.34 324 16:51 10.01.2022
5930 Clouds 8 1016 84 10000 0.89 319 16:33 10.01.2022
5931 Clouds 8 1015 80 10000 0.89 315 14:50 10.01.2022
5932 Clouds 8 1015 79 10000 1.79 310 13:35 10.01.2022
5933 Clouds 7 1016 89 10000 2.06 0 11:57 10.01.2022
5934 Clouds 7 1015 88 10000 2.06 150 11:24 10.01.2022
5935 Clouds 6 1014 85 10000 1.54 150 09:40 10.01.2022
5936 Clouds 5 1010 87 10000 1.54 170 05:52 10.01.2022
5937 Clouds 5 1010 86 10000 1.03 0 04:48 10.01.2022
5938 Clouds 5 1007 89 10000 1.03 160 01:22 10.01.2022
5939 Clouds 5 1006 86 10000 0.89 315 00:22 10.01.2022
5940 Clouds 5 1005 85 10000 0.89 315 22:48 09.01.2022
5941 Clouds 5 1005 87 10000 0.89 336 22:21 09.01.2022
5942 Clouds 5 1004 85 10000 0.89 315 21:42 09.01.2022
5943 Clouds 6 1004 85 10000 0.45 315 21:22 09.01.2022
5944 Clouds 6 1003 84 10000 0.45 315 20:47 09.01.2022
5945 Clouds 6 1003 85 10000 0.89 308 20:29 09.01.2022
5946 Clouds 6 1002 84 10000 0.89 315 19:42 09.01.2022
5947 Rain 6 1002 83 10000 1.34 336 19:21 09.01.2022
5948 Clouds 6 1002 83 10000 0.45 315 18:47 09.01.2022
5949 Clouds 6 1001 80 10000 0.89 92 18:28 09.01.2022
5950 Clouds 7 1000 78 10000 0.89 100 17:30 09.01.2022
5951 Clouds 7 1001 79 10000 3.6 250 16:50 09.01.2022
5952 Clouds 7 999 81 10000 2.24 100 15:52 09.01.2022
5953 Clouds 7 999 79 10000 0.89 63 15:33 09.01.2022
5954 Clouds 7 999 83 10000 0.89 181 14:39 09.01.2022
5955 Clouds 7 999 83 10000 0.45 60 13:49 09.01.2022
5956 Clouds 6 998 84 10000 0.45 324 12:26 09.01.2022
5957 Clouds 5 998 84 10000 0.89 73 11:46 09.01.2022
5958 Clouds 4 997 89 10000 3.6 210 09:55 09.01.2022
5959 Clouds 4 997 89 10000 0.45 8 09:29 09.01.2022
5960 Clouds 4 997 86 10000 1.34 115 08:18 09.01.2022
5961 Clouds 5 994 88 10000 3.6 260 01:31 09.01.2022
5962 Clouds 5 993 85 10000 1.34 183 00:53 09.01.2022
5963 Clouds 5 993 87 10000 1.34 124 23:37 08.01.2022
5964 Clouds 5 992 87 10000 1.79 102 22:58 08.01.2022
5965 Clouds 5 992 83 10000 0.89 130 21:32 08.01.2022
5966 Clouds 5 992 82 10000 1.34 119 20:44 08.01.2022
5967 Clouds 5 992 83 10000 0.45 94 20:23 08.01.2022
5968 Clouds 5 992 83 10000 1.79 290 19:46 08.01.2022
5969 Clouds 6 990 79 10000 1.79 174 17:49 08.01.2022
5970 Clouds 7 990 81 10000 0.89 151 16:57 08.01.2022
5971 Clouds 7 990 84 10000 1.79 107 15:35 08.01.2022
5972 Clouds 7 991 90 10000 0.45 105 14:33 08.01.2022
5973 Rain 7 992 89 10000 0.89 129 12:35 08.01.2022
5974 Rain 7 994 93 10000 2.24 315 10:43 08.01.2022
5975 Rain 7 994 90 9000 2.68 313 10:23 08.01.2022
5976 Rain 7 994 90 9000 2.68 313 10:23 08.01.2022
5977 Rain 6 995 94 10000 2.68 315 09:34 08.01.2022
5978 Clouds 5 1000 93 10000 2.68 302 07:18 08.01.2022
5979 Clouds 2 1008 88 10000 0.45 315 01:49 08.01.2022
5980 Clouds 2 1010 93 10000 0.45 310 00:22 08.01.2022
5981 Clouds 2 1009 91 10000 0.45 315 22:21 07.01.2022
5982 Clouds 2 1008 90 10000 2.06 230 20:35 07.01.2022
5983 Clouds 2 1008 90 10000 2.06 230 20:35 07.01.2022
5984 Clouds 3 1007 85 10000 4.12 290 19:27 07.01.2022
5985 Clouds 3 1007 88 10000 0.89 132 18:49 07.01.2022
5986 Clouds 3 1007 90 10000 0.45 108 18:24 07.01.2022
5987 Clouds 3 1006 93 10000 0.45 303 17:24 07.01.2022
5988 Clouds 4 1005 83 10000 0.45 131 14:56 07.01.2022
5989 Clouds 4 1005 82 10000 0.45 118 13:52 07.01.2022
5990 Clouds 4 1005 82 10000 0.45 118 13:52 07.01.2022
5991 Rain 4 1005 86 10000 0.89 131 12:57 07.01.2022
5992 Clouds 3 1005 85 10000 0.45 91 11:58 07.01.2022
5993 Clouds 3 1003 78 10000 0.89 304 04:56 07.01.2022
5994 Clouds 3 1003 80 10000 0.89 243 02:53 07.01.2022
5995 Clouds 3 1005 85 10000 4.63 220 01:49 07.01.2022
5996 Clouds 3 1005 86 10000 4.12 220 01:26 07.01.2022
5997 Clouds 4 1005 85 10000 4.12 210 00:31 07.01.2022
5998 Clouds 4 1004 85 10000 0.89 294 22:33 06.01.2022
5999 Clouds 5 1003 88 10000 1.34 308 20:51 06.01.2022
6000 Clouds 5 1003 89 10000 0.89 347 20:18 06.01.2022
6001 Rain 5 1003 89 10000 2.24 98 19:38 06.01.2022
6002 Clouds 5 1004 87 10000 2.68 311 17:51 06.01.2022
6003 Clouds 5 1004 89 10000 2.24 337 17:27 06.01.2022
6004 Clouds 4 1005 87 10000 3.58 305 16:38 06.01.2022
6005 Clouds 4 1005 88 10000 3.13 297 15:44 06.01.2022
6006 Clouds 4 1006 88 10000 2.68 321 15:22 06.01.2022
6007 Clouds 3 1007 89 10000 2.24 315 14:20 06.01.2022
6008 Rain 2 1009 92 10000 2.24 338 13:39 06.01.2022
6009 Rain 2 1011 77 10000 4.63 180 12:20 06.01.2022
6010 Rain 3 1012 73 10000 4.12 160 11:30 06.01.2022
6011 Clouds 3 1013 74 10000 2.57 170 10:50 06.01.2022
6012 Clouds 1 1016 77 10000 0.45 323 06:38 06.01.2022
6013 Clear -1 1019 89 10000 1.03 170 00:34 06.01.2022
6014 Clear -1 1019 86 10000 1.54 180 23:22 05.01.2022
6015 Clear -1 1018 90 10000 1.54 140 22:48 05.01.2022
6016 Clear -1 1018 90 10000 2.06 150 22:21 05.01.2022
6017 Clear 0 1018 84 10000 0 0 21:28 05.01.2022
6018 Clear 1 1018 77 10000 2.06 300 20:30 05.01.2022
6019 Clouds 2 1017 76 10000 3.09 350 19:29 05.01.2022
6020 Clouds 3 1017 71 10000 0.45 135 18:21 05.01.2022
6021 Clouds 4 1016 64 10000 0.89 166 16:56 05.01.2022
6022 Clouds 5 1015 64 10000 0.89 192 16:18 05.01.2022
6023 Clouds 6 1014 65 10000 0.89 143 14:56 05.01.2022
6024 Clouds 5 1013 69 10000 1.34 155 13:34 05.01.2022
6025 Clear 5 1013 80 10000 4.63 300 12:20 05.01.2022
6026 Clouds 3 1009 83 10000 0.89 122 08:29 05.01.2022
6027 Clouds 4 1007 82 10000 0.45 90 06:37 05.01.2022
6028 Clouds 4 1005 75 10000 1.79 146 01:24 05.01.2022
6029 Clouds 3 1004 86 10000 0.89 63 23:42 04.01.2022
6030 Clouds 3 1004 85 10000 1.34 135 23:19 04.01.2022
6031 Clouds 3 1004 70 10000 1.34 231 21:36 04.01.2022
6032 Clouds 3 1004 73 10000 0.45 203 20:41 04.01.2022
6033 Clear 3 1003 66 10000 1.34 190 18:35 04.01.2022
6034 Clouds 4 1002 63 10000 2.24 162 17:19 04.01.2022
6035 Clear 4 1002 63 10000 1.34 170 16:31 04.01.2022
6036 Clear 4 1001 64 10000 2.24 202 14:58 04.01.2022
6037 Clear 4 1001 64 10000 2.24 152 14:37 04.01.2022
6038 Clear 4 1002 65 10000 2.24 134 13:55 04.01.2022
6039 Clouds 3 1002 76 10000 0.89 117 12:20 04.01.2022
6040 Clouds 1 1001 83 10000 2.57 330 10:21 04.01.2022
6041 Clouds 1 1000 83 10000 0.45 156 08:49 04.01.2022
6042 Clouds 2 999 88 10000 0.45 150 06:28 04.01.2022
6043 Clouds 7 997 86 10000 0.45 75 00:42 04.01.2022
6044 Clouds 7 997 86 10000 0.45 338 23:49 03.01.2022
6045 Clouds 7 998 84 10000 1.79 315 22:22 03.01.2022
6046 Clouds 8 999 83 10000 0.89 315 21:38 03.01.2022
6047 Clouds 8 999 80 10000 1.79 320 20:40 03.01.2022
6048 Clouds 9 999 82 10000 0.45 167 18:55 03.01.2022
6049 Clouds 9 1000 80 10000 0.45 102 18:30 03.01.2022
6050 Clouds 9 1000 78 10000 0.45 100 17:20 03.01.2022
6051 Clouds 10 1000 75 10000 0.89 82 16:31 03.01.2022
6052 Clouds 10 1001 73 10000 0.89 103 14:31 03.01.2022
6053 Clouds 10 1003 79 10000 4.12 210 12:52 03.01.2022
6054 Clouds 9 1003 77 10000 2.24 321 11:50 03.01.2022
6055 Clouds 8 1003 81 10000 1.79 353 10:37 03.01.2022
6056 Clouds 8 1002 77 10000 1.34 301 09:27 03.01.2022
6057 Clouds 8 1002 77 10000 0.89 338 07:52 03.01.2022
6058 Clouds 9 1004 75 10000 1.34 158 02:28 03.01.2022
6059 Clouds 9 1003 79 10000 1.34 212 23:22 02.01.2022
6060 Clouds 9 1003 80 10000 1.34 29 22:56 02.01.2022
6061 Clouds 9 1003 82 10000 0.89 22 21:52 02.01.2022
6062 Clouds 9 1003 87 10000 1.34 314 20:45 02.01.2022
6063 Clouds 9 1003 88 10000 1.34 225 20:25 02.01.2022
6064 Clouds 9 1003 84 10000 2.24 292 19:31 02.01.2022
6065 Clouds 9 1003 84 10000 1.79 315 18:51 02.01.2022
6066 Clouds 9 1002 85 10000 0.89 303 17:56 02.01.2022
6067 Clouds 9 1002 85 10000 1.34 320 17:38 02.01.2022
6068 Clouds 9 1002 85 10000 0.89 315 17:19 02.01.2022
6069 Clouds 9 1003 89 10000 2.57 200 16:27 02.01.2022
6070 Rain 10 1003 81 4000 1.34 305 14:38 02.01.2022
6071 Clouds 10 1005 79 10000 1.79 304 12:57 02.01.2022
6072 Clouds 10 1005 80 10000 2.24 306 12:25 02.01.2022
6073 Clouds 10 1005 86 10000 1.79 287 11:33 02.01.2022
6074 Clouds 9 1005 88 10000 1.34 338 10:49 02.01.2022
6075 Clouds 8 1005 89 10000 1.34 286 09:45 02.01.2022
6076 Rain 10 1005 90 7000 0.45 52 05:51 02.01.2022
6077 Clouds 11 1008 79 10000 3.09 0 02:19 02.01.2022
6078 Clouds 12 1010 79 10000 3.6 210 23:40 01.01.2022
6079 Clouds 11 1010 83 10000 2.57 190 22:58 01.01.2022
6080 Clouds 11 1010 83 10000 3.6 190 22:23 01.01.2022
6081 Clouds 12 1009 76 10000 1.79 277 21:44 01.01.2022
6082 Clouds 12 1009 75 10000 1.79 307 20:55 01.01.2022
6083 Clouds 12 1009 74 10000 2.68 315 19:58 01.01.2022
6084 Clouds 12 1010 78 10000 4.12 200 19:26 01.01.2022
6085 Clouds 13 1010 71 10000 2.24 315 17:59 01.01.2022
6086 Clouds 14 1010 72 10000 1.79 322 16:41 01.01.2022
6087 Clouds 14 1009 71 10000 1.79 285 16:19 01.01.2022
6088 Clouds 14 1009 78 10000 1.34 348 15:26 01.01.2022
6089 Clouds 14 1010 81 10000 2.24 305 13:58 01.01.2022
6090 Clouds 14 1010 77 10000 2.68 305 12:50 01.01.2022
6091 Clouds 14 1009 78 10000 3.58 325 11:56 01.01.2022
6092 Clouds 13 1010 79 10000 3.13 301 11:23 01.01.2022
6093 Clouds 13 1009 79 10000 1.79 311 10:27 01.01.2022
6094 Clouds 13 1010 81 10000 2.24 315 09:46 01.01.2022
6095 Clouds 13 1010 84 10000 4.63 180 08:26 01.01.2022
6096 Clouds 13 1011 83 10000 4.63 170 07:44 01.01.2022
6097 Clouds 13 1012 83 10000 3.6 170 06:47 01.01.2022
6098 Clouds 13 1012 83 10000 4.12 170 05:27 01.01.2022
6099 Clouds 13 1013 86 10000 3.09 170 04:38 01.01.2022
6100 Clouds 13 1015 89 10000 3.09 170 01:59 01.01.2022
6101 Clouds 12 1014 81 10000 0.89 0 23:36 31.12.2021
6102 Clouds 12 1015 84 10000 0.89 342 21:53 31.12.2021
6103 Clouds 13 1015 83 10000 0.89 342 20:37 31.12.2021
6104 Clouds 13 1014 83 10000 1.34 335 19:30 31.12.2021
6105 Clouds 12 1015 87 10000 3.6 220 18:35 31.12.2021
6106 Clouds 13 1013 82 10000 0.89 85 17:38 31.12.2021
6107 Clouds 13 1013 80 10000 0.89 85 17:18 31.12.2021
6108 Clouds 13 1012 78 10000 0.45 72 16:25 31.12.2021
6109 Clear 13 1011 76 10000 1.34 103 15:57 31.12.2021
6110 Clouds 14 1011 75 10000 1.79 117 15:28 31.12.2021
6111 Clouds 14 1011 75 10000 2.24 56 14:52 31.12.2021
6112 Clouds 14 1011 76 10000 2.24 77 14:29 31.12.2021
6113 Clouds 14 1011 76 10000 1.79 132 13:36 31.12.2021
6114 Clouds 14 1010 84 10000 0.89 358 12:45 31.12.2021
6115 Clouds 14 1009 89 10000 1.34 298 11:47 31.12.2021
6116 Clouds 13 1009 90 10000 1.34 295 11:29 31.12.2021
6117 Clouds 13 1008 91 10000 1.79 303 10:35 31.12.2021
6118 Rain 13 1008 91 6000 0.89 223 09:54 31.12.2021
6119 Clouds 13 1007 87 10000 1.34 263 09:32 31.12.2021
6120 Rain 13 1007 85 10000 0.45 135 08:27 31.12.2021
6121 Clouds 14 1007 85 10000 0.89 360 07:30 31.12.2021
6122 Clouds 13 1007 84 10000 2.24 326 23:23 30.12.2021
6123 Clouds 13 1007 82 10000 2.68 318 22:33 30.12.2021
6124 Clouds 14 1007 82 10000 2.68 318 22:33 30.12.2021
6125 Clouds 13 1007 83 10000 1.79 353 21:56 30.12.2021
6126 Clouds 13 1006 83 10000 1.79 323 21:56 30.12.2021
6127 Clouds 13 1006 82 10000 1.34 328 21:37 30.12.2021
6128 Clouds 13 1006 84 10000 1.79 317 20:46 30.12.2021
6129 Rain 13 1006 85 10000 1.79 25 20:25 30.12.2021
6130 Clouds 14 1007 86 10000 1.34 324 19:47 30.12.2021
6131 Rain 14 1006 88 10000 0.89 265 18:45 30.12.2021
6132 Rain 14 1006 89 10000 1.79 287 18:18 30.12.2021
6133 Rain 13 1006 94 8000 1.79 342 16:19 30.12.2021
6134 Rain 13 1006 94 10000 2.24 308 15:51 30.12.2021
6135 Rain 13 1006 94 7000 1.34 320 14:39 30.12.2021
6136 Rain 14 1006 90 10000 2.24 332 13:49 30.12.2021
6137 Clouds 14 1006 87 10000 2.24 283 12:40 30.12.2021
6138 Clouds 14 1005 88 10000 0.89 105 10:58 30.12.2021
6139 Clouds 13 1005 87 10000 0.89 323 09:58 30.12.2021
6140 Clouds 13 1004 87 10000 1.79 320 08:58 30.12.2021
6141 Rain 13 1003 93 4900 1.79 295 06:52 30.12.2021
6142 Rain 12 1002 94 3900 1.79 329 03:42 30.12.2021
6143 Rain 12 1002 93 5000 0.45 309 02:47 30.12.2021
6144 Clouds 11 1002 86 10000 1.34 333 23:43 29.12.2021
6145 Clouds 10 1002 86 10000 1.34 315 23:22 29.12.2021
6146 Clouds 10 1002 84 10000 0.89 333 22:21 29.12.2021
6147 Clouds 10 1001 82 10000 0.89 346 21:33 29.12.2021
6148 Clouds 10 1001 81 10000 0.45 332 20:38 29.12.2021
6149 Clouds 10 1001 82 10000 1.34 100 19:48 29.12.2021
6150 Clouds 10 1000 82 10000 0.45 112 18:52 29.12.2021
6151 Clouds 11 1000 78 10000 0.45 93 17:56 29.12.2021
6152 Clouds 11 1000 77 10000 2.57 220 17:28 29.12.2021
6153 Clouds 12 999 72 10000 1.34 70 16:24 29.12.2021
6154 Clouds 12 998 73 10000 1.79 196 15:48 29.12.2021
6155 Clouds 13 996 85 10000 0.89 119 14:24 29.12.2021
6156 Clouds 11 994 91 10000 2.24 318 12:39 29.12.2021
6157 Clouds 9 993 89 10000 3.13 326 11:43 29.12.2021
6158 Rain 8 995 91 10000 0.45 320 09:59 29.12.2021
6159 Rain 7 998 90 10000 2.57 150 07:52 29.12.2021
6160 Clouds 6 999 90 10000 1.54 160 06:39 29.12.2021
6161 Clouds 6 999 90 10000 1.54 160 06:18 29.12.2021
6162 Clouds 6 999 92 10000 1.03 0 05:36 29.12.2021
6163 Clouds 5 1001 93 10000 1.03 0 02:46 29.12.2021
6164 Clouds 6 1001 90 10000 0.45 130 00:23 29.12.2021
6165 Clouds 7 1001 89 10000 0.45 103 23:34 28.12.2021
6166 Clouds 7 1000 91 10000 2.06 250 22:42 28.12.2021
6167 Clouds 8 1000 91 10000 4.12 250 22:24 28.12.2021
6168 Clouds 8 1000 91 10000 1.54 240 21:37 28.12.2021
6169 Clouds 8 999 91 10000 0.45 161 20:39 28.12.2021
6170 Clouds 8 998 91 10000 0.89 105 19:24 28.12.2021
6171 Clouds 8 997 91 10000 3.6 290 18:37 28.12.2021
6172 Clouds 8 996 91 10000 1.34 135 17:59 28.12.2021
6173 Clouds 8 995 95 10000 4.63 270 16:34 28.12.2021
6174 Clouds 9 992 93 10000 0.89 76 15:49 28.12.2021
6175 Clouds 9 992 91 10000 0.89 163 15:20 28.12.2021
6176 Clouds 9 991 91 10000 0.89 107 14:47 28.12.2021
6177 Clouds 9 990 94 10000 0.89 220 14:20 28.12.2021
6178 Clouds 9 989 93 8000 1.34 116 13:42 28.12.2021
6179 Clouds 9 989 99 10000 4.63 290 13:24 28.12.2021
6180 Clouds 8 988 99 10000 4.63 290 12:49 28.12.2021
6181 Clouds 8 985 95 10000 0.45 180 11:33 28.12.2021
6182 Rain 8 982 95 1800 0.51 110 07:41 28.12.2021
6183 Mist 8 983 94 5000 0.45 180 06:41 28.12.2021
6184 Clouds 8 985 91 10000 0.45 207 23:43 27.12.2021
6185 Clouds 8 985 90 10000 2.57 50 22:58 27.12.2021
6186 Clouds 8 985 89 10000 2.06 40 21:38 27.12.2021
6187 Clouds 8 986 94 10000 1.54 110 20:57 27.12.2021
6188 Clouds 8 986 93 10000 3.09 90 19:58 27.12.2021
6189 Clouds 8 986 92 10000 3.09 90 19:39 27.12.2021
6190 Clouds 8 987 90 10000 3.09 90 18:23 27.12.2021
6191 Clouds 8 987 90 10000 3.6 80 17:46 27.12.2021
6192 Clouds 8 988 90 10000 4.12 90 16:38 27.12.2021
6193 Clouds 8 988 89 10000 0.89 154 15:51 27.12.2021
6194 Clouds 7 990 94 10000 2.57 90 14:32 27.12.2021
6195 Clouds 7 990 94 10000 3.09 90 13:39 27.12.2021
6196 Clouds 7 992 91 10000 2.06 120 11:53 27.12.2021
6197 Clouds 6 991 93 10000 0.89 335 10:29 27.12.2021
6198 Clouds 6 991 94 10000 0.89 331 09:39 27.12.2021
6199 Drizzle 6 992 94 3500 0.51 70 07:35 27.12.2021
6200 Clouds 6 993 95 10000 0.51 0 06:56 27.12.2021
6201 Clouds 6 995 95 8000 1.03 0 01:59 27.12.2021
6202 Clouds 6 996 92 10000 1.03 0 23:58 26.12.2021
6203 Clouds 6 996 92 10000 1.03 0 23:35 26.12.2021
6204 Clouds 5 997 91 10000 1.03 0 21:59 26.12.2021
6205 Clouds 6 998 91 10000 0.45 315 20:54 26.12.2021
6206 Clouds 5 998 91 10000 0.45 340 19:46 26.12.2021
6207 Clouds 5 998 91 10000 0.89 322 18:23 26.12.2021
6208 Clouds 5 998 90 10000 0.45 343 15:57 26.12.2021
6209 Clouds 5 999 93 3500 1.03 0 14:27 26.12.2021
6210 Rain 5 1000 93 10000 1.03 0 13:40 26.12.2021
6211 Clouds 4 1000 94 10000 1.54 100 13:18 26.12.2021
6212 Clouds 4 1000 94 10000 2.57 100 12:27 26.12.2021
6213 Clouds 3 1000 88 10000 0.89 113 10:22 26.12.2021
6214 Clouds 3 999 88 10000 0.45 185 09:19 26.12.2021
6215 Clouds 3 999 88 10000 0.45 144 08:40 26.12.2021
6216 Rain 3 1000 94 9000 3.09 90 07:25 26.12.2021
6217 Rain 3 1001 86 8000 0.89 269 01:24 26.12.2021
6218 Rain 3 1003 88 10000 5.14 90 23:53 25.12.2021
6219 Rain 3 1003 88 10000 5.66 100 23:27 25.12.2021
6220 Clouds 3 1002 79 10000 1.79 54 22:23 25.12.2021
6221 Clouds 3 1003 82 10000 4.63 90 20:48 25.12.2021
6222 Clouds 3 1004 85 10000 4.63 100 19:23 25.12.2021
6223 Clouds 3 1004 85 10000 4.63 100 18:54 25.12.2021
6224 Clouds 4 1003 79 10000 2.68 72 17:29 25.12.2021
6225 Clouds 4 1004 79 10000 1.34 151 16:35 25.12.2021
6226 Clouds 4 1004 75 10000 1.34 17 14:38 25.12.2021
6227 Clouds 4 1005 74 10000 1.34 264 12:49 25.12.2021
6228 Clouds 4 1006 77 10000 5.66 90 11:45 25.12.2021
6229 Clouds 4 1005 78 10000 2.24 179 09:50 25.12.2021
6230 Clouds 5 1003 81 10000 1.79 273 08:19 25.12.2021
6231 Rain 6 1003 88 10000 4.63 80 02:22 25.12.2021
6232 Rain 6 1003 89 10000 6.17 80 00:33 25.12.2021
6233 Rain 6 1003 89 10000 4.63 90 23:39 24.12.2021
6234 Clouds 7 1002 88 10000 4.63 70 19:40 24.12.2021
6235 Clouds 7 1002 88 10000 4.63 80 19:22 24.12.2021
6236 Clouds 7 1002 89 10000 3.6 90 16:50 24.12.2021
6237 Clouds 8 1001 85 10000 1.34 203 16:21 24.12.2021
6238 Clouds 8 1002 92 10000 4.63 90 15:46 24.12.2021
6239 Clouds 8 1002 89 10000 2.57 70 14:46 24.12.2021
6240 Clouds 8 1002 85 10000 0.45 150 14:23 24.12.2021
6241 Clouds 9 1003 84 10000 1.03 0 13:37 24.12.2021
6242 Clouds 8 1003 89 10000 1.54 0 12:48 24.12.2021
6243 Clouds 8 1002 90 10000 1.03 0 11:52 24.12.2021
6244 Clouds 8 1002 93 10000 1.03 0 11:26 24.12.2021
6245 Clouds 7 1002 91 10000 1.03 0 10:50 24.12.2021
6246 Clouds 7 1003 93 10000 2.06 180 10:18 24.12.2021
6247 Clouds 7 1002 92 10000 1.54 190 08:24 24.12.2021
6248 Clouds 7 1002 92 10000 1.54 170 07:48 24.12.2021
6249 Clouds 8 1003 91 10000 2.06 180 02:52 24.12.2021
6250 Clouds 7 1003 91 10000 0.45 315 23:56 23.12.2021
6251 Clouds 7 1003 92 10000 0.45 315 23:22 23.12.2021
6252 Clouds 7 1003 94 10000 0.45 302 22:37 23.12.2021
6253 Clouds 7 1003 92 10000 2.06 200 22:19 23.12.2021
6254 Clouds 8 1003 91 10000 2.57 210 20:59 23.12.2021
6255 Clouds 9 1004 94 10000 2.57 200 20:18 23.12.2021
6256 Clouds 9 1004 94 10000 2.57 200 20:18 23.12.2021
6257 Clouds 9 1003 94 10000 3.09 210 18:36 23.12.2021
6258 Clouds 9 1002 94 9000 0.45 307 17:57 23.12.2021
6259 Clouds 9 1002 91 10000 2.57 180 16:44 23.12.2021
6260 Clouds 9 1001 92 10000 0.45 315 16:24 23.12.2021
6261 Clouds 9 1001 92 7000 0.45 328 15:31 23.12.2021
6262 Clouds 9 1002 92 6000 0.45 353 14:52 23.12.2021
6263 Mist 8 1002 94 4800 2.06 190 14:30 23.12.2021
6264 Mist 8 1003 92 3500 0.89 315 12:54 23.12.2021
6265 Rain 7 1004 94 8000 1.54 160 10:52 23.12.2021
6266 Clouds 6 1004 93 6000 1.54 160 09:42 23.12.2021
6267 Clouds 6 1004 92 7000 2.06 150 08:59 23.12.2021
6268 Clouds 6 1005 91 8000 2.06 190 06:55 23.12.2021
6269 Clouds 5 1006 91 9000 1.54 180 04:30 23.12.2021
6270 Rain 4 1010 92 10000 1.54 170 22:59 22.12.2021
6271 Clouds 4 1010 93 10000 1.54 170 22:39 22.12.2021
6272 Clouds 4 1010 94 6000 2.57 150 21:54 22.12.2021
6273 Rain 4 1011 93 5000 2.57 180 21:29 22.12.2021
6274 Rain 4 1011 92 6000 1.54 0 20:44 22.12.2021
6275 Rain 4 1012 89 10000 2.06 170 20:25 22.12.2021
6276 Rain 3 1012 91 10000 2.57 0 19:19 22.12.2021
6277 Rain 3 1013 84 9000 2.57 150 17:42 22.12.2021
6278 Rain 4 1014 73 10000 2.06 140 16:38 22.12.2021
6279 Clouds 4 1014 74 10000 1.54 140 15:39 22.12.2021
6280 Clouds 3 1016 80 10000 1.54 160 13:32 22.12.2021
6281 Clouds 3 1017 82 10000 2.06 140 12:39 22.12.2021
6282 Clouds 2 1018 85 10000 2.57 130 09:54 22.12.2021
6283 Clouds 2 1018 85 10000 2.57 130 09:35 22.12.2021
6284 Clouds 1 1018 81 10000 1.54 120 07:25 22.12.2021
6285 Clouds 1 1019 85 9000 1.54 120 05:42 22.12.2021
6286 Clouds 1 1020 86 9000 1.54 130 05:24 22.12.2021
6287 Clouds 1 1020 82 9000 1.03 0 04:47 22.12.2021
6288 Clouds 2 1020 81 10000 1.54 130 04:22 22.12.2021
6289 Clouds 2 1020 81 10000 0.89 358 03:32 22.12.2021
6290 Clouds 3 1023 79 10000 2.57 170 00:29 22.12.2021
6291 Clouds 3 1023 79 10000 2.06 160 22:51 21.12.2021
6292 Clouds 3 1023 79 10000 2.06 170 22:27 21.12.2021
6293 Clouds 3 1023 79 10000 1.54 150 21:43 21.12.2021
6294 Clouds 3 1022 79 10000 0.45 329 20:53 21.12.2021
6295 Clouds 3 1022 79 10000 1.54 0 20:20 21.12.2021
6296 Clouds 3 1022 79 10000 1.03 0 19:41 21.12.2021
6297 Clouds 3 1022 78 10000 0.89 306 18:43 21.12.2021
6298 Clouds 3 1023 82 10000 1.54 130 18:21 21.12.2021
6299 Clouds 3 1023 77 10000 0.89 344 17:40 21.12.2021
6300 Clouds 4 1023 74 10000 1.03 0 15:47 21.12.2021
6301 Clouds 4 1023 74 10000 1.03 0 15:19 21.12.2021
6302 Clouds 4 1024 77 10000 0.45 335 13:47 21.12.2021
6303 Clouds 4 1024 78 10000 0.89 342 13:29 21.12.2021
6304 Clouds 3 1025 78 10000 0.89 343 10:56 21.12.2021
6305 Clouds 3 1025 78 10000 0.89 301 09:59 21.12.2021
6306 Clouds 3 1024 78 10000 0.89 349 09:18 21.12.2021
6307 Clouds 3 1025 82 10000 1.54 120 07:54 21.12.2021
6308 Clouds 4 1025 76 10000 0.45 338 07:25 21.12.2021
6309 Clouds 4 1025 78 10000 1.03 0 04:56 21.12.2021
6310 Clouds 4 1026 76 10000 0.45 315 02:39 21.12.2021
6311 Clouds 4 1027 78 10000 1.54 90 23:58 20.12.2021
6312 Clouds 4 1028 82 10000 1.03 0 22:49 20.12.2021
6313 Clouds 4 1028 82 10000 1.54 120 22:28 20.12.2021
6314 Clouds 4 1028 83 10000 2.06 130 21:42 20.12.2021
6315 Clouds 4 1028 82 10000 1.54 130 21:22 20.12.2021
6316 Clouds 4 1028 83 10000 1.54 120 20:40 20.12.2021
6317 Clouds 5 1028 83 10000 1.03 0 19:39 20.12.2021
6318 Clouds 5 1028 77 10000 0.45 183 19:20 20.12.2021
6319 Clouds 5 1028 77 10000 0.45 27 18:35 20.12.2021
6320 Clouds 5 1028 77 10000 0.89 289 17:51 20.12.2021
6321 Clouds 5 1029 80 10000 1.54 90 16:53 20.12.2021
6322 Clouds 5 1029 80 10000 1.54 90 16:35 20.12.2021
6323 Clouds 5 1029 82 10000 2.57 100 15:43 20.12.2021
6324 Clouds 5 1029 86 10000 2.06 100 14:40 20.12.2021
6325 Clouds 5 1029 87 10000 0.45 223 12:41 20.12.2021
6326 Clouds 5 1030 99 10000 2.57 60 10:51 20.12.2021
6327 Clouds 5 1029 94 10000 2.11 90 09:44 20.12.2021
6328 Clouds 4 1029 96 10000 1.03 0 08:56 20.12.2021
6329 Clouds 4 1029 96 10000 1.03 0 08:38 20.12.2021
6330 Clouds 5 1029 95 10000 1.03 90 07:44 20.12.2021
6331 Mist 4 1029 94 3100 0.51 0 06:39 20.12.2021
6332 Fog 4 1031 94 550 0.51 0 01:33 20.12.2021
6333 Mist 3 1033 100 1400 0.51 0 23:28 19.12.2021
6334 Mist 4 1033 100 1400 0.51 0 22:44 19.12.2021
6335 Fog 3 1033 93 250 0.51 320 21:33 19.12.2021
6336 Fog 3 1032 89 150 1.03 0 20:44 19.12.2021
6337 Fog 3 1032 89 150 1.03 0 20:23 19.12.2021
6338 Fog 3 1032 92 150 0.51 0 19:42 19.12.2021
6339 Clouds 3 1032 85 10000 2.83 55 18:46 19.12.2021
6340 Clouds 3 1032 84 10000 2.46 60 17:54 19.12.2021
6341 Clouds 3 1032 83 10000 2.46 60 17:35 19.12.2021
6342 Clouds 3 1033 87 10000 2.06 62 16:41 19.12.2021
6343 Fog 3 1034 100 150 1.03 0 15:56 19.12.2021
6344 Fog 4 1033 93 200 0.51 0 15:25 19.12.2021
6345 Fog 4 1033 90 200 0.51 0 14:45 19.12.2021
6346 Fog 4 1034 93 250 0.51 0 13:35 19.12.2021
6347 Fog 5 1034 96 150 0.51 0 12:59 19.12.2021
6348 Fog 5 1035 95 250 1.03 0 12:31 19.12.2021
6349 Fog 1 1036 100 250 1.03 0 11:37 19.12.2021
6350 Clouds 3 1036 80 10000 1 68 10:50 19.12.2021
6351 Clouds 3 1036 83 10000 0.75 66 10:22 19.12.2021
6352 Clouds 2 1036 84 10000 0.76 59 08:50 19.12.2021
6353 Fog 3 1037 93 150 0.51 0 06:45 19.12.2021
6354 Fog 4 1038 95 150 0.51 0 01:51 19.12.2021
6355 Fog 4 1038 91 150 0.51 0 00:54 19.12.2021
6356 Fog 5 1038 96 200 1.03 0 22:59 18.12.2021
6357 Fog 5 1038 94 300 0.51 0 22:24 18.12.2021
6358 Fog 5 1038 93 350 0.45 315 21:43 18.12.2021
6359 Fog 5 1038 93 900 1.03 0 21:22 18.12.2021
6360 Mist 5 1038 95 2300 1.03 0 20:25 18.12.2021
6361 Clouds 5 1038 95 6000 1.03 0 19:34 18.12.2021
6362 Clouds 5 1038 92 9000 1.54 190 18:24 18.12.2021
6363 Clouds 5 1038 91 8000 2.06 190 17:49 18.12.2021
6364 Clouds 6 1039 92 10000 1.03 0 16:28 18.12.2021
6365 Clouds 6 1039 87 10000 1.54 200 15:48 18.12.2021
6366 Clouds 7 1038 81 10000 0.45 297 14:54 18.12.2021
6367 Clouds 6 1040 90 10000 1.54 180 13:44 18.12.2021
6368 Clouds 6 1040 92 10000 0 0 11:55 18.12.2021
6369 Clouds 5 1041 93 10000 1.03 0 09:54 18.12.2021
6370 Clouds 5 1040 93 10000 1.03 60 09:30 18.12.2021
6371 Clouds 5 1040 96 10000 1.54 50 08:36 18.12.2021
6372 Mist 5 1039 95 4600 2.57 30 06:27 18.12.2021
6373 Mist 5 1040 93 3100 1.03 140 00:42 18.12.2021
6374 Mist 5 1041 95 4100 1.03 0 23:46 17.12.2021
6375 Clouds 5 1041 98 6000 0 0 22:37 17.12.2021
6376 Clouds 5 1040 92 10000 1.2 79 21:28 17.12.2021
6377 Clouds 6 1040 90 10000 1.2 79 20:42 17.12.2021
6378 Clouds 6 1040 91 10000 1.19 96 19:50 17.12.2021
6379 Clouds 6 1040 91 8000 1.03 0 18:39 17.12.2021
6380 Clouds 7 1040 90 10000 0.45 188 17:46 17.12.2021
6381 Clouds 7 1040 85 10000 1.54 100 16:50 17.12.2021
6382 Clouds 8 1040 84 10000 0.45 216 16:25 17.12.2021
6383 Clouds 8 1040 80 10000 0.45 123 15:25 17.12.2021
6384 Clouds 9 1040 79 10000 1.03 20 14:41 17.12.2021
6385 Clear 8 1041 82 10000 1.03 0 13:30 17.12.2021
6386 Fog 6 1042 99 10000 1.54 240 12:21 17.12.2021
6387 Fog 6 1042 99 10000 1.54 240 12:21 17.12.2021
6388 Clouds 5 1041 90 10000 1.22 78 10:38 17.12.2021
6389 Fog 5 1041 91 10000 0.51 0 09:34 17.12.2021
6390 Fog 5 1040 95 10000 1.03 100 08:31 17.12.2021
6391 Fog 5 1040 95 9000 1.54 100 07:18 17.12.2021
6392 Fog 6 1040 95 8000 0.51 0 04:39 17.12.2021
6393 Clouds 7 1040 91 10000 0.51 0 23:47 16.12.2021
6394 -273 0 0 0 0 0 22:24 16.12.2021
6395 Clouds 7 1039 91 10000 0.51 0 22:24 16.12.2021
6396 -273 0 0 0 0 0 22:24 16.12.2021
6397 Clouds 7 1039 91 10000 0.51 0 22:23 16.12.2021
6398 Clouds 7 1039 91 10000 0.51 0 22:23 16.12.2021
6399 Clouds 7 1039 91 10000 0.51 0 22:23 16.12.2021
6400 Clouds 7 1039 91 10000 0.51 0 22:23 16.12.2021
6401 Clouds 8 1039 91 10000 0.51 0 21:44 16.12.2021
6402 Clouds 8 1039 89 10000 1.03 260 20:55 16.12.2021
6403 Clouds 8 1039 89 10000 1.03 260 20:27 16.12.2021
6404 Clouds 8 1038 88 10000 0.51 0 19:33 16.12.2021
6405 Clouds 9 1038 88 10000 1.03 0 18:37 16.12.2021
6406 Clouds 9 1038 90 10000 1.03 0 17:48 16.12.2021
6407 Clouds 9 1038 89 10000 1.54 230 16:44 16.12.2021
6408 Clouds 9 1037 90 10000 1.03 220 16:18 16.12.2021
6409 Clouds 10 1037 92 10000 1.54 190 14:23 16.12.2021
6410 Clouds 9 1037 96 10000 1.03 0 12:34 16.12.2021
6411 Clouds 8 1036 96 8000 1.03 0 11:19 16.12.2021
6412 Clouds 8 1037 96 8000 1.03 0 11:19 16.12.2021
6413 Clouds 8 1036 96 10000 0.45 315 10:45 16.12.2021
6414 Clouds 7 1036 97 10000 1.54 110 09:51 16.12.2021
6415 Clear 6 1034 94 10000 0.55 202 07:19 16.12.2021
6416 Fog 6 1034 92 9000 0.51 0 06:18 16.12.2021
6417 Clear 6 1032 91 10000 2.06 160 00:35 16.12.2021
6418 Clear 7 1031 94 10000 1.54 140 23:20 15.12.2021
6419 Clear 7 1031 93 10000 1.54 140 22:21 15.12.2021
6420 Clear 7 1031 93 10000 1.54 140 22:21 15.12.2021
6421 Clear 7 1031 92 10000 1.54 150 21:44 15.12.2021
6422 Clear 7 1030 91 10000 2.57 180 21:24 15.12.2021
6423 Clear 8 1030 86 10000 2.06 190 19:54 15.12.2021
6424 Clear 9 1030 85 10000 2.06 180 19:18 15.12.2021
6425 Clear 10 1029 84 10000 0.45 297 18:20 15.12.2021
6426 Clear 10 1028 83 10000 2.06 170 17:45 15.12.2021
6427 Clouds 10 1029 84 10000 1.54 190 17:21 15.12.2021
6428 Clouds 11 1028 78 10000 3.09 220 15:49 15.12.2021
6429 Clouds 12 1027 76 10000 0.89 116 15:30 15.12.2021
6430 Clouds 12 1027 75 10000 0.89 5 14:48 15.12.2021
6431 Clear 12 1027 77 10000 0.89 132 13:34 15.12.2021
6432 Clouds 10 1027 85 10000 0.45 97 11:52 15.12.2021
6433 Clear 8 1026 90 10000 0.89 297 10:20 15.12.2021
6434 Clouds 8 1025 88 10000 0.45 277 08:25 15.12.2021
6435 Clouds 8 1025 91 10000 2.06 180 05:53 15.12.2021
6436 Clouds 9 1024 89 10000 0.89 350 00:37 15.12.2021
6437 Clouds 9 1023 89 10000 0.89 318 23:27 14.12.2021
6438 Clouds 9 1023 89 10000 1.34 309 22:44 14.12.2021
6439 Clouds 9 1023 88 10000 1.34 325 21:40 14.12.2021
6440 Clouds 9 1023 90 10000 3.09 200 20:21 14.12.2021
6441 Clouds 9 1023 91 10000 4.63 240 19:26 14.12.2021
6442 Clouds 9 1023 90 10000 1.54 210 18:38 14.12.2021
6443 Clouds 9 1022 88 10000 2.06 250 17:55 14.12.2021
6444 Clouds 10 1022 89 10000 2.57 230 16:43 14.12.2021
6445 Clouds 10 1022 91 10000 2.57 200 16:21 14.12.2021
6446 Clouds 9 1022 91 10000 0.45 131 13:59 14.12.2021
6447 Mist 8 1023 88 4500 1.54 180 12:48 14.12.2021
6448 Fog 7 1023 94 300 0.89 304 11:25 14.12.2021
6449 Fog 6 1023 95 900 0.45 51 10:45 14.12.2021
6450 Mist 6 1023 94 3000 0.45 61 09:54 14.12.2021
6451 Fog 6 1022 94 1200 1.03 0 08:48 14.12.2021
6452 Fog 6 1022 94 1500 0.45 315 08:21 14.12.2021
6453 Fog 6 1022 94 550 1.54 220 06:40 14.12.2021
6454 Clouds 7 1022 94 10000 1.54 60 23:42 13.12.2021
6455 Clouds 8 1022 93 6000 1.54 40 22:18 13.12.2021
6456 Rain 8 1021 93 3600 1.03 70 21:34 13.12.2021
6457 Rain 8 1021 93 5000 0.51 0 20:51 13.12.2021
6458 Rain 8 1021 93 8000 0.51 0 20:20 13.12.2021
6459 Drizzle 8 1021 91 4600 1.54 60 19:49 13.12.2021
6460 Rain 8 1020 90 3500 1.54 290 17:27 13.12.2021
6461 Mist 8 1020 92 4000 0.51 0 16:24 13.12.2021
6462 Rain 9 1019 92 5000 0.51 230 15:43 13.12.2021
6463 Rain 9 1020 85 5000 1.54 300 13:57 13.12.2021
6464 Clouds 9 1019 82 10000 1.03 0 13:31 13.12.2021
6465 Clouds 9 1019 82 10000 1.03 0 12:39 13.12.2021
6466 Clouds 9 1020 82 10000 1.03 10 11:43 13.12.2021
6467 Clouds 9 1020 86 10000 1.54 20 11:24 13.12.2021
6468 Rain 9 1019 84 10000 1.54 310 10:21 13.12.2021
6469 Clouds 9 1018 82 10000 2.06 300 08:31 13.12.2021
6470 Clouds 10 1016 85 10000 0.89 113 05:37 13.12.2021
6471 Clouds 11 1015 86 10000 0.89 359 03:57 13.12.2021
6472 Clouds 11 1015 83 10000 3.09 190 23:43 12.12.2021
6473 Clouds 12 1014 78 10000 2.68 58 21:56 12.12.2021
6474 Clouds 12 1015 84 10000 3.6 200 20:46 12.12.2021
6475 Clouds 12 1016 89 10000 3.6 200 19:33 12.12.2021
6476 Clouds 12 1014 89 10000 2.24 315 17:54 12.12.2021
6477 Clouds 13 1014 85 10000 1.79 315 16:29 12.12.2021
6478 Clouds 13 1014 84 10000 1.79 325 15:53 12.12.2021
6479 Clouds 13 1014 84 10000 1.34 315 15:28 12.12.2021
6480 Clouds 13 1014 83 10000 1.79 290 14:38 12.12.2021
6481 Clouds 13 1015 87 10000 0.89 304 13:43 12.12.2021
6482 Clouds 13 1015 93 10000 1.34 276 12:37 12.12.2021
6483 Clouds 12 1015 94 10000 1.34 303 11:45 12.12.2021
6484 Clouds 12 1015 94 10000 0.89 257 11:25 12.12.2021
6485 Clouds 11 1014 94 10000 0.89 344 10:39 12.12.2021
6486 Drizzle 11 1014 93 8000 2.06 190 09:45 12.12.2021
6487 Drizzle 10 1013 95 4100 0.51 0 08:38 12.12.2021
6488 Clouds 10 1013 95 1200 1.03 200 06:34 12.12.2021
6489 Drizzle 10 1012 95 1700 0.51 0 05:27 12.12.2021
6490 Clouds 11 1012 95 2900 0.89 127 03:58 12.12.2021
6491 Clouds 11 1011 92 10000 1.34 292 00:36 12.12.2021
6492 Rain 10 1010 91 10000 0.89 315 22:24 11.12.2021
6493 Clouds 10 1010 91 10000 0.89 288 21:52 11.12.2021
6494 Clouds 10 1010 93 10000 0.89 292 21:21 11.12.2021
6495 Clouds 9 1009 91 10000 1.34 315 19:37 11.12.2021
6496 Clouds 8 1009 91 10000 1.34 323 18:53 11.12.2021
6497 Clouds 8 1009 91 10000 0.89 324 18:30 11.12.2021
6498 Rain 8 1010 90 6000 1.79 283 17:37 11.12.2021
6499 Rain 7 1010 88 10000 1.79 325 15:55 11.12.2021
6500 Clouds 7 1011 92 10000 3.09 180 15:35 11.12.2021
6501 Clouds 7 1011 86 10000 1.34 315 13:21 11.12.2021
6502 Clouds 6 1012 89 10000 0.45 315 11:46 11.12.2021
6503 Clouds 5 1012 93 10000 1.54 150 09:47 11.12.2021
6504 Clouds 4 1012 93 10000 1.03 0 09:18 11.12.2021
6505 Clouds 4 1010 94 10000 0.45 315 02:40 11.12.2021
6506 Clouds 4 1008 91 10000 2.06 230 00:40 11.12.2021
6507 Clouds 4 1008 90 10000 2.57 220 23:24 10.12.2021
6508 Clouds 4 1007 90 10000 2.57 250 21:57 10.12.2021
6509 Clouds 4 1006 90 10000 2.57 250 21:36 10.12.2021
6510 Clouds 5 1005 87 10000 0.45 115 19:22 10.12.2021
6511 Clouds 5 1004 86 10000 0.45 182 18:39 10.12.2021
6512 Clouds 5 1002 85 10000 0.45 135 16:57 10.12.2021
6513 Rain 5 1002 85 10000 1.34 143 16:29 10.12.2021
6514 Rain 6 1001 83 10000 1.34 84 15:41 10.12.2021
6515 Clouds 6 1001 81 10000 1.34 206 15:21 10.12.2021
6516 Clouds 6 1000 86 10000 1.34 161 13:52 10.12.2021
6517 Clouds 6 999 84 10000 0.89 180 13:26 10.12.2021
6518 Clouds 6 999 86 10000 1.34 124 12:47 10.12.2021
6519 Clouds 5 998 89 10000 0.45 144 11:30 10.12.2021
6520 Clouds 5 997 89 10000 0.89 64 10:38 10.12.2021
6521 Clouds 4 996 87 10000 0.89 186 09:19 10.12.2021
6522 Clouds 4 993 87 10000 0.89 186 06:59 10.12.2021
6523 Clouds 6 990 81 10000 1.79 106 02:50 10.12.2021
6524 Clouds 7 989 89 10000 1.34 119 00:57 10.12.2021
6525 Clouds 7 988 92 10000 0.45 124 23:37 09.12.2021
6526 Clouds 7 989 94 9000 0.45 180 22:40 09.12.2021
6527 Clouds 7 989 94 5000 0.89 127 22:19 09.12.2021
6528 Clouds 6 989 92 10000 1.34 333 21:20 09.12.2021
6529 Clouds 6 991 93 6000 3.09 170 20:29 09.12.2021
6530 Rain 6 992 90 10000 3.09 160 19:22 09.12.2021
6531 Clouds 6 991 91 9000 0.45 336 18:49 09.12.2021
6532 Rain 6 993 87 7000 1.34 315 17:57 09.12.2021
6533 Rain 6 993 87 7000 1.34 315 17:57 09.12.2021
6534 Rain 6 995 85 10000 2.57 150 17:27 09.12.2021
6535 Clouds 6 995 85 10000 1.54 160 16:56 09.12.2021
6536 Clouds 7 995 80 10000 1.34 319 15:57 09.12.2021
6537 Clouds 7 996 76 10000 1.34 327 14:50 09.12.2021
6538 Clouds 7 998 83 10000 0.89 322 13:25 09.12.2021
6539 Clouds 7 998 81 10000 0.89 148 12:47 09.12.2021
6540 Clouds 6 998 89 10000 0.89 122 11:24 09.12.2021
6541 Clouds 6 998 88 10000 0.89 114 09:44 09.12.2021
6542 Clouds 7 997 89 5000 1.34 107 06:51 09.12.2021
6543 Clouds 7 995 92 10000 0.89 206 03:43 09.12.2021
6544 Clouds 6 992 89 10000 1.34 169 23:45 08.12.2021
6545 Rain 6 991 91 10000 0.45 163 23:21 08.12.2021
6546 Rain 6 991 91 2900 0.89 134 22:49 08.12.2021
6547 Clouds 6 990 91 6000 0.89 116 21:46 08.12.2021
6548 Clouds 6 990 89 10000 0.89 75 21:27 08.12.2021
6549 Clouds 6 988 92 5000 0.89 202 19:59 08.12.2021
6550 Clouds 6 988 92 5000 0.89 336 19:36 08.12.2021
6551 Rain 6 987 91 6000 0.89 101 18:46 08.12.2021
6552 Clouds 6 986 89 10000 1.79 38 17:47 08.12.2021
6553 Clouds 6 984 90 10000 1.34 62 15:57 08.12.2021
6554 Clouds 6 984 88 10000 2.24 100 15:29 08.12.2021
6555 Rain 6 983 88 10000 2.68 30 14:40 08.12.2021
6556 Clouds 6 980 89 10000 2.68 100 11:36 08.12.2021
6557 Rain 6 978 90 10000 1.79 124 10:31 08.12.2021
6558 Rain 5 976 94 4500 1.34 3 09:25 08.12.2021
6559 Rain 4 974 89 6000 2.68 318 07:26 08.12.2021
6560 Clouds 5 974 87 10000 2.68 310 04:57 08.12.2021
6561 Clouds 6 973 84 10000 7.2 170 23:34 07.12.2021
6562 Clouds 6 975 79 10000 4.63 170 21:51 07.12.2021
6563 Clouds 6 974 75 10000 4.47 300 21:23 07.12.2021
6564 Clouds 6 976 76 10000 3.13 322 20:20 07.12.2021
6565 Clouds 6 979 80 10000 3.6 160 18:43 07.12.2021
6566 Clouds 6 980 85 10000 4.63 160 17:52 07.12.2021
6567 Clouds 6 980 82 10000 3.6 160 17:19 07.12.2021
6568 Clouds 6 980 86 10000 1.34 6 16:31 07.12.2021
6569 Rain 6 982 86 10000 3.13 288 15:34 07.12.2021
6570 Clouds 7 984 82 10000 2.68 290 14:23 07.12.2021
6571 Rain 6 988 82 10000 3.13 360 12:55 07.12.2021
6572 Rain 5 993 76 10000 3.13 300 11:29 07.12.2021
6573 Clouds 4 995 77 10000 1.34 302 10:33 07.12.2021
6574 Clouds 3 1001 89 10000 2.57 140 08:26 07.12.2021
6575 Clouds 2 1003 87 10000 1.34 327 06:20 07.12.2021
6576 Clouds 2 1003 88 10000 0.45 330 05:37 07.12.2021
6577 Clouds 4 1004 88 10000 0.45 327 23:47 06.12.2021
6578 Rain 4 1004 88 10000 1.34 102 22:57 06.12.2021
6579 Rain 4 1004 88 10000 4.63 250 22:35 06.12.2021
6580 Clouds 4 1004 87 9000 0.45 110 21:51 06.12.2021
6581 Clouds 4 1003 86 10000 0.45 63 20:33 06.12.2021
6582 Clouds 5 1003 83 10000 0.89 145 19:56 06.12.2021
6583 Clouds 5 1002 82 10000 1.34 143 19:21 06.12.2021
6584 Clouds 5 1002 84 10000 0.89 120 18:28 06.12.2021
6585 Clouds 5 1001 85 10000 5.14 240 17:40 06.12.2021
6586 Clouds 5 1001 85 10000 5.14 240 17:40 06.12.2021
6587 Clouds 6 1001 87 10000 0.45 105 16:32 06.12.2021
6588 Clouds 6 1001 91 10000 0.89 301 15:38 06.12.2021
6589 Clouds 4 1002 90 10000 0.89 286 13:46 06.12.2021
6590 Rain 4 1003 88 7000 1.34 34 12:39 06.12.2021
6591 Clouds 4 1003 86 10000 2.24 293 11:36 06.12.2021
6592 Clouds 4 1008 89 10000 2.06 180 08:46 06.12.2021
6593 Clouds 3 1009 89 10000 0.45 322 06:40 06.12.2021
6594 Clouds 4 1015 87 10000 1.54 170 22:54 05.12.2021
6595 Clouds 5 1016 85 10000 1.54 270 21:43 05.12.2021
6596 Clouds 5 1016 85 10000 1.54 320 21:19 05.12.2021
6597 Clouds 5 1015 85 10000 3.6 310 20:19 05.12.2021
6598 Clouds 5 1015 84 10000 4.12 310 19:33 05.12.2021
6599 Clouds 5 1015 84 10000 3.6 290 18:43 05.12.2021
6600 Clouds 5 1015 84 10000 3.09 300 18:19 05.12.2021
6601 Clouds 6 1014 83 10000 3.6 290 17:48 05.12.2021
6602 Clouds 6 1012 78 10000 0.89 167 16:45 05.12.2021
6603 Clouds 6 1013 80 10000 2.57 310 16:26 05.12.2021
6604 Clouds 6 1012 77 10000 2.57 320 14:49 05.12.2021
6605 Clouds 6 1011 79 10000 4.63 320 14:31 05.12.2021
6606 Clouds 6 1011 79 10000 4.63 310 13:50 05.12.2021
6607 Clouds 6 1011 79 10000 4.12 320 13:22 05.12.2021
6608 Clouds 6 1010 77 10000 4.12 330 12:31 05.12.2021
6609 Clouds 6 1010 79 10000 5.66 310 11:57 05.12.2021
6610 Clouds 5 1009 79 10000 5.66 320 10:52 05.12.2021
6611 Clouds 5 1008 78 10000 6.17 320 09:58 05.12.2021
6612 Clouds 5 1005 78 10000 0.89 198 07:33 05.12.2021
6613 Clouds 5 1000 80 10000 1.79 140 02:28 05.12.2021
6614 Rain 6 997 81 10000 2.24 142 23:31 04.12.2021
6615 Rain 6 996 81 10000 2.68 187 21:54 04.12.2021
6616 Rain 6 995 84 10000 1.34 149 20:50 04.12.2021
6617 Rain 5 994 86 10000 1.79 144 19:54 04.12.2021
6618 Rain 5 994 86 10000 2.24 150 19:31 04.12.2021
6619 Clouds 5 992 89 8000 3.13 173 17:58 04.12.2021
6620 Rain 5 992 90 8000 2.24 172 17:37 04.12.2021
6621 Rain 6 992 88 10000 2.24 153 16:48 04.12.2021
6622 Rain 6 991 88 10000 3.13 257 16:30 04.12.2021
6623 Rain 6 991 88 4800 2.68 203 15:18 04.12.2021
6624 Rain 6 993 89 10000 1.79 198 11:47 04.12.2021
6625 Rain 6 993 89 10000 2.24 26 11:29 04.12.2021
6626 Rain 5 993 89 10000 1.34 107 10:43 04.12.2021
6627 Clouds 5 993 86 10000 1.79 171 08:46 04.12.2021
6628 Clouds 5 994 91 10000 2.57 250 06:24 04.12.2021
6629 Rain 6 994 92 9000 1.79 170 04:41 04.12.2021
6630 Clouds 6 996 92 10000 0.89 329 23:49 03.12.2021
6631 Clouds 6 996 92 10000 0.89 329 23:49 03.12.2021
6632 Clouds 6 997 92 10000 1.54 230 22:57 03.12.2021
6633 Clouds 6 997 92 10000 1.54 230 22:38 03.12.2021
6634 Clouds 6 998 92 10000 2.06 160 21:25 03.12.2021
6635 Clouds 7 998 92 10000 0.45 315 20:46 03.12.2021
6636 Clouds 7 998 91 10000 1.54 160 19:40 03.12.2021
6637 Clouds 7 999 89 10000 1.54 190 18:34 03.12.2021
6638 Clouds 7 999 87 10000 1.54 190 17:59 03.12.2021
6639 Clouds 8 1000 88 10000 0.45 125 14:47 03.12.2021
6640 Clouds 8 1002 92 10000 0.45 115 12:54 03.12.2021
6641 Clouds 8 1001 92 10000 3.09 240 11:38 03.12.2021
6642 Clouds 7 1001 95 10000 1.54 240 10:32 03.12.2021
6643 Drizzle 5 1001 94 5000 3.09 190 08:25 03.12.2021
6644 Drizzle 4 1001 92 3000 3.09 230 07:40 03.12.2021
6645 Rain 3 1005 90 10000 1.79 338 02:39 03.12.2021
6646 Rain 2 1008 86 10000 1.34 315 00:47 03.12.2021
6647 Rain 3 1010 80 10000 0.45 307 23:47 02.12.2021
6648 Rain 2 1011 79 10000 1.54 170 21:43 02.12.2021
6649 Rain 2 1011 79 10000 1.54 170 21:20 02.12.2021
6650 Clouds 2 1011 79 10000 0.45 315 20:38 02.12.2021
6651 Clouds 2 1013 76 10000 0.51 0 19:31 02.12.2021
6652 Clouds